<?xml version="1.0" encoding="UTF-8" standalone="no" ?>
<gpx xmlns="http://www.topografix.com/GPX/1/1" xmlns:xsi="http://www.w3.org/2001/XMLSchema-instance" xsi:schemaLocation="http://www.topografix.com/GPX/1/1 http://www.topografix.com/GPX/1/1/gpx.xsd" version="1.1" creator="VisuGPX - https://www.visugpx.com">
  <metadata>
    <name>Rando Meudon</name>
    <desc><![CDATA[Belle balade en forêt de Meudon]]></desc>
  </metadata>
  <wpt lat="48.79529" lon="2.24289">
    <ele>133</ele>
    <name><![CDATA[Pierre aux Moines - Mégalithe]]></name>
  </wpt>
  <wpt lat="48.79842" lon="2.20263">
    <ele>166.6</ele>
    <name><![CDATA[cabane avec canapé pour une pause]]></name>
  </wpt>
  <wpt lat="48.79441" lon="2.20876">
    <ele>174.9</ele>
    <name><![CDATA[Chêne des missions]]></name>
  </wpt>
  <wpt lat="48.7957" lon="2.16706">
    <ele>168.5</ele>
    <name><![CDATA[Point de vue]]></name>
  </wpt>
  <trk>
    <name><![CDATA[Rando Meudon]]></name>
    <trkseg>
      <trkpt lat="48.8042" lon="2.1885">
        <ele>142</ele>
        <time>2015-06-07T08:59:49.837Z</time>
      </trkpt>
      <trkpt lat="48.8042" lon="2.1885">
        <ele>142</ele>
        <time>2015-06-07T08:59:49.837Z</time>
      </trkpt>
      <trkpt lat="48.80424" lon="2.18862">
        <ele>145</ele>
        <time>2015-06-07T09:01:26.967Z</time>
      </trkpt>
      <trkpt lat="48.80424" lon="2.18863">
        <ele>144</ele>
        <time>2015-06-07T09:01:27.946Z</time>
      </trkpt>
      <trkpt lat="48.80428" lon="2.18874">
        <ele>145</ele>
        <time>2015-06-07T09:01:34.940Z</time>
      </trkpt>
      <trkpt lat="48.80429" lon="2.18876">
        <ele>143</ele>
        <time>2015-06-07T09:01:35.940Z</time>
      </trkpt>
      <trkpt lat="48.80433" lon="2.18886">
        <ele>146</ele>
        <time>2015-06-07T09:01:40.952Z</time>
      </trkpt>
      <trkpt lat="48.80434" lon="2.18887">
        <ele>146</ele>
        <time>2015-06-07T09:01:41.941Z</time>
      </trkpt>
      <trkpt lat="48.8044" lon="2.18894">
        <ele>150</ele>
        <time>2015-06-07T09:01:47.010Z</time>
      </trkpt>
      <trkpt lat="48.80441" lon="2.18896">
        <ele>149</ele>
        <time>2015-06-07T09:01:47.947Z</time>
      </trkpt>
      <trkpt lat="48.80443" lon="2.18899">
        <ele>149</ele>
        <time>2015-06-07T09:01:50.415Z</time>
      </trkpt>
      <trkpt lat="48.80547" lon="2.19157">
        <ele>145</ele>
        <time>2015-06-07T09:04:57.449Z</time>
      </trkpt>
      <trkpt lat="48.80539" lon="2.19165">
        <ele>132</ele>
        <time>2015-06-07T09:05:04.601Z</time>
      </trkpt>
      <trkpt lat="48.80542" lon="2.19152">
        <ele>162</ele>
        <time>2015-06-07T09:05:05.597Z</time>
      </trkpt>
      <trkpt lat="48.8054" lon="2.19165">
        <ele>161</ele>
        <time>2015-06-07T09:05:11.383Z</time>
      </trkpt>
      <trkpt lat="48.8054" lon="2.19167">
        <ele>160</ele>
        <time>2015-06-07T09:05:12.336Z</time>
      </trkpt>
      <trkpt lat="48.80538" lon="2.19179">
        <ele>162</ele>
        <time>2015-06-07T09:05:19.347Z</time>
      </trkpt>
      <trkpt lat="48.80537" lon="2.19181">
        <ele>164</ele>
        <time>2015-06-07T09:05:20.338Z</time>
      </trkpt>
      <trkpt lat="48.80531" lon="2.1919">
        <ele>167</ele>
        <time>2015-06-07T09:05:30.432Z</time>
      </trkpt>
      <trkpt lat="48.8053" lon="2.1919">
        <ele>167</ele>
        <time>2015-06-07T09:05:31.429Z</time>
      </trkpt>
      <trkpt lat="48.80526" lon="2.192">
        <ele>170</ele>
        <time>2015-06-07T09:05:40.339Z</time>
      </trkpt>
      <trkpt lat="48.80525" lon="2.19202">
        <ele>170</ele>
        <time>2015-06-07T09:05:41.342Z</time>
      </trkpt>
      <trkpt lat="48.80521" lon="2.19214">
        <ele>175</ele>
        <time>2015-06-07T09:05:52.342Z</time>
      </trkpt>
      <trkpt lat="48.8052" lon="2.19214">
        <ele>173</ele>
        <time>2015-06-07T09:05:53.336Z</time>
      </trkpt>
      <trkpt lat="48.80515" lon="2.19224">
        <ele>175</ele>
        <time>2015-06-07T09:06:00.370Z</time>
      </trkpt>
      <trkpt lat="48.80514" lon="2.19225">
        <ele>176</ele>
        <time>2015-06-07T09:06:01.337Z</time>
      </trkpt>
      <trkpt lat="48.80508" lon="2.19234">
        <ele>174</ele>
        <time>2015-06-07T09:06:08.394Z</time>
      </trkpt>
      <trkpt lat="48.80507" lon="2.19235">
        <ele>174</ele>
        <time>2015-06-07T09:06:09.437Z</time>
      </trkpt>
      <trkpt lat="48.80502" lon="2.19246">
        <ele>173</ele>
        <time>2015-06-07T09:06:17.359Z</time>
      </trkpt>
      <trkpt lat="48.80501" lon="2.19247">
        <ele>173</ele>
        <time>2015-06-07T09:06:18.421Z</time>
      </trkpt>
      <trkpt lat="48.80497" lon="2.19258">
        <ele>176</ele>
        <time>2015-06-07T09:06:25.381Z</time>
      </trkpt>
      <trkpt lat="48.80496" lon="2.19259">
        <ele>176</ele>
        <time>2015-06-07T09:06:26.382Z</time>
      </trkpt>
      <trkpt lat="48.8049" lon="2.19269">
        <ele>179</ele>
        <time>2015-06-07T09:06:34.339Z</time>
      </trkpt>
      <trkpt lat="48.8049" lon="2.1927">
        <ele>178</ele>
        <time>2015-06-07T09:06:35.335Z</time>
      </trkpt>
      <trkpt lat="48.80485" lon="2.1928">
        <ele>181</ele>
        <time>2015-06-07T09:06:42.347Z</time>
      </trkpt>
      <trkpt lat="48.80485" lon="2.19282">
        <ele>181</ele>
        <time>2015-06-07T09:06:43.335Z</time>
      </trkpt>
      <trkpt lat="48.80477" lon="2.19289">
        <ele>178</ele>
        <time>2015-06-07T09:06:52.332Z</time>
      </trkpt>
      <trkpt lat="48.80476" lon="2.1929">
        <ele>179</ele>
        <time>2015-06-07T09:06:53.334Z</time>
      </trkpt>
      <trkpt lat="48.8047" lon="2.19298">
        <ele>181</ele>
        <time>2015-06-07T09:07:01.421Z</time>
      </trkpt>
      <trkpt lat="48.8047" lon="2.193">
        <ele>181</ele>
        <time>2015-06-07T09:07:02.396Z</time>
      </trkpt>
      <trkpt lat="48.80463" lon="2.19307">
        <ele>184</ele>
        <time>2015-06-07T09:07:09.368Z</time>
      </trkpt>
      <trkpt lat="48.80462" lon="2.19308">
        <ele>184</ele>
        <time>2015-06-07T09:07:10.345Z</time>
      </trkpt>
      <trkpt lat="48.80455" lon="2.19315">
        <ele>185</ele>
        <time>2015-06-07T09:07:18.347Z</time>
      </trkpt>
      <trkpt lat="48.80454" lon="2.19316">
        <ele>185</ele>
        <time>2015-06-07T09:07:19.355Z</time>
      </trkpt>
      <trkpt lat="48.80447" lon="2.19324">
        <ele>188</ele>
        <time>2015-06-07T09:07:28.443Z</time>
      </trkpt>
      <trkpt lat="48.80445" lon="2.19324">
        <ele>180</ele>
        <time>2015-06-07T09:07:29.425Z</time>
      </trkpt>
      <trkpt lat="48.80439" lon="2.19333">
        <ele>187</ele>
        <time>2015-06-07T09:07:39.397Z</time>
      </trkpt>
      <trkpt lat="48.80438" lon="2.19333">
        <ele>186</ele>
        <time>2015-06-07T09:07:40.355Z</time>
      </trkpt>
      <trkpt lat="48.80433" lon="2.19344">
        <ele>185</ele>
        <time>2015-06-07T09:07:49.345Z</time>
      </trkpt>
      <trkpt lat="48.80432" lon="2.19346">
        <ele>186</ele>
        <time>2015-06-07T09:07:50.454Z</time>
      </trkpt>
      <trkpt lat="48.80429" lon="2.19358">
        <ele>191</ele>
        <time>2015-06-07T09:07:59.413Z</time>
      </trkpt>
      <trkpt lat="48.80428" lon="2.19359">
        <ele>191</ele>
        <time>2015-06-07T09:08:00.346Z</time>
      </trkpt>
      <trkpt lat="48.80427" lon="2.19372">
        <ele>186</ele>
        <time>2015-06-07T09:08:08.342Z</time>
      </trkpt>
      <trkpt lat="48.80427" lon="2.19373">
        <ele>185</ele>
        <time>2015-06-07T09:08:09.384Z</time>
      </trkpt>
      <trkpt lat="48.80421" lon="2.19384">
        <ele>189</ele>
        <time>2015-06-07T09:08:17.375Z</time>
      </trkpt>
      <trkpt lat="48.80421" lon="2.19385">
        <ele>189</ele>
        <time>2015-06-07T09:08:18.334Z</time>
      </trkpt>
      <trkpt lat="48.80422" lon="2.19398">
        <ele>191</ele>
        <time>2015-06-07T09:09:01.332Z</time>
      </trkpt>
      <trkpt lat="48.80422" lon="2.19399">
        <ele>190</ele>
        <time>2015-06-07T09:09:02.332Z</time>
      </trkpt>
      <trkpt lat="48.8042" lon="2.19412">
        <ele>189</ele>
        <time>2015-06-07T09:09:11.334Z</time>
      </trkpt>
      <trkpt lat="48.8042" lon="2.19413">
        <ele>189</ele>
        <time>2015-06-07T09:09:12.337Z</time>
      </trkpt>
      <trkpt lat="48.80425" lon="2.19424">
        <ele>186</ele>
        <time>2015-06-07T09:09:20.334Z</time>
      </trkpt>
      <trkpt lat="48.80425" lon="2.19426">
        <ele>187</ele>
        <time>2015-06-07T09:09:21.332Z</time>
      </trkpt>
      <trkpt lat="48.80431" lon="2.19435">
        <ele>188</ele>
        <time>2015-06-07T09:09:29.332Z</time>
      </trkpt>
      <trkpt lat="48.80433" lon="2.19436">
        <ele>189</ele>
        <time>2015-06-07T09:09:30.338Z</time>
      </trkpt>
      <trkpt lat="48.8044" lon="2.1944">
        <ele>191</ele>
        <time>2015-06-07T09:09:36.332Z</time>
      </trkpt>
      <trkpt lat="48.80441" lon="2.19441">
        <ele>191</ele>
        <time>2015-06-07T09:09:37.332Z</time>
      </trkpt>
      <trkpt lat="48.8045" lon="2.1944">
        <ele>193</ele>
        <time>2015-06-07T09:09:56.331Z</time>
      </trkpt>
      <trkpt lat="48.8045" lon="2.1944">
        <ele>193</ele>
        <time>2015-06-07T09:09:57.334Z</time>
      </trkpt>
      <trkpt lat="48.80459" lon="2.19439">
        <ele>192</ele>
        <time>2015-06-07T09:10:04.332Z</time>
      </trkpt>
      <trkpt lat="48.8046" lon="2.19439">
        <ele>191</ele>
        <time>2015-06-07T09:10:05.405Z</time>
      </trkpt>
      <trkpt lat="48.80469" lon="2.19438">
        <ele>188</ele>
        <time>2015-06-07T09:10:11.334Z</time>
      </trkpt>
      <trkpt lat="48.8047" lon="2.19439">
        <ele>190</ele>
        <time>2015-06-07T09:10:12.333Z</time>
      </trkpt>
      <trkpt lat="48.80479" lon="2.19435">
        <ele>186</ele>
        <time>2015-06-07T09:10:22.339Z</time>
      </trkpt>
      <trkpt lat="48.8048" lon="2.19436">
        <ele>186</ele>
        <time>2015-06-07T09:10:23.430Z</time>
      </trkpt>
      <trkpt lat="48.80488" lon="2.19435">
        <ele>189</ele>
        <time>2015-06-07T09:10:31.370Z</time>
      </trkpt>
      <trkpt lat="48.80489" lon="2.19434">
        <ele>188</ele>
        <time>2015-06-07T09:10:32.403Z</time>
      </trkpt>
      <trkpt lat="48.80498" lon="2.19434">
        <ele>193</ele>
        <time>2015-06-07T09:10:40.473Z</time>
      </trkpt>
      <trkpt lat="48.80498" lon="2.19433">
        <ele>193</ele>
        <time>2015-06-07T09:10:41.427Z</time>
      </trkpt>
      <trkpt lat="48.80507" lon="2.19434">
        <ele>200</ele>
        <time>2015-06-07T09:10:48.380Z</time>
      </trkpt>
      <trkpt lat="48.80508" lon="2.19434">
        <ele>199</ele>
        <time>2015-06-07T09:10:49.411Z</time>
      </trkpt>
      <trkpt lat="48.80516" lon="2.19432">
        <ele>189</ele>
        <time>2015-06-07T09:10:58.448Z</time>
      </trkpt>
      <trkpt lat="48.80517" lon="2.19432">
        <ele>191</ele>
        <time>2015-06-07T09:10:59.369Z</time>
      </trkpt>
      <trkpt lat="48.80525" lon="2.19431">
        <ele>188</ele>
        <time>2015-06-07T09:11:04.331Z</time>
      </trkpt>
      <trkpt lat="48.80527" lon="2.19432">
        <ele>187</ele>
        <time>2015-06-07T09:11:05.335Z</time>
      </trkpt>
      <trkpt lat="48.80535" lon="2.19434">
        <ele>189</ele>
        <time>2015-06-07T09:11:10.331Z</time>
      </trkpt>
      <trkpt lat="48.80537" lon="2.19433">
        <ele>190</ele>
        <time>2015-06-07T09:11:11.335Z</time>
      </trkpt>
      <trkpt lat="48.80543" lon="2.19441">
        <ele>188</ele>
        <time>2015-06-07T09:11:23.331Z</time>
      </trkpt>
      <trkpt lat="48.80544" lon="2.19442">
        <ele>188</ele>
        <time>2015-06-07T09:11:24.332Z</time>
      </trkpt>
      <trkpt lat="48.80549" lon="2.19453">
        <ele>187</ele>
        <time>2015-06-07T09:11:35.410Z</time>
      </trkpt>
      <trkpt lat="48.80549" lon="2.19454">
        <ele>187</ele>
        <time>2015-06-07T09:11:36.371Z</time>
      </trkpt>
      <trkpt lat="48.80557" lon="2.19461">
        <ele>190</ele>
        <time>2015-06-07T09:11:46.363Z</time>
      </trkpt>
      <trkpt lat="48.80557" lon="2.19462">
        <ele>190</ele>
        <time>2015-06-07T09:11:47.379Z</time>
      </trkpt>
      <trkpt lat="48.80564" lon="2.19469">
        <ele>188</ele>
        <time>2015-06-07T09:11:55.366Z</time>
      </trkpt>
      <trkpt lat="48.80566" lon="2.1947">
        <ele>188</ele>
        <time>2015-06-07T09:11:56.366Z</time>
      </trkpt>
      <trkpt lat="48.80571" lon="2.19479">
        <ele>186</ele>
        <time>2015-06-07T09:12:07.374Z</time>
      </trkpt>
      <trkpt lat="48.80571" lon="2.1948">
        <ele>186</ele>
        <time>2015-06-07T09:12:08.362Z</time>
      </trkpt>
      <trkpt lat="48.80576" lon="2.1949">
        <ele>187</ele>
        <time>2015-06-07T09:12:16.392Z</time>
      </trkpt>
      <trkpt lat="48.80578" lon="2.1949">
        <ele>187</ele>
        <time>2015-06-07T09:12:17.446Z</time>
      </trkpt>
      <trkpt lat="48.80585" lon="2.19495">
        <ele>188</ele>
        <time>2015-06-07T09:12:23.436Z</time>
      </trkpt>
      <trkpt lat="48.80586" lon="2.19497">
        <ele>189</ele>
        <time>2015-06-07T09:12:24.479Z</time>
      </trkpt>
      <trkpt lat="48.80593" lon="2.19503">
        <ele>184</ele>
        <time>2015-06-07T09:12:30.403Z</time>
      </trkpt>
      <trkpt lat="48.80594" lon="2.19504">
        <ele>182</ele>
        <time>2015-06-07T09:12:31.381Z</time>
      </trkpt>
      <trkpt lat="48.806" lon="2.19512">
        <ele>180</ele>
        <time>2015-06-07T09:12:38.358Z</time>
      </trkpt>
      <trkpt lat="48.80601" lon="2.19514">
        <ele>180</ele>
        <time>2015-06-07T09:12:39.371Z</time>
      </trkpt>
      <trkpt lat="48.80607" lon="2.19523">
        <ele>181</ele>
        <time>2015-06-07T09:12:49.333Z</time>
      </trkpt>
      <trkpt lat="48.80607" lon="2.19524">
        <ele>181</ele>
        <time>2015-06-07T09:12:50.331Z</time>
      </trkpt>
      <trkpt lat="48.80603" lon="2.19536">
        <ele>176</ele>
        <time>2015-06-07T09:13:06.332Z</time>
      </trkpt>
      <trkpt lat="48.80602" lon="2.19536">
        <ele>177</ele>
        <time>2015-06-07T09:13:07.335Z</time>
      </trkpt>
      <trkpt lat="48.80595" lon="2.19544">
        <ele>178</ele>
        <time>2015-06-07T09:13:16.333Z</time>
      </trkpt>
      <trkpt lat="48.80594" lon="2.19544">
        <ele>178</ele>
        <time>2015-06-07T09:13:17.340Z</time>
      </trkpt>
      <trkpt lat="48.80587" lon="2.1955">
        <ele>180</ele>
        <time>2015-06-07T09:13:26.331Z</time>
      </trkpt>
      <trkpt lat="48.80586" lon="2.19551">
        <ele>180</ele>
        <time>2015-06-07T09:13:27.355Z</time>
      </trkpt>
      <trkpt lat="48.80578" lon="2.19557">
        <ele>184</ele>
        <time>2015-06-07T09:13:35.359Z</time>
      </trkpt>
      <trkpt lat="48.80577" lon="2.19558">
        <ele>186</ele>
        <time>2015-06-07T09:13:36.365Z</time>
      </trkpt>
      <trkpt lat="48.80572" lon="2.19567">
        <ele>186</ele>
        <time>2015-06-07T09:13:42.590Z</time>
      </trkpt>
      <trkpt lat="48.80571" lon="2.19568">
        <ele>188</ele>
        <time>2015-06-07T09:13:43.481Z</time>
      </trkpt>
      <trkpt lat="48.8057" lon="2.19581">
        <ele>194</ele>
        <time>2015-06-07T09:13:51.420Z</time>
      </trkpt>
      <trkpt lat="48.8057" lon="2.19583">
        <ele>192</ele>
        <time>2015-06-07T09:13:52.455Z</time>
      </trkpt>
      <trkpt lat="48.80563" lon="2.19591">
        <ele>193</ele>
        <time>2015-06-07T09:13:59.386Z</time>
      </trkpt>
      <trkpt lat="48.80562" lon="2.19592">
        <ele>192</ele>
        <time>2015-06-07T09:14:00.386Z</time>
      </trkpt>
      <trkpt lat="48.80554" lon="2.19599">
        <ele>194</ele>
        <time>2015-06-07T09:14:06.365Z</time>
      </trkpt>
      <trkpt lat="48.80554" lon="2.196">
        <ele>193</ele>
        <time>2015-06-07T09:14:07.363Z</time>
      </trkpt>
      <trkpt lat="48.80547" lon="2.19608">
        <ele>191</ele>
        <time>2015-06-07T09:14:13.387Z</time>
      </trkpt>
      <trkpt lat="48.80545" lon="2.19608">
        <ele>192</ele>
        <time>2015-06-07T09:14:14.362Z</time>
      </trkpt>
      <trkpt lat="48.80537" lon="2.19613">
        <ele>188</ele>
        <time>2015-06-07T09:14:20.366Z</time>
      </trkpt>
      <trkpt lat="48.80536" lon="2.19614">
        <ele>187</ele>
        <time>2015-06-07T09:14:21.437Z</time>
      </trkpt>
      <trkpt lat="48.80528" lon="2.19619">
        <ele>187</ele>
        <time>2015-06-07T09:14:27.364Z</time>
      </trkpt>
      <trkpt lat="48.80528" lon="2.19621">
        <ele>188</ele>
        <time>2015-06-07T09:14:28.360Z</time>
      </trkpt>
      <trkpt lat="48.80521" lon="2.19629">
        <ele>190</ele>
        <time>2015-06-07T09:14:38.477Z</time>
      </trkpt>
      <trkpt lat="48.8052" lon="2.19631">
        <ele>190</ele>
        <time>2015-06-07T09:14:39.413Z</time>
      </trkpt>
      <trkpt lat="48.80517" lon="2.19643">
        <ele>192</ele>
        <time>2015-06-07T09:14:46.339Z</time>
      </trkpt>
      <trkpt lat="48.80517" lon="2.19645">
        <ele>193</ele>
        <time>2015-06-07T09:14:47.348Z</time>
      </trkpt>
      <trkpt lat="48.80514" lon="2.19657">
        <ele>192</ele>
        <time>2015-06-07T09:14:58.341Z</time>
      </trkpt>
      <trkpt lat="48.80514" lon="2.19657">
        <ele>192</ele>
        <time>2015-06-07T09:14:59.344Z</time>
      </trkpt>
      <trkpt lat="48.80506" lon="2.19663">
        <ele>192</ele>
        <time>2015-06-07T09:15:27.339Z</time>
      </trkpt>
      <trkpt lat="48.80506" lon="2.19664">
        <ele>192</ele>
        <time>2015-06-07T09:15:28.342Z</time>
      </trkpt>
      <trkpt lat="48.805" lon="2.19675">
        <ele>187</ele>
        <time>2015-06-07T09:15:37.346Z</time>
      </trkpt>
      <trkpt lat="48.805" lon="2.19676">
        <ele>187</ele>
        <time>2015-06-07T09:15:38.349Z</time>
      </trkpt>
      <trkpt lat="48.80494" lon="2.19685">
        <ele>182</ele>
        <time>2015-06-07T09:15:45.343Z</time>
      </trkpt>
      <trkpt lat="48.80493" lon="2.19686">
        <ele>183</ele>
        <time>2015-06-07T09:15:46.419Z</time>
      </trkpt>
      <trkpt lat="48.80487" lon="2.19694">
        <ele>185</ele>
        <time>2015-06-07T09:15:52.404Z</time>
      </trkpt>
      <trkpt lat="48.80486" lon="2.19696">
        <ele>186</ele>
        <time>2015-06-07T09:15:53.420Z</time>
      </trkpt>
      <trkpt lat="48.80482" lon="2.19706">
        <ele>188</ele>
        <time>2015-06-07T09:15:59.348Z</time>
      </trkpt>
      <trkpt lat="48.80481" lon="2.19708">
        <ele>188</ele>
        <time>2015-06-07T09:16:00.345Z</time>
      </trkpt>
      <trkpt lat="48.80478" lon="2.1972">
        <ele>190</ele>
        <time>2015-06-07T09:16:07.340Z</time>
      </trkpt>
      <trkpt lat="48.80477" lon="2.19721">
        <ele>191</ele>
        <time>2015-06-07T09:16:08.343Z</time>
      </trkpt>
      <trkpt lat="48.80474" lon="2.19734">
        <ele>193</ele>
        <time>2015-06-07T09:16:17.387Z</time>
      </trkpt>
      <trkpt lat="48.80474" lon="2.19735">
        <ele>193</ele>
        <time>2015-06-07T09:16:18.384Z</time>
      </trkpt>
      <trkpt lat="48.80468" lon="2.19744">
        <ele>195</ele>
        <time>2015-06-07T09:16:25.348Z</time>
      </trkpt>
      <trkpt lat="48.80467" lon="2.19745">
        <ele>195</ele>
        <time>2015-06-07T09:16:27.050Z</time>
      </trkpt>
      <trkpt lat="48.80458" lon="2.19746">
        <ele>192</ele>
        <time>2015-06-07T09:16:51.340Z</time>
      </trkpt>
      <trkpt lat="48.80458" lon="2.19746">
        <ele>192</ele>
        <time>2015-06-07T09:16:52.436Z</time>
      </trkpt>
      <trkpt lat="48.80454" lon="2.19756">
        <ele>192</ele>
        <time>2015-06-07T09:18:43.432Z</time>
      </trkpt>
      <trkpt lat="48.80454" lon="2.19758">
        <ele>193</ele>
        <time>2015-06-07T09:18:44.342Z</time>
      </trkpt>
      <trkpt lat="48.80454" lon="2.19771">
        <ele>194</ele>
        <time>2015-06-07T09:18:51.342Z</time>
      </trkpt>
      <trkpt lat="48.80454" lon="2.19773">
        <ele>194</ele>
        <time>2015-06-07T09:18:52.369Z</time>
      </trkpt>
      <trkpt lat="48.80452" lon="2.19784">
        <ele>196</ele>
        <time>2015-06-07T09:19:00.418Z</time>
      </trkpt>
      <trkpt lat="48.80451" lon="2.19786">
        <ele>194</ele>
        <time>2015-06-07T09:19:01.469Z</time>
      </trkpt>
      <trkpt lat="48.80447" lon="2.19795">
        <ele>185</ele>
        <time>2015-06-07T09:19:10.375Z</time>
      </trkpt>
      <trkpt lat="48.80446" lon="2.19796">
        <ele>184</ele>
        <time>2015-06-07T09:19:11.402Z</time>
      </trkpt>
      <trkpt lat="48.8044" lon="2.19806">
        <ele>186</ele>
        <time>2015-06-07T09:19:18.449Z</time>
      </trkpt>
      <trkpt lat="48.80439" lon="2.19807">
        <ele>186</ele>
        <time>2015-06-07T09:19:19.384Z</time>
      </trkpt>
      <trkpt lat="48.80433" lon="2.19818">
        <ele>192</ele>
        <time>2015-06-07T09:19:27.394Z</time>
      </trkpt>
      <trkpt lat="48.80432" lon="2.1982">
        <ele>192</ele>
        <time>2015-06-07T09:19:28.340Z</time>
      </trkpt>
      <trkpt lat="48.80434" lon="2.19832">
        <ele>194</ele>
        <time>2015-06-07T09:19:37.340Z</time>
      </trkpt>
      <trkpt lat="48.80435" lon="2.19833">
        <ele>191</ele>
        <time>2015-06-07T09:19:38.344Z</time>
      </trkpt>
      <trkpt lat="48.8044" lon="2.19841">
        <ele>186</ele>
        <time>2015-06-07T09:19:47.380Z</time>
      </trkpt>
      <trkpt lat="48.80441" lon="2.19843">
        <ele>187</ele>
        <time>2015-06-07T09:19:48.430Z</time>
      </trkpt>
      <trkpt lat="48.80449" lon="2.19848">
        <ele>189</ele>
        <time>2015-06-07T09:19:54.346Z</time>
      </trkpt>
      <trkpt lat="48.8045" lon="2.19849">
        <ele>189</ele>
        <time>2015-06-07T09:19:55.341Z</time>
      </trkpt>
      <trkpt lat="48.80458" lon="2.19852">
        <ele>188</ele>
        <time>2015-06-07T09:20:02.419Z</time>
      </trkpt>
      <trkpt lat="48.80459" lon="2.19852">
        <ele>188</ele>
        <time>2015-06-07T09:20:03.347Z</time>
      </trkpt>
      <trkpt lat="48.80467" lon="2.19856">
        <ele>187</ele>
        <time>2015-06-07T09:20:13.373Z</time>
      </trkpt>
      <trkpt lat="48.80468" lon="2.19856">
        <ele>186</ele>
        <time>2015-06-07T09:20:14.379Z</time>
      </trkpt>
      <trkpt lat="48.80477" lon="2.19856">
        <ele>187</ele>
        <time>2015-06-07T09:20:23.456Z</time>
      </trkpt>
      <trkpt lat="48.80477" lon="2.19856">
        <ele>187</ele>
        <time>2015-06-07T09:20:24.375Z</time>
      </trkpt>
      <trkpt lat="48.80484" lon="2.19857">
        <ele>192</ele>
        <time>2015-06-07T09:20:35.395Z</time>
      </trkpt>
      <trkpt lat="48.80486" lon="2.19858">
        <ele>191</ele>
        <time>2015-06-07T09:20:36.374Z</time>
      </trkpt>
      <trkpt lat="48.80494" lon="2.19861">
        <ele>190</ele>
        <time>2015-06-07T09:20:46.737Z</time>
      </trkpt>
      <trkpt lat="48.80496" lon="2.19861">
        <ele>189</ele>
        <time>2015-06-07T09:20:47.340Z</time>
      </trkpt>
      <trkpt lat="48.80504" lon="2.19864">
        <ele>183</ele>
        <time>2015-06-07T09:20:53.340Z</time>
      </trkpt>
      <trkpt lat="48.80505" lon="2.19864">
        <ele>181</ele>
        <time>2015-06-07T09:20:54.342Z</time>
      </trkpt>
      <trkpt lat="48.80513" lon="2.19865">
        <ele>182</ele>
        <time>2015-06-07T09:20:58.341Z</time>
      </trkpt>
      <trkpt lat="48.80514" lon="2.19865">
        <ele>183</ele>
        <time>2015-06-07T09:20:59.342Z</time>
      </trkpt>
      <trkpt lat="48.80523" lon="2.19866">
        <ele>184</ele>
        <time>2015-06-07T09:21:04.364Z</time>
      </trkpt>
      <trkpt lat="48.80524" lon="2.19866">
        <ele>182</ele>
        <time>2015-06-07T09:21:05.345Z</time>
      </trkpt>
      <trkpt lat="48.80533" lon="2.19868">
        <ele>182</ele>
        <time>2015-06-07T09:21:12.345Z</time>
      </trkpt>
      <trkpt lat="48.80534" lon="2.19868">
        <ele>182</ele>
        <time>2015-06-07T09:21:13.345Z</time>
      </trkpt>
      <trkpt lat="48.80542" lon="2.19871">
        <ele>187</ele>
        <time>2015-06-07T09:21:18.340Z</time>
      </trkpt>
      <trkpt lat="48.80544" lon="2.19872">
        <ele>187</ele>
        <time>2015-06-07T09:21:19.436Z</time>
      </trkpt>
      <trkpt lat="48.80551" lon="2.19878">
        <ele>187</ele>
        <time>2015-06-07T09:21:26.340Z</time>
      </trkpt>
      <trkpt lat="48.80553" lon="2.19879">
        <ele>187</ele>
        <time>2015-06-07T09:21:27.341Z</time>
      </trkpt>
      <trkpt lat="48.80561" lon="2.19885">
        <ele>186</ele>
        <time>2015-06-07T09:21:32.340Z</time>
      </trkpt>
      <trkpt lat="48.80562" lon="2.19885">
        <ele>184</ele>
        <time>2015-06-07T09:21:33.340Z</time>
      </trkpt>
      <trkpt lat="48.8057" lon="2.1989">
        <ele>180</ele>
        <time>2015-06-07T09:21:41.345Z</time>
      </trkpt>
      <trkpt lat="48.80571" lon="2.19891">
        <ele>183</ele>
        <time>2015-06-07T09:21:42.344Z</time>
      </trkpt>
      <trkpt lat="48.8057" lon="2.19905">
        <ele>184</ele>
        <time>2015-06-07T09:21:55.465Z</time>
      </trkpt>
      <trkpt lat="48.8057" lon="2.19906">
        <ele>183</ele>
        <time>2015-06-07T09:21:56.447Z</time>
      </trkpt>
      <trkpt lat="48.80572" lon="2.19918">
        <ele>182</ele>
        <time>2015-06-07T09:22:02.469Z</time>
      </trkpt>
      <trkpt lat="48.80573" lon="2.1992">
        <ele>181</ele>
        <time>2015-06-07T09:22:03.463Z</time>
      </trkpt>
      <trkpt lat="48.80577" lon="2.19931">
        <ele>185</ele>
        <time>2015-06-07T09:22:10.375Z</time>
      </trkpt>
      <trkpt lat="48.80578" lon="2.19933">
        <ele>184</ele>
        <time>2015-06-07T09:22:11.484Z</time>
      </trkpt>
      <trkpt lat="48.80581" lon="2.19945">
        <ele>186</ele>
        <time>2015-06-07T09:22:19.458Z</time>
      </trkpt>
      <trkpt lat="48.80581" lon="2.19947">
        <ele>185</ele>
        <time>2015-06-07T09:22:20.447Z</time>
      </trkpt>
      <trkpt lat="48.80585" lon="2.19959">
        <ele>188</ele>
        <time>2015-06-07T09:22:26.370Z</time>
      </trkpt>
      <trkpt lat="48.80585" lon="2.19961">
        <ele>187</ele>
        <time>2015-06-07T09:22:27.403Z</time>
      </trkpt>
      <trkpt lat="48.80587" lon="2.19973">
        <ele>186</ele>
        <time>2015-06-07T09:22:34.369Z</time>
      </trkpt>
      <trkpt lat="48.80588" lon="2.19975">
        <ele>188</ele>
        <time>2015-06-07T09:22:35.376Z</time>
      </trkpt>
      <trkpt lat="48.8059" lon="2.19988">
        <ele>189</ele>
        <time>2015-06-07T09:22:43.488Z</time>
      </trkpt>
      <trkpt lat="48.8059" lon="2.1999">
        <ele>190</ele>
        <time>2015-06-07T09:22:44.415Z</time>
      </trkpt>
      <trkpt lat="48.80593" lon="2.2">
        <ele>189</ele>
        <time>2015-06-07T09:22:52.521Z</time>
      </trkpt>
      <trkpt lat="48.80594" lon="2.20002">
        <ele>188</ele>
        <time>2015-06-07T09:22:53.398Z</time>
      </trkpt>
      <trkpt lat="48.80596" lon="2.20015">
        <ele>187</ele>
        <time>2015-06-07T09:22:59.340Z</time>
      </trkpt>
      <trkpt lat="48.80597" lon="2.20017">
        <ele>186</ele>
        <time>2015-06-07T09:23:00.341Z</time>
      </trkpt>
      <trkpt lat="48.806" lon="2.20028">
        <ele>188</ele>
        <time>2015-06-07T09:23:05.340Z</time>
      </trkpt>
      <trkpt lat="48.806" lon="2.2003">
        <ele>188</ele>
        <time>2015-06-07T09:23:06.341Z</time>
      </trkpt>
      <trkpt lat="48.806" lon="2.20043">
        <ele>184</ele>
        <time>2015-06-07T09:23:13.341Z</time>
      </trkpt>
      <trkpt lat="48.806" lon="2.20045">
        <ele>184</ele>
        <time>2015-06-07T09:23:14.346Z</time>
      </trkpt>
      <trkpt lat="48.80597" lon="2.20057">
        <ele>184</ele>
        <time>2015-06-07T09:23:22.370Z</time>
      </trkpt>
      <trkpt lat="48.80597" lon="2.20058">
        <ele>183</ele>
        <time>2015-06-07T09:23:23.425Z</time>
      </trkpt>
      <trkpt lat="48.80595" lon="2.20071">
        <ele>184</ele>
        <time>2015-06-07T09:23:33.414Z</time>
      </trkpt>
      <trkpt lat="48.80595" lon="2.20072">
        <ele>185</ele>
        <time>2015-06-07T09:23:34.385Z</time>
      </trkpt>
      <trkpt lat="48.80596" lon="2.20084">
        <ele>187</ele>
        <time>2015-06-07T09:23:43.367Z</time>
      </trkpt>
      <trkpt lat="48.80597" lon="2.20086">
        <ele>188</ele>
        <time>2015-06-07T09:23:44.362Z</time>
      </trkpt>
      <trkpt lat="48.80595" lon="2.20099">
        <ele>190</ele>
        <time>2015-06-07T09:23:52.395Z</time>
      </trkpt>
      <trkpt lat="48.80595" lon="2.20101">
        <ele>191</ele>
        <time>2015-06-07T09:23:53.382Z</time>
      </trkpt>
      <trkpt lat="48.80597" lon="2.20114">
        <ele>194</ele>
        <time>2015-06-07T09:24:00.368Z</time>
      </trkpt>
      <trkpt lat="48.80597" lon="2.20115">
        <ele>196</ele>
        <time>2015-06-07T09:24:01.379Z</time>
      </trkpt>
      <trkpt lat="48.80601" lon="2.20127">
        <ele>194</ele>
        <time>2015-06-07T09:24:08.371Z</time>
      </trkpt>
      <trkpt lat="48.80601" lon="2.20129">
        <ele>193</ele>
        <time>2015-06-07T09:24:09.403Z</time>
      </trkpt>
      <trkpt lat="48.806" lon="2.20142">
        <ele>198</ele>
        <time>2015-06-07T09:24:20.426Z</time>
      </trkpt>
      <trkpt lat="48.806" lon="2.20144">
        <ele>197</ele>
        <time>2015-06-07T09:24:21.487Z</time>
      </trkpt>
      <trkpt lat="48.80604" lon="2.20156">
        <ele>196</ele>
        <time>2015-06-07T09:24:32.395Z</time>
      </trkpt>
      <trkpt lat="48.80604" lon="2.20157">
        <ele>196</ele>
        <time>2015-06-07T09:24:33.476Z</time>
      </trkpt>
      <trkpt lat="48.80608" lon="2.20168">
        <ele>196</ele>
        <time>2015-06-07T09:24:41.375Z</time>
      </trkpt>
      <trkpt lat="48.80609" lon="2.20169">
        <ele>196</ele>
        <time>2015-06-07T09:24:42.388Z</time>
      </trkpt>
      <trkpt lat="48.80611" lon="2.20181">
        <ele>197</ele>
        <time>2015-06-07T09:24:50.483Z</time>
      </trkpt>
      <trkpt lat="48.80611" lon="2.20183">
        <ele>198</ele>
        <time>2015-06-07T09:24:51.467Z</time>
      </trkpt>
      <trkpt lat="48.80617" lon="2.20193">
        <ele>198</ele>
        <time>2015-06-07T09:25:09.443Z</time>
      </trkpt>
      <trkpt lat="48.80617" lon="2.20194">
        <ele>197</ele>
        <time>2015-06-07T09:25:10.368Z</time>
      </trkpt>
      <trkpt lat="48.8062" lon="2.20206">
        <ele>196</ele>
        <time>2015-06-07T09:25:18.501Z</time>
      </trkpt>
      <trkpt lat="48.8062" lon="2.20208">
        <ele>194</ele>
        <time>2015-06-07T09:25:19.374Z</time>
      </trkpt>
      <trkpt lat="48.80622" lon="2.2022">
        <ele>193</ele>
        <time>2015-06-07T09:25:29.369Z</time>
      </trkpt>
      <trkpt lat="48.80623" lon="2.20221">
        <ele>192</ele>
        <time>2015-06-07T09:25:30.396Z</time>
      </trkpt>
      <trkpt lat="48.80629" lon="2.20228">
        <ele>193</ele>
        <time>2015-06-07T09:25:37.367Z</time>
      </trkpt>
      <trkpt lat="48.8063" lon="2.2023">
        <ele>194</ele>
        <time>2015-06-07T09:25:38.392Z</time>
      </trkpt>
      <trkpt lat="48.80633" lon="2.20241">
        <ele>195</ele>
        <time>2015-06-07T09:25:47.474Z</time>
      </trkpt>
      <trkpt lat="48.80633" lon="2.20243">
        <ele>195</ele>
        <time>2015-06-07T09:25:48.463Z</time>
      </trkpt>
      <trkpt lat="48.80636" lon="2.20255">
        <ele>195</ele>
        <time>2015-06-07T09:25:58.424Z</time>
      </trkpt>
      <trkpt lat="48.80637" lon="2.20256">
        <ele>195</ele>
        <time>2015-06-07T09:25:59.485Z</time>
      </trkpt>
      <trkpt lat="48.80641" lon="2.20266">
        <ele>193</ele>
        <time>2015-06-07T09:26:08.386Z</time>
      </trkpt>
      <trkpt lat="48.80642" lon="2.20267">
        <ele>194</ele>
        <time>2015-06-07T09:26:09.367Z</time>
      </trkpt>
      <trkpt lat="48.80647" lon="2.20277">
        <ele>193</ele>
        <time>2015-06-07T09:26:19.438Z</time>
      </trkpt>
      <trkpt lat="48.80647" lon="2.20278">
        <ele>194</ele>
        <time>2015-06-07T09:26:20.375Z</time>
      </trkpt>
      <trkpt lat="48.80648" lon="2.20291">
        <ele>204</ele>
        <time>2015-06-07T09:26:35.472Z</time>
      </trkpt>
      <trkpt lat="48.80649" lon="2.20292">
        <ele>203</ele>
        <time>2015-06-07T09:26:36.379Z</time>
      </trkpt>
      <trkpt lat="48.80655" lon="2.20302">
        <ele>203</ele>
        <time>2015-06-07T09:26:47.410Z</time>
      </trkpt>
      <trkpt lat="48.80656" lon="2.20302">
        <ele>204</ele>
        <time>2015-06-07T09:26:48.454Z</time>
      </trkpt>
      <trkpt lat="48.80661" lon="2.20312">
        <ele>205</ele>
        <time>2015-06-07T09:26:56.357Z</time>
      </trkpt>
      <trkpt lat="48.80662" lon="2.20313">
        <ele>204</ele>
        <time>2015-06-07T09:26:57.379Z</time>
      </trkpt>
      <trkpt lat="48.8067" lon="2.20319">
        <ele>211</ele>
        <time>2015-06-07T09:27:12.399Z</time>
      </trkpt>
      <trkpt lat="48.8067" lon="2.2032">
        <ele>210</ele>
        <time>2015-06-07T09:27:13.372Z</time>
      </trkpt>
      <trkpt lat="48.80673" lon="2.20333">
        <ele>214</ele>
        <time>2015-06-07T09:27:28.477Z</time>
      </trkpt>
      <trkpt lat="48.80673" lon="2.20333">
        <ele>214</ele>
        <time>2015-06-07T09:27:30.632Z</time>
      </trkpt>
      <trkpt lat="48.80677" lon="2.20343">
        <ele>217</ele>
        <time>2015-06-07T09:27:42.367Z</time>
      </trkpt>
      <trkpt lat="48.80678" lon="2.20344">
        <ele>217</ele>
        <time>2015-06-07T09:27:43.375Z</time>
      </trkpt>
      <trkpt lat="48.80683" lon="2.20354">
        <ele>217</ele>
        <time>2015-06-07T09:27:53.368Z</time>
      </trkpt>
      <trkpt lat="48.80684" lon="2.20355">
        <ele>217</ele>
        <time>2015-06-07T09:27:54.475Z</time>
      </trkpt>
      <trkpt lat="48.80688" lon="2.20367">
        <ele>215</ele>
        <time>2015-06-07T09:28:07.402Z</time>
      </trkpt>
      <trkpt lat="48.80688" lon="2.20367">
        <ele>215</ele>
        <time>2015-06-07T09:28:08.489Z</time>
      </trkpt>
      <trkpt lat="48.80692" lon="2.2038">
        <ele>220</ele>
        <time>2015-06-07T09:28:20.448Z</time>
      </trkpt>
      <trkpt lat="48.80692" lon="2.2038">
        <ele>220</ele>
        <time>2015-06-07T09:28:21.372Z</time>
      </trkpt>
      <trkpt lat="48.80699" lon="2.20383">
        <ele>222</ele>
        <time>2015-06-07T09:29:17.458Z</time>
      </trkpt>
      <trkpt lat="48.80701" lon="2.20385">
        <ele>223</ele>
        <time>2015-06-07T09:29:18.512Z</time>
      </trkpt>
      <trkpt lat="48.80707" lon="2.20394">
        <ele>224</ele>
        <time>2015-06-07T09:29:23.478Z</time>
      </trkpt>
      <trkpt lat="48.80708" lon="2.20396">
        <ele>223</ele>
        <time>2015-06-07T09:29:24.454Z</time>
      </trkpt>
      <trkpt lat="48.80715" lon="2.20401">
        <ele>218</ele>
        <time>2015-06-07T09:29:28.445Z</time>
      </trkpt>
      <trkpt lat="48.80716" lon="2.20403">
        <ele>216</ele>
        <time>2015-06-07T09:29:29.342Z</time>
      </trkpt>
      <trkpt lat="48.80723" lon="2.20412">
        <ele>217</ele>
        <time>2015-06-07T09:29:36.379Z</time>
      </trkpt>
      <trkpt lat="48.80724" lon="2.20412">
        <ele>217</ele>
        <time>2015-06-07T09:29:37.422Z</time>
      </trkpt>
      <trkpt lat="48.80731" lon="2.2042">
        <ele>214</ele>
        <time>2015-06-07T09:29:44.476Z</time>
      </trkpt>
      <trkpt lat="48.80731" lon="2.20421">
        <ele>217</ele>
        <time>2015-06-07T09:29:45.367Z</time>
      </trkpt>
      <trkpt lat="48.80736" lon="2.20431">
        <ele>218</ele>
        <time>2015-06-07T09:29:56.341Z</time>
      </trkpt>
      <trkpt lat="48.80737" lon="2.20432">
        <ele>219</ele>
        <time>2015-06-07T09:29:57.340Z</time>
      </trkpt>
      <trkpt lat="48.80745" lon="2.20438">
        <ele>220</ele>
        <time>2015-06-07T09:30:06.341Z</time>
      </trkpt>
      <trkpt lat="48.80746" lon="2.20438">
        <ele>219</ele>
        <time>2015-06-07T09:30:07.341Z</time>
      </trkpt>
      <trkpt lat="48.8075" lon="2.2045">
        <ele>217</ele>
        <time>2015-06-07T09:30:20.429Z</time>
      </trkpt>
      <trkpt lat="48.8075" lon="2.20451">
        <ele>218</ele>
        <time>2015-06-07T09:30:21.420Z</time>
      </trkpt>
      <trkpt lat="48.80753" lon="2.20463">
        <ele>217</ele>
        <time>2015-06-07T09:30:33.341Z</time>
      </trkpt>
      <trkpt lat="48.80754" lon="2.20464">
        <ele>219</ele>
        <time>2015-06-07T09:30:34.367Z</time>
      </trkpt>
      <trkpt lat="48.8076" lon="2.20474">
        <ele>220</ele>
        <time>2015-06-07T09:30:47.341Z</time>
      </trkpt>
      <trkpt lat="48.8076" lon="2.20475">
        <ele>220</ele>
        <time>2015-06-07T09:30:48.349Z</time>
      </trkpt>
      <trkpt lat="48.80765" lon="2.20485">
        <ele>220</ele>
        <time>2015-06-07T09:30:54.414Z</time>
      </trkpt>
      <trkpt lat="48.80766" lon="2.20487">
        <ele>220</ele>
        <time>2015-06-07T09:30:55.429Z</time>
      </trkpt>
      <trkpt lat="48.8077" lon="2.20498">
        <ele>220</ele>
        <time>2015-06-07T09:31:01.415Z</time>
      </trkpt>
      <trkpt lat="48.80771" lon="2.20499">
        <ele>219</ele>
        <time>2015-06-07T09:31:02.430Z</time>
      </trkpt>
      <trkpt lat="48.80773" lon="2.20511">
        <ele>223</ele>
        <time>2015-06-07T09:31:10.343Z</time>
      </trkpt>
      <trkpt lat="48.80774" lon="2.20512">
        <ele>223</ele>
        <time>2015-06-07T09:31:11.342Z</time>
      </trkpt>
      <trkpt lat="48.80776" lon="2.20524">
        <ele>217</ele>
        <time>2015-06-07T09:31:19.341Z</time>
      </trkpt>
      <trkpt lat="48.80776" lon="2.20526">
        <ele>216</ele>
        <time>2015-06-07T09:31:20.345Z</time>
      </trkpt>
      <trkpt lat="48.80776" lon="2.20538">
        <ele>218</ele>
        <time>2015-06-07T09:31:28.345Z</time>
      </trkpt>
      <trkpt lat="48.80777" lon="2.20539">
        <ele>219</ele>
        <time>2015-06-07T09:31:29.350Z</time>
      </trkpt>
      <trkpt lat="48.80782" lon="2.2055">
        <ele>218</ele>
        <time>2015-06-07T09:31:38.409Z</time>
      </trkpt>
      <trkpt lat="48.80783" lon="2.2055">
        <ele>217</ele>
        <time>2015-06-07T09:31:39.433Z</time>
      </trkpt>
      <trkpt lat="48.80792" lon="2.20554">
        <ele>216</ele>
        <time>2015-06-07T09:31:53.353Z</time>
      </trkpt>
      <trkpt lat="48.80792" lon="2.20556">
        <ele>217</ele>
        <time>2015-06-07T09:31:54.418Z</time>
      </trkpt>
      <trkpt lat="48.80795" lon="2.20567">
        <ele>212</ele>
        <time>2015-06-07T09:32:11.364Z</time>
      </trkpt>
      <trkpt lat="48.80796" lon="2.20569">
        <ele>212</ele>
        <time>2015-06-07T09:32:12.348Z</time>
      </trkpt>
      <trkpt lat="48.80802" lon="2.20577">
        <ele>216</ele>
        <time>2015-06-07T09:32:21.348Z</time>
      </trkpt>
      <trkpt lat="48.80803" lon="2.20577">
        <ele>215</ele>
        <time>2015-06-07T09:32:22.349Z</time>
      </trkpt>
      <trkpt lat="48.80812" lon="2.2058">
        <ele>217</ele>
        <time>2015-06-07T09:32:30.341Z</time>
      </trkpt>
      <trkpt lat="48.80813" lon="2.2058">
        <ele>218</ele>
        <time>2015-06-07T09:32:31.602Z</time>
      </trkpt>
      <trkpt lat="48.80821" lon="2.20584">
        <ele>218</ele>
        <time>2015-06-07T09:32:51.349Z</time>
      </trkpt>
      <trkpt lat="48.80822" lon="2.20585">
        <ele>218</ele>
        <time>2015-06-07T09:32:52.349Z</time>
      </trkpt>
      <trkpt lat="48.8083" lon="2.20584">
        <ele>221</ele>
        <time>2015-06-07T09:33:01.958Z</time>
      </trkpt>
      <trkpt lat="48.80831" lon="2.20585">
        <ele>221</ele>
        <time>2015-06-07T09:33:02.354Z</time>
      </trkpt>
      <trkpt lat="48.80839" lon="2.20587">
        <ele>221</ele>
        <time>2015-06-07T09:33:12.139Z</time>
      </trkpt>
      <trkpt lat="48.8084" lon="2.20587">
        <ele>220</ele>
        <time>2015-06-07T09:33:12.349Z</time>
      </trkpt>
      <trkpt lat="48.80847" lon="2.20595">
        <ele>217</ele>
        <time>2015-06-07T09:33:22.166Z</time>
      </trkpt>
      <trkpt lat="48.80849" lon="2.20597">
        <ele>219</ele>
        <time>2015-06-07T09:33:22.372Z</time>
      </trkpt>
      <trkpt lat="48.80857" lon="2.20599">
        <ele>217</ele>
        <time>2015-06-07T09:33:28.456Z</time>
      </trkpt>
      <trkpt lat="48.80858" lon="2.20599">
        <ele>218</ele>
        <time>2015-06-07T09:33:29.380Z</time>
      </trkpt>
      <trkpt lat="48.80866" lon="2.20597">
        <ele>225</ele>
        <time>2015-06-07T09:33:36.390Z</time>
      </trkpt>
      <trkpt lat="48.80867" lon="2.20598">
        <ele>225</ele>
        <time>2015-06-07T09:33:37.548Z</time>
      </trkpt>
      <trkpt lat="48.80875" lon="2.20599">
        <ele>227</ele>
        <time>2015-06-07T09:33:44.441Z</time>
      </trkpt>
      <trkpt lat="48.80876" lon="2.206">
        <ele>227</ele>
        <time>2015-06-07T09:33:45.388Z</time>
      </trkpt>
      <trkpt lat="48.80882" lon="2.2061">
        <ele>224</ele>
        <time>2015-06-07T09:33:53.349Z</time>
      </trkpt>
      <trkpt lat="48.80882" lon="2.20612">
        <ele>224</ele>
        <time>2015-06-07T09:33:54.357Z</time>
      </trkpt>
      <trkpt lat="48.80882" lon="2.20625">
        <ele>225</ele>
        <time>2015-06-07T09:34:01.349Z</time>
      </trkpt>
      <trkpt lat="48.80882" lon="2.20626">
        <ele>224</ele>
        <time>2015-06-07T09:34:02.350Z</time>
      </trkpt>
      <trkpt lat="48.8088" lon="2.2064">
        <ele>220</ele>
        <time>2015-06-07T09:34:11.383Z</time>
      </trkpt>
      <trkpt lat="48.8088" lon="2.20641">
        <ele>220</ele>
        <time>2015-06-07T09:34:12.429Z</time>
      </trkpt>
      <trkpt lat="48.80878" lon="2.20655">
        <ele>217</ele>
        <time>2015-06-07T09:34:19.447Z</time>
      </trkpt>
      <trkpt lat="48.80879" lon="2.20656">
        <ele>218</ele>
        <time>2015-06-07T09:34:20.406Z</time>
      </trkpt>
      <trkpt lat="48.80878" lon="2.20668">
        <ele>220</ele>
        <time>2015-06-07T09:34:26.349Z</time>
      </trkpt>
      <trkpt lat="48.80878" lon="2.2067">
        <ele>220</ele>
        <time>2015-06-07T09:34:27.499Z</time>
      </trkpt>
      <trkpt lat="48.80879" lon="2.20683">
        <ele>220</ele>
        <time>2015-06-07T09:34:33.352Z</time>
      </trkpt>
      <trkpt lat="48.80879" lon="2.20685">
        <ele>221</ele>
        <time>2015-06-07T09:34:34.350Z</time>
      </trkpt>
      <trkpt lat="48.8088" lon="2.20697">
        <ele>220</ele>
        <time>2015-06-07T09:34:43.445Z</time>
      </trkpt>
      <trkpt lat="48.80879" lon="2.20699">
        <ele>220</ele>
        <time>2015-06-07T09:34:44.464Z</time>
      </trkpt>
      <trkpt lat="48.80871" lon="2.20701">
        <ele>223</ele>
        <time>2015-06-07T09:34:51.349Z</time>
      </trkpt>
      <trkpt lat="48.8087" lon="2.20701">
        <ele>223</ele>
        <time>2015-06-07T09:34:52.350Z</time>
      </trkpt>
      <trkpt lat="48.80862" lon="2.20704">
        <ele>223</ele>
        <time>2015-06-07T09:35:00.349Z</time>
      </trkpt>
      <trkpt lat="48.80861" lon="2.20705">
        <ele>223</ele>
        <time>2015-06-07T09:35:01.354Z</time>
      </trkpt>
      <trkpt lat="48.80854" lon="2.20712">
        <ele>224</ele>
        <time>2015-06-07T09:35:08.390Z</time>
      </trkpt>
      <trkpt lat="48.80853" lon="2.20713">
        <ele>223</ele>
        <time>2015-06-07T09:35:09.414Z</time>
      </trkpt>
      <trkpt lat="48.80845" lon="2.20719">
        <ele>224</ele>
        <time>2015-06-07T09:35:17.376Z</time>
      </trkpt>
      <trkpt lat="48.80845" lon="2.2072">
        <ele>224</ele>
        <time>2015-06-07T09:35:18.361Z</time>
      </trkpt>
      <trkpt lat="48.80836" lon="2.20718">
        <ele>224</ele>
        <time>2015-06-07T09:35:25.497Z</time>
      </trkpt>
      <trkpt lat="48.80835" lon="2.20718">
        <ele>224</ele>
        <time>2015-06-07T09:35:26.442Z</time>
      </trkpt>
      <trkpt lat="48.80826" lon="2.20717">
        <ele>222</ele>
        <time>2015-06-07T09:35:34.369Z</time>
      </trkpt>
      <trkpt lat="48.80825" lon="2.20718">
        <ele>223</ele>
        <time>2015-06-07T09:35:35.379Z</time>
      </trkpt>
      <trkpt lat="48.80817" lon="2.20723">
        <ele>220</ele>
        <time>2015-06-07T09:35:42.382Z</time>
      </trkpt>
      <trkpt lat="48.80816" lon="2.20725">
        <ele>220</ele>
        <time>2015-06-07T09:35:43.387Z</time>
      </trkpt>
      <trkpt lat="48.80808" lon="2.20728">
        <ele>221</ele>
        <time>2015-06-07T09:35:50.441Z</time>
      </trkpt>
      <trkpt lat="48.80806" lon="2.20728">
        <ele>222</ele>
        <time>2015-06-07T09:35:51.386Z</time>
      </trkpt>
      <trkpt lat="48.808" lon="2.20737">
        <ele>223</ele>
        <time>2015-06-07T09:35:58.410Z</time>
      </trkpt>
      <trkpt lat="48.80798" lon="2.20738">
        <ele>222</ele>
        <time>2015-06-07T09:35:59.450Z</time>
      </trkpt>
      <trkpt lat="48.80791" lon="2.20745">
        <ele>222</ele>
        <time>2015-06-07T09:36:06.375Z</time>
      </trkpt>
      <trkpt lat="48.8079" lon="2.20746">
        <ele>221</ele>
        <time>2015-06-07T09:36:07.387Z</time>
      </trkpt>
      <trkpt lat="48.80782" lon="2.20749">
        <ele>224</ele>
        <time>2015-06-07T09:36:13.457Z</time>
      </trkpt>
      <trkpt lat="48.80781" lon="2.20749">
        <ele>225</ele>
        <time>2015-06-07T09:36:14.454Z</time>
      </trkpt>
      <trkpt lat="48.80772" lon="2.20753">
        <ele>225</ele>
        <time>2015-06-07T09:36:21.385Z</time>
      </trkpt>
      <trkpt lat="48.80771" lon="2.20754">
        <ele>225</ele>
        <time>2015-06-07T09:36:22.383Z</time>
      </trkpt>
      <trkpt lat="48.80763" lon="2.20753">
        <ele>227</ele>
        <time>2015-06-07T09:36:31.481Z</time>
      </trkpt>
      <trkpt lat="48.80761" lon="2.20754">
        <ele>223</ele>
        <time>2015-06-07T09:36:32.400Z</time>
      </trkpt>
      <trkpt lat="48.80754" lon="2.20758">
        <ele>229</ele>
        <time>2015-06-07T09:36:38.378Z</time>
      </trkpt>
      <trkpt lat="48.80753" lon="2.20759">
        <ele>230</ele>
        <time>2015-06-07T09:36:39.376Z</time>
      </trkpt>
      <trkpt lat="48.80745" lon="2.20765">
        <ele>235</ele>
        <time>2015-06-07T09:36:45.408Z</time>
      </trkpt>
      <trkpt lat="48.80743" lon="2.20766">
        <ele>235</ele>
        <time>2015-06-07T09:36:46.454Z</time>
      </trkpt>
      <trkpt lat="48.80736" lon="2.20771">
        <ele>235</ele>
        <time>2015-06-07T09:36:52.403Z</time>
      </trkpt>
      <trkpt lat="48.80734" lon="2.20772">
        <ele>235</ele>
        <time>2015-06-07T09:36:53.443Z</time>
      </trkpt>
      <trkpt lat="48.80727" lon="2.20778">
        <ele>235</ele>
        <time>2015-06-07T09:37:01.382Z</time>
      </trkpt>
      <trkpt lat="48.80726" lon="2.20778">
        <ele>236</ele>
        <time>2015-06-07T09:37:02.466Z</time>
      </trkpt>
      <trkpt lat="48.80718" lon="2.20782">
        <ele>237</ele>
        <time>2015-06-07T09:37:09.450Z</time>
      </trkpt>
      <trkpt lat="48.80717" lon="2.20783">
        <ele>236</ele>
        <time>2015-06-07T09:37:10.431Z</time>
      </trkpt>
      <trkpt lat="48.8071" lon="2.20788">
        <ele>236</ele>
        <time>2015-06-07T09:37:15.493Z</time>
      </trkpt>
      <trkpt lat="48.80708" lon="2.20788">
        <ele>237</ele>
        <time>2015-06-07T09:37:16.464Z</time>
      </trkpt>
      <trkpt lat="48.80699" lon="2.20789">
        <ele>238</ele>
        <time>2015-06-07T09:37:22.417Z</time>
      </trkpt>
      <trkpt lat="48.80698" lon="2.2079">
        <ele>239</ele>
        <time>2015-06-07T09:37:23.511Z</time>
      </trkpt>
      <trkpt lat="48.8069" lon="2.20795">
        <ele>235</ele>
        <time>2015-06-07T09:37:32.457Z</time>
      </trkpt>
      <trkpt lat="48.80688" lon="2.20795">
        <ele>234</ele>
        <time>2015-06-07T09:37:33.388Z</time>
      </trkpt>
      <trkpt lat="48.80681" lon="2.20798">
        <ele>235</ele>
        <time>2015-06-07T09:37:39.387Z</time>
      </trkpt>
      <trkpt lat="48.8068" lon="2.20799">
        <ele>236</ele>
        <time>2015-06-07T09:37:40.371Z</time>
      </trkpt>
      <trkpt lat="48.80671" lon="2.20801">
        <ele>233</ele>
        <time>2015-06-07T09:37:49.388Z</time>
      </trkpt>
      <trkpt lat="48.8067" lon="2.20801">
        <ele>234</ele>
        <time>2015-06-07T09:37:50.378Z</time>
      </trkpt>
      <trkpt lat="48.80661" lon="2.20802">
        <ele>231</ele>
        <time>2015-06-07T09:37:58.393Z</time>
      </trkpt>
      <trkpt lat="48.8066" lon="2.20803">
        <ele>230</ele>
        <time>2015-06-07T09:37:59.398Z</time>
      </trkpt>
      <trkpt lat="48.80653" lon="2.20809">
        <ele>232</ele>
        <time>2015-06-07T09:38:05.388Z</time>
      </trkpt>
      <trkpt lat="48.80652" lon="2.2081">
        <ele>232</ele>
        <time>2015-06-07T09:38:07.031Z</time>
      </trkpt>
      <trkpt lat="48.80646" lon="2.20818">
        <ele>233</ele>
        <time>2015-06-07T09:38:12.391Z</time>
      </trkpt>
      <trkpt lat="48.80645" lon="2.20819">
        <ele>232</ele>
        <time>2015-06-07T09:38:13.542Z</time>
      </trkpt>
      <trkpt lat="48.80636" lon="2.20819">
        <ele>232</ele>
        <time>2015-06-07T09:38:18.438Z</time>
      </trkpt>
      <trkpt lat="48.80635" lon="2.2082">
        <ele>233</ele>
        <time>2015-06-07T09:38:19.356Z</time>
      </trkpt>
      <trkpt lat="48.80627" lon="2.20826">
        <ele>235</ele>
        <time>2015-06-07T09:38:27.421Z</time>
      </trkpt>
      <trkpt lat="48.80625" lon="2.20827">
        <ele>232</ele>
        <time>2015-06-07T09:38:28.540Z</time>
      </trkpt>
      <trkpt lat="48.80618" lon="2.2083">
        <ele>232</ele>
        <time>2015-06-07T09:38:32.372Z</time>
      </trkpt>
      <trkpt lat="48.80615" lon="2.2083">
        <ele>232</ele>
        <time>2015-06-07T09:38:33.376Z</time>
      </trkpt>
      <trkpt lat="48.80607" lon="2.20835">
        <ele>234</ele>
        <time>2015-06-07T09:38:38.348Z</time>
      </trkpt>
      <trkpt lat="48.80607" lon="2.20837">
        <ele>234</ele>
        <time>2015-06-07T09:38:39.349Z</time>
      </trkpt>
      <trkpt lat="48.80602" lon="2.20848">
        <ele>233</ele>
        <time>2015-06-07T09:38:50.349Z</time>
      </trkpt>
      <trkpt lat="48.80602" lon="2.20849">
        <ele>232</ele>
        <time>2015-06-07T09:38:51.351Z</time>
      </trkpt>
      <trkpt lat="48.80594" lon="2.20853">
        <ele>233</ele>
        <time>2015-06-07T09:38:58.356Z</time>
      </trkpt>
      <trkpt lat="48.80592" lon="2.20853">
        <ele>234</ele>
        <time>2015-06-07T09:38:59.350Z</time>
      </trkpt>
      <trkpt lat="48.80584" lon="2.20857">
        <ele>233</ele>
        <time>2015-06-07T09:39:05.350Z</time>
      </trkpt>
      <trkpt lat="48.80584" lon="2.20858">
        <ele>232</ele>
        <time>2015-06-07T09:39:06.354Z</time>
      </trkpt>
      <trkpt lat="48.80575" lon="2.20861">
        <ele>231</ele>
        <time>2015-06-07T09:39:13.387Z</time>
      </trkpt>
      <trkpt lat="48.80574" lon="2.20861">
        <ele>230</ele>
        <time>2015-06-07T09:39:14.377Z</time>
      </trkpt>
      <trkpt lat="48.80566" lon="2.20862">
        <ele>233</ele>
        <time>2015-06-07T09:39:22.460Z</time>
      </trkpt>
      <trkpt lat="48.80565" lon="2.20862">
        <ele>233</ele>
        <time>2015-06-07T09:39:23.382Z</time>
      </trkpt>
      <trkpt lat="48.80556" lon="2.20863">
        <ele>233</ele>
        <time>2015-06-07T09:39:31.378Z</time>
      </trkpt>
      <trkpt lat="48.80555" lon="2.20864">
        <ele>235</ele>
        <time>2015-06-07T09:39:32.511Z</time>
      </trkpt>
      <trkpt lat="48.80547" lon="2.2087">
        <ele>229</ele>
        <time>2015-06-07T09:39:41.377Z</time>
      </trkpt>
      <trkpt lat="48.80546" lon="2.2087">
        <ele>232</ele>
        <time>2015-06-07T09:39:42.407Z</time>
      </trkpt>
      <trkpt lat="48.80538" lon="2.20868">
        <ele>239</ele>
        <time>2015-06-07T09:39:48.381Z</time>
      </trkpt>
      <trkpt lat="48.80537" lon="2.20867">
        <ele>237</ele>
        <time>2015-06-07T09:39:49.375Z</time>
      </trkpt>
      <trkpt lat="48.80529" lon="2.20873">
        <ele>237</ele>
        <time>2015-06-07T09:39:57.041Z</time>
      </trkpt>
      <trkpt lat="48.80528" lon="2.20873">
        <ele>237</ele>
        <time>2015-06-07T09:39:57.348Z</time>
      </trkpt>
      <trkpt lat="48.80519" lon="2.20875">
        <ele>238</ele>
        <time>2015-06-07T09:40:05.425Z</time>
      </trkpt>
      <trkpt lat="48.80518" lon="2.20876">
        <ele>239</ele>
        <time>2015-06-07T09:40:06.485Z</time>
      </trkpt>
      <trkpt lat="48.80511" lon="2.20878">
        <ele>239</ele>
        <time>2015-06-07T09:40:12.641Z</time>
      </trkpt>
      <trkpt lat="48.80509" lon="2.20879">
        <ele>240</ele>
        <time>2015-06-07T09:40:13.475Z</time>
      </trkpt>
      <trkpt lat="48.80502" lon="2.20881">
        <ele>239</ele>
        <time>2015-06-07T09:40:19.407Z</time>
      </trkpt>
      <trkpt lat="48.805" lon="2.20882">
        <ele>239</ele>
        <time>2015-06-07T09:40:20.362Z</time>
      </trkpt>
      <trkpt lat="48.80494" lon="2.2089">
        <ele>237</ele>
        <time>2015-06-07T09:40:29.451Z</time>
      </trkpt>
      <trkpt lat="48.80493" lon="2.2089">
        <ele>237</ele>
        <time>2015-06-07T09:40:30.385Z</time>
      </trkpt>
      <trkpt lat="48.80484" lon="2.20891">
        <ele>237</ele>
        <time>2015-06-07T09:40:37.379Z</time>
      </trkpt>
      <trkpt lat="48.80483" lon="2.20891">
        <ele>239</ele>
        <time>2015-06-07T09:40:38.387Z</time>
      </trkpt>
      <trkpt lat="48.80475" lon="2.20898">
        <ele>236</ele>
        <time>2015-06-07T09:40:47.385Z</time>
      </trkpt>
      <trkpt lat="48.80475" lon="2.20898">
        <ele>237</ele>
        <time>2015-06-07T09:40:48.392Z</time>
      </trkpt>
      <trkpt lat="48.80466" lon="2.20899">
        <ele>238</ele>
        <time>2015-06-07T09:40:53.380Z</time>
      </trkpt>
      <trkpt lat="48.80465" lon="2.209">
        <ele>237</ele>
        <time>2015-06-07T09:40:54.380Z</time>
      </trkpt>
      <trkpt lat="48.80457" lon="2.20904">
        <ele>235</ele>
        <time>2015-06-07T09:41:00.401Z</time>
      </trkpt>
      <trkpt lat="48.80455" lon="2.20905">
        <ele>236</ele>
        <time>2015-06-07T09:41:01.381Z</time>
      </trkpt>
      <trkpt lat="48.80447" lon="2.20907">
        <ele>236</ele>
        <time>2015-06-07T09:41:08.386Z</time>
      </trkpt>
      <trkpt lat="48.80446" lon="2.20908">
        <ele>237</ele>
        <time>2015-06-07T09:41:09.377Z</time>
      </trkpt>
      <trkpt lat="48.80438" lon="2.20914">
        <ele>239</ele>
        <time>2015-06-07T09:41:16.391Z</time>
      </trkpt>
      <trkpt lat="48.80437" lon="2.20914">
        <ele>241</ele>
        <time>2015-06-07T09:41:17.482Z</time>
      </trkpt>
      <trkpt lat="48.80429" lon="2.2092">
        <ele>238</ele>
        <time>2015-06-07T09:41:25.385Z</time>
      </trkpt>
      <trkpt lat="48.80428" lon="2.20921">
        <ele>238</ele>
        <time>2015-06-07T09:41:26.427Z</time>
      </trkpt>
      <trkpt lat="48.8042" lon="2.20925">
        <ele>241</ele>
        <time>2015-06-07T09:41:33.415Z</time>
      </trkpt>
      <trkpt lat="48.80419" lon="2.20925">
        <ele>240</ele>
        <time>2015-06-07T09:41:34.489Z</time>
      </trkpt>
      <trkpt lat="48.80411" lon="2.20929">
        <ele>237</ele>
        <time>2015-06-07T09:41:42.405Z</time>
      </trkpt>
      <trkpt lat="48.8041" lon="2.2093">
        <ele>238</ele>
        <time>2015-06-07T09:41:43.371Z</time>
      </trkpt>
      <trkpt lat="48.80402" lon="2.20934">
        <ele>236</ele>
        <time>2015-06-07T09:41:49.377Z</time>
      </trkpt>
      <trkpt lat="48.80401" lon="2.20935">
        <ele>236</ele>
        <time>2015-06-07T09:41:50.351Z</time>
      </trkpt>
      <trkpt lat="48.80394" lon="2.20942">
        <ele>238</ele>
        <time>2015-06-07T09:41:57.395Z</time>
      </trkpt>
      <trkpt lat="48.80393" lon="2.20943">
        <ele>239</ele>
        <time>2015-06-07T09:41:58.438Z</time>
      </trkpt>
      <trkpt lat="48.80386" lon="2.20949">
        <ele>239</ele>
        <time>2015-06-07T09:42:06.389Z</time>
      </trkpt>
      <trkpt lat="48.80384" lon="2.20949">
        <ele>239</ele>
        <time>2015-06-07T09:42:07.380Z</time>
      </trkpt>
      <trkpt lat="48.80376" lon="2.20949">
        <ele>242</ele>
        <time>2015-06-07T09:42:14.476Z</time>
      </trkpt>
      <trkpt lat="48.80375" lon="2.20949">
        <ele>242</ele>
        <time>2015-06-07T09:42:15.392Z</time>
      </trkpt>
      <trkpt lat="48.80369" lon="2.20958">
        <ele>230</ele>
        <time>2015-06-07T09:42:20.350Z</time>
      </trkpt>
      <trkpt lat="48.80368" lon="2.20961">
        <ele>229</ele>
        <time>2015-06-07T09:42:21.349Z</time>
      </trkpt>
      <trkpt lat="48.80361" lon="2.20966">
        <ele>229</ele>
        <time>2015-06-07T09:42:28.350Z</time>
      </trkpt>
      <trkpt lat="48.8036" lon="2.20967">
        <ele>229</ele>
        <time>2015-06-07T09:42:29.351Z</time>
      </trkpt>
      <trkpt lat="48.80352" lon="2.20963">
        <ele>230</ele>
        <time>2015-06-07T09:42:49.350Z</time>
      </trkpt>
      <trkpt lat="48.8035" lon="2.20963">
        <ele>231</ele>
        <time>2015-06-07T09:42:50.348Z</time>
      </trkpt>
      <trkpt lat="48.80342" lon="2.20959">
        <ele>232</ele>
        <time>2015-06-07T09:42:55.548Z</time>
      </trkpt>
      <trkpt lat="48.80341" lon="2.20958">
        <ele>232</ele>
        <time>2015-06-07T09:42:56.392Z</time>
      </trkpt>
      <trkpt lat="48.80332" lon="2.20957">
        <ele>230</ele>
        <time>2015-06-07T09:43:04.377Z</time>
      </trkpt>
      <trkpt lat="48.80331" lon="2.20957">
        <ele>232</ele>
        <time>2015-06-07T09:43:05.378Z</time>
      </trkpt>
      <trkpt lat="48.80324" lon="2.20956">
        <ele>233</ele>
        <time>2015-06-07T09:43:11.377Z</time>
      </trkpt>
      <trkpt lat="48.80322" lon="2.20956">
        <ele>234</ele>
        <time>2015-06-07T09:43:12.491Z</time>
      </trkpt>
      <trkpt lat="48.80315" lon="2.20952">
        <ele>236</ele>
        <time>2015-06-07T09:43:18.352Z</time>
      </trkpt>
      <trkpt lat="48.80313" lon="2.20952">
        <ele>235</ele>
        <time>2015-06-07T09:43:19.436Z</time>
      </trkpt>
      <trkpt lat="48.80306" lon="2.20945">
        <ele>231</ele>
        <time>2015-06-07T09:43:26.383Z</time>
      </trkpt>
      <trkpt lat="48.80304" lon="2.20944">
        <ele>233</ele>
        <time>2015-06-07T09:43:27.391Z</time>
      </trkpt>
      <trkpt lat="48.80296" lon="2.20939">
        <ele>232</ele>
        <time>2015-06-07T09:43:35.381Z</time>
      </trkpt>
      <trkpt lat="48.80295" lon="2.20938">
        <ele>232</ele>
        <time>2015-06-07T09:43:36.392Z</time>
      </trkpt>
      <trkpt lat="48.80287" lon="2.20934">
        <ele>236</ele>
        <time>2015-06-07T09:43:43.381Z</time>
      </trkpt>
      <trkpt lat="48.80286" lon="2.20934">
        <ele>235</ele>
        <time>2015-06-07T09:43:44.475Z</time>
      </trkpt>
      <trkpt lat="48.80279" lon="2.20936">
        <ele>237</ele>
        <time>2015-06-07T09:43:51.417Z</time>
      </trkpt>
      <trkpt lat="48.80277" lon="2.20936">
        <ele>236</ele>
        <time>2015-06-07T09:43:52.409Z</time>
      </trkpt>
      <trkpt lat="48.80269" lon="2.20931">
        <ele>233</ele>
        <time>2015-06-07T09:43:59.403Z</time>
      </trkpt>
      <trkpt lat="48.80268" lon="2.20931">
        <ele>231</ele>
        <time>2015-06-07T09:44:00.380Z</time>
      </trkpt>
      <trkpt lat="48.80261" lon="2.20927">
        <ele>231</ele>
        <time>2015-06-07T09:44:05.379Z</time>
      </trkpt>
      <trkpt lat="48.80259" lon="2.20926">
        <ele>232</ele>
        <time>2015-06-07T09:44:06.448Z</time>
      </trkpt>
      <trkpt lat="48.8025" lon="2.20925">
        <ele>232</ele>
        <time>2015-06-07T09:44:12.435Z</time>
      </trkpt>
      <trkpt lat="48.80249" lon="2.20925">
        <ele>234</ele>
        <time>2015-06-07T09:44:13.450Z</time>
      </trkpt>
      <trkpt lat="48.80241" lon="2.20921">
        <ele>236</ele>
        <time>2015-06-07T09:44:22.473Z</time>
      </trkpt>
      <trkpt lat="48.8024" lon="2.20921">
        <ele>235</ele>
        <time>2015-06-07T09:44:23.415Z</time>
      </trkpt>
      <trkpt lat="48.80233" lon="2.20917">
        <ele>234</ele>
        <time>2015-06-07T09:44:30.363Z</time>
      </trkpt>
      <trkpt lat="48.80231" lon="2.20916">
        <ele>234</ele>
        <time>2015-06-07T09:44:31.375Z</time>
      </trkpt>
      <trkpt lat="48.80222" lon="2.20915">
        <ele>228</ele>
        <time>2015-06-07T09:44:37.411Z</time>
      </trkpt>
      <trkpt lat="48.80221" lon="2.20915">
        <ele>229</ele>
        <time>2015-06-07T09:44:38.482Z</time>
      </trkpt>
      <trkpt lat="48.80212" lon="2.20914">
        <ele>228</ele>
        <time>2015-06-07T09:44:44.413Z</time>
      </trkpt>
      <trkpt lat="48.80211" lon="2.20914">
        <ele>228</ele>
        <time>2015-06-07T09:44:45.422Z</time>
      </trkpt>
      <trkpt lat="48.80203" lon="2.20912">
        <ele>227</ele>
        <time>2015-06-07T09:44:52.485Z</time>
      </trkpt>
      <trkpt lat="48.80202" lon="2.20912">
        <ele>226</ele>
        <time>2015-06-07T09:44:53.416Z</time>
      </trkpt>
      <trkpt lat="48.80194" lon="2.20912">
        <ele>227</ele>
        <time>2015-06-07T09:44:59.460Z</time>
      </trkpt>
      <trkpt lat="48.80192" lon="2.20911">
        <ele>227</ele>
        <time>2015-06-07T09:45:00.425Z</time>
      </trkpt>
      <trkpt lat="48.80185" lon="2.20906">
        <ele>224</ele>
        <time>2015-06-07T09:45:08.567Z</time>
      </trkpt>
      <trkpt lat="48.80184" lon="2.20905">
        <ele>224</ele>
        <time>2015-06-07T09:45:09.447Z</time>
      </trkpt>
      <trkpt lat="48.80176" lon="2.20904">
        <ele>223</ele>
        <time>2015-06-07T09:45:17.479Z</time>
      </trkpt>
      <trkpt lat="48.80175" lon="2.20904">
        <ele>222</ele>
        <time>2015-06-07T09:45:18.446Z</time>
      </trkpt>
      <trkpt lat="48.80167" lon="2.20897">
        <ele>223</ele>
        <time>2015-06-07T09:45:24.361Z</time>
      </trkpt>
      <trkpt lat="48.80166" lon="2.20896">
        <ele>222</ele>
        <time>2015-06-07T09:45:25.405Z</time>
      </trkpt>
      <trkpt lat="48.80158" lon="2.20894">
        <ele>220</ele>
        <time>2015-06-07T09:45:31.388Z</time>
      </trkpt>
      <trkpt lat="48.80157" lon="2.20895">
        <ele>221</ele>
        <time>2015-06-07T09:45:32.417Z</time>
      </trkpt>
      <trkpt lat="48.80149" lon="2.20891">
        <ele>225</ele>
        <time>2015-06-07T09:45:43.422Z</time>
      </trkpt>
      <trkpt lat="48.80148" lon="2.2089">
        <ele>224</ele>
        <time>2015-06-07T09:45:44.793Z</time>
      </trkpt>
      <trkpt lat="48.8014" lon="2.20892">
        <ele>229</ele>
        <time>2015-06-07T09:45:51.351Z</time>
      </trkpt>
      <trkpt lat="48.80138" lon="2.20893">
        <ele>231</ele>
        <time>2015-06-07T09:45:52.350Z</time>
      </trkpt>
      <trkpt lat="48.8013" lon="2.20895">
        <ele>232</ele>
        <time>2015-06-07T09:45:59.350Z</time>
      </trkpt>
      <trkpt lat="48.80128" lon="2.20895">
        <ele>232</ele>
        <time>2015-06-07T09:46:00.349Z</time>
      </trkpt>
      <trkpt lat="48.8012" lon="2.20893">
        <ele>232</ele>
        <time>2015-06-07T09:46:06.349Z</time>
      </trkpt>
      <trkpt lat="48.80118" lon="2.20893">
        <ele>232</ele>
        <time>2015-06-07T09:46:07.397Z</time>
      </trkpt>
      <trkpt lat="48.8011" lon="2.20888">
        <ele>233</ele>
        <time>2015-06-07T09:46:17.676Z</time>
      </trkpt>
      <trkpt lat="48.80109" lon="2.20888">
        <ele>234</ele>
        <time>2015-06-07T09:46:18.350Z</time>
      </trkpt>
      <trkpt lat="48.80106" lon="2.20875">
        <ele>228</ele>
        <time>2015-06-07T09:46:50.349Z</time>
      </trkpt>
      <trkpt lat="48.80106" lon="2.20873">
        <ele>227</ele>
        <time>2015-06-07T09:46:51.351Z</time>
      </trkpt>
      <trkpt lat="48.80103" lon="2.2086">
        <ele>231</ele>
        <time>2015-06-07T09:46:58.349Z</time>
      </trkpt>
      <trkpt lat="48.80103" lon="2.20859">
        <ele>231</ele>
        <time>2015-06-07T09:46:59.354Z</time>
      </trkpt>
      <trkpt lat="48.80098" lon="2.20847">
        <ele>224</ele>
        <time>2015-06-07T09:47:06.385Z</time>
      </trkpt>
      <trkpt lat="48.80097" lon="2.20845">
        <ele>226</ele>
        <time>2015-06-07T09:47:07.437Z</time>
      </trkpt>
      <trkpt lat="48.8009" lon="2.2084">
        <ele>222</ele>
        <time>2015-06-07T09:47:13.349Z</time>
      </trkpt>
      <trkpt lat="48.80089" lon="2.20838">
        <ele>221</ele>
        <time>2015-06-07T09:47:14.349Z</time>
      </trkpt>
      <trkpt lat="48.80081" lon="2.20834">
        <ele>222</ele>
        <time>2015-06-07T09:47:24.357Z</time>
      </trkpt>
      <trkpt lat="48.8008" lon="2.20834">
        <ele>220</ele>
        <time>2015-06-07T09:47:25.356Z</time>
      </trkpt>
      <trkpt lat="48.80071" lon="2.20836">
        <ele>223</ele>
        <time>2015-06-07T09:47:32.441Z</time>
      </trkpt>
      <trkpt lat="48.8007" lon="2.20835">
        <ele>221</ele>
        <time>2015-06-07T09:47:33.540Z</time>
      </trkpt>
      <trkpt lat="48.80064" lon="2.20827">
        <ele>225</ele>
        <time>2015-06-07T09:47:40.495Z</time>
      </trkpt>
      <trkpt lat="48.80063" lon="2.20826">
        <ele>225</ele>
        <time>2015-06-07T09:47:41.395Z</time>
      </trkpt>
      <trkpt lat="48.80058" lon="2.20814">
        <ele>224</ele>
        <time>2015-06-07T09:47:50.349Z</time>
      </trkpt>
      <trkpt lat="48.80059" lon="2.20813">
        <ele>225</ele>
        <time>2015-06-07T09:47:51.349Z</time>
      </trkpt>
      <trkpt lat="48.80056" lon="2.208">
        <ele>229</ele>
        <time>2015-06-07T09:47:59.374Z</time>
      </trkpt>
      <trkpt lat="48.80056" lon="2.20799">
        <ele>228</ele>
        <time>2015-06-07T09:48:00.349Z</time>
      </trkpt>
      <trkpt lat="48.80053" lon="2.20787">
        <ele>225</ele>
        <time>2015-06-07T09:48:08.438Z</time>
      </trkpt>
      <trkpt lat="48.80053" lon="2.20785">
        <ele>225</ele>
        <time>2015-06-07T09:48:09.367Z</time>
      </trkpt>
      <trkpt lat="48.80051" lon="2.20772">
        <ele>226</ele>
        <time>2015-06-07T09:48:18.387Z</time>
      </trkpt>
      <trkpt lat="48.80051" lon="2.20771">
        <ele>227</ele>
        <time>2015-06-07T09:48:19.387Z</time>
      </trkpt>
      <trkpt lat="48.80047" lon="2.20759">
        <ele>225</ele>
        <time>2015-06-07T09:48:27.385Z</time>
      </trkpt>
      <trkpt lat="48.80046" lon="2.20757">
        <ele>225</ele>
        <time>2015-06-07T09:48:28.445Z</time>
      </trkpt>
      <trkpt lat="48.80042" lon="2.20744">
        <ele>227</ele>
        <time>2015-06-07T09:48:40.393Z</time>
      </trkpt>
      <trkpt lat="48.80042" lon="2.20743">
        <ele>225</ele>
        <time>2015-06-07T09:48:41.429Z</time>
      </trkpt>
      <trkpt lat="48.80039" lon="2.2073">
        <ele>227</ele>
        <time>2015-06-07T09:48:48.411Z</time>
      </trkpt>
      <trkpt lat="48.80039" lon="2.20728">
        <ele>223</ele>
        <time>2015-06-07T09:48:49.418Z</time>
      </trkpt>
      <trkpt lat="48.80034" lon="2.20717">
        <ele>224</ele>
        <time>2015-06-07T09:49:01.410Z</time>
      </trkpt>
      <trkpt lat="48.80035" lon="2.20715">
        <ele>223</ele>
        <time>2015-06-07T09:49:02.441Z</time>
      </trkpt>
      <trkpt lat="48.80034" lon="2.20703">
        <ele>228</ele>
        <time>2015-06-07T09:49:08.525Z</time>
      </trkpt>
      <trkpt lat="48.80034" lon="2.20701">
        <ele>229</ele>
        <time>2015-06-07T09:49:09.485Z</time>
      </trkpt>
      <trkpt lat="48.8003" lon="2.2069">
        <ele>229</ele>
        <time>2015-06-07T09:49:15.357Z</time>
      </trkpt>
      <trkpt lat="48.8003" lon="2.20688">
        <ele>230</ele>
        <time>2015-06-07T09:49:16.408Z</time>
      </trkpt>
      <trkpt lat="48.80023" lon="2.2068">
        <ele>228</ele>
        <time>2015-06-07T09:49:21.414Z</time>
      </trkpt>
      <trkpt lat="48.80022" lon="2.20678">
        <ele>230</ele>
        <time>2015-06-07T09:49:22.401Z</time>
      </trkpt>
      <trkpt lat="48.80017" lon="2.20668">
        <ele>227</ele>
        <time>2015-06-07T09:49:29.437Z</time>
      </trkpt>
      <trkpt lat="48.80017" lon="2.20666">
        <ele>228</ele>
        <time>2015-06-07T09:49:30.367Z</time>
      </trkpt>
      <trkpt lat="48.80011" lon="2.20657">
        <ele>227</ele>
        <time>2015-06-07T09:49:36.393Z</time>
      </trkpt>
      <trkpt lat="48.8001" lon="2.20656">
        <ele>228</ele>
        <time>2015-06-07T09:49:37.473Z</time>
      </trkpt>
      <trkpt lat="48.80005" lon="2.20644">
        <ele>230</ele>
        <time>2015-06-07T09:49:44.471Z</time>
      </trkpt>
      <trkpt lat="48.80005" lon="2.20643">
        <ele>230</ele>
        <time>2015-06-07T09:49:45.385Z</time>
      </trkpt>
      <trkpt lat="48.80005" lon="2.2063">
        <ele>233</ele>
        <time>2015-06-07T09:49:54.812Z</time>
      </trkpt>
      <trkpt lat="48.80005" lon="2.20629">
        <ele>233</ele>
        <time>2015-06-07T09:49:55.406Z</time>
      </trkpt>
      <trkpt lat="48.80003" lon="2.20618">
        <ele>228</ele>
        <time>2015-06-07T09:50:01.357Z</time>
      </trkpt>
      <trkpt lat="48.80002" lon="2.20616">
        <ele>228</ele>
        <time>2015-06-07T09:50:02.358Z</time>
      </trkpt>
      <trkpt lat="48.79997" lon="2.20606">
        <ele>227</ele>
        <time>2015-06-07T09:50:08.356Z</time>
      </trkpt>
      <trkpt lat="48.79996" lon="2.20605">
        <ele>228</ele>
        <time>2015-06-07T09:50:09.359Z</time>
      </trkpt>
      <trkpt lat="48.79992" lon="2.20593">
        <ele>232</ele>
        <time>2015-06-07T09:50:20.421Z</time>
      </trkpt>
      <trkpt lat="48.79992" lon="2.20592">
        <ele>233</ele>
        <time>2015-06-07T09:50:21.421Z</time>
      </trkpt>
      <trkpt lat="48.79988" lon="2.2058">
        <ele>234</ele>
        <time>2015-06-07T09:50:29.429Z</time>
      </trkpt>
      <trkpt lat="48.79988" lon="2.20578">
        <ele>235</ele>
        <time>2015-06-07T09:50:30.439Z</time>
      </trkpt>
      <trkpt lat="48.79985" lon="2.20567">
        <ele>236</ele>
        <time>2015-06-07T09:50:37.394Z</time>
      </trkpt>
      <trkpt lat="48.79984" lon="2.20565">
        <ele>234</ele>
        <time>2015-06-07T09:50:38.423Z</time>
      </trkpt>
      <trkpt lat="48.79981" lon="2.20553">
        <ele>233</ele>
        <time>2015-06-07T09:50:45.390Z</time>
      </trkpt>
      <trkpt lat="48.79981" lon="2.20552">
        <ele>235</ele>
        <time>2015-06-07T09:50:46.404Z</time>
      </trkpt>
      <trkpt lat="48.79977" lon="2.2054">
        <ele>233</ele>
        <time>2015-06-07T09:50:55.402Z</time>
      </trkpt>
      <trkpt lat="48.79977" lon="2.20539">
        <ele>232</ele>
        <time>2015-06-07T09:50:56.395Z</time>
      </trkpt>
      <trkpt lat="48.79974" lon="2.20527">
        <ele>232</ele>
        <time>2015-06-07T09:51:03.394Z</time>
      </trkpt>
      <trkpt lat="48.79974" lon="2.20526">
        <ele>232</ele>
        <time>2015-06-07T09:51:04.392Z</time>
      </trkpt>
      <trkpt lat="48.7997" lon="2.20514">
        <ele>235</ele>
        <time>2015-06-07T09:51:12.393Z</time>
      </trkpt>
      <trkpt lat="48.79969" lon="2.20513">
        <ele>236</ele>
        <time>2015-06-07T09:51:13.404Z</time>
      </trkpt>
      <trkpt lat="48.79963" lon="2.20502">
        <ele>236</ele>
        <time>2015-06-07T09:51:20.356Z</time>
      </trkpt>
      <trkpt lat="48.79962" lon="2.205">
        <ele>232</ele>
        <time>2015-06-07T09:51:21.357Z</time>
      </trkpt>
      <trkpt lat="48.79956" lon="2.20491">
        <ele>229</ele>
        <time>2015-06-07T09:51:26.358Z</time>
      </trkpt>
      <trkpt lat="48.79955" lon="2.2049">
        <ele>229</ele>
        <time>2015-06-07T09:51:27.357Z</time>
      </trkpt>
      <trkpt lat="48.7995" lon="2.20478">
        <ele>226</ele>
        <time>2015-06-07T09:51:34.357Z</time>
      </trkpt>
      <trkpt lat="48.7995" lon="2.20476">
        <ele>226</ele>
        <time>2015-06-07T09:51:35.357Z</time>
      </trkpt>
      <trkpt lat="48.79945" lon="2.20468">
        <ele>227</ele>
        <time>2015-06-07T09:51:42.394Z</time>
      </trkpt>
      <trkpt lat="48.79944" lon="2.20466">
        <ele>228</ele>
        <time>2015-06-07T09:51:43.416Z</time>
      </trkpt>
      <trkpt lat="48.79937" lon="2.20457">
        <ele>227</ele>
        <time>2015-06-07T09:51:50.358Z</time>
      </trkpt>
      <trkpt lat="48.79936" lon="2.20455">
        <ele>227</ele>
        <time>2015-06-07T09:51:51.359Z</time>
      </trkpt>
      <trkpt lat="48.79931" lon="2.20446">
        <ele>230</ele>
        <time>2015-06-07T09:51:58.964Z</time>
      </trkpt>
      <trkpt lat="48.7993" lon="2.20444">
        <ele>230</ele>
        <time>2015-06-07T09:51:59.372Z</time>
      </trkpt>
      <trkpt lat="48.79924" lon="2.20435">
        <ele>229</ele>
        <time>2015-06-07T09:52:05.482Z</time>
      </trkpt>
      <trkpt lat="48.79923" lon="2.20434">
        <ele>229</ele>
        <time>2015-06-07T09:52:06.678Z</time>
      </trkpt>
      <trkpt lat="48.79917" lon="2.20425">
        <ele>229</ele>
        <time>2015-06-07T09:52:16.389Z</time>
      </trkpt>
      <trkpt lat="48.79916" lon="2.20425">
        <ele>229</ele>
        <time>2015-06-07T09:52:17.494Z</time>
      </trkpt>
      <trkpt lat="48.79911" lon="2.20417">
        <ele>228</ele>
        <time>2015-06-07T09:52:29.385Z</time>
      </trkpt>
      <trkpt lat="48.7991" lon="2.20415">
        <ele>228</ele>
        <time>2015-06-07T09:52:30.396Z</time>
      </trkpt>
      <trkpt lat="48.79904" lon="2.20405">
        <ele>228</ele>
        <time>2015-06-07T09:52:35.397Z</time>
      </trkpt>
      <trkpt lat="48.79904" lon="2.20403">
        <ele>227</ele>
        <time>2015-06-07T09:52:36.528Z</time>
      </trkpt>
      <trkpt lat="48.79898" lon="2.20392">
        <ele>230</ele>
        <time>2015-06-07T09:52:42.389Z</time>
      </trkpt>
      <trkpt lat="48.79898" lon="2.20392">
        <ele>230</ele>
        <time>2015-06-07T09:52:43.529Z</time>
      </trkpt>
      <trkpt lat="48.79894" lon="2.20381">
        <ele>232</ele>
        <time>2015-06-07T09:52:53.404Z</time>
      </trkpt>
      <trkpt lat="48.79893" lon="2.2038">
        <ele>233</ele>
        <time>2015-06-07T09:52:54.516Z</time>
      </trkpt>
      <trkpt lat="48.79889" lon="2.20368">
        <ele>234</ele>
        <time>2015-06-07T09:53:01.562Z</time>
      </trkpt>
      <trkpt lat="48.79889" lon="2.20366">
        <ele>234</ele>
        <time>2015-06-07T09:53:02.481Z</time>
      </trkpt>
      <trkpt lat="48.79885" lon="2.20356">
        <ele>230</ele>
        <time>2015-06-07T09:53:09.441Z</time>
      </trkpt>
      <trkpt lat="48.79884" lon="2.20354">
        <ele>230</ele>
        <time>2015-06-07T09:53:10.498Z</time>
      </trkpt>
      <trkpt lat="48.79879" lon="2.20344">
        <ele>232</ele>
        <time>2015-06-07T09:53:16.411Z</time>
      </trkpt>
      <trkpt lat="48.79879" lon="2.20342">
        <ele>231</ele>
        <time>2015-06-07T09:53:17.475Z</time>
      </trkpt>
      <trkpt lat="48.79875" lon="2.20331">
        <ele>232</ele>
        <time>2015-06-07T09:53:24.507Z</time>
      </trkpt>
      <trkpt lat="48.79875" lon="2.20329">
        <ele>232</ele>
        <time>2015-06-07T09:53:25.432Z</time>
      </trkpt>
      <trkpt lat="48.79871" lon="2.20318">
        <ele>231</ele>
        <time>2015-06-07T09:53:32.465Z</time>
      </trkpt>
      <trkpt lat="48.79871" lon="2.20316">
        <ele>231</ele>
        <time>2015-06-07T09:53:33.529Z</time>
      </trkpt>
      <trkpt lat="48.79866" lon="2.20304">
        <ele>230</ele>
        <time>2015-06-07T09:53:43.359Z</time>
      </trkpt>
      <trkpt lat="48.79865" lon="2.20303">
        <ele>229</ele>
        <time>2015-06-07T09:53:44.379Z</time>
      </trkpt>
      <trkpt lat="48.79859" lon="2.20294">
        <ele>228</ele>
        <time>2015-06-07T09:53:50.357Z</time>
      </trkpt>
      <trkpt lat="48.79858" lon="2.20293">
        <ele>227</ele>
        <time>2015-06-07T09:53:51.357Z</time>
      </trkpt>
      <trkpt lat="48.79851" lon="2.20286">
        <ele>230</ele>
        <time>2015-06-07T09:54:25.359Z</time>
      </trkpt>
      <trkpt lat="48.79851" lon="2.20285">
        <ele>229</ele>
        <time>2015-06-07T09:54:26.358Z</time>
      </trkpt>
      <trkpt lat="48.79844" lon="2.20275">
        <ele>230</ele>
        <time>2015-06-07T09:54:34.606Z</time>
      </trkpt>
      <trkpt lat="48.79844" lon="2.20275">
        <ele>230</ele>
        <time>2015-06-07T09:54:35.359Z</time>
      </trkpt>
      <trkpt lat="48.79835" lon="2.20271">
        <ele>228</ele>
        <time>2015-06-07T09:54:44.362Z</time>
      </trkpt>
      <trkpt lat="48.79834" lon="2.20272">
        <ele>227</ele>
        <time>2015-06-07T09:54:45.362Z</time>
      </trkpt>
      <trkpt lat="48.79826" lon="2.20278">
        <ele>221</ele>
        <time>2015-06-07T09:54:54.358Z</time>
      </trkpt>
      <trkpt lat="48.79826" lon="2.20278">
        <ele>221</ele>
        <time>2015-06-07T09:54:55.357Z</time>
      </trkpt>
      <trkpt lat="48.79817" lon="2.20279">
        <ele>222</ele>
        <time>2015-06-07T09:55:07.457Z</time>
      </trkpt>
      <trkpt lat="48.79816" lon="2.2028">
        <ele>222</ele>
        <time>2015-06-07T09:55:08.357Z</time>
      </trkpt>
      <trkpt lat="48.79808" lon="2.20285">
        <ele>221</ele>
        <time>2015-06-07T09:55:14.358Z</time>
      </trkpt>
      <trkpt lat="48.79807" lon="2.20286">
        <ele>222</ele>
        <time>2015-06-07T09:55:15.357Z</time>
      </trkpt>
      <trkpt lat="48.79799" lon="2.20292">
        <ele>224</ele>
        <time>2015-06-07T09:55:22.398Z</time>
      </trkpt>
      <trkpt lat="48.79798" lon="2.20292">
        <ele>224</ele>
        <time>2015-06-07T09:55:23.396Z</time>
      </trkpt>
      <trkpt lat="48.7979" lon="2.20295">
        <ele>226</ele>
        <time>2015-06-07T09:55:29.402Z</time>
      </trkpt>
      <trkpt lat="48.79789" lon="2.20296">
        <ele>226</ele>
        <time>2015-06-07T09:55:30.583Z</time>
      </trkpt>
      <trkpt lat="48.79782" lon="2.20305">
        <ele>226</ele>
        <time>2015-06-07T09:55:37.357Z</time>
      </trkpt>
      <trkpt lat="48.79781" lon="2.20306">
        <ele>227</ele>
        <time>2015-06-07T09:55:38.358Z</time>
      </trkpt>
      <trkpt lat="48.79776" lon="2.20317">
        <ele>226</ele>
        <time>2015-06-07T09:55:50.359Z</time>
      </trkpt>
      <trkpt lat="48.79775" lon="2.20318">
        <ele>227</ele>
        <time>2015-06-07T09:55:51.361Z</time>
      </trkpt>
      <trkpt lat="48.7977" lon="2.20328">
        <ele>225</ele>
        <time>2015-06-07T09:55:56.357Z</time>
      </trkpt>
      <trkpt lat="48.79769" lon="2.20329">
        <ele>225</ele>
        <time>2015-06-07T09:55:57.359Z</time>
      </trkpt>
      <trkpt lat="48.79762" lon="2.20337">
        <ele>226</ele>
        <time>2015-06-07T09:56:03.376Z</time>
      </trkpt>
      <trkpt lat="48.79761" lon="2.20338">
        <ele>227</ele>
        <time>2015-06-07T09:56:04.620Z</time>
      </trkpt>
      <trkpt lat="48.79757" lon="2.20349">
        <ele>226</ele>
        <time>2015-06-07T09:56:11.389Z</time>
      </trkpt>
      <trkpt lat="48.79756" lon="2.20351">
        <ele>227</ele>
        <time>2015-06-07T09:56:12.391Z</time>
      </trkpt>
      <trkpt lat="48.79751" lon="2.2036">
        <ele>225</ele>
        <time>2015-06-07T09:56:18.413Z</time>
      </trkpt>
      <trkpt lat="48.7975" lon="2.20362">
        <ele>226</ele>
        <time>2015-06-07T09:56:19.631Z</time>
      </trkpt>
      <trkpt lat="48.79747" lon="2.20374">
        <ele>225</ele>
        <time>2015-06-07T09:56:26.375Z</time>
      </trkpt>
      <trkpt lat="48.79746" lon="2.20375">
        <ele>224</ele>
        <time>2015-06-07T09:56:27.389Z</time>
      </trkpt>
      <trkpt lat="48.79743" lon="2.20387">
        <ele>224</ele>
        <time>2015-06-07T09:56:34.398Z</time>
      </trkpt>
      <trkpt lat="48.79743" lon="2.20389">
        <ele>225</ele>
        <time>2015-06-07T09:56:35.400Z</time>
      </trkpt>
      <trkpt lat="48.79738" lon="2.204">
        <ele>225</ele>
        <time>2015-06-07T09:56:44.395Z</time>
      </trkpt>
      <trkpt lat="48.79738" lon="2.20401">
        <ele>226</ele>
        <time>2015-06-07T09:56:45.565Z</time>
      </trkpt>
      <trkpt lat="48.79733" lon="2.20411">
        <ele>224</ele>
        <time>2015-06-07T09:56:52.457Z</time>
      </trkpt>
      <trkpt lat="48.79733" lon="2.20413">
        <ele>222</ele>
        <time>2015-06-07T09:56:53.424Z</time>
      </trkpt>
      <trkpt lat="48.79727" lon="2.20421">
        <ele>223</ele>
        <time>2015-06-07T09:56:59.446Z</time>
      </trkpt>
      <trkpt lat="48.79726" lon="2.20422">
        <ele>224</ele>
        <time>2015-06-07T09:57:00.460Z</time>
      </trkpt>
      <trkpt lat="48.7972" lon="2.20429">
        <ele>225</ele>
        <time>2015-06-07T09:57:06.416Z</time>
      </trkpt>
      <trkpt lat="48.79719" lon="2.20431">
        <ele>225</ele>
        <time>2015-06-07T09:57:07.357Z</time>
      </trkpt>
      <trkpt lat="48.79713" lon="2.20441">
        <ele>218</ele>
        <time>2015-06-07T09:57:15.360Z</time>
      </trkpt>
      <trkpt lat="48.79712" lon="2.20442">
        <ele>218</ele>
        <time>2015-06-07T09:57:16.357Z</time>
      </trkpt>
      <trkpt lat="48.79705" lon="2.2045">
        <ele>215</ele>
        <time>2015-06-07T09:57:27.357Z</time>
      </trkpt>
      <trkpt lat="48.79704" lon="2.2045">
        <ele>214</ele>
        <time>2015-06-07T09:57:28.358Z</time>
      </trkpt>
      <trkpt lat="48.79696" lon="2.20453">
        <ele>218</ele>
        <time>2015-06-07T09:57:38.424Z</time>
      </trkpt>
      <trkpt lat="48.79695" lon="2.20453">
        <ele>218</ele>
        <time>2015-06-07T09:57:39.359Z</time>
      </trkpt>
      <trkpt lat="48.79688" lon="2.20458">
        <ele>217</ele>
        <time>2015-06-07T09:57:45.358Z</time>
      </trkpt>
      <trkpt lat="48.79686" lon="2.20459">
        <ele>217</ele>
        <time>2015-06-07T09:57:46.357Z</time>
      </trkpt>
      <trkpt lat="48.79678" lon="2.20463">
        <ele>219</ele>
        <time>2015-06-07T09:57:52.358Z</time>
      </trkpt>
      <trkpt lat="48.79676" lon="2.20463">
        <ele>220</ele>
        <time>2015-06-07T09:57:53.359Z</time>
      </trkpt>
      <trkpt lat="48.79667" lon="2.20465">
        <ele>222</ele>
        <time>2015-06-07T09:58:00.407Z</time>
      </trkpt>
      <trkpt lat="48.79666" lon="2.20465">
        <ele>223</ele>
        <time>2015-06-07T09:58:01.417Z</time>
      </trkpt>
      <trkpt lat="48.79658" lon="2.20465">
        <ele>221</ele>
        <time>2015-06-07T09:58:08.428Z</time>
      </trkpt>
      <trkpt lat="48.79657" lon="2.20466">
        <ele>222</ele>
        <time>2015-06-07T09:58:09.369Z</time>
      </trkpt>
      <trkpt lat="48.79648" lon="2.20464">
        <ele>226</ele>
        <time>2015-06-07T09:58:16.385Z</time>
      </trkpt>
      <trkpt lat="48.79647" lon="2.20464">
        <ele>226</ele>
        <time>2015-06-07T09:58:17.416Z</time>
      </trkpt>
      <trkpt lat="48.79639" lon="2.20458">
        <ele>226</ele>
        <time>2015-06-07T09:58:26.466Z</time>
      </trkpt>
      <trkpt lat="48.79639" lon="2.20457">
        <ele>227</ele>
        <time>2015-06-07T09:58:27.408Z</time>
      </trkpt>
      <trkpt lat="48.7963" lon="2.20454">
        <ele>228</ele>
        <time>2015-06-07T09:58:34.360Z</time>
      </trkpt>
      <trkpt lat="48.79629" lon="2.20454">
        <ele>228</ele>
        <time>2015-06-07T09:58:36.064Z</time>
      </trkpt>
      <trkpt lat="48.79621" lon="2.20451">
        <ele>224</ele>
        <time>2015-06-07T09:58:44.386Z</time>
      </trkpt>
      <trkpt lat="48.7962" lon="2.20451">
        <ele>224</ele>
        <time>2015-06-07T09:58:45.395Z</time>
      </trkpt>
      <trkpt lat="48.79613" lon="2.20447">
        <ele>222</ele>
        <time>2015-06-07T09:58:54.406Z</time>
      </trkpt>
      <trkpt lat="48.79611" lon="2.20446">
        <ele>224</ele>
        <time>2015-06-07T09:58:55.525Z</time>
      </trkpt>
      <trkpt lat="48.79603" lon="2.20442">
        <ele>223</ele>
        <time>2015-06-07T09:59:02.493Z</time>
      </trkpt>
      <trkpt lat="48.79602" lon="2.20442">
        <ele>222</ele>
        <time>2015-06-07T09:59:03.446Z</time>
      </trkpt>
      <trkpt lat="48.79594" lon="2.20443">
        <ele>222</ele>
        <time>2015-06-07T09:59:10.391Z</time>
      </trkpt>
      <trkpt lat="48.79593" lon="2.20444">
        <ele>221</ele>
        <time>2015-06-07T09:59:11.360Z</time>
      </trkpt>
      <trkpt lat="48.79586" lon="2.20452">
        <ele>216</ele>
        <time>2015-06-07T09:59:19.357Z</time>
      </trkpt>
      <trkpt lat="48.79585" lon="2.20453">
        <ele>216</ele>
        <time>2015-06-07T09:59:20.359Z</time>
      </trkpt>
      <trkpt lat="48.79579" lon="2.20461">
        <ele>215</ele>
        <time>2015-06-07T09:59:28.451Z</time>
      </trkpt>
      <trkpt lat="48.79578" lon="2.20462">
        <ele>216</ele>
        <time>2015-06-07T09:59:29.360Z</time>
      </trkpt>
      <trkpt lat="48.79571" lon="2.20468">
        <ele>219</ele>
        <time>2015-06-07T09:59:37.429Z</time>
      </trkpt>
      <trkpt lat="48.7957" lon="2.20469">
        <ele>220</ele>
        <time>2015-06-07T09:59:38.376Z</time>
      </trkpt>
      <trkpt lat="48.79564" lon="2.20476">
        <ele>223</ele>
        <time>2015-06-07T09:59:44.388Z</time>
      </trkpt>
      <trkpt lat="48.79563" lon="2.20477">
        <ele>222</ele>
        <time>2015-06-07T09:59:45.385Z</time>
      </trkpt>
      <trkpt lat="48.79557" lon="2.20487">
        <ele>225</ele>
        <time>2015-06-07T09:59:52.395Z</time>
      </trkpt>
      <trkpt lat="48.79556" lon="2.20488">
        <ele>225</ele>
        <time>2015-06-07T09:59:53.393Z</time>
      </trkpt>
      <trkpt lat="48.79549" lon="2.20496">
        <ele>224</ele>
        <time>2015-06-07T10:00:01.399Z</time>
      </trkpt>
      <trkpt lat="48.79548" lon="2.20497">
        <ele>223</ele>
        <time>2015-06-07T10:00:02.438Z</time>
      </trkpt>
      <trkpt lat="48.79542" lon="2.20504">
        <ele>223</ele>
        <time>2015-06-07T10:00:08.405Z</time>
      </trkpt>
      <trkpt lat="48.7954" lon="2.20505">
        <ele>223</ele>
        <time>2015-06-07T10:00:09.483Z</time>
      </trkpt>
      <trkpt lat="48.79536" lon="2.20515">
        <ele>216</ele>
        <time>2015-06-07T10:00:15.396Z</time>
      </trkpt>
      <trkpt lat="48.79535" lon="2.20517">
        <ele>215</ele>
        <time>2015-06-07T10:00:16.393Z</time>
      </trkpt>
      <trkpt lat="48.7953" lon="2.20527">
        <ele>214</ele>
        <time>2015-06-07T10:00:22.426Z</time>
      </trkpt>
      <trkpt lat="48.79528" lon="2.20527">
        <ele>216</ele>
        <time>2015-06-07T10:00:23.500Z</time>
      </trkpt>
      <trkpt lat="48.79522" lon="2.20535">
        <ele>224</ele>
        <time>2015-06-07T10:00:30.457Z</time>
      </trkpt>
      <trkpt lat="48.79521" lon="2.20536">
        <ele>224</ele>
        <time>2015-06-07T10:00:31.454Z</time>
      </trkpt>
      <trkpt lat="48.79515" lon="2.20546">
        <ele>223</ele>
        <time>2015-06-07T10:00:39.865Z</time>
      </trkpt>
      <trkpt lat="48.79514" lon="2.20547">
        <ele>223</ele>
        <time>2015-06-07T10:00:40.430Z</time>
      </trkpt>
      <trkpt lat="48.7951" lon="2.20557">
        <ele>223</ele>
        <time>2015-06-07T10:00:47.468Z</time>
      </trkpt>
      <trkpt lat="48.79509" lon="2.20559">
        <ele>223</ele>
        <time>2015-06-07T10:00:48.413Z</time>
      </trkpt>
      <trkpt lat="48.79504" lon="2.20569">
        <ele>224</ele>
        <time>2015-06-07T10:00:55.382Z</time>
      </trkpt>
      <trkpt lat="48.79504" lon="2.20571">
        <ele>224</ele>
        <time>2015-06-07T10:00:56.365Z</time>
      </trkpt>
      <trkpt lat="48.79499" lon="2.20583">
        <ele>222</ele>
        <time>2015-06-07T10:01:03.359Z</time>
      </trkpt>
      <trkpt lat="48.79499" lon="2.20585">
        <ele>221</ele>
        <time>2015-06-07T10:01:04.358Z</time>
      </trkpt>
      <trkpt lat="48.79496" lon="2.20596">
        <ele>221</ele>
        <time>2015-06-07T10:01:12.358Z</time>
      </trkpt>
      <trkpt lat="48.79495" lon="2.20598">
        <ele>219</ele>
        <time>2015-06-07T10:01:13.357Z</time>
      </trkpt>
      <trkpt lat="48.79493" lon="2.20609">
        <ele>223</ele>
        <time>2015-06-07T10:01:19.434Z</time>
      </trkpt>
      <trkpt lat="48.79493" lon="2.20611">
        <ele>222</ele>
        <time>2015-06-07T10:01:20.359Z</time>
      </trkpt>
      <trkpt lat="48.79492" lon="2.20624">
        <ele>221</ele>
        <time>2015-06-07T10:01:27.454Z</time>
      </trkpt>
      <trkpt lat="48.79492" lon="2.20626">
        <ele>220</ele>
        <time>2015-06-07T10:01:28.428Z</time>
      </trkpt>
      <trkpt lat="48.79489" lon="2.20638">
        <ele>223</ele>
        <time>2015-06-07T10:01:35.494Z</time>
      </trkpt>
      <trkpt lat="48.79489" lon="2.2064">
        <ele>222</ele>
        <time>2015-06-07T10:01:36.404Z</time>
      </trkpt>
      <trkpt lat="48.79488" lon="2.20652">
        <ele>221</ele>
        <time>2015-06-07T10:01:44.387Z</time>
      </trkpt>
      <trkpt lat="48.79487" lon="2.20654">
        <ele>221</ele>
        <time>2015-06-07T10:01:45.556Z</time>
      </trkpt>
      <trkpt lat="48.79487" lon="2.20667">
        <ele>217</ele>
        <time>2015-06-07T10:01:52.386Z</time>
      </trkpt>
      <trkpt lat="48.79487" lon="2.20669">
        <ele>218</ele>
        <time>2015-06-07T10:01:53.392Z</time>
      </trkpt>
      <trkpt lat="48.79488" lon="2.20682">
        <ele>221</ele>
        <time>2015-06-07T10:02:01.496Z</time>
      </trkpt>
      <trkpt lat="48.79487" lon="2.20683">
        <ele>222</ele>
        <time>2015-06-07T10:02:02.398Z</time>
      </trkpt>
      <trkpt lat="48.79485" lon="2.20696">
        <ele>223</ele>
        <time>2015-06-07T10:02:10.448Z</time>
      </trkpt>
      <trkpt lat="48.79485" lon="2.20698">
        <ele>221</ele>
        <time>2015-06-07T10:02:11.398Z</time>
      </trkpt>
      <trkpt lat="48.79484" lon="2.2071">
        <ele>221</ele>
        <time>2015-06-07T10:02:23.497Z</time>
      </trkpt>
      <trkpt lat="48.79484" lon="2.20711">
        <ele>221</ele>
        <time>2015-06-07T10:02:24.468Z</time>
      </trkpt>
      <trkpt lat="48.79478" lon="2.2072">
        <ele>223</ele>
        <time>2015-06-07T10:02:36.388Z</time>
      </trkpt>
      <trkpt lat="48.79477" lon="2.20721">
        <ele>225</ele>
        <time>2015-06-07T10:02:37.420Z</time>
      </trkpt>
      <trkpt lat="48.79473" lon="2.20732">
        <ele>222</ele>
        <time>2015-06-07T10:02:46.468Z</time>
      </trkpt>
      <trkpt lat="48.79473" lon="2.20734">
        <ele>222</ele>
        <time>2015-06-07T10:02:47.465Z</time>
      </trkpt>
      <trkpt lat="48.7947" lon="2.20745">
        <ele>223</ele>
        <time>2015-06-07T10:05:55.392Z</time>
      </trkpt>
      <trkpt lat="48.7947" lon="2.20747">
        <ele>224</ele>
        <time>2015-06-07T10:05:56.394Z</time>
      </trkpt>
      <trkpt lat="48.79472" lon="2.20759">
        <ele>223</ele>
        <time>2015-06-07T10:08:35.458Z</time>
      </trkpt>
      <trkpt lat="48.79472" lon="2.2076">
        <ele>222</ele>
        <time>2015-06-07T10:08:36.368Z</time>
      </trkpt>
      <trkpt lat="48.79467" lon="2.2077">
        <ele>221</ele>
        <time>2015-06-07T10:09:19.397Z</time>
      </trkpt>
      <trkpt lat="48.79467" lon="2.20771">
        <ele>222</ele>
        <time>2015-06-07T10:09:20.463Z</time>
      </trkpt>
      <trkpt lat="48.79463" lon="2.20783">
        <ele>219</ele>
        <time>2015-06-07T10:09:33.464Z</time>
      </trkpt>
      <trkpt lat="48.79462" lon="2.20784">
        <ele>219</ele>
        <time>2015-06-07T10:09:34.441Z</time>
      </trkpt>
      <trkpt lat="48.79458" lon="2.20795">
        <ele>220</ele>
        <time>2015-06-07T10:09:41.498Z</time>
      </trkpt>
      <trkpt lat="48.79458" lon="2.20796">
        <ele>218</ele>
        <time>2015-06-07T10:09:42.493Z</time>
      </trkpt>
      <trkpt lat="48.79454" lon="2.20808">
        <ele>215</ele>
        <time>2015-06-07T10:09:52.408Z</time>
      </trkpt>
      <trkpt lat="48.79454" lon="2.2081">
        <ele>216</ele>
        <time>2015-06-07T10:09:53.450Z</time>
      </trkpt>
      <trkpt lat="48.79452" lon="2.20822">
        <ele>216</ele>
        <time>2015-06-07T10:09:59.449Z</time>
      </trkpt>
      <trkpt lat="48.79452" lon="2.20824">
        <ele>214</ele>
        <time>2015-06-07T10:10:00.447Z</time>
      </trkpt>
      <trkpt lat="48.79446" lon="2.20831">
        <ele>211</ele>
        <time>2015-06-07T10:10:05.472Z</time>
      </trkpt>
      <trkpt lat="48.79445" lon="2.20833">
        <ele>209</ele>
        <time>2015-06-07T10:10:06.574Z</time>
      </trkpt>
      <trkpt lat="48.79449" lon="2.20845">
        <ele>208</ele>
        <time>2015-06-07T10:10:17.487Z</time>
      </trkpt>
      <trkpt lat="48.7945" lon="2.20845">
        <ele>209</ele>
        <time>2015-06-07T10:10:18.523Z</time>
      </trkpt>
      <trkpt lat="48.79446" lon="2.20834">
        <ele>212</ele>
        <time>2015-06-07T10:10:49.482Z</time>
      </trkpt>
      <trkpt lat="48.79445" lon="2.20833">
        <ele>213</ele>
        <time>2015-06-07T10:10:50.498Z</time>
      </trkpt>
      <trkpt lat="48.79437" lon="2.20839">
        <ele>216</ele>
        <time>2015-06-07T10:10:58.467Z</time>
      </trkpt>
      <trkpt lat="48.79436" lon="2.20841">
        <ele>217</ele>
        <time>2015-06-07T10:10:59.419Z</time>
      </trkpt>
      <trkpt lat="48.79435" lon="2.20854">
        <ele>210</ele>
        <time>2015-06-07T10:11:06.511Z</time>
      </trkpt>
      <trkpt lat="48.79434" lon="2.20856">
        <ele>210</ele>
        <time>2015-06-07T10:11:07.390Z</time>
      </trkpt>
      <trkpt lat="48.79433" lon="2.20868">
        <ele>214</ele>
        <time>2015-06-07T10:11:20.455Z</time>
      </trkpt>
      <trkpt lat="48.79432" lon="2.20869">
        <ele>214</ele>
        <time>2015-06-07T10:11:21.485Z</time>
      </trkpt>
      <trkpt lat="48.79427" lon="2.20879">
        <ele>212</ele>
        <time>2015-06-07T10:11:29.431Z</time>
      </trkpt>
      <trkpt lat="48.79427" lon="2.20881">
        <ele>213</ele>
        <time>2015-06-07T10:11:30.485Z</time>
      </trkpt>
      <trkpt lat="48.79429" lon="2.20869">
        <ele>209</ele>
        <time>2015-06-07T10:11:49.472Z</time>
      </trkpt>
      <trkpt lat="48.79429" lon="2.20868">
        <ele>209</ele>
        <time>2015-06-07T10:11:50.475Z</time>
      </trkpt>
      <trkpt lat="48.79424" lon="2.20856">
        <ele>213</ele>
        <time>2015-06-07T10:12:09.406Z</time>
      </trkpt>
      <trkpt lat="48.79424" lon="2.20856">
        <ele>213</ele>
        <time>2015-06-07T10:12:10.392Z</time>
      </trkpt>
      <trkpt lat="48.79416" lon="2.20859">
        <ele>213</ele>
        <time>2015-06-07T10:12:22.487Z</time>
      </trkpt>
      <trkpt lat="48.79415" lon="2.2086">
        <ele>213</ele>
        <time>2015-06-07T10:12:23.456Z</time>
      </trkpt>
      <trkpt lat="48.79408" lon="2.20867">
        <ele>215</ele>
        <time>2015-06-07T10:12:32.460Z</time>
      </trkpt>
      <trkpt lat="48.79408" lon="2.20868">
        <ele>215</ele>
        <time>2015-06-07T10:12:33.471Z</time>
      </trkpt>
      <trkpt lat="48.79399" lon="2.2087">
        <ele>220</ele>
        <time>2015-06-07T10:12:41.398Z</time>
      </trkpt>
      <trkpt lat="48.79398" lon="2.2087">
        <ele>220</ele>
        <time>2015-06-07T10:12:42.449Z</time>
      </trkpt>
      <trkpt lat="48.79389" lon="2.2087">
        <ele>217</ele>
        <time>2015-06-07T10:12:51.485Z</time>
      </trkpt>
      <trkpt lat="48.79388" lon="2.20869">
        <ele>218</ele>
        <time>2015-06-07T10:12:52.491Z</time>
      </trkpt>
      <trkpt lat="48.79379" lon="2.20869">
        <ele>217</ele>
        <time>2015-06-07T10:13:00.479Z</time>
      </trkpt>
      <trkpt lat="48.79378" lon="2.20869">
        <ele>218</ele>
        <time>2015-06-07T10:13:01.526Z</time>
      </trkpt>
      <trkpt lat="48.7937" lon="2.20871">
        <ele>215</ele>
        <time>2015-06-07T10:13:13.734Z</time>
      </trkpt>
      <trkpt lat="48.79369" lon="2.20872">
        <ele>215</ele>
        <time>2015-06-07T10:13:14.511Z</time>
      </trkpt>
      <trkpt lat="48.79363" lon="2.20881">
        <ele>217</ele>
        <time>2015-06-07T10:13:21.603Z</time>
      </trkpt>
      <trkpt lat="48.79362" lon="2.20883">
        <ele>217</ele>
        <time>2015-06-07T10:13:22.447Z</time>
      </trkpt>
      <trkpt lat="48.79354" lon="2.20888">
        <ele>219</ele>
        <time>2015-06-07T10:13:34.565Z</time>
      </trkpt>
      <trkpt lat="48.79353" lon="2.20888">
        <ele>221</ele>
        <time>2015-06-07T10:13:35.486Z</time>
      </trkpt>
      <trkpt lat="48.79345" lon="2.20892">
        <ele>221</ele>
        <time>2015-06-07T10:13:42.401Z</time>
      </trkpt>
      <trkpt lat="48.79344" lon="2.20893">
        <ele>221</ele>
        <time>2015-06-07T10:13:43.407Z</time>
      </trkpt>
      <trkpt lat="48.79337" lon="2.20897">
        <ele>225</ele>
        <time>2015-06-07T10:13:50.476Z</time>
      </trkpt>
      <trkpt lat="48.79336" lon="2.20898">
        <ele>225</ele>
        <time>2015-06-07T10:13:51.486Z</time>
      </trkpt>
      <trkpt lat="48.79328" lon="2.20904">
        <ele>224</ele>
        <time>2015-06-07T10:13:58.484Z</time>
      </trkpt>
      <trkpt lat="48.79327" lon="2.20904">
        <ele>224</ele>
        <time>2015-06-07T10:13:59.464Z</time>
      </trkpt>
      <trkpt lat="48.79319" lon="2.20905">
        <ele>225</ele>
        <time>2015-06-07T10:14:06.482Z</time>
      </trkpt>
      <trkpt lat="48.79318" lon="2.20904">
        <ele>224</ele>
        <time>2015-06-07T10:14:07.492Z</time>
      </trkpt>
      <trkpt lat="48.7931" lon="2.20902">
        <ele>223</ele>
        <time>2015-06-07T10:14:14.428Z</time>
      </trkpt>
      <trkpt lat="48.79309" lon="2.20902">
        <ele>223</ele>
        <time>2015-06-07T10:14:15.480Z</time>
      </trkpt>
      <trkpt lat="48.793" lon="2.20901">
        <ele>226</ele>
        <time>2015-06-07T10:14:44.600Z</time>
      </trkpt>
      <trkpt lat="48.79299" lon="2.209">
        <ele>228</ele>
        <time>2015-06-07T10:14:45.387Z</time>
      </trkpt>
      <trkpt lat="48.793" lon="2.20888">
        <ele>217</ele>
        <time>2015-06-07T10:14:55.480Z</time>
      </trkpt>
      <trkpt lat="48.793" lon="2.20886">
        <ele>215</ele>
        <time>2015-06-07T10:14:56.480Z</time>
      </trkpt>
      <trkpt lat="48.79303" lon="2.20875">
        <ele>214</ele>
        <time>2015-06-07T10:15:03.472Z</time>
      </trkpt>
      <trkpt lat="48.79303" lon="2.20873">
        <ele>214</ele>
        <time>2015-06-07T10:15:04.386Z</time>
      </trkpt>
      <trkpt lat="48.79306" lon="2.20861">
        <ele>214</ele>
        <time>2015-06-07T10:15:13.450Z</time>
      </trkpt>
      <trkpt lat="48.79307" lon="2.2086">
        <ele>215</ele>
        <time>2015-06-07T10:15:14.467Z</time>
      </trkpt>
      <trkpt lat="48.79314" lon="2.20855">
        <ele>214</ele>
        <time>2015-06-07T10:15:21.476Z</time>
      </trkpt>
      <trkpt lat="48.79316" lon="2.20854">
        <ele>214</ele>
        <time>2015-06-07T10:15:22.483Z</time>
      </trkpt>
      <trkpt lat="48.79324" lon="2.20849">
        <ele>215</ele>
        <time>2015-06-07T10:15:29.471Z</time>
      </trkpt>
      <trkpt lat="48.79325" lon="2.20848">
        <ele>215</ele>
        <time>2015-06-07T10:15:30.490Z</time>
      </trkpt>
      <trkpt lat="48.79332" lon="2.20844">
        <ele>218</ele>
        <time>2015-06-07T10:15:35.502Z</time>
      </trkpt>
      <trkpt lat="48.79333" lon="2.20843">
        <ele>217</ele>
        <time>2015-06-07T10:15:36.449Z</time>
      </trkpt>
      <trkpt lat="48.79342" lon="2.2084">
        <ele>222</ele>
        <time>2015-06-07T10:15:48.488Z</time>
      </trkpt>
      <trkpt lat="48.79343" lon="2.20839">
        <ele>222</ele>
        <time>2015-06-07T10:15:49.458Z</time>
      </trkpt>
      <trkpt lat="48.79349" lon="2.20831">
        <ele>215</ele>
        <time>2015-06-07T10:15:56.512Z</time>
      </trkpt>
      <trkpt lat="48.7935" lon="2.2083">
        <ele>215</ele>
        <time>2015-06-07T10:15:57.416Z</time>
      </trkpt>
      <trkpt lat="48.79358" lon="2.20828">
        <ele>212</ele>
        <time>2015-06-07T10:16:03.490Z</time>
      </trkpt>
      <trkpt lat="48.79359" lon="2.20827">
        <ele>210</ele>
        <time>2015-06-07T10:16:04.528Z</time>
      </trkpt>
      <trkpt lat="48.79366" lon="2.20823">
        <ele>212</ele>
        <time>2015-06-07T10:16:09.468Z</time>
      </trkpt>
      <trkpt lat="48.79368" lon="2.20823">
        <ele>212</ele>
        <time>2015-06-07T10:16:10.581Z</time>
      </trkpt>
      <trkpt lat="48.79375" lon="2.20819">
        <ele>213</ele>
        <time>2015-06-07T10:16:17.410Z</time>
      </trkpt>
      <trkpt lat="48.79376" lon="2.20819">
        <ele>214</ele>
        <time>2015-06-07T10:16:18.436Z</time>
      </trkpt>
      <trkpt lat="48.79385" lon="2.20818">
        <ele>212</ele>
        <time>2015-06-07T10:16:26.438Z</time>
      </trkpt>
      <trkpt lat="48.79386" lon="2.20817">
        <ele>213</ele>
        <time>2015-06-07T10:16:27.488Z</time>
      </trkpt>
      <trkpt lat="48.79393" lon="2.20811">
        <ele>213</ele>
        <time>2015-06-07T10:16:32.445Z</time>
      </trkpt>
      <trkpt lat="48.79395" lon="2.20809">
        <ele>213</ele>
        <time>2015-06-07T10:16:33.634Z</time>
      </trkpt>
      <trkpt lat="48.79401" lon="2.20802">
        <ele>212</ele>
        <time>2015-06-07T10:16:40.508Z</time>
      </trkpt>
      <trkpt lat="48.79402" lon="2.208">
        <ele>212</ele>
        <time>2015-06-07T10:16:41.508Z</time>
      </trkpt>
      <trkpt lat="48.7941" lon="2.20795">
        <ele>210</ele>
        <time>2015-06-07T10:16:49.463Z</time>
      </trkpt>
      <trkpt lat="48.79411" lon="2.20794">
        <ele>210</ele>
        <time>2015-06-07T10:16:50.505Z</time>
      </trkpt>
      <trkpt lat="48.79416" lon="2.20784">
        <ele>212</ele>
        <time>2015-06-07T10:16:57.586Z</time>
      </trkpt>
      <trkpt lat="48.79417" lon="2.20782">
        <ele>212</ele>
        <time>2015-06-07T10:16:58.504Z</time>
      </trkpt>
      <trkpt lat="48.79421" lon="2.20771">
        <ele>217</ele>
        <time>2015-06-07T10:17:05.947Z</time>
      </trkpt>
      <trkpt lat="48.79421" lon="2.20769">
        <ele>215</ele>
        <time>2015-06-07T10:17:06.466Z</time>
      </trkpt>
      <trkpt lat="48.79424" lon="2.20758">
        <ele>208</ele>
        <time>2015-06-07T10:17:13.566Z</time>
      </trkpt>
      <trkpt lat="48.79425" lon="2.20756">
        <ele>208</ele>
        <time>2015-06-07T10:17:14.497Z</time>
      </trkpt>
      <trkpt lat="48.79429" lon="2.20746">
        <ele>203</ele>
        <time>2015-06-07T10:17:20.489Z</time>
      </trkpt>
      <trkpt lat="48.7943" lon="2.20744">
        <ele>203</ele>
        <time>2015-06-07T10:17:21.463Z</time>
      </trkpt>
      <trkpt lat="48.79431" lon="2.20732">
        <ele>200</ele>
        <time>2015-06-07T10:17:27.460Z</time>
      </trkpt>
      <trkpt lat="48.79432" lon="2.20729">
        <ele>200</ele>
        <time>2015-06-07T10:17:28.450Z</time>
      </trkpt>
      <trkpt lat="48.79432" lon="2.20717">
        <ele>199</ele>
        <time>2015-06-07T10:17:34.442Z</time>
      </trkpt>
      <trkpt lat="48.79432" lon="2.20715">
        <ele>199</ele>
        <time>2015-06-07T10:17:35.407Z</time>
      </trkpt>
      <trkpt lat="48.79432" lon="2.20702">
        <ele>199</ele>
        <time>2015-06-07T10:17:42.467Z</time>
      </trkpt>
      <trkpt lat="48.79433" lon="2.207">
        <ele>199</ele>
        <time>2015-06-07T10:17:43.400Z</time>
      </trkpt>
      <trkpt lat="48.79434" lon="2.20687">
        <ele>202</ele>
        <time>2015-06-07T10:17:52.393Z</time>
      </trkpt>
      <trkpt lat="48.79435" lon="2.20686">
        <ele>204</ele>
        <time>2015-06-07T10:17:53.390Z</time>
      </trkpt>
      <trkpt lat="48.79438" lon="2.20675">
        <ele>204</ele>
        <time>2015-06-07T10:18:01.438Z</time>
      </trkpt>
      <trkpt lat="48.79438" lon="2.20673">
        <ele>206</ele>
        <time>2015-06-07T10:18:02.378Z</time>
      </trkpt>
      <trkpt lat="48.79439" lon="2.20661">
        <ele>207</ele>
        <time>2015-06-07T10:18:12.449Z</time>
      </trkpt>
      <trkpt lat="48.79439" lon="2.2066">
        <ele>205</ele>
        <time>2015-06-07T10:18:13.509Z</time>
      </trkpt>
      <trkpt lat="48.79442" lon="2.20649">
        <ele>201</ele>
        <time>2015-06-07T10:18:18.489Z</time>
      </trkpt>
      <trkpt lat="48.79442" lon="2.20647">
        <ele>202</ele>
        <time>2015-06-07T10:18:19.555Z</time>
      </trkpt>
      <trkpt lat="48.79446" lon="2.20634">
        <ele>207</ele>
        <time>2015-06-07T10:18:26.502Z</time>
      </trkpt>
      <trkpt lat="48.79446" lon="2.20633">
        <ele>207</ele>
        <time>2015-06-07T10:18:28.317Z</time>
      </trkpt>
      <trkpt lat="48.79447" lon="2.20619">
        <ele>203</ele>
        <time>2015-06-07T10:18:34.582Z</time>
      </trkpt>
      <trkpt lat="48.79447" lon="2.20618">
        <ele>204</ele>
        <time>2015-06-07T10:18:35.487Z</time>
      </trkpt>
      <trkpt lat="48.79446" lon="2.20606">
        <ele>201</ele>
        <time>2015-06-07T10:18:42.448Z</time>
      </trkpt>
      <trkpt lat="48.79446" lon="2.20604">
        <ele>199</ele>
        <time>2015-06-07T10:18:43.502Z</time>
      </trkpt>
      <trkpt lat="48.79447" lon="2.20591">
        <ele>204</ele>
        <time>2015-06-07T10:18:50.410Z</time>
      </trkpt>
      <trkpt lat="48.79446" lon="2.20589">
        <ele>204</ele>
        <time>2015-06-07T10:18:51.422Z</time>
      </trkpt>
      <trkpt lat="48.79446" lon="2.20577">
        <ele>204</ele>
        <time>2015-06-07T10:19:00.472Z</time>
      </trkpt>
      <trkpt lat="48.79445" lon="2.20576">
        <ele>205</ele>
        <time>2015-06-07T10:19:01.442Z</time>
      </trkpt>
      <trkpt lat="48.79446" lon="2.20564">
        <ele>204</ele>
        <time>2015-06-07T10:19:09.580Z</time>
      </trkpt>
      <trkpt lat="48.79446" lon="2.20562">
        <ele>203</ele>
        <time>2015-06-07T10:19:10.465Z</time>
      </trkpt>
      <trkpt lat="48.79448" lon="2.2055">
        <ele>202</ele>
        <time>2015-06-07T10:19:18.578Z</time>
      </trkpt>
      <trkpt lat="48.79448" lon="2.20548">
        <ele>203</ele>
        <time>2015-06-07T10:19:19.537Z</time>
      </trkpt>
      <trkpt lat="48.79449" lon="2.20535">
        <ele>211</ele>
        <time>2015-06-07T10:19:28.406Z</time>
      </trkpt>
      <trkpt lat="48.7945" lon="2.20534">
        <ele>212</ele>
        <time>2015-06-07T10:19:29.483Z</time>
      </trkpt>
      <trkpt lat="48.79453" lon="2.20523">
        <ele>212</ele>
        <time>2015-06-07T10:19:36.451Z</time>
      </trkpt>
      <trkpt lat="48.79453" lon="2.20521">
        <ele>212</ele>
        <time>2015-06-07T10:19:37.829Z</time>
      </trkpt>
      <trkpt lat="48.79457" lon="2.20509">
        <ele>207</ele>
        <time>2015-06-07T10:19:44.547Z</time>
      </trkpt>
      <trkpt lat="48.79457" lon="2.20507">
        <ele>207</ele>
        <time>2015-06-07T10:19:45.490Z</time>
      </trkpt>
      <trkpt lat="48.79458" lon="2.20495">
        <ele>203</ele>
        <time>2015-06-07T10:19:52.477Z</time>
      </trkpt>
      <trkpt lat="48.79459" lon="2.20493">
        <ele>201</ele>
        <time>2015-06-07T10:19:53.438Z</time>
      </trkpt>
      <trkpt lat="48.79461" lon="2.20482">
        <ele>203</ele>
        <time>2015-06-07T10:19:58.502Z</time>
      </trkpt>
      <trkpt lat="48.79461" lon="2.20479">
        <ele>202</ele>
        <time>2015-06-07T10:19:59.541Z</time>
      </trkpt>
      <trkpt lat="48.79463" lon="2.20466">
        <ele>199</ele>
        <time>2015-06-07T10:20:04.478Z</time>
      </trkpt>
      <trkpt lat="48.79464" lon="2.20464">
        <ele>199</ele>
        <time>2015-06-07T10:20:05.719Z</time>
      </trkpt>
      <trkpt lat="48.79462" lon="2.20453">
        <ele>197</ele>
        <time>2015-06-07T10:20:10.489Z</time>
      </trkpt>
      <trkpt lat="48.79461" lon="2.20451">
        <ele>199</ele>
        <time>2015-06-07T10:20:11.501Z</time>
      </trkpt>
      <trkpt lat="48.79459" lon="2.20438">
        <ele>195</ele>
        <time>2015-06-07T10:20:16.576Z</time>
      </trkpt>
      <trkpt lat="48.79459" lon="2.20435">
        <ele>195</ele>
        <time>2015-06-07T10:20:18.020Z</time>
      </trkpt>
      <trkpt lat="48.79458" lon="2.20423">
        <ele>194</ele>
        <time>2015-06-07T10:20:23.510Z</time>
      </trkpt>
      <trkpt lat="48.79458" lon="2.20421">
        <ele>193</ele>
        <time>2015-06-07T10:20:24.474Z</time>
      </trkpt>
      <trkpt lat="48.79456" lon="2.20409">
        <ele>190</ele>
        <time>2015-06-07T10:20:31.486Z</time>
      </trkpt>
      <trkpt lat="48.79456" lon="2.20407">
        <ele>189</ele>
        <time>2015-06-07T10:20:32.455Z</time>
      </trkpt>
      <trkpt lat="48.7945" lon="2.20397">
        <ele>184</ele>
        <time>2015-06-07T10:20:38.457Z</time>
      </trkpt>
      <trkpt lat="48.79449" lon="2.20395">
        <ele>185</ele>
        <time>2015-06-07T10:20:39.473Z</time>
      </trkpt>
      <trkpt lat="48.79446" lon="2.20383">
        <ele>183</ele>
        <time>2015-06-07T10:20:47.451Z</time>
      </trkpt>
      <trkpt lat="48.79445" lon="2.20381">
        <ele>183</ele>
        <time>2015-06-07T10:20:48.439Z</time>
      </trkpt>
      <trkpt lat="48.79441" lon="2.2037">
        <ele>182</ele>
        <time>2015-06-07T10:20:56.400Z</time>
      </trkpt>
      <trkpt lat="48.7944" lon="2.20368">
        <ele>182</ele>
        <time>2015-06-07T10:20:57.403Z</time>
      </trkpt>
      <trkpt lat="48.79436" lon="2.20356">
        <ele>184</ele>
        <time>2015-06-07T10:21:04.416Z</time>
      </trkpt>
      <trkpt lat="48.79436" lon="2.20354">
        <ele>185</ele>
        <time>2015-06-07T10:21:05.407Z</time>
      </trkpt>
      <trkpt lat="48.79431" lon="2.20342">
        <ele>188</ele>
        <time>2015-06-07T10:21:11.402Z</time>
      </trkpt>
      <trkpt lat="48.7943" lon="2.2034">
        <ele>187</ele>
        <time>2015-06-07T10:21:12.485Z</time>
      </trkpt>
      <trkpt lat="48.79429" lon="2.20327">
        <ele>186</ele>
        <time>2015-06-07T10:21:18.477Z</time>
      </trkpt>
      <trkpt lat="48.79429" lon="2.20325">
        <ele>185</ele>
        <time>2015-06-07T10:21:19.466Z</time>
      </trkpt>
      <trkpt lat="48.79427" lon="2.20312">
        <ele>182</ele>
        <time>2015-06-07T10:21:27.456Z</time>
      </trkpt>
      <trkpt lat="48.79428" lon="2.2031">
        <ele>181</ele>
        <time>2015-06-07T10:21:28.466Z</time>
      </trkpt>
      <trkpt lat="48.79419" lon="2.20306">
        <ele>184</ele>
        <time>2015-06-07T10:21:48.424Z</time>
      </trkpt>
      <trkpt lat="48.79419" lon="2.20307">
        <ele>185</ele>
        <time>2015-06-07T10:21:49.477Z</time>
      </trkpt>
      <trkpt lat="48.79413" lon="2.20315">
        <ele>183</ele>
        <time>2015-06-07T10:21:58.419Z</time>
      </trkpt>
      <trkpt lat="48.79412" lon="2.20316">
        <ele>183</ele>
        <time>2015-06-07T10:21:59.394Z</time>
      </trkpt>
      <trkpt lat="48.79404" lon="2.20321">
        <ele>178</ele>
        <time>2015-06-07T10:22:07.490Z</time>
      </trkpt>
      <trkpt lat="48.79402" lon="2.2032">
        <ele>177</ele>
        <time>2015-06-07T10:22:08.476Z</time>
      </trkpt>
      <trkpt lat="48.79394" lon="2.20318">
        <ele>177</ele>
        <time>2015-06-07T10:22:15.475Z</time>
      </trkpt>
      <trkpt lat="48.79392" lon="2.20317">
        <ele>177</ele>
        <time>2015-06-07T10:22:16.464Z</time>
      </trkpt>
      <trkpt lat="48.79384" lon="2.20318">
        <ele>178</ele>
        <time>2015-06-07T10:22:22.456Z</time>
      </trkpt>
      <trkpt lat="48.79383" lon="2.20318">
        <ele>177</ele>
        <time>2015-06-07T10:22:23.457Z</time>
      </trkpt>
      <trkpt lat="48.79374" lon="2.20322">
        <ele>179</ele>
        <time>2015-06-07T10:22:32.433Z</time>
      </trkpt>
      <trkpt lat="48.79373" lon="2.20322">
        <ele>179</ele>
        <time>2015-06-07T10:22:33.416Z</time>
      </trkpt>
      <trkpt lat="48.79365" lon="2.20326">
        <ele>183</ele>
        <time>2015-06-07T10:22:40.447Z</time>
      </trkpt>
      <trkpt lat="48.79364" lon="2.20327">
        <ele>183</ele>
        <time>2015-06-07T10:22:41.426Z</time>
      </trkpt>
      <trkpt lat="48.79358" lon="2.20336">
        <ele>184</ele>
        <time>2015-06-07T10:22:46.454Z</time>
      </trkpt>
      <trkpt lat="48.79357" lon="2.20337">
        <ele>182</ele>
        <time>2015-06-07T10:22:47.466Z</time>
      </trkpt>
      <trkpt lat="48.7935" lon="2.20344">
        <ele>185</ele>
        <time>2015-06-07T10:22:53.484Z</time>
      </trkpt>
      <trkpt lat="48.79349" lon="2.20345">
        <ele>187</ele>
        <time>2015-06-07T10:22:54.486Z</time>
      </trkpt>
      <trkpt lat="48.79344" lon="2.20355">
        <ele>187</ele>
        <time>2015-06-07T10:23:00.422Z</time>
      </trkpt>
      <trkpt lat="48.79343" lon="2.20357">
        <ele>187</ele>
        <time>2015-06-07T10:23:01.421Z</time>
      </trkpt>
      <trkpt lat="48.79337" lon="2.20365">
        <ele>186</ele>
        <time>2015-06-07T10:23:09.440Z</time>
      </trkpt>
      <trkpt lat="48.79336" lon="2.20366">
        <ele>187</ele>
        <time>2015-06-07T10:23:10.607Z</time>
      </trkpt>
      <trkpt lat="48.79332" lon="2.20378">
        <ele>187</ele>
        <time>2015-06-07T10:23:15.435Z</time>
      </trkpt>
      <trkpt lat="48.7933" lon="2.20379">
        <ele>185</ele>
        <time>2015-06-07T10:23:16.487Z</time>
      </trkpt>
      <trkpt lat="48.79322" lon="2.20385">
        <ele>187</ele>
        <time>2015-06-07T10:23:23.023Z</time>
      </trkpt>
      <trkpt lat="48.79321" lon="2.20387">
        <ele>188</ele>
        <time>2015-06-07T10:23:23.529Z</time>
      </trkpt>
      <trkpt lat="48.79313" lon="2.20394">
        <ele>188</ele>
        <time>2015-06-07T10:23:29.488Z</time>
      </trkpt>
      <trkpt lat="48.79312" lon="2.20395">
        <ele>189</ele>
        <time>2015-06-07T10:23:30.490Z</time>
      </trkpt>
      <trkpt lat="48.79305" lon="2.20404">
        <ele>184</ele>
        <time>2015-06-07T10:23:36.481Z</time>
      </trkpt>
      <trkpt lat="48.79304" lon="2.20405">
        <ele>185</ele>
        <time>2015-06-07T10:23:37.573Z</time>
      </trkpt>
      <trkpt lat="48.79296" lon="2.20409">
        <ele>184</ele>
        <time>2015-06-07T10:23:44.507Z</time>
      </trkpt>
      <trkpt lat="48.79295" lon="2.2041">
        <ele>183</ele>
        <time>2015-06-07T10:23:45.476Z</time>
      </trkpt>
      <trkpt lat="48.79287" lon="2.20416">
        <ele>183</ele>
        <time>2015-06-07T10:23:55.516Z</time>
      </trkpt>
      <trkpt lat="48.79286" lon="2.20417">
        <ele>182</ele>
        <time>2015-06-07T10:23:56.464Z</time>
      </trkpt>
      <trkpt lat="48.7928" lon="2.20424">
        <ele>183</ele>
        <time>2015-06-07T10:24:03.001Z</time>
      </trkpt>
      <trkpt lat="48.79278" lon="2.20425">
        <ele>183</ele>
        <time>2015-06-07T10:24:03.410Z</time>
      </trkpt>
      <trkpt lat="48.79272" lon="2.20432">
        <ele>188</ele>
        <time>2015-06-07T10:24:12.470Z</time>
      </trkpt>
      <trkpt lat="48.79271" lon="2.20433">
        <ele>189</ele>
        <time>2015-06-07T10:24:13.466Z</time>
      </trkpt>
      <trkpt lat="48.79264" lon="2.2044">
        <ele>190</ele>
        <time>2015-06-07T10:24:19.416Z</time>
      </trkpt>
      <trkpt lat="48.79263" lon="2.20442">
        <ele>192</ele>
        <time>2015-06-07T10:24:20.480Z</time>
      </trkpt>
      <trkpt lat="48.79254" lon="2.20446">
        <ele>194</ele>
        <time>2015-06-07T10:24:31.476Z</time>
      </trkpt>
      <trkpt lat="48.79254" lon="2.20448">
        <ele>194</ele>
        <time>2015-06-07T10:24:32.497Z</time>
      </trkpt>
      <trkpt lat="48.79248" lon="2.20457">
        <ele>191</ele>
        <time>2015-06-07T10:24:38.463Z</time>
      </trkpt>
      <trkpt lat="48.79248" lon="2.20459">
        <ele>190</ele>
        <time>2015-06-07T10:24:39.470Z</time>
      </trkpt>
      <trkpt lat="48.79242" lon="2.20468">
        <ele>190</ele>
        <time>2015-06-07T10:24:44.473Z</time>
      </trkpt>
      <trkpt lat="48.79241" lon="2.20468">
        <ele>192</ele>
        <time>2015-06-07T10:24:45.479Z</time>
      </trkpt>
      <trkpt lat="48.79233" lon="2.20474">
        <ele>190</ele>
        <time>2015-06-07T10:24:53.624Z</time>
      </trkpt>
      <trkpt lat="48.79232" lon="2.20475">
        <ele>191</ele>
        <time>2015-06-07T10:24:54.522Z</time>
      </trkpt>
      <trkpt lat="48.79224" lon="2.20477">
        <ele>191</ele>
        <time>2015-06-07T10:25:01.742Z</time>
      </trkpt>
      <trkpt lat="48.79223" lon="2.20476">
        <ele>191</ele>
        <time>2015-06-07T10:25:02.481Z</time>
      </trkpt>
      <trkpt lat="48.79216" lon="2.20475">
        <ele>196</ele>
        <time>2015-06-07T10:25:08.480Z</time>
      </trkpt>
      <trkpt lat="48.79213" lon="2.20477">
        <ele>196</ele>
        <time>2015-06-07T10:25:09.609Z</time>
      </trkpt>
      <trkpt lat="48.79205" lon="2.20481">
        <ele>195</ele>
        <time>2015-06-07T10:25:13.649Z</time>
      </trkpt>
      <trkpt lat="48.79204" lon="2.20481">
        <ele>197</ele>
        <time>2015-06-07T10:25:14.494Z</time>
      </trkpt>
      <trkpt lat="48.79195" lon="2.20483">
        <ele>192</ele>
        <time>2015-06-07T10:25:24.589Z</time>
      </trkpt>
      <trkpt lat="48.79194" lon="2.20484">
        <ele>193</ele>
        <time>2015-06-07T10:25:25.495Z</time>
      </trkpt>
      <trkpt lat="48.79186" lon="2.20489">
        <ele>192</ele>
        <time>2015-06-07T10:25:30.463Z</time>
      </trkpt>
      <trkpt lat="48.79185" lon="2.20489">
        <ele>191</ele>
        <time>2015-06-07T10:25:31.473Z</time>
      </trkpt>
      <trkpt lat="48.79179" lon="2.20479">
        <ele>194</ele>
        <time>2015-06-07T10:25:39.409Z</time>
      </trkpt>
      <trkpt lat="48.79178" lon="2.20478">
        <ele>195</ele>
        <time>2015-06-07T10:25:40.498Z</time>
      </trkpt>
      <trkpt lat="48.7917" lon="2.20472">
        <ele>192</ele>
        <time>2015-06-07T10:25:51.501Z</time>
      </trkpt>
      <trkpt lat="48.79169" lon="2.20473">
        <ele>193</ele>
        <time>2015-06-07T10:25:52.438Z</time>
      </trkpt>
      <trkpt lat="48.79161" lon="2.2047">
        <ele>196</ele>
        <time>2015-06-07T10:26:10.454Z</time>
      </trkpt>
      <trkpt lat="48.79159" lon="2.20469">
        <ele>192</ele>
        <time>2015-06-07T10:26:11.449Z</time>
      </trkpt>
      <trkpt lat="48.79152" lon="2.20466">
        <ele>191</ele>
        <time>2015-06-07T10:26:15.448Z</time>
      </trkpt>
      <trkpt lat="48.7915" lon="2.20466">
        <ele>191</ele>
        <time>2015-06-07T10:26:16.459Z</time>
      </trkpt>
      <trkpt lat="48.79141" lon="2.20463">
        <ele>187</ele>
        <time>2015-06-07T10:26:21.466Z</time>
      </trkpt>
      <trkpt lat="48.7914" lon="2.20461">
        <ele>188</ele>
        <time>2015-06-07T10:26:22.477Z</time>
      </trkpt>
      <trkpt lat="48.79134" lon="2.20451">
        <ele>183</ele>
        <time>2015-06-07T10:26:28.489Z</time>
      </trkpt>
      <trkpt lat="48.79132" lon="2.2045">
        <ele>183</ele>
        <time>2015-06-07T10:26:29.479Z</time>
      </trkpt>
      <trkpt lat="48.79124" lon="2.20445">
        <ele>185</ele>
        <time>2015-06-07T10:26:33.473Z</time>
      </trkpt>
      <trkpt lat="48.79123" lon="2.20444">
        <ele>187</ele>
        <time>2015-06-07T10:26:34.486Z</time>
      </trkpt>
      <trkpt lat="48.79116" lon="2.20438">
        <ele>190</ele>
        <time>2015-06-07T10:26:42.489Z</time>
      </trkpt>
      <trkpt lat="48.79114" lon="2.20437">
        <ele>190</ele>
        <time>2015-06-07T10:26:43.457Z</time>
      </trkpt>
      <trkpt lat="48.79106" lon="2.20437">
        <ele>192</ele>
        <time>2015-06-07T10:26:49.485Z</time>
      </trkpt>
      <trkpt lat="48.79105" lon="2.20436">
        <ele>193</ele>
        <time>2015-06-07T10:26:50.506Z</time>
      </trkpt>
      <trkpt lat="48.79098" lon="2.20428">
        <ele>189</ele>
        <time>2015-06-07T10:26:59.484Z</time>
      </trkpt>
      <trkpt lat="48.79097" lon="2.20428">
        <ele>189</ele>
        <time>2015-06-07T10:27:00.531Z</time>
      </trkpt>
      <trkpt lat="48.7909" lon="2.20425">
        <ele>194</ele>
        <time>2015-06-07T10:27:06.487Z</time>
      </trkpt>
      <trkpt lat="48.79088" lon="2.20424">
        <ele>194</ele>
        <time>2015-06-07T10:27:07.484Z</time>
      </trkpt>
      <trkpt lat="48.79081" lon="2.20418">
        <ele>190</ele>
        <time>2015-06-07T10:27:14.506Z</time>
      </trkpt>
      <trkpt lat="48.79079" lon="2.20417">
        <ele>188</ele>
        <time>2015-06-07T10:27:15.427Z</time>
      </trkpt>
      <trkpt lat="48.79072" lon="2.20413">
        <ele>191</ele>
        <time>2015-06-07T10:27:22.426Z</time>
      </trkpt>
      <trkpt lat="48.7907" lon="2.20413">
        <ele>191</ele>
        <time>2015-06-07T10:27:23.435Z</time>
      </trkpt>
      <trkpt lat="48.79063" lon="2.2041">
        <ele>190</ele>
        <time>2015-06-07T10:27:28.487Z</time>
      </trkpt>
      <trkpt lat="48.79061" lon="2.2041">
        <ele>190</ele>
        <time>2015-06-07T10:27:29.477Z</time>
      </trkpt>
      <trkpt lat="48.79054" lon="2.20407">
        <ele>194</ele>
        <time>2015-06-07T10:27:33.533Z</time>
      </trkpt>
      <trkpt lat="48.79053" lon="2.20406">
        <ele>194</ele>
        <time>2015-06-07T10:27:34.488Z</time>
      </trkpt>
      <trkpt lat="48.79045" lon="2.20403">
        <ele>198</ele>
        <time>2015-06-07T10:27:45.480Z</time>
      </trkpt>
      <trkpt lat="48.79043" lon="2.20403">
        <ele>198</ele>
        <time>2015-06-07T10:27:46.568Z</time>
      </trkpt>
      <trkpt lat="48.79036" lon="2.20403">
        <ele>198</ele>
        <time>2015-06-07T10:27:51.470Z</time>
      </trkpt>
      <trkpt lat="48.79034" lon="2.20403">
        <ele>197</ele>
        <time>2015-06-07T10:27:52.512Z</time>
      </trkpt>
      <trkpt lat="48.79025" lon="2.20402">
        <ele>200</ele>
        <time>2015-06-07T10:28:00.441Z</time>
      </trkpt>
      <trkpt lat="48.79024" lon="2.20401">
        <ele>199</ele>
        <time>2015-06-07T10:28:01.499Z</time>
      </trkpt>
      <trkpt lat="48.79016" lon="2.20399">
        <ele>205</ele>
        <time>2015-06-07T10:28:07.583Z</time>
      </trkpt>
      <trkpt lat="48.79015" lon="2.20399">
        <ele>204</ele>
        <time>2015-06-07T10:28:08.488Z</time>
      </trkpt>
      <trkpt lat="48.79007" lon="2.20397">
        <ele>198</ele>
        <time>2015-06-07T10:28:14.450Z</time>
      </trkpt>
      <trkpt lat="48.79006" lon="2.20397">
        <ele>198</ele>
        <time>2015-06-07T10:28:15.497Z</time>
      </trkpt>
      <trkpt lat="48.78998" lon="2.20398">
        <ele>199</ele>
        <time>2015-06-07T10:28:24.469Z</time>
      </trkpt>
      <trkpt lat="48.78996" lon="2.20398">
        <ele>199</ele>
        <time>2015-06-07T10:28:25.494Z</time>
      </trkpt>
      <trkpt lat="48.78988" lon="2.204">
        <ele>199</ele>
        <time>2015-06-07T10:28:30.477Z</time>
      </trkpt>
      <trkpt lat="48.78987" lon="2.204">
        <ele>198</ele>
        <time>2015-06-07T10:28:31.481Z</time>
      </trkpt>
      <trkpt lat="48.78978" lon="2.20397">
        <ele>197</ele>
        <time>2015-06-07T10:28:37.475Z</time>
      </trkpt>
      <trkpt lat="48.78977" lon="2.20397">
        <ele>196</ele>
        <time>2015-06-07T10:28:38.488Z</time>
      </trkpt>
      <trkpt lat="48.78968" lon="2.20393">
        <ele>193</ele>
        <time>2015-06-07T10:28:45.486Z</time>
      </trkpt>
      <trkpt lat="48.78967" lon="2.20394">
        <ele>192</ele>
        <time>2015-06-07T10:28:46.420Z</time>
      </trkpt>
      <trkpt lat="48.78959" lon="2.20396">
        <ele>193</ele>
        <time>2015-06-07T10:28:52.482Z</time>
      </trkpt>
      <trkpt lat="48.78958" lon="2.20396">
        <ele>194</ele>
        <time>2015-06-07T10:28:53.436Z</time>
      </trkpt>
      <trkpt lat="48.7895" lon="2.20395">
        <ele>192</ele>
        <time>2015-06-07T10:28:58.423Z</time>
      </trkpt>
      <trkpt lat="48.78948" lon="2.20397">
        <ele>193</ele>
        <time>2015-06-07T10:28:59.473Z</time>
      </trkpt>
      <trkpt lat="48.78939" lon="2.20398">
        <ele>190</ele>
        <time>2015-06-07T10:29:06.504Z</time>
      </trkpt>
      <trkpt lat="48.78938" lon="2.20398">
        <ele>191</ele>
        <time>2015-06-07T10:29:08.009Z</time>
      </trkpt>
      <trkpt lat="48.7893" lon="2.204">
        <ele>185</ele>
        <time>2015-06-07T10:29:17.413Z</time>
      </trkpt>
      <trkpt lat="48.78929" lon="2.204">
        <ele>185</ele>
        <time>2015-06-07T10:29:18.430Z</time>
      </trkpt>
      <trkpt lat="48.7892" lon="2.204">
        <ele>186</ele>
        <time>2015-06-07T10:29:25.491Z</time>
      </trkpt>
      <trkpt lat="48.78919" lon="2.20401">
        <ele>185</ele>
        <time>2015-06-07T10:29:26.481Z</time>
      </trkpt>
      <trkpt lat="48.7891" lon="2.20403">
        <ele>183</ele>
        <time>2015-06-07T10:29:35.479Z</time>
      </trkpt>
      <trkpt lat="48.78909" lon="2.20403">
        <ele>182</ele>
        <time>2015-06-07T10:29:36.480Z</time>
      </trkpt>
      <trkpt lat="48.78901" lon="2.20403">
        <ele>185</ele>
        <time>2015-06-07T10:29:42.593Z</time>
      </trkpt>
      <trkpt lat="48.789" lon="2.20403">
        <ele>184</ele>
        <time>2015-06-07T10:29:43.448Z</time>
      </trkpt>
      <trkpt lat="48.78895" lon="2.20393">
        <ele>186</ele>
        <time>2015-06-07T10:29:49.484Z</time>
      </trkpt>
      <trkpt lat="48.78894" lon="2.20391">
        <ele>186</ele>
        <time>2015-06-07T10:29:50.464Z</time>
      </trkpt>
      <trkpt lat="48.78887" lon="2.20387">
        <ele>184</ele>
        <time>2015-06-07T10:29:57.473Z</time>
      </trkpt>
      <trkpt lat="48.78886" lon="2.20386">
        <ele>184</ele>
        <time>2015-06-07T10:29:58.472Z</time>
      </trkpt>
      <trkpt lat="48.78878" lon="2.20379">
        <ele>188</ele>
        <time>2015-06-07T10:30:08.469Z</time>
      </trkpt>
      <trkpt lat="48.78877" lon="2.20378">
        <ele>190</ele>
        <time>2015-06-07T10:30:09.498Z</time>
      </trkpt>
      <trkpt lat="48.78869" lon="2.20373">
        <ele>189</ele>
        <time>2015-06-07T10:30:17.465Z</time>
      </trkpt>
      <trkpt lat="48.78868" lon="2.20373">
        <ele>189</ele>
        <time>2015-06-07T10:30:18.456Z</time>
      </trkpt>
      <trkpt lat="48.78863" lon="2.20366">
        <ele>190</ele>
        <time>2015-06-07T10:30:23.416Z</time>
      </trkpt>
      <trkpt lat="48.78861" lon="2.20365">
        <ele>187</ele>
        <time>2015-06-07T10:30:24.421Z</time>
      </trkpt>
      <trkpt lat="48.78853" lon="2.20358">
        <ele>181</ele>
        <time>2015-06-07T10:30:31.406Z</time>
      </trkpt>
      <trkpt lat="48.78852" lon="2.20357">
        <ele>181</ele>
        <time>2015-06-07T10:30:32.448Z</time>
      </trkpt>
      <trkpt lat="48.78845" lon="2.20352">
        <ele>178</ele>
        <time>2015-06-07T10:30:39.458Z</time>
      </trkpt>
      <trkpt lat="48.78843" lon="2.20351">
        <ele>178</ele>
        <time>2015-06-07T10:30:40.488Z</time>
      </trkpt>
      <trkpt lat="48.78836" lon="2.20349">
        <ele>178</ele>
        <time>2015-06-07T10:30:45.573Z</time>
      </trkpt>
      <trkpt lat="48.78834" lon="2.20349">
        <ele>178</ele>
        <time>2015-06-07T10:30:46.573Z</time>
      </trkpt>
      <trkpt lat="48.78827" lon="2.20345">
        <ele>179</ele>
        <time>2015-06-07T10:30:52.503Z</time>
      </trkpt>
      <trkpt lat="48.78826" lon="2.20343">
        <ele>180</ele>
        <time>2015-06-07T10:30:53.504Z</time>
      </trkpt>
      <trkpt lat="48.78821" lon="2.20334">
        <ele>179</ele>
        <time>2015-06-07T10:31:01.538Z</time>
      </trkpt>
      <trkpt lat="48.7882" lon="2.20333">
        <ele>182</ele>
        <time>2015-06-07T10:31:02.510Z</time>
      </trkpt>
      <trkpt lat="48.78813" lon="2.20325">
        <ele>183</ele>
        <time>2015-06-07T10:31:08.448Z</time>
      </trkpt>
      <trkpt lat="48.78811" lon="2.20324">
        <ele>185</ele>
        <time>2015-06-07T10:31:09.481Z</time>
      </trkpt>
      <trkpt lat="48.78805" lon="2.20317">
        <ele>186</ele>
        <time>2015-06-07T10:31:16.467Z</time>
      </trkpt>
      <trkpt lat="48.78804" lon="2.20316">
        <ele>188</ele>
        <time>2015-06-07T10:31:17.588Z</time>
      </trkpt>
      <trkpt lat="48.78797" lon="2.2031">
        <ele>188</ele>
        <time>2015-06-07T10:31:27.497Z</time>
      </trkpt>
      <trkpt lat="48.78796" lon="2.2031">
        <ele>187</ele>
        <time>2015-06-07T10:31:28.500Z</time>
      </trkpt>
      <trkpt lat="48.78789" lon="2.2031">
        <ele>184</ele>
        <time>2015-06-07T10:31:31.525Z</time>
      </trkpt>
      <trkpt lat="48.78786" lon="2.2031">
        <ele>183</ele>
        <time>2015-06-07T10:31:32.553Z</time>
      </trkpt>
      <trkpt lat="48.78778" lon="2.20305">
        <ele>180</ele>
        <time>2015-06-07T10:31:39.493Z</time>
      </trkpt>
      <trkpt lat="48.78778" lon="2.20304">
        <ele>181</ele>
        <time>2015-06-07T10:31:40.502Z</time>
      </trkpt>
      <trkpt lat="48.7877" lon="2.203">
        <ele>177</ele>
        <time>2015-06-07T10:31:46.497Z</time>
      </trkpt>
      <trkpt lat="48.78769" lon="2.20299">
        <ele>177</ele>
        <time>2015-06-07T10:31:47.450Z</time>
      </trkpt>
      <trkpt lat="48.78763" lon="2.20289">
        <ele>182</ele>
        <time>2015-06-07T10:31:55.415Z</time>
      </trkpt>
      <trkpt lat="48.78762" lon="2.20287">
        <ele>183</ele>
        <time>2015-06-07T10:31:56.400Z</time>
      </trkpt>
      <trkpt lat="48.78757" lon="2.20277">
        <ele>187</ele>
        <time>2015-06-07T10:32:03.401Z</time>
      </trkpt>
      <trkpt lat="48.78757" lon="2.20275">
        <ele>187</ele>
        <time>2015-06-07T10:32:04.392Z</time>
      </trkpt>
      <trkpt lat="48.78752" lon="2.20263">
        <ele>191</ele>
        <time>2015-06-07T10:32:12.411Z</time>
      </trkpt>
      <trkpt lat="48.78752" lon="2.20262">
        <ele>191</ele>
        <time>2015-06-07T10:32:13.440Z</time>
      </trkpt>
      <trkpt lat="48.78747" lon="2.20251">
        <ele>191</ele>
        <time>2015-06-07T10:32:21.553Z</time>
      </trkpt>
      <trkpt lat="48.78747" lon="2.20249">
        <ele>193</ele>
        <time>2015-06-07T10:32:22.501Z</time>
      </trkpt>
      <trkpt lat="48.78743" lon="2.20237">
        <ele>193</ele>
        <time>2015-06-07T10:32:30.510Z</time>
      </trkpt>
      <trkpt lat="48.78742" lon="2.20236">
        <ele>192</ele>
        <time>2015-06-07T10:32:31.426Z</time>
      </trkpt>
      <trkpt lat="48.78741" lon="2.20223">
        <ele>195</ele>
        <time>2015-06-07T10:32:38.473Z</time>
      </trkpt>
      <trkpt lat="48.78741" lon="2.20221">
        <ele>196</ele>
        <time>2015-06-07T10:32:39.391Z</time>
      </trkpt>
      <trkpt lat="48.78736" lon="2.20213">
        <ele>193</ele>
        <time>2015-06-07T10:32:45.446Z</time>
      </trkpt>
      <trkpt lat="48.78734" lon="2.20212">
        <ele>192</ele>
        <time>2015-06-07T10:32:46.501Z</time>
      </trkpt>
      <trkpt lat="48.78729" lon="2.20202">
        <ele>197</ele>
        <time>2015-06-07T10:32:54.506Z</time>
      </trkpt>
      <trkpt lat="48.78728" lon="2.20201">
        <ele>196</ele>
        <time>2015-06-07T10:32:55.480Z</time>
      </trkpt>
      <trkpt lat="48.78721" lon="2.20197">
        <ele>196</ele>
        <time>2015-06-07T10:33:00.682Z</time>
      </trkpt>
      <trkpt lat="48.7872" lon="2.20196">
        <ele>195</ele>
        <time>2015-06-07T10:33:01.471Z</time>
      </trkpt>
      <trkpt lat="48.78713" lon="2.20189">
        <ele>195</ele>
        <time>2015-06-07T10:33:07.472Z</time>
      </trkpt>
      <trkpt lat="48.78712" lon="2.20188">
        <ele>196</ele>
        <time>2015-06-07T10:33:08.452Z</time>
      </trkpt>
      <trkpt lat="48.7871" lon="2.20175">
        <ele>195</ele>
        <time>2015-06-07T10:33:15.463Z</time>
      </trkpt>
      <trkpt lat="48.78709" lon="2.20174">
        <ele>195</ele>
        <time>2015-06-07T10:33:16.459Z</time>
      </trkpt>
      <trkpt lat="48.78703" lon="2.20165">
        <ele>197</ele>
        <time>2015-06-07T10:33:22.450Z</time>
      </trkpt>
      <trkpt lat="48.78702" lon="2.20163">
        <ele>197</ele>
        <time>2015-06-07T10:33:23.464Z</time>
      </trkpt>
      <trkpt lat="48.78699" lon="2.20151">
        <ele>196</ele>
        <time>2015-06-07T10:33:30.441Z</time>
      </trkpt>
      <trkpt lat="48.78698" lon="2.20149">
        <ele>195</ele>
        <time>2015-06-07T10:33:31.407Z</time>
      </trkpt>
      <trkpt lat="48.78693" lon="2.20139">
        <ele>195</ele>
        <time>2015-06-07T10:33:39.465Z</time>
      </trkpt>
      <trkpt lat="48.78692" lon="2.20138">
        <ele>194</ele>
        <time>2015-06-07T10:33:40.420Z</time>
      </trkpt>
      <trkpt lat="48.78687" lon="2.20129">
        <ele>191</ele>
        <time>2015-06-07T10:33:48.509Z</time>
      </trkpt>
      <trkpt lat="48.78686" lon="2.20128">
        <ele>192</ele>
        <time>2015-06-07T10:33:49.966Z</time>
      </trkpt>
      <trkpt lat="48.78681" lon="2.20117">
        <ele>191</ele>
        <time>2015-06-07T10:33:58.469Z</time>
      </trkpt>
      <trkpt lat="48.78681" lon="2.20116">
        <ele>192</ele>
        <time>2015-06-07T10:33:59.478Z</time>
      </trkpt>
      <trkpt lat="48.78678" lon="2.20104">
        <ele>192</ele>
        <time>2015-06-07T10:34:09.554Z</time>
      </trkpt>
      <trkpt lat="48.78678" lon="2.20102">
        <ele>193</ele>
        <time>2015-06-07T10:34:10.509Z</time>
      </trkpt>
      <trkpt lat="48.78675" lon="2.2009">
        <ele>195</ele>
        <time>2015-06-07T10:34:19.493Z</time>
      </trkpt>
      <trkpt lat="48.78675" lon="2.20088">
        <ele>196</ele>
        <time>2015-06-07T10:34:20.465Z</time>
      </trkpt>
      <trkpt lat="48.78673" lon="2.20076">
        <ele>198</ele>
        <time>2015-06-07T10:34:28.436Z</time>
      </trkpt>
      <trkpt lat="48.78672" lon="2.20074">
        <ele>199</ele>
        <time>2015-06-07T10:34:29.392Z</time>
      </trkpt>
      <trkpt lat="48.7867" lon="2.20062">
        <ele>201</ele>
        <time>2015-06-07T10:34:36.479Z</time>
      </trkpt>
      <trkpt lat="48.7867" lon="2.2006">
        <ele>201</ele>
        <time>2015-06-07T10:34:37.450Z</time>
      </trkpt>
      <trkpt lat="48.78671" lon="2.20047">
        <ele>206</ele>
        <time>2015-06-07T10:34:44.468Z</time>
      </trkpt>
      <trkpt lat="48.78672" lon="2.20045">
        <ele>207</ele>
        <time>2015-06-07T10:34:45.433Z</time>
      </trkpt>
      <trkpt lat="48.78673" lon="2.20032">
        <ele>206</ele>
        <time>2015-06-07T10:34:54.439Z</time>
      </trkpt>
      <trkpt lat="48.78673" lon="2.2003">
        <ele>207</ele>
        <time>2015-06-07T10:34:55.489Z</time>
      </trkpt>
      <trkpt lat="48.78674" lon="2.20018">
        <ele>211</ele>
        <time>2015-06-07T10:35:02.469Z</time>
      </trkpt>
      <trkpt lat="48.78673" lon="2.20016">
        <ele>211</ele>
        <time>2015-06-07T10:35:03.421Z</time>
      </trkpt>
      <trkpt lat="48.78671" lon="2.20005">
        <ele>209</ele>
        <time>2015-06-07T10:35:10.429Z</time>
      </trkpt>
      <trkpt lat="48.7867" lon="2.20004">
        <ele>209</ele>
        <time>2015-06-07T10:35:11.425Z</time>
      </trkpt>
      <trkpt lat="48.78664" lon="2.19994">
        <ele>211</ele>
        <time>2015-06-07T10:35:17.679Z</time>
      </trkpt>
      <trkpt lat="48.78663" lon="2.19992">
        <ele>210</ele>
        <time>2015-06-07T10:35:18.509Z</time>
      </trkpt>
      <trkpt lat="48.78657" lon="2.19985">
        <ele>213</ele>
        <time>2015-06-07T10:35:23.482Z</time>
      </trkpt>
      <trkpt lat="48.78656" lon="2.19983">
        <ele>213</ele>
        <time>2015-06-07T10:35:24.439Z</time>
      </trkpt>
      <trkpt lat="48.7865" lon="2.19973">
        <ele>216</ele>
        <time>2015-06-07T10:35:31.422Z</time>
      </trkpt>
      <trkpt lat="48.7865" lon="2.19972">
        <ele>218</ele>
        <time>2015-06-07T10:35:32.413Z</time>
      </trkpt>
      <trkpt lat="48.78646" lon="2.19961">
        <ele>218</ele>
        <time>2015-06-07T10:35:39.530Z</time>
      </trkpt>
      <trkpt lat="48.78645" lon="2.19959">
        <ele>218</ele>
        <time>2015-06-07T10:35:40.626Z</time>
      </trkpt>
      <trkpt lat="48.78643" lon="2.19947">
        <ele>221</ele>
        <time>2015-06-07T10:35:47.488Z</time>
      </trkpt>
      <trkpt lat="48.78643" lon="2.19945">
        <ele>222</ele>
        <time>2015-06-07T10:35:48.563Z</time>
      </trkpt>
      <trkpt lat="48.7864" lon="2.19934">
        <ele>225</ele>
        <time>2015-06-07T10:35:56.510Z</time>
      </trkpt>
      <trkpt lat="48.7864" lon="2.19932">
        <ele>226</ele>
        <time>2015-06-07T10:35:57.532Z</time>
      </trkpt>
      <trkpt lat="48.78634" lon="2.19924">
        <ele>223</ele>
        <time>2015-06-07T10:36:03.506Z</time>
      </trkpt>
      <trkpt lat="48.78633" lon="2.19923">
        <ele>222</ele>
        <time>2015-06-07T10:36:04.535Z</time>
      </trkpt>
      <trkpt lat="48.78626" lon="2.19918">
        <ele>216</ele>
        <time>2015-06-07T10:36:09.479Z</time>
      </trkpt>
      <trkpt lat="48.78625" lon="2.19917">
        <ele>212</ele>
        <time>2015-06-07T10:36:10.676Z</time>
      </trkpt>
      <trkpt lat="48.78617" lon="2.1991">
        <ele>208</ele>
        <time>2015-06-07T10:36:15.479Z</time>
      </trkpt>
      <trkpt lat="48.78615" lon="2.19909">
        <ele>208</ele>
        <time>2015-06-07T10:36:16.448Z</time>
      </trkpt>
      <trkpt lat="48.78608" lon="2.19901">
        <ele>204</ele>
        <time>2015-06-07T10:36:22.522Z</time>
      </trkpt>
      <trkpt lat="48.78607" lon="2.199">
        <ele>202</ele>
        <time>2015-06-07T10:36:23.463Z</time>
      </trkpt>
      <trkpt lat="48.786" lon="2.19893">
        <ele>203</ele>
        <time>2015-06-07T10:36:31.444Z</time>
      </trkpt>
      <trkpt lat="48.78599" lon="2.19893">
        <ele>203</ele>
        <time>2015-06-07T10:36:32.393Z</time>
      </trkpt>
      <trkpt lat="48.78592" lon="2.19886">
        <ele>201</ele>
        <time>2015-06-07T10:36:41.394Z</time>
      </trkpt>
      <trkpt lat="48.78591" lon="2.19885">
        <ele>200</ele>
        <time>2015-06-07T10:36:42.416Z</time>
      </trkpt>
      <trkpt lat="48.78585" lon="2.19877">
        <ele>199</ele>
        <time>2015-06-07T10:36:53.507Z</time>
      </trkpt>
      <trkpt lat="48.78585" lon="2.19875">
        <ele>199</ele>
        <time>2015-06-07T10:36:54.455Z</time>
      </trkpt>
      <trkpt lat="48.78584" lon="2.19862">
        <ele>199</ele>
        <time>2015-06-07T10:37:05.415Z</time>
      </trkpt>
      <trkpt lat="48.78584" lon="2.19861">
        <ele>200</ele>
        <time>2015-06-07T10:37:06.502Z</time>
      </trkpt>
      <trkpt lat="48.78591" lon="2.19852">
        <ele>201</ele>
        <time>2015-06-07T10:37:18.508Z</time>
      </trkpt>
      <trkpt lat="48.78591" lon="2.19851">
        <ele>202</ele>
        <time>2015-06-07T10:37:19.530Z</time>
      </trkpt>
      <trkpt lat="48.78589" lon="2.19841">
        <ele>193</ele>
        <time>2015-06-07T10:37:43.480Z</time>
      </trkpt>
      <trkpt lat="48.78589" lon="2.19838">
        <ele>194</ele>
        <time>2015-06-07T10:37:44.496Z</time>
      </trkpt>
      <trkpt lat="48.78589" lon="2.19826">
        <ele>195</ele>
        <time>2015-06-07T10:37:49.487Z</time>
      </trkpt>
      <trkpt lat="48.78589" lon="2.19824">
        <ele>195</ele>
        <time>2015-06-07T10:37:50.458Z</time>
      </trkpt>
      <trkpt lat="48.78581" lon="2.1982">
        <ele>194</ele>
        <time>2015-06-07T10:37:57.472Z</time>
      </trkpt>
      <trkpt lat="48.7858" lon="2.1982">
        <ele>194</ele>
        <time>2015-06-07T10:37:58.499Z</time>
      </trkpt>
      <trkpt lat="48.78582" lon="2.19832">
        <ele>195</ele>
        <time>2015-06-07T10:38:21.455Z</time>
      </trkpt>
      <trkpt lat="48.78582" lon="2.19833">
        <ele>195</ele>
        <time>2015-06-07T10:38:22.491Z</time>
      </trkpt>
      <trkpt lat="48.78585" lon="2.19846">
        <ele>195</ele>
        <time>2015-06-07T10:38:51.480Z</time>
      </trkpt>
      <trkpt lat="48.78584" lon="2.19848">
        <ele>195</ele>
        <time>2015-06-07T10:38:52.498Z</time>
      </trkpt>
      <trkpt lat="48.7859" lon="2.19839">
        <ele>197</ele>
        <time>2015-06-07T10:39:51.401Z</time>
      </trkpt>
      <trkpt lat="48.78591" lon="2.19838">
        <ele>197</ele>
        <time>2015-06-07T10:39:52.392Z</time>
      </trkpt>
      <trkpt lat="48.78599" lon="2.19836">
        <ele>194</ele>
        <time>2015-06-07T10:39:58.752Z</time>
      </trkpt>
      <trkpt lat="48.78602" lon="2.19836">
        <ele>192</ele>
        <time>2015-06-07T10:40:00.561Z</time>
      </trkpt>
      <trkpt lat="48.78609" lon="2.19841">
        <ele>190</ele>
        <time>2015-06-07T10:40:09.591Z</time>
      </trkpt>
      <trkpt lat="48.7861" lon="2.19842">
        <ele>191</ele>
        <time>2015-06-07T10:40:10.496Z</time>
      </trkpt>
      <trkpt lat="48.78618" lon="2.19846">
        <ele>190</ele>
        <time>2015-06-07T10:40:19.484Z</time>
      </trkpt>
      <trkpt lat="48.78619" lon="2.19846">
        <ele>189</ele>
        <time>2015-06-07T10:40:20.504Z</time>
      </trkpt>
      <trkpt lat="48.78628" lon="2.19844">
        <ele>195</ele>
        <time>2015-06-07T10:40:32.502Z</time>
      </trkpt>
      <trkpt lat="48.78628" lon="2.19844">
        <ele>195</ele>
        <time>2015-06-07T10:40:33.677Z</time>
      </trkpt>
      <trkpt lat="48.78637" lon="2.19843">
        <ele>193</ele>
        <time>2015-06-07T10:40:41.639Z</time>
      </trkpt>
      <trkpt lat="48.78638" lon="2.19843">
        <ele>195</ele>
        <time>2015-06-07T10:40:42.445Z</time>
      </trkpt>
      <trkpt lat="48.78647" lon="2.19842">
        <ele>195</ele>
        <time>2015-06-07T10:40:50.525Z</time>
      </trkpt>
      <trkpt lat="48.78648" lon="2.19841">
        <ele>195</ele>
        <time>2015-06-07T10:40:51.515Z</time>
      </trkpt>
      <trkpt lat="48.78655" lon="2.19833">
        <ele>197</ele>
        <time>2015-06-07T10:41:06.483Z</time>
      </trkpt>
      <trkpt lat="48.78655" lon="2.19833">
        <ele>197</ele>
        <time>2015-06-07T10:41:07.485Z</time>
      </trkpt>
      <trkpt lat="48.78649" lon="2.19842">
        <ele>187</ele>
        <time>2015-06-07T10:41:27.394Z</time>
      </trkpt>
      <trkpt lat="48.78648" lon="2.19842">
        <ele>187</ele>
        <time>2015-06-07T10:41:28.485Z</time>
      </trkpt>
      <trkpt lat="48.7864" lon="2.19845">
        <ele>190</ele>
        <time>2015-06-07T10:41:34.503Z</time>
      </trkpt>
      <trkpt lat="48.78639" lon="2.19846">
        <ele>189</ele>
        <time>2015-06-07T10:41:35.491Z</time>
      </trkpt>
      <trkpt lat="48.7863" lon="2.19845">
        <ele>188</ele>
        <time>2015-06-07T10:41:42.489Z</time>
      </trkpt>
      <trkpt lat="48.78629" lon="2.19845">
        <ele>188</ele>
        <time>2015-06-07T10:41:43.459Z</time>
      </trkpt>
      <trkpt lat="48.7862" lon="2.19847">
        <ele>186</ele>
        <time>2015-06-07T10:41:50.478Z</time>
      </trkpt>
      <trkpt lat="48.78619" lon="2.19847">
        <ele>185</ele>
        <time>2015-06-07T10:41:51.530Z</time>
      </trkpt>
      <trkpt lat="48.78618" lon="2.1984">
        <ele>188</ele>
        <time>2015-06-07T10:42:44.024Z</time>
      </trkpt>
      <trkpt lat="48.78619" lon="2.19832">
        <ele>184</ele>
        <time>2015-06-07T11:34:48.474Z</time>
      </trkpt>
      <trkpt lat="48.78619" lon="2.19831">
        <ele>184</ele>
        <time>2015-06-07T11:34:52.789Z</time>
      </trkpt>
      <trkpt lat="48.78602" lon="2.19822">
        <ele>216</ele>
        <time>2015-06-07T11:34:53.789Z</time>
      </trkpt>
      <trkpt lat="48.78597" lon="2.19815">
        <ele>225</ele>
        <time>2015-06-07T11:34:55.837Z</time>
      </trkpt>
      <trkpt lat="48.78607" lon="2.19803">
        <ele>235</ele>
        <time>2015-06-07T11:34:56.815Z</time>
      </trkpt>
      <trkpt lat="48.78608" lon="2.19797">
        <ele>245</ele>
        <time>2015-06-07T11:34:57.798Z</time>
      </trkpt>
      <trkpt lat="48.78621" lon="2.19808">
        <ele>210</ele>
        <time>2015-06-07T11:34:58.822Z</time>
      </trkpt>
      <trkpt lat="48.78615" lon="2.19821">
        <ele>191</ele>
        <time>2015-06-07T11:34:59.477Z</time>
      </trkpt>
      <trkpt lat="48.78606" lon="2.1982">
        <ele>188</ele>
        <time>2015-06-07T11:35:04.508Z</time>
      </trkpt>
      <trkpt lat="48.78605" lon="2.19823">
        <ele>186</ele>
        <time>2015-06-07T11:35:05.434Z</time>
      </trkpt>
      <trkpt lat="48.78597" lon="2.19824">
        <ele>196</ele>
        <time>2015-06-07T11:35:18.492Z</time>
      </trkpt>
      <trkpt lat="48.78595" lon="2.19824">
        <ele>197</ele>
        <time>2015-06-07T11:35:19.499Z</time>
      </trkpt>
      <trkpt lat="48.78588" lon="2.19831">
        <ele>201</ele>
        <time>2015-06-07T11:35:34.511Z</time>
      </trkpt>
      <trkpt lat="48.78587" lon="2.19832">
        <ele>201</ele>
        <time>2015-06-07T11:35:35.493Z</time>
      </trkpt>
      <trkpt lat="48.78581" lon="2.19842">
        <ele>202</ele>
        <time>2015-06-07T11:35:51.598Z</time>
      </trkpt>
      <trkpt lat="48.78581" lon="2.19842">
        <ele>203</ele>
        <time>2015-06-07T11:35:53.391Z</time>
      </trkpt>
      <trkpt lat="48.78576" lon="2.19852">
        <ele>208</ele>
        <time>2015-06-07T11:36:00.482Z</time>
      </trkpt>
      <trkpt lat="48.78576" lon="2.19854">
        <ele>208</ele>
        <time>2015-06-07T11:36:01.479Z</time>
      </trkpt>
      <trkpt lat="48.78579" lon="2.19866">
        <ele>208</ele>
        <time>2015-06-07T11:36:16.487Z</time>
      </trkpt>
      <trkpt lat="48.78579" lon="2.19867">
        <ele>208</ele>
        <time>2015-06-07T11:36:17.478Z</time>
      </trkpt>
      <trkpt lat="48.78583" lon="2.19879">
        <ele>207</ele>
        <time>2015-06-07T11:36:26.418Z</time>
      </trkpt>
      <trkpt lat="48.78583" lon="2.1988">
        <ele>209</ele>
        <time>2015-06-07T11:36:27.420Z</time>
      </trkpt>
      <trkpt lat="48.78588" lon="2.19889">
        <ele>208</ele>
        <time>2015-06-07T11:36:33.422Z</time>
      </trkpt>
      <trkpt lat="48.78589" lon="2.19891">
        <ele>207</ele>
        <time>2015-06-07T11:36:34.422Z</time>
      </trkpt>
      <trkpt lat="48.78595" lon="2.19898">
        <ele>204</ele>
        <time>2015-06-07T11:36:42.800Z</time>
      </trkpt>
      <trkpt lat="48.78596" lon="2.19899">
        <ele>204</ele>
        <time>2015-06-07T11:36:43.475Z</time>
      </trkpt>
      <trkpt lat="48.78604" lon="2.19904">
        <ele>204</ele>
        <time>2015-06-07T11:36:49.501Z</time>
      </trkpt>
      <trkpt lat="48.78604" lon="2.19905">
        <ele>201</ele>
        <time>2015-06-07T11:36:50.475Z</time>
      </trkpt>
      <trkpt lat="48.78609" lon="2.19915">
        <ele>202</ele>
        <time>2015-06-07T11:36:58.537Z</time>
      </trkpt>
      <trkpt lat="48.7861" lon="2.19916">
        <ele>200</ele>
        <time>2015-06-07T11:36:59.486Z</time>
      </trkpt>
      <trkpt lat="48.78612" lon="2.19929">
        <ele>201</ele>
        <time>2015-06-07T11:37:09.622Z</time>
      </trkpt>
      <trkpt lat="48.78612" lon="2.1993">
        <ele>202</ele>
        <time>2015-06-07T11:37:10.504Z</time>
      </trkpt>
      <trkpt lat="48.78618" lon="2.19939">
        <ele>203</ele>
        <time>2015-06-07T11:37:18.522Z</time>
      </trkpt>
      <trkpt lat="48.7862" lon="2.19941">
        <ele>202</ele>
        <time>2015-06-07T11:37:19.549Z</time>
      </trkpt>
      <trkpt lat="48.78626" lon="2.1995">
        <ele>197</ele>
        <time>2015-06-07T11:37:25.643Z</time>
      </trkpt>
      <trkpt lat="48.78626" lon="2.19951">
        <ele>198</ele>
        <time>2015-06-07T11:37:26.482Z</time>
      </trkpt>
      <trkpt lat="48.78632" lon="2.1996">
        <ele>201</ele>
        <time>2015-06-07T11:37:33.535Z</time>
      </trkpt>
      <trkpt lat="48.78633" lon="2.19962">
        <ele>201</ele>
        <time>2015-06-07T11:37:34.533Z</time>
      </trkpt>
      <trkpt lat="48.78638" lon="2.19971">
        <ele>199</ele>
        <time>2015-06-07T11:37:41.495Z</time>
      </trkpt>
      <trkpt lat="48.78639" lon="2.19971">
        <ele>199</ele>
        <time>2015-06-07T11:37:42.495Z</time>
      </trkpt>
      <trkpt lat="48.78643" lon="2.19983">
        <ele>197</ele>
        <time>2015-06-07T11:37:52.550Z</time>
      </trkpt>
      <trkpt lat="48.78644" lon="2.19984">
        <ele>198</ele>
        <time>2015-06-07T11:37:53.488Z</time>
      </trkpt>
      <trkpt lat="48.78649" lon="2.19993">
        <ele>199</ele>
        <time>2015-06-07T11:38:00.459Z</time>
      </trkpt>
      <trkpt lat="48.78649" lon="2.19995">
        <ele>198</ele>
        <time>2015-06-07T11:38:01.439Z</time>
      </trkpt>
      <trkpt lat="48.78653" lon="2.20006">
        <ele>198</ele>
        <time>2015-06-07T11:38:08.568Z</time>
      </trkpt>
      <trkpt lat="48.78654" lon="2.20008">
        <ele>199</ele>
        <time>2015-06-07T11:38:09.459Z</time>
      </trkpt>
      <trkpt lat="48.78658" lon="2.20019">
        <ele>199</ele>
        <time>2015-06-07T11:38:15.614Z</time>
      </trkpt>
      <trkpt lat="48.78658" lon="2.20021">
        <ele>199</ele>
        <time>2015-06-07T11:38:16.498Z</time>
      </trkpt>
      <trkpt lat="48.78661" lon="2.20032">
        <ele>201</ele>
        <time>2015-06-07T11:38:22.519Z</time>
      </trkpt>
      <trkpt lat="48.78662" lon="2.20034">
        <ele>201</ele>
        <time>2015-06-07T11:38:23.463Z</time>
      </trkpt>
      <trkpt lat="48.78665" lon="2.20045">
        <ele>203</ele>
        <time>2015-06-07T11:38:31.502Z</time>
      </trkpt>
      <trkpt lat="48.78665" lon="2.20047">
        <ele>204</ele>
        <time>2015-06-07T11:38:32.500Z</time>
      </trkpt>
      <trkpt lat="48.7867" lon="2.20058">
        <ele>208</ele>
        <time>2015-06-07T11:38:40.507Z</time>
      </trkpt>
      <trkpt lat="48.7867" lon="2.20059">
        <ele>208</ele>
        <time>2015-06-07T11:38:41.493Z</time>
      </trkpt>
      <trkpt lat="48.78672" lon="2.20071">
        <ele>207</ele>
        <time>2015-06-07T11:38:47.534Z</time>
      </trkpt>
      <trkpt lat="48.78673" lon="2.20072">
        <ele>208</ele>
        <time>2015-06-07T11:38:48.468Z</time>
      </trkpt>
      <trkpt lat="48.78676" lon="2.20084">
        <ele>208</ele>
        <time>2015-06-07T11:38:55.517Z</time>
      </trkpt>
      <trkpt lat="48.78676" lon="2.20086">
        <ele>208</ele>
        <time>2015-06-07T11:38:56.515Z</time>
      </trkpt>
      <trkpt lat="48.78678" lon="2.20097">
        <ele>208</ele>
        <time>2015-06-07T11:39:03.492Z</time>
      </trkpt>
      <trkpt lat="48.78679" lon="2.20099">
        <ele>207</ele>
        <time>2015-06-07T11:39:04.519Z</time>
      </trkpt>
      <trkpt lat="48.78682" lon="2.20111">
        <ele>208</ele>
        <time>2015-06-07T11:39:11.411Z</time>
      </trkpt>
      <trkpt lat="48.78683" lon="2.20112">
        <ele>208</ele>
        <time>2015-06-07T11:39:12.461Z</time>
      </trkpt>
      <trkpt lat="48.78688" lon="2.20122">
        <ele>206</ele>
        <time>2015-06-07T11:39:20.539Z</time>
      </trkpt>
      <trkpt lat="48.78689" lon="2.20124">
        <ele>206</ele>
        <time>2015-06-07T11:39:21.507Z</time>
      </trkpt>
      <trkpt lat="48.78693" lon="2.20134">
        <ele>204</ele>
        <time>2015-06-07T11:39:27.504Z</time>
      </trkpt>
      <trkpt lat="48.78694" lon="2.20135">
        <ele>204</ele>
        <time>2015-06-07T11:39:28.441Z</time>
      </trkpt>
      <trkpt lat="48.78698" lon="2.20146">
        <ele>204</ele>
        <time>2015-06-07T11:39:34.410Z</time>
      </trkpt>
      <trkpt lat="48.78698" lon="2.20148">
        <ele>205</ele>
        <time>2015-06-07T11:39:35.441Z</time>
      </trkpt>
      <trkpt lat="48.78703" lon="2.20157">
        <ele>204</ele>
        <time>2015-06-07T11:39:42.515Z</time>
      </trkpt>
      <trkpt lat="48.78704" lon="2.20159">
        <ele>203</ele>
        <time>2015-06-07T11:39:43.498Z</time>
      </trkpt>
      <trkpt lat="48.78709" lon="2.20169">
        <ele>202</ele>
        <time>2015-06-07T11:39:51.493Z</time>
      </trkpt>
      <trkpt lat="48.7871" lon="2.2017">
        <ele>202</ele>
        <time>2015-06-07T11:39:52.500Z</time>
      </trkpt>
      <trkpt lat="48.78716" lon="2.2018">
        <ele>203</ele>
        <time>2015-06-07T11:39:59.538Z</time>
      </trkpt>
      <trkpt lat="48.78717" lon="2.20181">
        <ele>203</ele>
        <time>2015-06-07T11:40:00.600Z</time>
      </trkpt>
      <trkpt lat="48.78719" lon="2.20193">
        <ele>198</ele>
        <time>2015-06-07T11:40:08.525Z</time>
      </trkpt>
      <trkpt lat="48.7872" lon="2.20195">
        <ele>198</ele>
        <time>2015-06-07T11:40:09.507Z</time>
      </trkpt>
      <trkpt lat="48.78722" lon="2.20208">
        <ele>194</ele>
        <time>2015-06-07T11:41:30.539Z</time>
      </trkpt>
      <trkpt lat="48.78721" lon="2.20209">
        <ele>193</ele>
        <time>2015-06-07T11:41:31.500Z</time>
      </trkpt>
      <trkpt lat="48.78725" lon="2.20221">
        <ele>187</ele>
        <time>2015-06-07T11:41:53.482Z</time>
      </trkpt>
      <trkpt lat="48.78725" lon="2.20222">
        <ele>186</ele>
        <time>2015-06-07T11:41:54.488Z</time>
      </trkpt>
      <trkpt lat="48.78733" lon="2.20228">
        <ele>190</ele>
        <time>2015-06-07T11:42:06.499Z</time>
      </trkpt>
      <trkpt lat="48.78734" lon="2.20229">
        <ele>191</ele>
        <time>2015-06-07T11:42:07.493Z</time>
      </trkpt>
      <trkpt lat="48.78739" lon="2.20239">
        <ele>188</ele>
        <time>2015-06-07T11:42:18.523Z</time>
      </trkpt>
      <trkpt lat="48.7874" lon="2.2024">
        <ele>188</ele>
        <time>2015-06-07T11:42:19.453Z</time>
      </trkpt>
      <trkpt lat="48.78745" lon="2.2025">
        <ele>189</ele>
        <time>2015-06-07T11:42:34.460Z</time>
      </trkpt>
      <trkpt lat="48.78746" lon="2.20252">
        <ele>189</ele>
        <time>2015-06-07T11:42:35.450Z</time>
      </trkpt>
      <trkpt lat="48.78752" lon="2.2026">
        <ele>193</ele>
        <time>2015-06-07T11:43:10.519Z</time>
      </trkpt>
      <trkpt lat="48.78753" lon="2.20261">
        <ele>193</ele>
        <time>2015-06-07T11:43:11.489Z</time>
      </trkpt>
      <trkpt lat="48.78757" lon="2.20271">
        <ele>191</ele>
        <time>2015-06-07T11:43:17.492Z</time>
      </trkpt>
      <trkpt lat="48.78758" lon="2.20273">
        <ele>189</ele>
        <time>2015-06-07T11:43:18.429Z</time>
      </trkpt>
      <trkpt lat="48.78763" lon="2.20283">
        <ele>186</ele>
        <time>2015-06-07T11:43:25.471Z</time>
      </trkpt>
      <trkpt lat="48.78764" lon="2.20285">
        <ele>186</ele>
        <time>2015-06-07T11:43:26.538Z</time>
      </trkpt>
      <trkpt lat="48.78769" lon="2.20295">
        <ele>180</ele>
        <time>2015-06-07T11:43:33.489Z</time>
      </trkpt>
      <trkpt lat="48.7877" lon="2.20296">
        <ele>181</ele>
        <time>2015-06-07T11:43:34.503Z</time>
      </trkpt>
      <trkpt lat="48.78777" lon="2.20304">
        <ele>181</ele>
        <time>2015-06-07T11:43:41.426Z</time>
      </trkpt>
      <trkpt lat="48.78777" lon="2.20305">
        <ele>180</ele>
        <time>2015-06-07T11:43:42.484Z</time>
      </trkpt>
      <trkpt lat="48.78783" lon="2.20315">
        <ele>178</ele>
        <time>2015-06-07T11:43:49.498Z</time>
      </trkpt>
      <trkpt lat="48.78784" lon="2.20316">
        <ele>176</ele>
        <time>2015-06-07T11:43:50.484Z</time>
      </trkpt>
      <trkpt lat="48.7879" lon="2.20326">
        <ele>179</ele>
        <time>2015-06-07T11:44:05.439Z</time>
      </trkpt>
      <trkpt lat="48.7879" lon="2.20326">
        <ele>180</ele>
        <time>2015-06-07T11:44:06.431Z</time>
      </trkpt>
      <trkpt lat="48.78796" lon="2.20333">
        <ele>177</ele>
        <time>2015-06-07T11:44:14.434Z</time>
      </trkpt>
      <trkpt lat="48.78798" lon="2.20335">
        <ele>177</ele>
        <time>2015-06-07T11:44:15.438Z</time>
      </trkpt>
      <trkpt lat="48.78806" lon="2.20339">
        <ele>178</ele>
        <time>2015-06-07T11:44:21.578Z</time>
      </trkpt>
      <trkpt lat="48.78808" lon="2.20339">
        <ele>179</ele>
        <time>2015-06-07T11:44:22.474Z</time>
      </trkpt>
      <trkpt lat="48.78816" lon="2.20346">
        <ele>177</ele>
        <time>2015-06-07T11:44:27.483Z</time>
      </trkpt>
      <trkpt lat="48.78817" lon="2.20347">
        <ele>177</ele>
        <time>2015-06-07T11:44:28.505Z</time>
      </trkpt>
      <trkpt lat="48.78824" lon="2.20355">
        <ele>182</ele>
        <time>2015-06-07T11:44:33.624Z</time>
      </trkpt>
      <trkpt lat="48.78826" lon="2.20357">
        <ele>181</ele>
        <time>2015-06-07T11:44:34.432Z</time>
      </trkpt>
      <trkpt lat="48.78832" lon="2.20362">
        <ele>179</ele>
        <time>2015-06-07T11:44:37.514Z</time>
      </trkpt>
      <trkpt lat="48.78834" lon="2.20363">
        <ele>178</ele>
        <time>2015-06-07T11:44:38.451Z</time>
      </trkpt>
      <trkpt lat="48.78841" lon="2.2037">
        <ele>177</ele>
        <time>2015-06-07T11:44:43.515Z</time>
      </trkpt>
      <trkpt lat="48.78842" lon="2.20371">
        <ele>176</ele>
        <time>2015-06-07T11:44:44.438Z</time>
      </trkpt>
      <trkpt lat="48.7885" lon="2.20375">
        <ele>171</ele>
        <time>2015-06-07T11:44:52.521Z</time>
      </trkpt>
      <trkpt lat="48.78851" lon="2.20376">
        <ele>171</ele>
        <time>2015-06-07T11:44:53.544Z</time>
      </trkpt>
      <trkpt lat="48.78858" lon="2.20384">
        <ele>185</ele>
        <time>2015-06-07T11:45:17.500Z</time>
      </trkpt>
      <trkpt lat="48.7886" lon="2.20385">
        <ele>181</ele>
        <time>2015-06-07T11:45:18.500Z</time>
      </trkpt>
      <trkpt lat="48.78868" lon="2.20389">
        <ele>182</ele>
        <time>2015-06-07T11:45:23.412Z</time>
      </trkpt>
      <trkpt lat="48.78869" lon="2.2039">
        <ele>182</ele>
        <time>2015-06-07T11:45:24.728Z</time>
      </trkpt>
      <trkpt lat="48.78877" lon="2.20394">
        <ele>182</ele>
        <time>2015-06-07T11:45:30.477Z</time>
      </trkpt>
      <trkpt lat="48.78878" lon="2.20395">
        <ele>184</ele>
        <time>2015-06-07T11:45:31.476Z</time>
      </trkpt>
      <trkpt lat="48.78886" lon="2.20397">
        <ele>188</ele>
        <time>2015-06-07T11:45:40.441Z</time>
      </trkpt>
      <trkpt lat="48.78888" lon="2.20398">
        <ele>185</ele>
        <time>2015-06-07T11:45:41.419Z</time>
      </trkpt>
      <trkpt lat="48.78895" lon="2.204">
        <ele>185</ele>
        <time>2015-06-07T11:45:44.425Z</time>
      </trkpt>
      <trkpt lat="48.78897" lon="2.20401">
        <ele>185</ele>
        <time>2015-06-07T11:45:45.412Z</time>
      </trkpt>
      <trkpt lat="48.78905" lon="2.20401">
        <ele>181</ele>
        <time>2015-06-07T11:45:50.508Z</time>
      </trkpt>
      <trkpt lat="48.78907" lon="2.20401">
        <ele>182</ele>
        <time>2015-06-07T11:45:51.553Z</time>
      </trkpt>
      <trkpt lat="48.78915" lon="2.20401">
        <ele>185</ele>
        <time>2015-06-07T11:45:58.522Z</time>
      </trkpt>
      <trkpt lat="48.78916" lon="2.204">
        <ele>186</ele>
        <time>2015-06-07T11:45:59.540Z</time>
      </trkpt>
      <trkpt lat="48.78924" lon="2.20403">
        <ele>190</ele>
        <time>2015-06-07T11:46:06.487Z</time>
      </trkpt>
      <trkpt lat="48.78926" lon="2.20403">
        <ele>190</ele>
        <time>2015-06-07T11:46:07.482Z</time>
      </trkpt>
      <trkpt lat="48.78933" lon="2.20406">
        <ele>191</ele>
        <time>2015-06-07T11:46:13.458Z</time>
      </trkpt>
      <trkpt lat="48.78935" lon="2.20407">
        <ele>191</ele>
        <time>2015-06-07T11:46:14.489Z</time>
      </trkpt>
      <trkpt lat="48.78943" lon="2.2041">
        <ele>188</ele>
        <time>2015-06-07T11:46:19.516Z</time>
      </trkpt>
      <trkpt lat="48.78945" lon="2.20411">
        <ele>185</ele>
        <time>2015-06-07T11:46:20.529Z</time>
      </trkpt>
      <trkpt lat="48.78954" lon="2.20413">
        <ele>185</ele>
        <time>2015-06-07T11:46:28.439Z</time>
      </trkpt>
      <trkpt lat="48.78955" lon="2.20414">
        <ele>183</ele>
        <time>2015-06-07T11:46:29.503Z</time>
      </trkpt>
      <trkpt lat="48.78964" lon="2.20417">
        <ele>173</ele>
        <time>2015-06-07T11:46:36.497Z</time>
      </trkpt>
      <trkpt lat="48.78965" lon="2.20418">
        <ele>172</ele>
        <time>2015-06-07T11:46:37.455Z</time>
      </trkpt>
      <trkpt lat="48.78973" lon="2.20418">
        <ele>175</ele>
        <time>2015-06-07T11:46:44.467Z</time>
      </trkpt>
      <trkpt lat="48.78975" lon="2.20417">
        <ele>177</ele>
        <time>2015-06-07T11:46:45.467Z</time>
      </trkpt>
      <trkpt lat="48.78983" lon="2.20419">
        <ele>176</ele>
        <time>2015-06-07T11:46:50.436Z</time>
      </trkpt>
      <trkpt lat="48.78985" lon="2.2042">
        <ele>175</ele>
        <time>2015-06-07T11:46:51.466Z</time>
      </trkpt>
      <trkpt lat="48.78992" lon="2.20418">
        <ele>176</ele>
        <time>2015-06-07T11:46:58.479Z</time>
      </trkpt>
      <trkpt lat="48.78994" lon="2.20417">
        <ele>174</ele>
        <time>2015-06-07T11:46:59.458Z</time>
      </trkpt>
      <trkpt lat="48.79002" lon="2.20418">
        <ele>172</ele>
        <time>2015-06-07T11:47:06.512Z</time>
      </trkpt>
      <trkpt lat="48.79003" lon="2.20419">
        <ele>171</ele>
        <time>2015-06-07T11:47:07.411Z</time>
      </trkpt>
      <trkpt lat="48.7901" lon="2.20424">
        <ele>173</ele>
        <time>2015-06-07T11:47:13.439Z</time>
      </trkpt>
      <trkpt lat="48.79012" lon="2.20424">
        <ele>172</ele>
        <time>2015-06-07T11:47:14.442Z</time>
      </trkpt>
      <trkpt lat="48.79021" lon="2.20426">
        <ele>178</ele>
        <time>2015-06-07T11:47:20.565Z</time>
      </trkpt>
      <trkpt lat="48.79022" lon="2.20426">
        <ele>177</ele>
        <time>2015-06-07T11:47:21.493Z</time>
      </trkpt>
      <trkpt lat="48.7903" lon="2.2043">
        <ele>180</ele>
        <time>2015-06-07T11:47:28.496Z</time>
      </trkpt>
      <trkpt lat="48.79032" lon="2.20431">
        <ele>179</ele>
        <time>2015-06-07T11:47:29.468Z</time>
      </trkpt>
      <trkpt lat="48.79039" lon="2.20434">
        <ele>183</ele>
        <time>2015-06-07T11:47:35.553Z</time>
      </trkpt>
      <trkpt lat="48.7904" lon="2.20434">
        <ele>183</ele>
        <time>2015-06-07T11:47:36.520Z</time>
      </trkpt>
      <trkpt lat="48.79048" lon="2.20439">
        <ele>182</ele>
        <time>2015-06-07T11:47:42.491Z</time>
      </trkpt>
      <trkpt lat="48.79049" lon="2.20438">
        <ele>175</ele>
        <time>2015-06-07T11:47:43.498Z</time>
      </trkpt>
      <trkpt lat="48.79056" lon="2.20428">
        <ele>169</ele>
        <time>2015-06-07T11:47:50.490Z</time>
      </trkpt>
      <trkpt lat="48.79056" lon="2.20428">
        <ele>172</ele>
        <time>2015-06-07T11:47:51.484Z</time>
      </trkpt>
      <trkpt lat="48.79063" lon="2.2042">
        <ele>177</ele>
        <time>2015-06-07T11:47:59.501Z</time>
      </trkpt>
      <trkpt lat="48.79064" lon="2.20419">
        <ele>177</ele>
        <time>2015-06-07T11:48:00.498Z</time>
      </trkpt>
      <trkpt lat="48.79072" lon="2.20419">
        <ele>173</ele>
        <time>2015-06-07T11:48:08.489Z</time>
      </trkpt>
      <trkpt lat="48.79073" lon="2.2042">
        <ele>172</ele>
        <time>2015-06-07T11:48:09.485Z</time>
      </trkpt>
      <trkpt lat="48.79082" lon="2.20421">
        <ele>174</ele>
        <time>2015-06-07T11:48:15.476Z</time>
      </trkpt>
      <trkpt lat="48.79083" lon="2.20421">
        <ele>176</ele>
        <time>2015-06-07T11:48:16.474Z</time>
      </trkpt>
      <trkpt lat="48.7909" lon="2.20426">
        <ele>177</ele>
        <time>2015-06-07T11:48:23.441Z</time>
      </trkpt>
      <trkpt lat="48.79091" lon="2.20426">
        <ele>176</ele>
        <time>2015-06-07T11:48:24.511Z</time>
      </trkpt>
      <trkpt lat="48.79098" lon="2.2043">
        <ele>178</ele>
        <time>2015-06-07T11:48:32.427Z</time>
      </trkpt>
      <trkpt lat="48.791" lon="2.20431">
        <ele>176</ele>
        <time>2015-06-07T11:48:33.439Z</time>
      </trkpt>
      <trkpt lat="48.79107" lon="2.20437">
        <ele>174</ele>
        <time>2015-06-07T11:48:38.492Z</time>
      </trkpt>
      <trkpt lat="48.79108" lon="2.20437">
        <ele>175</ele>
        <time>2015-06-07T11:48:39.540Z</time>
      </trkpt>
      <trkpt lat="48.79115" lon="2.20445">
        <ele>173</ele>
        <time>2015-06-07T11:48:49.422Z</time>
      </trkpt>
      <trkpt lat="48.79116" lon="2.20447">
        <ele>173</ele>
        <time>2015-06-07T11:48:50.419Z</time>
      </trkpt>
      <trkpt lat="48.79122" lon="2.20455">
        <ele>174</ele>
        <time>2015-06-07T11:48:57.508Z</time>
      </trkpt>
      <trkpt lat="48.79123" lon="2.20457">
        <ele>173</ele>
        <time>2015-06-07T11:48:58.445Z</time>
      </trkpt>
      <trkpt lat="48.7913" lon="2.20462">
        <ele>179</ele>
        <time>2015-06-07T11:49:14.481Z</time>
      </trkpt>
      <trkpt lat="48.79131" lon="2.20463">
        <ele>181</ele>
        <time>2015-06-07T11:49:15.478Z</time>
      </trkpt>
      <trkpt lat="48.7913" lon="2.20476">
        <ele>182</ele>
        <time>2015-06-07T11:49:27.434Z</time>
      </trkpt>
      <trkpt lat="48.7913" lon="2.20477">
        <ele>182</ele>
        <time>2015-06-07T11:49:28.482Z</time>
      </trkpt>
      <trkpt lat="48.79124" lon="2.20487">
        <ele>180</ele>
        <time>2015-06-07T11:49:41.456Z</time>
      </trkpt>
      <trkpt lat="48.79123" lon="2.20487">
        <ele>179</ele>
        <time>2015-06-07T11:49:42.504Z</time>
      </trkpt>
      <trkpt lat="48.79122" lon="2.20499">
        <ele>171</ele>
        <time>2015-06-07T11:50:03.470Z</time>
      </trkpt>
      <trkpt lat="48.79121" lon="2.20501">
        <ele>170</ele>
        <time>2015-06-07T11:50:04.469Z</time>
      </trkpt>
      <trkpt lat="48.79117" lon="2.20512">
        <ele>173</ele>
        <time>2015-06-07T11:50:40.560Z</time>
      </trkpt>
      <trkpt lat="48.79117" lon="2.20513">
        <ele>172</ele>
        <time>2015-06-07T11:50:41.510Z</time>
      </trkpt>
      <trkpt lat="48.79114" lon="2.20524">
        <ele>174</ele>
        <time>2015-06-07T11:50:48.499Z</time>
      </trkpt>
      <trkpt lat="48.79114" lon="2.20526">
        <ele>174</ele>
        <time>2015-06-07T11:50:49.524Z</time>
      </trkpt>
      <trkpt lat="48.79113" lon="2.20539">
        <ele>186</ele>
        <time>2015-06-07T11:51:31.512Z</time>
      </trkpt>
      <trkpt lat="48.79113" lon="2.20541">
        <ele>185</ele>
        <time>2015-06-07T11:51:32.443Z</time>
      </trkpt>
      <trkpt lat="48.7911" lon="2.20553">
        <ele>186</ele>
        <time>2015-06-07T11:51:46.446Z</time>
      </trkpt>
      <trkpt lat="48.79111" lon="2.20555">
        <ele>185</ele>
        <time>2015-06-07T11:51:47.447Z</time>
      </trkpt>
      <trkpt lat="48.7911" lon="2.20568">
        <ele>184</ele>
        <time>2015-06-07T11:51:54.443Z</time>
      </trkpt>
      <trkpt lat="48.7911" lon="2.2057">
        <ele>185</ele>
        <time>2015-06-07T11:51:55.444Z</time>
      </trkpt>
      <trkpt lat="48.79105" lon="2.20581">
        <ele>193</ele>
        <time>2015-06-07T11:52:14.483Z</time>
      </trkpt>
      <trkpt lat="48.79105" lon="2.20583">
        <ele>194</ele>
        <time>2015-06-07T11:52:15.499Z</time>
      </trkpt>
      <trkpt lat="48.791" lon="2.20593">
        <ele>196</ele>
        <time>2015-06-07T11:52:23.143Z</time>
      </trkpt>
      <trkpt lat="48.79099" lon="2.20594">
        <ele>197</ele>
        <time>2015-06-07T11:52:23.518Z</time>
      </trkpt>
      <trkpt lat="48.791" lon="2.20606">
        <ele>193</ele>
        <time>2015-06-07T11:52:43.512Z</time>
      </trkpt>
      <trkpt lat="48.79099" lon="2.20608">
        <ele>194</ele>
        <time>2015-06-07T11:52:44.518Z</time>
      </trkpt>
      <trkpt lat="48.791" lon="2.20621">
        <ele>197</ele>
        <time>2015-06-07T11:53:02.505Z</time>
      </trkpt>
      <trkpt lat="48.791" lon="2.20621">
        <ele>197</ele>
        <time>2015-06-07T11:53:03.573Z</time>
      </trkpt>
      <trkpt lat="48.79106" lon="2.2063">
        <ele>202</ele>
        <time>2015-06-07T11:53:19.419Z</time>
      </trkpt>
      <trkpt lat="48.79106" lon="2.20631">
        <ele>202</ele>
        <time>2015-06-07T11:53:20.426Z</time>
      </trkpt>
      <trkpt lat="48.79111" lon="2.20641">
        <ele>206</ele>
        <time>2015-06-07T11:53:34.506Z</time>
      </trkpt>
      <trkpt lat="48.79111" lon="2.20643">
        <ele>206</ele>
        <time>2015-06-07T11:53:35.467Z</time>
      </trkpt>
      <trkpt lat="48.79118" lon="2.20648">
        <ele>211</ele>
        <time>2015-06-07T11:53:39.475Z</time>
      </trkpt>
      <trkpt lat="48.79119" lon="2.20649">
        <ele>212</ele>
        <time>2015-06-07T11:53:40.486Z</time>
      </trkpt>
      <trkpt lat="48.79124" lon="2.2066">
        <ele>211</ele>
        <time>2015-06-07T11:53:48.568Z</time>
      </trkpt>
      <trkpt lat="48.79125" lon="2.2066">
        <ele>212</ele>
        <time>2015-06-07T11:53:49.501Z</time>
      </trkpt>
      <trkpt lat="48.79134" lon="2.20661">
        <ele>208</ele>
        <time>2015-06-07T11:53:56.518Z</time>
      </trkpt>
      <trkpt lat="48.79135" lon="2.20661">
        <ele>208</ele>
        <time>2015-06-07T11:53:57.508Z</time>
      </trkpt>
      <trkpt lat="48.79144" lon="2.20664">
        <ele>212</ele>
        <time>2015-06-07T11:54:03.505Z</time>
      </trkpt>
      <trkpt lat="48.79146" lon="2.20664">
        <ele>210</ele>
        <time>2015-06-07T11:54:04.520Z</time>
      </trkpt>
      <trkpt lat="48.79154" lon="2.20664">
        <ele>211</ele>
        <time>2015-06-07T11:54:10.570Z</time>
      </trkpt>
      <trkpt lat="48.79155" lon="2.20664">
        <ele>212</ele>
        <time>2015-06-07T11:54:11.523Z</time>
      </trkpt>
      <trkpt lat="48.79163" lon="2.20668">
        <ele>211</ele>
        <time>2015-06-07T11:54:17.494Z</time>
      </trkpt>
      <trkpt lat="48.79164" lon="2.20668">
        <ele>208</ele>
        <time>2015-06-07T11:54:18.464Z</time>
      </trkpt>
      <trkpt lat="48.79173" lon="2.20665">
        <ele>215</ele>
        <time>2015-06-07T11:54:26.563Z</time>
      </trkpt>
      <trkpt lat="48.79175" lon="2.20666">
        <ele>215</ele>
        <time>2015-06-07T11:54:27.498Z</time>
      </trkpt>
      <trkpt lat="48.79183" lon="2.20664">
        <ele>207</ele>
        <time>2015-06-07T11:54:45.442Z</time>
      </trkpt>
      <trkpt lat="48.79184" lon="2.20664">
        <ele>207</ele>
        <time>2015-06-07T11:54:46.490Z</time>
      </trkpt>
      <trkpt lat="48.7919" lon="2.20657">
        <ele>206</ele>
        <time>2015-06-07T11:54:55.431Z</time>
      </trkpt>
      <trkpt lat="48.79191" lon="2.20656">
        <ele>206</ele>
        <time>2015-06-07T11:54:56.433Z</time>
      </trkpt>
      <trkpt lat="48.792" lon="2.20658">
        <ele>208</ele>
        <time>2015-06-07T11:55:02.424Z</time>
      </trkpt>
      <trkpt lat="48.79201" lon="2.20658">
        <ele>208</ele>
        <time>2015-06-07T11:55:03.508Z</time>
      </trkpt>
      <trkpt lat="48.79209" lon="2.2066">
        <ele>209</ele>
        <time>2015-06-07T11:55:07.484Z</time>
      </trkpt>
      <trkpt lat="48.79211" lon="2.2066">
        <ele>211</ele>
        <time>2015-06-07T11:55:08.499Z</time>
      </trkpt>
      <trkpt lat="48.79219" lon="2.20658">
        <ele>210</ele>
        <time>2015-06-07T11:55:17.509Z</time>
      </trkpt>
      <trkpt lat="48.7922" lon="2.20658">
        <ele>210</ele>
        <time>2015-06-07T11:55:18.505Z</time>
      </trkpt>
      <trkpt lat="48.79227" lon="2.20654">
        <ele>208</ele>
        <time>2015-06-07T11:55:30.542Z</time>
      </trkpt>
      <trkpt lat="48.79229" lon="2.20654">
        <ele>208</ele>
        <time>2015-06-07T11:55:31.496Z</time>
      </trkpt>
      <trkpt lat="48.79237" lon="2.20655">
        <ele>210</ele>
        <time>2015-06-07T11:55:37.617Z</time>
      </trkpt>
      <trkpt lat="48.79238" lon="2.20655">
        <ele>210</ele>
        <time>2015-06-07T11:55:38.599Z</time>
      </trkpt>
      <trkpt lat="48.79246" lon="2.20661">
        <ele>207</ele>
        <time>2015-06-07T11:55:46.457Z</time>
      </trkpt>
      <trkpt lat="48.79247" lon="2.20662">
        <ele>206</ele>
        <time>2015-06-07T11:55:47.481Z</time>
      </trkpt>
      <trkpt lat="48.79253" lon="2.20671">
        <ele>200</ele>
        <time>2015-06-07T11:55:56.524Z</time>
      </trkpt>
      <trkpt lat="48.79253" lon="2.20672">
        <ele>201</ele>
        <time>2015-06-07T11:55:57.530Z</time>
      </trkpt>
      <trkpt lat="48.79259" lon="2.20682">
        <ele>198</ele>
        <time>2015-06-07T11:56:07.482Z</time>
      </trkpt>
      <trkpt lat="48.7926" lon="2.20682">
        <ele>197</ele>
        <time>2015-06-07T11:56:08.512Z</time>
      </trkpt>
      <trkpt lat="48.79265" lon="2.20693">
        <ele>197</ele>
        <time>2015-06-07T11:56:19.565Z</time>
      </trkpt>
      <trkpt lat="48.79265" lon="2.20694">
        <ele>198</ele>
        <time>2015-06-07T11:56:20.519Z</time>
      </trkpt>
      <trkpt lat="48.7926" lon="2.20705">
        <ele>204</ele>
        <time>2015-06-07T11:56:31.441Z</time>
      </trkpt>
      <trkpt lat="48.7926" lon="2.20706">
        <ele>203</ele>
        <time>2015-06-07T11:56:32.450Z</time>
      </trkpt>
      <trkpt lat="48.79259" lon="2.20719">
        <ele>203</ele>
        <time>2015-06-07T11:56:42.540Z</time>
      </trkpt>
      <trkpt lat="48.79258" lon="2.2072">
        <ele>201</ele>
        <time>2015-06-07T11:56:43.518Z</time>
      </trkpt>
      <trkpt lat="48.79254" lon="2.20732">
        <ele>200</ele>
        <time>2015-06-07T11:56:54.541Z</time>
      </trkpt>
      <trkpt lat="48.79253" lon="2.20733">
        <ele>201</ele>
        <time>2015-06-07T11:56:55.539Z</time>
      </trkpt>
      <trkpt lat="48.79249" lon="2.20743">
        <ele>201</ele>
        <time>2015-06-07T11:57:04.571Z</time>
      </trkpt>
      <trkpt lat="48.79248" lon="2.20745">
        <ele>201</ele>
        <time>2015-06-07T11:57:05.512Z</time>
      </trkpt>
      <trkpt lat="48.79243" lon="2.20754">
        <ele>202</ele>
        <time>2015-06-07T11:57:12.791Z</time>
      </trkpt>
      <trkpt lat="48.79243" lon="2.20756">
        <ele>202</ele>
        <time>2015-06-07T11:57:13.506Z</time>
      </trkpt>
      <trkpt lat="48.79241" lon="2.2077">
        <ele>201</ele>
        <time>2015-06-07T11:57:20.520Z</time>
      </trkpt>
      <trkpt lat="48.79241" lon="2.20771">
        <ele>202</ele>
        <time>2015-06-07T11:57:21.542Z</time>
      </trkpt>
      <trkpt lat="48.7924" lon="2.20783">
        <ele>202</ele>
        <time>2015-06-07T11:57:27.519Z</time>
      </trkpt>
      <trkpt lat="48.7924" lon="2.20785">
        <ele>201</ele>
        <time>2015-06-07T11:57:28.515Z</time>
      </trkpt>
      <trkpt lat="48.79237" lon="2.20797">
        <ele>205</ele>
        <time>2015-06-07T11:57:35.523Z</time>
      </trkpt>
      <trkpt lat="48.79238" lon="2.20798">
        <ele>205</ele>
        <time>2015-06-07T11:57:36.496Z</time>
      </trkpt>
      <trkpt lat="48.79235" lon="2.2081">
        <ele>206</ele>
        <time>2015-06-07T11:57:43.491Z</time>
      </trkpt>
      <trkpt lat="48.79234" lon="2.20811">
        <ele>206</ele>
        <time>2015-06-07T11:57:44.506Z</time>
      </trkpt>
      <trkpt lat="48.79231" lon="2.20824">
        <ele>207</ele>
        <time>2015-06-07T11:57:51.460Z</time>
      </trkpt>
      <trkpt lat="48.79231" lon="2.20825">
        <ele>209</ele>
        <time>2015-06-07T11:57:52.446Z</time>
      </trkpt>
      <trkpt lat="48.79231" lon="2.20838">
        <ele>207</ele>
        <time>2015-06-07T11:58:00.443Z</time>
      </trkpt>
      <trkpt lat="48.79232" lon="2.2084">
        <ele>205</ele>
        <time>2015-06-07T11:58:01.450Z</time>
      </trkpt>
      <trkpt lat="48.79237" lon="2.20848">
        <ele>206</ele>
        <time>2015-06-07T11:58:06.507Z</time>
      </trkpt>
      <trkpt lat="48.79238" lon="2.2085">
        <ele>207</ele>
        <time>2015-06-07T11:58:07.679Z</time>
      </trkpt>
      <trkpt lat="48.79244" lon="2.20859">
        <ele>205</ele>
        <time>2015-06-07T11:58:13.610Z</time>
      </trkpt>
      <trkpt lat="48.79246" lon="2.20861">
        <ele>206</ele>
        <time>2015-06-07T11:58:14.508Z</time>
      </trkpt>
      <trkpt lat="48.79253" lon="2.20868">
        <ele>208</ele>
        <time>2015-06-07T11:58:26.506Z</time>
      </trkpt>
      <trkpt lat="48.79254" lon="2.20868">
        <ele>209</ele>
        <time>2015-06-07T11:58:27.506Z</time>
      </trkpt>
      <trkpt lat="48.79261" lon="2.20876">
        <ele>209</ele>
        <time>2015-06-07T11:58:34.519Z</time>
      </trkpt>
      <trkpt lat="48.79262" lon="2.20878">
        <ele>210</ele>
        <time>2015-06-07T11:58:36.268Z</time>
      </trkpt>
      <trkpt lat="48.79267" lon="2.20884">
        <ele>206</ele>
        <time>2015-06-07T11:58:41.645Z</time>
      </trkpt>
      <trkpt lat="48.7927" lon="2.20885">
        <ele>206</ele>
        <time>2015-06-07T11:58:42.532Z</time>
      </trkpt>
      <trkpt lat="48.79277" lon="2.2089">
        <ele>205</ele>
        <time>2015-06-07T11:58:46.510Z</time>
      </trkpt>
      <trkpt lat="48.79279" lon="2.20892">
        <ele>203</ele>
        <time>2015-06-07T11:58:47.507Z</time>
      </trkpt>
      <trkpt lat="48.79285" lon="2.20897">
        <ele>201</ele>
        <time>2015-06-07T11:58:51.498Z</time>
      </trkpt>
      <trkpt lat="48.79287" lon="2.20898">
        <ele>201</ele>
        <time>2015-06-07T11:58:52.427Z</time>
      </trkpt>
      <trkpt lat="48.79295" lon="2.20903">
        <ele>202</ele>
        <time>2015-06-07T11:58:57.484Z</time>
      </trkpt>
      <trkpt lat="48.79297" lon="2.20904">
        <ele>203</ele>
        <time>2015-06-07T11:58:58.506Z</time>
      </trkpt>
      <trkpt lat="48.79303" lon="2.20914">
        <ele>201</ele>
        <time>2015-06-07T11:59:05.477Z</time>
      </trkpt>
      <trkpt lat="48.79303" lon="2.20915">
        <ele>200</ele>
        <time>2015-06-07T11:59:06.519Z</time>
      </trkpt>
      <trkpt lat="48.79309" lon="2.20925">
        <ele>201</ele>
        <time>2015-06-07T11:59:16.507Z</time>
      </trkpt>
      <trkpt lat="48.7931" lon="2.20926">
        <ele>201</ele>
        <time>2015-06-07T11:59:17.463Z</time>
      </trkpt>
      <trkpt lat="48.79317" lon="2.20933">
        <ele>202</ele>
        <time>2015-06-07T11:59:24.502Z</time>
      </trkpt>
      <trkpt lat="48.79318" lon="2.20934">
        <ele>200</ele>
        <time>2015-06-07T11:59:25.539Z</time>
      </trkpt>
      <trkpt lat="48.79325" lon="2.2094">
        <ele>203</ele>
        <time>2015-06-07T11:59:32.449Z</time>
      </trkpt>
      <trkpt lat="48.79326" lon="2.20941">
        <ele>202</ele>
        <time>2015-06-07T11:59:33.553Z</time>
      </trkpt>
      <trkpt lat="48.79334" lon="2.20948">
        <ele>202</ele>
        <time>2015-06-07T11:59:45.543Z</time>
      </trkpt>
      <trkpt lat="48.79334" lon="2.20949">
        <ele>202</ele>
        <time>2015-06-07T11:59:46.506Z</time>
      </trkpt>
      <trkpt lat="48.79341" lon="2.20956">
        <ele>201</ele>
        <time>2015-06-07T11:59:53.710Z</time>
      </trkpt>
      <trkpt lat="48.79343" lon="2.20957">
        <ele>201</ele>
        <time>2015-06-07T11:59:54.520Z</time>
      </trkpt>
      <trkpt lat="48.79349" lon="2.20964">
        <ele>201</ele>
        <time>2015-06-07T11:59:59.498Z</time>
      </trkpt>
      <trkpt lat="48.7935" lon="2.20965">
        <ele>202</ele>
        <time>2015-06-07T12:00:00.514Z</time>
      </trkpt>
      <trkpt lat="48.79358" lon="2.20972">
        <ele>206</ele>
        <time>2015-06-07T12:00:05.482Z</time>
      </trkpt>
      <trkpt lat="48.79359" lon="2.20973">
        <ele>206</ele>
        <time>2015-06-07T12:00:06.450Z</time>
      </trkpt>
      <trkpt lat="48.79366" lon="2.2098">
        <ele>206</ele>
        <time>2015-06-07T12:00:13.507Z</time>
      </trkpt>
      <trkpt lat="48.79367" lon="2.20981">
        <ele>205</ele>
        <time>2015-06-07T12:00:14.479Z</time>
      </trkpt>
      <trkpt lat="48.79375" lon="2.20985">
        <ele>204</ele>
        <time>2015-06-07T12:00:20.530Z</time>
      </trkpt>
      <trkpt lat="48.79377" lon="2.20986">
        <ele>203</ele>
        <time>2015-06-07T12:00:21.521Z</time>
      </trkpt>
      <trkpt lat="48.79385" lon="2.2099">
        <ele>206</ele>
        <time>2015-06-07T12:00:29.489Z</time>
      </trkpt>
      <trkpt lat="48.79386" lon="2.20991">
        <ele>206</ele>
        <time>2015-06-07T12:00:30.463Z</time>
      </trkpt>
      <trkpt lat="48.79392" lon="2.21">
        <ele>211</ele>
        <time>2015-06-07T12:00:38.509Z</time>
      </trkpt>
      <trkpt lat="48.79393" lon="2.21001">
        <ele>212</ele>
        <time>2015-06-07T12:00:39.465Z</time>
      </trkpt>
      <trkpt lat="48.79399" lon="2.2101">
        <ele>210</ele>
        <time>2015-06-07T12:00:48.493Z</time>
      </trkpt>
      <trkpt lat="48.79399" lon="2.21011">
        <ele>211</ele>
        <time>2015-06-07T12:00:49.492Z</time>
      </trkpt>
      <trkpt lat="48.79404" lon="2.21022">
        <ele>216</ele>
        <time>2015-06-07T12:01:09.455Z</time>
      </trkpt>
      <trkpt lat="48.79404" lon="2.21022">
        <ele>215</ele>
        <time>2015-06-07T12:01:10.491Z</time>
      </trkpt>
      <trkpt lat="48.7941" lon="2.21029">
        <ele>212</ele>
        <time>2015-06-07T12:01:17.500Z</time>
      </trkpt>
      <trkpt lat="48.79413" lon="2.21032">
        <ele>209</ele>
        <time>2015-06-07T12:01:18.953Z</time>
      </trkpt>
      <trkpt lat="48.7942" lon="2.21039">
        <ele>210</ele>
        <time>2015-06-07T12:01:21.527Z</time>
      </trkpt>
      <trkpt lat="48.79422" lon="2.21041">
        <ele>211</ele>
        <time>2015-06-07T12:01:22.494Z</time>
      </trkpt>
      <trkpt lat="48.79428" lon="2.21048">
        <ele>210</ele>
        <time>2015-06-07T12:01:26.484Z</time>
      </trkpt>
      <trkpt lat="48.7943" lon="2.21049">
        <ele>209</ele>
        <time>2015-06-07T12:01:27.549Z</time>
      </trkpt>
      <trkpt lat="48.79437" lon="2.21055">
        <ele>212</ele>
        <time>2015-06-07T12:01:31.542Z</time>
      </trkpt>
      <trkpt lat="48.79438" lon="2.21057">
        <ele>212</ele>
        <time>2015-06-07T12:01:32.509Z</time>
      </trkpt>
      <trkpt lat="48.79444" lon="2.21066">
        <ele>216</ele>
        <time>2015-06-07T12:01:43.482Z</time>
      </trkpt>
      <trkpt lat="48.79445" lon="2.21067">
        <ele>215</ele>
        <time>2015-06-07T12:01:44.480Z</time>
      </trkpt>
      <trkpt lat="48.7945" lon="2.21071">
        <ele>210</ele>
        <time>2015-06-07T12:01:48.483Z</time>
      </trkpt>
      <trkpt lat="48.79453" lon="2.21073">
        <ele>209</ele>
        <time>2015-06-07T12:01:49.503Z</time>
      </trkpt>
      <trkpt lat="48.7946" lon="2.21078">
        <ele>207</ele>
        <time>2015-06-07T12:01:52.539Z</time>
      </trkpt>
      <trkpt lat="48.79461" lon="2.2108">
        <ele>209</ele>
        <time>2015-06-07T12:01:53.516Z</time>
      </trkpt>
      <trkpt lat="48.79468" lon="2.21088">
        <ele>211</ele>
        <time>2015-06-07T12:02:01.512Z</time>
      </trkpt>
      <trkpt lat="48.79468" lon="2.21089">
        <ele>212</ele>
        <time>2015-06-07T12:02:02.504Z</time>
      </trkpt>
      <trkpt lat="48.79475" lon="2.21097">
        <ele>213</ele>
        <time>2015-06-07T12:02:11.517Z</time>
      </trkpt>
      <trkpt lat="48.79475" lon="2.21098">
        <ele>212</ele>
        <time>2015-06-07T12:02:12.494Z</time>
      </trkpt>
      <trkpt lat="48.79483" lon="2.21103">
        <ele>212</ele>
        <time>2015-06-07T12:02:18.562Z</time>
      </trkpt>
      <trkpt lat="48.79484" lon="2.21104">
        <ele>212</ele>
        <time>2015-06-07T12:02:19.514Z</time>
      </trkpt>
      <trkpt lat="48.79492" lon="2.2111">
        <ele>209</ele>
        <time>2015-06-07T12:02:28.534Z</time>
      </trkpt>
      <trkpt lat="48.79493" lon="2.21112">
        <ele>210</ele>
        <time>2015-06-07T12:02:29.527Z</time>
      </trkpt>
      <trkpt lat="48.79499" lon="2.21123">
        <ele>213</ele>
        <time>2015-06-07T12:02:34.444Z</time>
      </trkpt>
      <trkpt lat="48.79499" lon="2.21124">
        <ele>215</ele>
        <time>2015-06-07T12:02:35.453Z</time>
      </trkpt>
      <trkpt lat="48.79506" lon="2.2113">
        <ele>216</ele>
        <time>2015-06-07T12:02:40.444Z</time>
      </trkpt>
      <trkpt lat="48.79507" lon="2.21132">
        <ele>217</ele>
        <time>2015-06-07T12:02:41.447Z</time>
      </trkpt>
      <trkpt lat="48.79514" lon="2.21136">
        <ele>213</ele>
        <time>2015-06-07T12:02:44.469Z</time>
      </trkpt>
      <trkpt lat="48.79516" lon="2.21139">
        <ele>212</ele>
        <time>2015-06-07T12:02:45.442Z</time>
      </trkpt>
      <trkpt lat="48.79521" lon="2.21146">
        <ele>210</ele>
        <time>2015-06-07T12:02:47.524Z</time>
      </trkpt>
      <trkpt lat="48.79523" lon="2.21148">
        <ele>211</ele>
        <time>2015-06-07T12:02:48.455Z</time>
      </trkpt>
      <trkpt lat="48.7953" lon="2.21153">
        <ele>210</ele>
        <time>2015-06-07T12:02:52.518Z</time>
      </trkpt>
      <trkpt lat="48.79532" lon="2.21153">
        <ele>212</ele>
        <time>2015-06-07T12:02:53.519Z</time>
      </trkpt>
      <trkpt lat="48.79538" lon="2.21162">
        <ele>214</ele>
        <time>2015-06-07T12:03:11.448Z</time>
      </trkpt>
      <trkpt lat="48.79539" lon="2.21163">
        <ele>213</ele>
        <time>2015-06-07T12:03:12.527Z</time>
      </trkpt>
      <trkpt lat="48.79546" lon="2.21169">
        <ele>214</ele>
        <time>2015-06-07T12:03:22.603Z</time>
      </trkpt>
      <trkpt lat="48.79546" lon="2.2117">
        <ele>214</ele>
        <time>2015-06-07T12:03:23.545Z</time>
      </trkpt>
      <trkpt lat="48.79553" lon="2.21175">
        <ele>213</ele>
        <time>2015-06-07T12:03:28.558Z</time>
      </trkpt>
      <trkpt lat="48.79555" lon="2.21177">
        <ele>212</ele>
        <time>2015-06-07T12:03:29.523Z</time>
      </trkpt>
      <trkpt lat="48.79563" lon="2.21183">
        <ele>210</ele>
        <time>2015-06-07T12:03:36.492Z</time>
      </trkpt>
      <trkpt lat="48.79563" lon="2.21183">
        <ele>210</ele>
        <time>2015-06-07T12:03:37.509Z</time>
      </trkpt>
      <trkpt lat="48.7957" lon="2.2119">
        <ele>209</ele>
        <time>2015-06-07T12:03:52.583Z</time>
      </trkpt>
      <trkpt lat="48.79571" lon="2.21191">
        <ele>207</ele>
        <time>2015-06-07T12:03:53.502Z</time>
      </trkpt>
      <trkpt lat="48.79578" lon="2.21198">
        <ele>205</ele>
        <time>2015-06-07T12:04:00.509Z</time>
      </trkpt>
      <trkpt lat="48.79578" lon="2.21199">
        <ele>204</ele>
        <time>2015-06-07T12:04:01.452Z</time>
      </trkpt>
      <trkpt lat="48.79586" lon="2.21205">
        <ele>202</ele>
        <time>2015-06-07T12:04:06.446Z</time>
      </trkpt>
      <trkpt lat="48.79587" lon="2.21206">
        <ele>201</ele>
        <time>2015-06-07T12:04:07.456Z</time>
      </trkpt>
      <trkpt lat="48.79594" lon="2.21214">
        <ele>205</ele>
        <time>2015-06-07T12:04:12.457Z</time>
      </trkpt>
      <trkpt lat="48.79595" lon="2.21216">
        <ele>205</ele>
        <time>2015-06-07T12:04:13.454Z</time>
      </trkpt>
      <trkpt lat="48.79601" lon="2.21221">
        <ele>204</ele>
        <time>2015-06-07T12:04:17.446Z</time>
      </trkpt>
      <trkpt lat="48.79603" lon="2.21222">
        <ele>203</ele>
        <time>2015-06-07T12:04:18.466Z</time>
      </trkpt>
      <trkpt lat="48.7961" lon="2.21229">
        <ele>204</ele>
        <time>2015-06-07T12:04:23.536Z</time>
      </trkpt>
      <trkpt lat="48.79611" lon="2.2123">
        <ele>203</ele>
        <time>2015-06-07T12:04:24.571Z</time>
      </trkpt>
      <trkpt lat="48.79619" lon="2.21236">
        <ele>202</ele>
        <time>2015-06-07T12:04:30.433Z</time>
      </trkpt>
      <trkpt lat="48.7962" lon="2.21237">
        <ele>202</ele>
        <time>2015-06-07T12:04:31.493Z</time>
      </trkpt>
      <trkpt lat="48.79627" lon="2.21243">
        <ele>199</ele>
        <time>2015-06-07T12:04:40.490Z</time>
      </trkpt>
      <trkpt lat="48.79628" lon="2.21244">
        <ele>200</ele>
        <time>2015-06-07T12:04:41.507Z</time>
      </trkpt>
      <trkpt lat="48.79636" lon="2.21249">
        <ele>203</ele>
        <time>2015-06-07T12:04:46.524Z</time>
      </trkpt>
      <trkpt lat="48.79637" lon="2.21249">
        <ele>205</ele>
        <time>2015-06-07T12:04:47.455Z</time>
      </trkpt>
      <trkpt lat="48.79645" lon="2.21253">
        <ele>210</ele>
        <time>2015-06-07T12:04:53.523Z</time>
      </trkpt>
      <trkpt lat="48.79647" lon="2.21253">
        <ele>210</ele>
        <time>2015-06-07T12:04:54.515Z</time>
      </trkpt>
      <trkpt lat="48.79653" lon="2.21258">
        <ele>208</ele>
        <time>2015-06-07T12:04:59.467Z</time>
      </trkpt>
      <trkpt lat="48.79655" lon="2.21259">
        <ele>208</ele>
        <time>2015-06-07T12:05:00.510Z</time>
      </trkpt>
      <trkpt lat="48.79663" lon="2.21266">
        <ele>208</ele>
        <time>2015-06-07T12:05:12.508Z</time>
      </trkpt>
      <trkpt lat="48.79663" lon="2.21266">
        <ele>207</ele>
        <time>2015-06-07T12:05:13.515Z</time>
      </trkpt>
      <trkpt lat="48.7967" lon="2.21274">
        <ele>207</ele>
        <time>2015-06-07T12:05:26.536Z</time>
      </trkpt>
      <trkpt lat="48.79671" lon="2.21274">
        <ele>207</ele>
        <time>2015-06-07T12:05:27.489Z</time>
      </trkpt>
      <trkpt lat="48.79677" lon="2.21281">
        <ele>210</ele>
        <time>2015-06-07T12:05:33.559Z</time>
      </trkpt>
      <trkpt lat="48.79678" lon="2.21283">
        <ele>211</ele>
        <time>2015-06-07T12:05:34.519Z</time>
      </trkpt>
      <trkpt lat="48.79685" lon="2.21289">
        <ele>210</ele>
        <time>2015-06-07T12:05:39.517Z</time>
      </trkpt>
      <trkpt lat="48.79687" lon="2.21292">
        <ele>211</ele>
        <time>2015-06-07T12:05:40.478Z</time>
      </trkpt>
      <trkpt lat="48.79694" lon="2.21298">
        <ele>212</ele>
        <time>2015-06-07T12:05:45.221Z</time>
      </trkpt>
      <trkpt lat="48.79696" lon="2.213">
        <ele>212</ele>
        <time>2015-06-07T12:05:45.426Z</time>
      </trkpt>
      <trkpt lat="48.79703" lon="2.21308">
        <ele>213</ele>
        <time>2015-06-07T12:05:52.467Z</time>
      </trkpt>
      <trkpt lat="48.79704" lon="2.21309">
        <ele>213</ele>
        <time>2015-06-07T12:05:53.436Z</time>
      </trkpt>
      <trkpt lat="48.79712" lon="2.21315">
        <ele>210</ele>
        <time>2015-06-07T12:06:00.553Z</time>
      </trkpt>
      <trkpt lat="48.79713" lon="2.21316">
        <ele>211</ele>
        <time>2015-06-07T12:06:01.560Z</time>
      </trkpt>
      <trkpt lat="48.79719" lon="2.21322">
        <ele>213</ele>
        <time>2015-06-07T12:06:08.523Z</time>
      </trkpt>
      <trkpt lat="48.7972" lon="2.21322">
        <ele>212</ele>
        <time>2015-06-07T12:06:09.533Z</time>
      </trkpt>
      <trkpt lat="48.79727" lon="2.21329">
        <ele>213</ele>
        <time>2015-06-07T12:06:15.629Z</time>
      </trkpt>
      <trkpt lat="48.79728" lon="2.2133">
        <ele>213</ele>
        <time>2015-06-07T12:06:16.474Z</time>
      </trkpt>
      <trkpt lat="48.79735" lon="2.21338">
        <ele>213</ele>
        <time>2015-06-07T12:06:23.610Z</time>
      </trkpt>
      <trkpt lat="48.79736" lon="2.21339">
        <ele>213</ele>
        <time>2015-06-07T12:06:24.524Z</time>
      </trkpt>
      <trkpt lat="48.79742" lon="2.21348">
        <ele>213</ele>
        <time>2015-06-07T12:06:30.557Z</time>
      </trkpt>
      <trkpt lat="48.79743" lon="2.21349">
        <ele>212</ele>
        <time>2015-06-07T12:06:31.508Z</time>
      </trkpt>
      <trkpt lat="48.7975" lon="2.21356">
        <ele>215</ele>
        <time>2015-06-07T12:06:37.510Z</time>
      </trkpt>
      <trkpt lat="48.7975" lon="2.21358">
        <ele>215</ele>
        <time>2015-06-07T12:06:38.541Z</time>
      </trkpt>
      <trkpt lat="48.79759" lon="2.2136">
        <ele>215</ele>
        <time>2015-06-07T12:07:37.500Z</time>
      </trkpt>
      <trkpt lat="48.7976" lon="2.2136">
        <ele>213</ele>
        <time>2015-06-07T12:07:38.452Z</time>
      </trkpt>
      <trkpt lat="48.79767" lon="2.21364">
        <ele>211</ele>
        <time>2015-06-07T12:07:45.443Z</time>
      </trkpt>
      <trkpt lat="48.79768" lon="2.21366">
        <ele>211</ele>
        <time>2015-06-07T12:07:46.434Z</time>
      </trkpt>
      <trkpt lat="48.79774" lon="2.21374">
        <ele>209</ele>
        <time>2015-06-07T12:07:53.428Z</time>
      </trkpt>
      <trkpt lat="48.79775" lon="2.21375">
        <ele>209</ele>
        <time>2015-06-07T12:07:54.441Z</time>
      </trkpt>
      <trkpt lat="48.79783" lon="2.21382">
        <ele>209</ele>
        <time>2015-06-07T12:08:01.491Z</time>
      </trkpt>
      <trkpt lat="48.79784" lon="2.21383">
        <ele>209</ele>
        <time>2015-06-07T12:08:02.517Z</time>
      </trkpt>
      <trkpt lat="48.79791" lon="2.21391">
        <ele>209</ele>
        <time>2015-06-07T12:08:10.506Z</time>
      </trkpt>
      <trkpt lat="48.79791" lon="2.21392">
        <ele>209</ele>
        <time>2015-06-07T12:08:11.533Z</time>
      </trkpt>
      <trkpt lat="48.79798" lon="2.21401">
        <ele>209</ele>
        <time>2015-06-07T12:08:19.650Z</time>
      </trkpt>
      <trkpt lat="48.79799" lon="2.21402">
        <ele>208</ele>
        <time>2015-06-07T12:08:20.552Z</time>
      </trkpt>
      <trkpt lat="48.79806" lon="2.21408">
        <ele>208</ele>
        <time>2015-06-07T12:08:29.457Z</time>
      </trkpt>
      <trkpt lat="48.79807" lon="2.21409">
        <ele>209</ele>
        <time>2015-06-07T12:08:30.522Z</time>
      </trkpt>
      <trkpt lat="48.79813" lon="2.21416">
        <ele>206</ele>
        <time>2015-06-07T12:08:37.517Z</time>
      </trkpt>
      <trkpt lat="48.79815" lon="2.21416">
        <ele>207</ele>
        <time>2015-06-07T12:08:38.540Z</time>
      </trkpt>
      <trkpt lat="48.79822" lon="2.21421">
        <ele>206</ele>
        <time>2015-06-07T12:08:43.459Z</time>
      </trkpt>
      <trkpt lat="48.79823" lon="2.21422">
        <ele>207</ele>
        <time>2015-06-07T12:08:44.564Z</time>
      </trkpt>
      <trkpt lat="48.7983" lon="2.2143">
        <ele>207</ele>
        <time>2015-06-07T12:08:50.500Z</time>
      </trkpt>
      <trkpt lat="48.79831" lon="2.21431">
        <ele>207</ele>
        <time>2015-06-07T12:08:51.431Z</time>
      </trkpt>
      <trkpt lat="48.79839" lon="2.21437">
        <ele>210</ele>
        <time>2015-06-07T12:08:58.517Z</time>
      </trkpt>
      <trkpt lat="48.7984" lon="2.21438">
        <ele>211</ele>
        <time>2015-06-07T12:08:59.516Z</time>
      </trkpt>
      <trkpt lat="48.79847" lon="2.21446">
        <ele>211</ele>
        <time>2015-06-07T12:09:04.512Z</time>
      </trkpt>
      <trkpt lat="48.79848" lon="2.21446">
        <ele>210</ele>
        <time>2015-06-07T12:09:05.516Z</time>
      </trkpt>
      <trkpt lat="48.79855" lon="2.21451">
        <ele>211</ele>
        <time>2015-06-07T12:09:12.529Z</time>
      </trkpt>
      <trkpt lat="48.79857" lon="2.21451">
        <ele>211</ele>
        <time>2015-06-07T12:09:13.447Z</time>
      </trkpt>
      <trkpt lat="48.79864" lon="2.21459">
        <ele>211</ele>
        <time>2015-06-07T12:09:19.456Z</time>
      </trkpt>
      <trkpt lat="48.79865" lon="2.2146">
        <ele>210</ele>
        <time>2015-06-07T12:09:20.475Z</time>
      </trkpt>
      <trkpt lat="48.79863" lon="2.21473">
        <ele>206</ele>
        <time>2015-06-07T12:09:34.484Z</time>
      </trkpt>
      <trkpt lat="48.79863" lon="2.21474">
        <ele>205</ele>
        <time>2015-06-07T12:09:35.493Z</time>
      </trkpt>
      <trkpt lat="48.79858" lon="2.21485">
        <ele>204</ele>
        <time>2015-06-07T12:09:46.465Z</time>
      </trkpt>
      <trkpt lat="48.79857" lon="2.21486">
        <ele>203</ele>
        <time>2015-06-07T12:09:47.529Z</time>
      </trkpt>
      <trkpt lat="48.79853" lon="2.21497">
        <ele>203</ele>
        <time>2015-06-07T12:09:55.540Z</time>
      </trkpt>
      <trkpt lat="48.79852" lon="2.21498">
        <ele>204</ele>
        <time>2015-06-07T12:09:56.453Z</time>
      </trkpt>
      <trkpt lat="48.7985" lon="2.2151">
        <ele>205</ele>
        <time>2015-06-07T12:10:02.517Z</time>
      </trkpt>
      <trkpt lat="48.79849" lon="2.21511">
        <ele>205</ele>
        <time>2015-06-07T12:10:03.483Z</time>
      </trkpt>
      <trkpt lat="48.79845" lon="2.21524">
        <ele>205</ele>
        <time>2015-06-07T12:10:10.513Z</time>
      </trkpt>
      <trkpt lat="48.79844" lon="2.21525">
        <ele>206</ele>
        <time>2015-06-07T12:10:11.491Z</time>
      </trkpt>
      <trkpt lat="48.79841" lon="2.21536">
        <ele>204</ele>
        <time>2015-06-07T12:10:19.491Z</time>
      </trkpt>
      <trkpt lat="48.79841" lon="2.21538">
        <ele>203</ele>
        <time>2015-06-07T12:10:20.449Z</time>
      </trkpt>
      <trkpt lat="48.79838" lon="2.2155">
        <ele>204</ele>
        <time>2015-06-07T12:10:28.545Z</time>
      </trkpt>
      <trkpt lat="48.79837" lon="2.21551">
        <ele>204</ele>
        <time>2015-06-07T12:10:29.501Z</time>
      </trkpt>
      <trkpt lat="48.79832" lon="2.21559">
        <ele>204</ele>
        <time>2015-06-07T12:10:34.527Z</time>
      </trkpt>
      <trkpt lat="48.7983" lon="2.2156">
        <ele>205</ele>
        <time>2015-06-07T12:10:35.469Z</time>
      </trkpt>
      <trkpt lat="48.79823" lon="2.21567">
        <ele>211</ele>
        <time>2015-06-07T12:10:40.540Z</time>
      </trkpt>
      <trkpt lat="48.79821" lon="2.21569">
        <ele>212</ele>
        <time>2015-06-07T12:10:41.485Z</time>
      </trkpt>
      <trkpt lat="48.79818" lon="2.21581">
        <ele>214</ele>
        <time>2015-06-07T12:10:48.457Z</time>
      </trkpt>
      <trkpt lat="48.79818" lon="2.21582">
        <ele>214</ele>
        <time>2015-06-07T12:10:49.487Z</time>
      </trkpt>
      <trkpt lat="48.79812" lon="2.21591">
        <ele>216</ele>
        <time>2015-06-07T12:10:55.459Z</time>
      </trkpt>
      <trkpt lat="48.79811" lon="2.21593">
        <ele>216</ele>
        <time>2015-06-07T12:10:56.450Z</time>
      </trkpt>
      <trkpt lat="48.79811" lon="2.21606">
        <ele>215</ele>
        <time>2015-06-07T12:11:03.561Z</time>
      </trkpt>
      <trkpt lat="48.79812" lon="2.21607">
        <ele>213</ele>
        <time>2015-06-07T12:11:04.530Z</time>
      </trkpt>
      <trkpt lat="48.7981" lon="2.2162">
        <ele>214</ele>
        <time>2015-06-07T12:11:12.499Z</time>
      </trkpt>
      <trkpt lat="48.79811" lon="2.21622">
        <ele>214</ele>
        <time>2015-06-07T12:11:13.510Z</time>
      </trkpt>
      <trkpt lat="48.79812" lon="2.21635">
        <ele>206</ele>
        <time>2015-06-07T12:11:44.472Z</time>
      </trkpt>
      <trkpt lat="48.79814" lon="2.21641">
        <ele>198</ele>
        <time>2015-06-07T12:11:45.604Z</time>
      </trkpt>
      <trkpt lat="48.79817" lon="2.2167">
        <ele>201</ele>
        <time>2015-06-07T12:11:46.561Z</time>
      </trkpt>
      <trkpt lat="48.79815" lon="2.21681">
        <ele>201</ele>
        <time>2015-06-07T12:11:49.469Z</time>
      </trkpt>
      <trkpt lat="48.79815" lon="2.21683">
        <ele>199</ele>
        <time>2015-06-07T12:11:50.510Z</time>
      </trkpt>
      <trkpt lat="48.79816" lon="2.21697">
        <ele>203</ele>
        <time>2015-06-07T12:11:55.463Z</time>
      </trkpt>
      <trkpt lat="48.79815" lon="2.21699">
        <ele>202</ele>
        <time>2015-06-07T12:11:56.509Z</time>
      </trkpt>
      <trkpt lat="48.79811" lon="2.21711">
        <ele>204</ele>
        <time>2015-06-07T12:12:02.523Z</time>
      </trkpt>
      <trkpt lat="48.7981" lon="2.21713">
        <ele>202</ele>
        <time>2015-06-07T12:12:03.509Z</time>
      </trkpt>
      <trkpt lat="48.79808" lon="2.21726">
        <ele>201</ele>
        <time>2015-06-07T12:12:09.515Z</time>
      </trkpt>
      <trkpt lat="48.79809" lon="2.21728">
        <ele>200</ele>
        <time>2015-06-07T12:12:10.509Z</time>
      </trkpt>
      <trkpt lat="48.79808" lon="2.21741">
        <ele>202</ele>
        <time>2015-06-07T12:12:16.443Z</time>
      </trkpt>
      <trkpt lat="48.79807" lon="2.21743">
        <ele>202</ele>
        <time>2015-06-07T12:12:17.437Z</time>
      </trkpt>
      <trkpt lat="48.79801" lon="2.21752">
        <ele>204</ele>
        <time>2015-06-07T12:12:23.453Z</time>
      </trkpt>
      <trkpt lat="48.79801" lon="2.21754">
        <ele>205</ele>
        <time>2015-06-07T12:12:24.662Z</time>
      </trkpt>
      <trkpt lat="48.79795" lon="2.21762">
        <ele>202</ele>
        <time>2015-06-07T12:12:30.483Z</time>
      </trkpt>
      <trkpt lat="48.79794" lon="2.21763">
        <ele>200</ele>
        <time>2015-06-07T12:12:31.487Z</time>
      </trkpt>
      <trkpt lat="48.79792" lon="2.21775">
        <ele>201</ele>
        <time>2015-06-07T12:12:38.496Z</time>
      </trkpt>
      <trkpt lat="48.79792" lon="2.21777">
        <ele>202</ele>
        <time>2015-06-07T12:12:39.502Z</time>
      </trkpt>
      <trkpt lat="48.79793" lon="2.21789">
        <ele>200</ele>
        <time>2015-06-07T12:12:46.458Z</time>
      </trkpt>
      <trkpt lat="48.79793" lon="2.21791">
        <ele>200</ele>
        <time>2015-06-07T12:12:47.525Z</time>
      </trkpt>
      <trkpt lat="48.79793" lon="2.21804">
        <ele>198</ele>
        <time>2015-06-07T12:12:54.508Z</time>
      </trkpt>
      <trkpt lat="48.79794" lon="2.21806">
        <ele>198</ele>
        <time>2015-06-07T12:12:55.514Z</time>
      </trkpt>
      <trkpt lat="48.79794" lon="2.21818">
        <ele>197</ele>
        <time>2015-06-07T12:13:03.470Z</time>
      </trkpt>
      <trkpt lat="48.79794" lon="2.2182">
        <ele>198</ele>
        <time>2015-06-07T12:13:04.454Z</time>
      </trkpt>
      <trkpt lat="48.79793" lon="2.21832">
        <ele>195</ele>
        <time>2015-06-07T12:13:11.473Z</time>
      </trkpt>
      <trkpt lat="48.79793" lon="2.21834">
        <ele>196</ele>
        <time>2015-06-07T12:13:12.537Z</time>
      </trkpt>
      <trkpt lat="48.79793" lon="2.21848">
        <ele>197</ele>
        <time>2015-06-07T12:13:22.493Z</time>
      </trkpt>
      <trkpt lat="48.79793" lon="2.21849">
        <ele>198</ele>
        <time>2015-06-07T12:13:23.493Z</time>
      </trkpt>
      <trkpt lat="48.79789" lon="2.2186">
        <ele>199</ele>
        <time>2015-06-07T12:13:28.499Z</time>
      </trkpt>
      <trkpt lat="48.79788" lon="2.21862">
        <ele>198</ele>
        <time>2015-06-07T12:13:29.508Z</time>
      </trkpt>
      <trkpt lat="48.79785" lon="2.21874">
        <ele>200</ele>
        <time>2015-06-07T12:13:35.504Z</time>
      </trkpt>
      <trkpt lat="48.79785" lon="2.21875">
        <ele>199</ele>
        <time>2015-06-07T12:13:36.454Z</time>
      </trkpt>
      <trkpt lat="48.79786" lon="2.21889">
        <ele>193</ele>
        <time>2015-06-07T12:13:45.534Z</time>
      </trkpt>
      <trkpt lat="48.79785" lon="2.2189">
        <ele>193</ele>
        <time>2015-06-07T12:13:46.558Z</time>
      </trkpt>
      <trkpt lat="48.79779" lon="2.21898">
        <ele>193</ele>
        <time>2015-06-07T12:13:56.484Z</time>
      </trkpt>
      <trkpt lat="48.79778" lon="2.21899">
        <ele>194</ele>
        <time>2015-06-07T12:13:57.455Z</time>
      </trkpt>
      <trkpt lat="48.79775" lon="2.2191">
        <ele>191</ele>
        <time>2015-06-07T12:14:04.560Z</time>
      </trkpt>
      <trkpt lat="48.79775" lon="2.21912">
        <ele>189</ele>
        <time>2015-06-07T12:14:05.517Z</time>
      </trkpt>
      <trkpt lat="48.79775" lon="2.21923">
        <ele>184</ele>
        <time>2015-06-07T12:14:12.537Z</time>
      </trkpt>
      <trkpt lat="48.79775" lon="2.21925">
        <ele>186</ele>
        <time>2015-06-07T12:14:13.527Z</time>
      </trkpt>
      <trkpt lat="48.79773" lon="2.21937">
        <ele>185</ele>
        <time>2015-06-07T12:14:19.522Z</time>
      </trkpt>
      <trkpt lat="48.79773" lon="2.21939">
        <ele>186</ele>
        <time>2015-06-07T12:14:20.559Z</time>
      </trkpt>
      <trkpt lat="48.79769" lon="2.21951">
        <ele>185</ele>
        <time>2015-06-07T12:14:27.532Z</time>
      </trkpt>
      <trkpt lat="48.79769" lon="2.21953">
        <ele>185</ele>
        <time>2015-06-07T12:14:28.540Z</time>
      </trkpt>
      <trkpt lat="48.79765" lon="2.21965">
        <ele>188</ele>
        <time>2015-06-07T12:14:35.520Z</time>
      </trkpt>
      <trkpt lat="48.79764" lon="2.21966">
        <ele>186</ele>
        <time>2015-06-07T12:14:36.493Z</time>
      </trkpt>
      <trkpt lat="48.7976" lon="2.21977">
        <ele>188</ele>
        <time>2015-06-07T12:14:44.501Z</time>
      </trkpt>
      <trkpt lat="48.7976" lon="2.21978">
        <ele>187</ele>
        <time>2015-06-07T12:14:45.538Z</time>
      </trkpt>
      <trkpt lat="48.79757" lon="2.21989">
        <ele>190</ele>
        <time>2015-06-07T12:14:52.517Z</time>
      </trkpt>
      <trkpt lat="48.79756" lon="2.21991">
        <ele>191</ele>
        <time>2015-06-07T12:14:53.527Z</time>
      </trkpt>
      <trkpt lat="48.79754" lon="2.22004">
        <ele>189</ele>
        <time>2015-06-07T12:15:01.511Z</time>
      </trkpt>
      <trkpt lat="48.79753" lon="2.22006">
        <ele>190</ele>
        <time>2015-06-07T12:15:02.529Z</time>
      </trkpt>
      <trkpt lat="48.79749" lon="2.22016">
        <ele>189</ele>
        <time>2015-06-07T12:15:08.471Z</time>
      </trkpt>
      <trkpt lat="48.79749" lon="2.22018">
        <ele>189</ele>
        <time>2015-06-07T12:15:09.518Z</time>
      </trkpt>
      <trkpt lat="48.79744" lon="2.22028">
        <ele>189</ele>
        <time>2015-06-07T12:15:17.525Z</time>
      </trkpt>
      <trkpt lat="48.79743" lon="2.22029">
        <ele>190</ele>
        <time>2015-06-07T12:15:18.457Z</time>
      </trkpt>
      <trkpt lat="48.79738" lon="2.22041">
        <ele>188</ele>
        <time>2015-06-07T12:15:28.461Z</time>
      </trkpt>
      <trkpt lat="48.79738" lon="2.22042">
        <ele>189</ele>
        <time>2015-06-07T12:15:29.451Z</time>
      </trkpt>
      <trkpt lat="48.79736" lon="2.22054">
        <ele>190</ele>
        <time>2015-06-07T12:15:37.530Z</time>
      </trkpt>
      <trkpt lat="48.79736" lon="2.22055">
        <ele>189</ele>
        <time>2015-06-07T12:15:38.550Z</time>
      </trkpt>
      <trkpt lat="48.79733" lon="2.22067">
        <ele>191</ele>
        <time>2015-06-07T12:15:46.519Z</time>
      </trkpt>
      <trkpt lat="48.79732" lon="2.22069">
        <ele>193</ele>
        <time>2015-06-07T12:15:47.435Z</time>
      </trkpt>
      <trkpt lat="48.79727" lon="2.22079">
        <ele>191</ele>
        <time>2015-06-07T12:15:54.534Z</time>
      </trkpt>
      <trkpt lat="48.79726" lon="2.22081">
        <ele>190</ele>
        <time>2015-06-07T12:15:55.525Z</time>
      </trkpt>
      <trkpt lat="48.79724" lon="2.22092">
        <ele>193</ele>
        <time>2015-06-07T12:16:01.538Z</time>
      </trkpt>
      <trkpt lat="48.79723" lon="2.22093">
        <ele>194</ele>
        <time>2015-06-07T12:16:02.532Z</time>
      </trkpt>
      <trkpt lat="48.7972" lon="2.22105">
        <ele>192</ele>
        <time>2015-06-07T12:16:08.500Z</time>
      </trkpt>
      <trkpt lat="48.79719" lon="2.22107">
        <ele>191</ele>
        <time>2015-06-07T12:16:09.541Z</time>
      </trkpt>
      <trkpt lat="48.79716" lon="2.22118">
        <ele>191</ele>
        <time>2015-06-07T12:16:14.540Z</time>
      </trkpt>
      <trkpt lat="48.79715" lon="2.2212">
        <ele>193</ele>
        <time>2015-06-07T12:16:15.543Z</time>
      </trkpt>
      <trkpt lat="48.79712" lon="2.22132">
        <ele>196</ele>
        <time>2015-06-07T12:16:21.473Z</time>
      </trkpt>
      <trkpt lat="48.79711" lon="2.22134">
        <ele>197</ele>
        <time>2015-06-07T12:16:22.511Z</time>
      </trkpt>
      <trkpt lat="48.79711" lon="2.22145">
        <ele>193</ele>
        <time>2015-06-07T12:16:27.461Z</time>
      </trkpt>
      <trkpt lat="48.79711" lon="2.22147">
        <ele>194</ele>
        <time>2015-06-07T12:16:28.511Z</time>
      </trkpt>
      <trkpt lat="48.79707" lon="2.22158">
        <ele>198</ele>
        <time>2015-06-07T12:16:34.557Z</time>
      </trkpt>
      <trkpt lat="48.79707" lon="2.2216">
        <ele>198</ele>
        <time>2015-06-07T12:16:35.485Z</time>
      </trkpt>
      <trkpt lat="48.79702" lon="2.2217">
        <ele>195</ele>
        <time>2015-06-07T12:16:42.489Z</time>
      </trkpt>
      <trkpt lat="48.79702" lon="2.22172">
        <ele>194</ele>
        <time>2015-06-07T12:16:43.500Z</time>
      </trkpt>
      <trkpt lat="48.797" lon="2.22183">
        <ele>194</ele>
        <time>2015-06-07T12:16:50.499Z</time>
      </trkpt>
      <trkpt lat="48.79699" lon="2.22185">
        <ele>195</ele>
        <time>2015-06-07T12:16:51.518Z</time>
      </trkpt>
      <trkpt lat="48.79698" lon="2.22198">
        <ele>197</ele>
        <time>2015-06-07T12:16:59.441Z</time>
      </trkpt>
      <trkpt lat="48.79699" lon="2.222">
        <ele>197</ele>
        <time>2015-06-07T12:17:00.467Z</time>
      </trkpt>
      <trkpt lat="48.7969" lon="2.22201">
        <ele>202</ele>
        <time>2015-06-07T12:18:20.734Z</time>
      </trkpt>
      <trkpt lat="48.79689" lon="2.22202">
        <ele>202</ele>
        <time>2015-06-07T12:18:21.510Z</time>
      </trkpt>
      <trkpt lat="48.79681" lon="2.22207">
        <ele>195</ele>
        <time>2015-06-07T12:18:32.469Z</time>
      </trkpt>
      <trkpt lat="48.7968" lon="2.22209">
        <ele>194</ele>
        <time>2015-06-07T12:18:33.451Z</time>
      </trkpt>
      <trkpt lat="48.79674" lon="2.22217">
        <ele>193</ele>
        <time>2015-06-07T12:18:39.517Z</time>
      </trkpt>
      <trkpt lat="48.79672" lon="2.22218">
        <ele>193</ele>
        <time>2015-06-07T12:18:40.533Z</time>
      </trkpt>
      <trkpt lat="48.79665" lon="2.22225">
        <ele>191</ele>
        <time>2015-06-07T12:18:45.501Z</time>
      </trkpt>
      <trkpt lat="48.79664" lon="2.22226">
        <ele>191</ele>
        <time>2015-06-07T12:18:46.617Z</time>
      </trkpt>
      <trkpt lat="48.79661" lon="2.22237">
        <ele>194</ele>
        <time>2015-06-07T12:18:57.444Z</time>
      </trkpt>
      <trkpt lat="48.79661" lon="2.22239">
        <ele>195</ele>
        <time>2015-06-07T12:18:58.514Z</time>
      </trkpt>
      <trkpt lat="48.79659" lon="2.22251">
        <ele>193</ele>
        <time>2015-06-07T12:19:05.483Z</time>
      </trkpt>
      <trkpt lat="48.79658" lon="2.22253">
        <ele>193</ele>
        <time>2015-06-07T12:19:06.534Z</time>
      </trkpt>
      <trkpt lat="48.79657" lon="2.22265">
        <ele>196</ele>
        <time>2015-06-07T12:19:13.549Z</time>
      </trkpt>
      <trkpt lat="48.79656" lon="2.22267">
        <ele>198</ele>
        <time>2015-06-07T12:19:14.533Z</time>
      </trkpt>
      <trkpt lat="48.79654" lon="2.2228">
        <ele>204</ele>
        <time>2015-06-07T12:19:21.515Z</time>
      </trkpt>
      <trkpt lat="48.79654" lon="2.22281">
        <ele>204</ele>
        <time>2015-06-07T12:19:22.550Z</time>
      </trkpt>
      <trkpt lat="48.79652" lon="2.22294">
        <ele>201</ele>
        <time>2015-06-07T12:19:30.514Z</time>
      </trkpt>
      <trkpt lat="48.79651" lon="2.22296">
        <ele>203</ele>
        <time>2015-06-07T12:19:31.523Z</time>
      </trkpt>
      <trkpt lat="48.79647" lon="2.22307">
        <ele>203</ele>
        <time>2015-06-07T12:19:38.528Z</time>
      </trkpt>
      <trkpt lat="48.79646" lon="2.22309">
        <ele>203</ele>
        <time>2015-06-07T12:19:39.547Z</time>
      </trkpt>
      <trkpt lat="48.79642" lon="2.2232">
        <ele>201</ele>
        <time>2015-06-07T12:19:46.562Z</time>
      </trkpt>
      <trkpt lat="48.79642" lon="2.22322">
        <ele>200</ele>
        <time>2015-06-07T12:19:47.566Z</time>
      </trkpt>
      <trkpt lat="48.79638" lon="2.22333">
        <ele>202</ele>
        <time>2015-06-07T12:19:55.469Z</time>
      </trkpt>
      <trkpt lat="48.79637" lon="2.22334">
        <ele>200</ele>
        <time>2015-06-07T12:19:56.483Z</time>
      </trkpt>
      <trkpt lat="48.79632" lon="2.22345">
        <ele>203</ele>
        <time>2015-06-07T12:20:04.437Z</time>
      </trkpt>
      <trkpt lat="48.79631" lon="2.22346">
        <ele>201</ele>
        <time>2015-06-07T12:20:05.463Z</time>
      </trkpt>
      <trkpt lat="48.79625" lon="2.22354">
        <ele>199</ele>
        <time>2015-06-07T12:20:13.526Z</time>
      </trkpt>
      <trkpt lat="48.79624" lon="2.22355">
        <ele>199</ele>
        <time>2015-06-07T12:20:14.513Z</time>
      </trkpt>
      <trkpt lat="48.79618" lon="2.22363">
        <ele>198</ele>
        <time>2015-06-07T12:20:22.473Z</time>
      </trkpt>
      <trkpt lat="48.79617" lon="2.22364">
        <ele>199</ele>
        <time>2015-06-07T12:20:23.441Z</time>
      </trkpt>
      <trkpt lat="48.7961" lon="2.22372">
        <ele>199</ele>
        <time>2015-06-07T12:20:30.529Z</time>
      </trkpt>
      <trkpt lat="48.79609" lon="2.22372">
        <ele>199</ele>
        <time>2015-06-07T12:20:31.548Z</time>
      </trkpt>
      <trkpt lat="48.79602" lon="2.22379">
        <ele>200</ele>
        <time>2015-06-07T12:20:39.513Z</time>
      </trkpt>
      <trkpt lat="48.79601" lon="2.22381">
        <ele>200</ele>
        <time>2015-06-07T12:20:40.466Z</time>
      </trkpt>
      <trkpt lat="48.79594" lon="2.22387">
        <ele>203</ele>
        <time>2015-06-07T12:20:48.472Z</time>
      </trkpt>
      <trkpt lat="48.79593" lon="2.22387">
        <ele>203</ele>
        <time>2015-06-07T12:20:49.533Z</time>
      </trkpt>
      <trkpt lat="48.79585" lon="2.2239">
        <ele>205</ele>
        <time>2015-06-07T12:21:00.464Z</time>
      </trkpt>
      <trkpt lat="48.79584" lon="2.2239">
        <ele>205</ele>
        <time>2015-06-07T12:21:01.537Z</time>
      </trkpt>
      <trkpt lat="48.79575" lon="2.22393">
        <ele>203</ele>
        <time>2015-06-07T12:21:12.528Z</time>
      </trkpt>
      <trkpt lat="48.79574" lon="2.22393">
        <ele>204</ele>
        <time>2015-06-07T12:21:13.516Z</time>
      </trkpt>
      <trkpt lat="48.79566" lon="2.22393">
        <ele>205</ele>
        <time>2015-06-07T12:21:19.491Z</time>
      </trkpt>
      <trkpt lat="48.79564" lon="2.22394">
        <ele>203</ele>
        <time>2015-06-07T12:21:20.533Z</time>
      </trkpt>
      <trkpt lat="48.79556" lon="2.22395">
        <ele>199</ele>
        <time>2015-06-07T12:21:26.524Z</time>
      </trkpt>
      <trkpt lat="48.79554" lon="2.22395">
        <ele>199</ele>
        <time>2015-06-07T12:21:27.528Z</time>
      </trkpt>
      <trkpt lat="48.79545" lon="2.22394">
        <ele>200</ele>
        <time>2015-06-07T12:21:34.485Z</time>
      </trkpt>
      <trkpt lat="48.79544" lon="2.22394">
        <ele>200</ele>
        <time>2015-06-07T12:21:35.473Z</time>
      </trkpt>
      <trkpt lat="48.79536" lon="2.22392">
        <ele>199</ele>
        <time>2015-06-07T12:21:42.506Z</time>
      </trkpt>
      <trkpt lat="48.79534" lon="2.22391">
        <ele>199</ele>
        <time>2015-06-07T12:21:43.509Z</time>
      </trkpt>
      <trkpt lat="48.79527" lon="2.22389">
        <ele>199</ele>
        <time>2015-06-07T12:21:49.491Z</time>
      </trkpt>
      <trkpt lat="48.79525" lon="2.22388">
        <ele>199</ele>
        <time>2015-06-07T12:21:50.440Z</time>
      </trkpt>
      <trkpt lat="48.79517" lon="2.22388">
        <ele>201</ele>
        <time>2015-06-07T12:21:57.499Z</time>
      </trkpt>
      <trkpt lat="48.79516" lon="2.22388">
        <ele>200</ele>
        <time>2015-06-07T12:21:58.499Z</time>
      </trkpt>
      <trkpt lat="48.79507" lon="2.22392">
        <ele>204</ele>
        <time>2015-06-07T12:22:49.421Z</time>
      </trkpt>
      <trkpt lat="48.79506" lon="2.22392">
        <ele>204</ele>
        <time>2015-06-07T12:22:50.436Z</time>
      </trkpt>
      <trkpt lat="48.79499" lon="2.22386">
        <ele>197</ele>
        <time>2015-06-07T12:22:58.421Z</time>
      </trkpt>
      <trkpt lat="48.79497" lon="2.22386">
        <ele>196</ele>
        <time>2015-06-07T12:22:59.421Z</time>
      </trkpt>
      <trkpt lat="48.79489" lon="2.22381">
        <ele>201</ele>
        <time>2015-06-07T12:23:09.423Z</time>
      </trkpt>
      <trkpt lat="48.79488" lon="2.2238">
        <ele>200</ele>
        <time>2015-06-07T12:23:10.423Z</time>
      </trkpt>
      <trkpt lat="48.7948" lon="2.22376">
        <ele>197</ele>
        <time>2015-06-07T12:23:19.469Z</time>
      </trkpt>
      <trkpt lat="48.79479" lon="2.22376">
        <ele>199</ele>
        <time>2015-06-07T12:23:20.645Z</time>
      </trkpt>
      <trkpt lat="48.7947" lon="2.22375">
        <ele>201</ele>
        <time>2015-06-07T12:23:28.665Z</time>
      </trkpt>
      <trkpt lat="48.79469" lon="2.22374">
        <ele>201</ele>
        <time>2015-06-07T12:23:29.459Z</time>
      </trkpt>
      <trkpt lat="48.79461" lon="2.22373">
        <ele>198</ele>
        <time>2015-06-07T12:23:34.440Z</time>
      </trkpt>
      <trkpt lat="48.7946" lon="2.22372">
        <ele>198</ele>
        <time>2015-06-07T12:23:35.421Z</time>
      </trkpt>
      <trkpt lat="48.79452" lon="2.22368">
        <ele>196</ele>
        <time>2015-06-07T12:23:40.447Z</time>
      </trkpt>
      <trkpt lat="48.79451" lon="2.22367">
        <ele>196</ele>
        <time>2015-06-07T12:23:41.492Z</time>
      </trkpt>
      <trkpt lat="48.79444" lon="2.22363">
        <ele>199</ele>
        <time>2015-06-07T12:23:47.809Z</time>
      </trkpt>
      <trkpt lat="48.79442" lon="2.22363">
        <ele>199</ele>
        <time>2015-06-07T12:23:48.444Z</time>
      </trkpt>
      <trkpt lat="48.79435" lon="2.22356">
        <ele>198</ele>
        <time>2015-06-07T12:23:56.428Z</time>
      </trkpt>
      <trkpt lat="48.79434" lon="2.22355">
        <ele>198</ele>
        <time>2015-06-07T12:23:57.441Z</time>
      </trkpt>
      <trkpt lat="48.79426" lon="2.22348">
        <ele>201</ele>
        <time>2015-06-07T12:24:05.449Z</time>
      </trkpt>
      <trkpt lat="48.79425" lon="2.22347">
        <ele>201</ele>
        <time>2015-06-07T12:24:06.531Z</time>
      </trkpt>
      <trkpt lat="48.79418" lon="2.2234">
        <ele>199</ele>
        <time>2015-06-07T12:24:15.492Z</time>
      </trkpt>
      <trkpt lat="48.79417" lon="2.22339">
        <ele>200</ele>
        <time>2015-06-07T12:24:16.443Z</time>
      </trkpt>
      <trkpt lat="48.7941" lon="2.22331">
        <ele>202</ele>
        <time>2015-06-07T12:24:24.434Z</time>
      </trkpt>
      <trkpt lat="48.79409" lon="2.2233">
        <ele>202</ele>
        <time>2015-06-07T12:24:25.436Z</time>
      </trkpt>
      <trkpt lat="48.79404" lon="2.22321">
        <ele>204</ele>
        <time>2015-06-07T12:24:33.442Z</time>
      </trkpt>
      <trkpt lat="48.79403" lon="2.2232">
        <ele>204</ele>
        <time>2015-06-07T12:24:34.441Z</time>
      </trkpt>
      <trkpt lat="48.794" lon="2.22308">
        <ele>206</ele>
        <time>2015-06-07T12:24:43.429Z</time>
      </trkpt>
      <trkpt lat="48.794" lon="2.22306">
        <ele>205</ele>
        <time>2015-06-07T12:24:44.430Z</time>
      </trkpt>
      <trkpt lat="48.79397" lon="2.22295">
        <ele>202</ele>
        <time>2015-06-07T12:24:51.524Z</time>
      </trkpt>
      <trkpt lat="48.79396" lon="2.22293">
        <ele>202</ele>
        <time>2015-06-07T12:24:52.582Z</time>
      </trkpt>
      <trkpt lat="48.79391" lon="2.22283">
        <ele>200</ele>
        <time>2015-06-07T12:25:00.484Z</time>
      </trkpt>
      <trkpt lat="48.7939" lon="2.22282">
        <ele>202</ele>
        <time>2015-06-07T12:25:01.521Z</time>
      </trkpt>
      <trkpt lat="48.79386" lon="2.2227">
        <ele>200</ele>
        <time>2015-06-07T12:25:12.498Z</time>
      </trkpt>
      <trkpt lat="48.79386" lon="2.22268">
        <ele>201</ele>
        <time>2015-06-07T12:25:13.524Z</time>
      </trkpt>
      <trkpt lat="48.79378" lon="2.22263">
        <ele>202</ele>
        <time>2015-06-07T12:25:24.469Z</time>
      </trkpt>
      <trkpt lat="48.79377" lon="2.22261">
        <ele>203</ele>
        <time>2015-06-07T12:25:25.456Z</time>
      </trkpt>
      <trkpt lat="48.79375" lon="2.22249">
        <ele>202</ele>
        <time>2015-06-07T12:25:34.437Z</time>
      </trkpt>
      <trkpt lat="48.79373" lon="2.22248">
        <ele>201</ele>
        <time>2015-06-07T12:25:35.497Z</time>
      </trkpt>
      <trkpt lat="48.79366" lon="2.22246">
        <ele>200</ele>
        <time>2015-06-07T12:25:39.484Z</time>
      </trkpt>
      <trkpt lat="48.79364" lon="2.22245">
        <ele>199</ele>
        <time>2015-06-07T12:25:40.630Z</time>
      </trkpt>
      <trkpt lat="48.79355" lon="2.22242">
        <ele>203</ele>
        <time>2015-06-07T12:26:25.475Z</time>
      </trkpt>
      <trkpt lat="48.79354" lon="2.22242">
        <ele>202</ele>
        <time>2015-06-07T12:26:26.491Z</time>
      </trkpt>
      <trkpt lat="48.79346" lon="2.2224">
        <ele>204</ele>
        <time>2015-06-07T12:26:33.830Z</time>
      </trkpt>
      <trkpt lat="48.79344" lon="2.22239">
        <ele>205</ele>
        <time>2015-06-07T12:26:34.477Z</time>
      </trkpt>
      <trkpt lat="48.79336" lon="2.22239">
        <ele>204</ele>
        <time>2015-06-07T12:26:40.427Z</time>
      </trkpt>
      <trkpt lat="48.79335" lon="2.22239">
        <ele>204</ele>
        <time>2015-06-07T12:26:41.428Z</time>
      </trkpt>
      <trkpt lat="48.79327" lon="2.22236">
        <ele>201</ele>
        <time>2015-06-07T12:26:51.433Z</time>
      </trkpt>
      <trkpt lat="48.79326" lon="2.22235">
        <ele>201</ele>
        <time>2015-06-07T12:26:52.477Z</time>
      </trkpt>
      <trkpt lat="48.79318" lon="2.22233">
        <ele>199</ele>
        <time>2015-06-07T12:26:59.428Z</time>
      </trkpt>
      <trkpt lat="48.79317" lon="2.22234">
        <ele>199</ele>
        <time>2015-06-07T12:27:00.428Z</time>
      </trkpt>
      <trkpt lat="48.79309" lon="2.22233">
        <ele>200</ele>
        <time>2015-06-07T12:27:07.549Z</time>
      </trkpt>
      <trkpt lat="48.79308" lon="2.22233">
        <ele>201</ele>
        <time>2015-06-07T12:27:08.444Z</time>
      </trkpt>
      <trkpt lat="48.79299" lon="2.22233">
        <ele>201</ele>
        <time>2015-06-07T12:27:16.483Z</time>
      </trkpt>
      <trkpt lat="48.79298" lon="2.22233">
        <ele>200</ele>
        <time>2015-06-07T12:27:17.462Z</time>
      </trkpt>
      <trkpt lat="48.79289" lon="2.22234">
        <ele>204</ele>
        <time>2015-06-07T12:27:24.469Z</time>
      </trkpt>
      <trkpt lat="48.79289" lon="2.22234">
        <ele>205</ele>
        <time>2015-06-07T12:27:25.475Z</time>
      </trkpt>
      <trkpt lat="48.7928" lon="2.22237">
        <ele>205</ele>
        <time>2015-06-07T12:27:33.961Z</time>
      </trkpt>
      <trkpt lat="48.79278" lon="2.22237">
        <ele>204</ele>
        <time>2015-06-07T12:27:34.430Z</time>
      </trkpt>
      <trkpt lat="48.7927" lon="2.22239">
        <ele>205</ele>
        <time>2015-06-07T12:27:40.531Z</time>
      </trkpt>
      <trkpt lat="48.79269" lon="2.2224">
        <ele>205</ele>
        <time>2015-06-07T12:27:41.483Z</time>
      </trkpt>
      <trkpt lat="48.79262" lon="2.22247">
        <ele>206</ele>
        <time>2015-06-07T12:27:49.549Z</time>
      </trkpt>
      <trkpt lat="48.79262" lon="2.22247">
        <ele>206</ele>
        <time>2015-06-07T12:27:50.427Z</time>
      </trkpt>
      <trkpt lat="48.79255" lon="2.22254">
        <ele>206</ele>
        <time>2015-06-07T12:27:58.548Z</time>
      </trkpt>
      <trkpt lat="48.79254" lon="2.22256">
        <ele>205</ele>
        <time>2015-06-07T12:27:59.511Z</time>
      </trkpt>
      <trkpt lat="48.7925" lon="2.22267">
        <ele>204</ele>
        <time>2015-06-07T12:28:06.502Z</time>
      </trkpt>
      <trkpt lat="48.79248" lon="2.22267">
        <ele>204</ele>
        <time>2015-06-07T12:28:07.553Z</time>
      </trkpt>
      <trkpt lat="48.79241" lon="2.22274">
        <ele>207</ele>
        <time>2015-06-07T12:28:13.427Z</time>
      </trkpt>
      <trkpt lat="48.79239" lon="2.22275">
        <ele>205</ele>
        <time>2015-06-07T12:28:14.456Z</time>
      </trkpt>
      <trkpt lat="48.79233" lon="2.22281">
        <ele>206</ele>
        <time>2015-06-07T12:28:20.486Z</time>
      </trkpt>
      <trkpt lat="48.79232" lon="2.22283">
        <ele>207</ele>
        <time>2015-06-07T12:28:21.593Z</time>
      </trkpt>
      <trkpt lat="48.79227" lon="2.22293">
        <ele>201</ele>
        <time>2015-06-07T12:28:28.591Z</time>
      </trkpt>
      <trkpt lat="48.79227" lon="2.22294">
        <ele>200</ele>
        <time>2015-06-07T12:28:29.500Z</time>
      </trkpt>
      <trkpt lat="48.79221" lon="2.22302">
        <ele>199</ele>
        <time>2015-06-07T12:28:36.471Z</time>
      </trkpt>
      <trkpt lat="48.7922" lon="2.22303">
        <ele>201</ele>
        <time>2015-06-07T12:28:37.477Z</time>
      </trkpt>
      <trkpt lat="48.79213" lon="2.22311">
        <ele>202</ele>
        <time>2015-06-07T12:28:45.467Z</time>
      </trkpt>
      <trkpt lat="48.79213" lon="2.22312">
        <ele>202</ele>
        <time>2015-06-07T12:28:46.427Z</time>
      </trkpt>
      <trkpt lat="48.79212" lon="2.22325">
        <ele>199</ele>
        <time>2015-06-07T12:28:55.495Z</time>
      </trkpt>
      <trkpt lat="48.79212" lon="2.22326">
        <ele>199</ele>
        <time>2015-06-07T12:28:56.477Z</time>
      </trkpt>
      <trkpt lat="48.79209" lon="2.22337">
        <ele>204</ele>
        <time>2015-06-07T12:29:02.427Z</time>
      </trkpt>
      <trkpt lat="48.79208" lon="2.22339">
        <ele>204</ele>
        <time>2015-06-07T12:29:03.507Z</time>
      </trkpt>
      <trkpt lat="48.79202" lon="2.22349">
        <ele>207</ele>
        <time>2015-06-07T12:29:09.470Z</time>
      </trkpt>
      <trkpt lat="48.79201" lon="2.22349">
        <ele>208</ele>
        <time>2015-06-07T12:29:10.434Z</time>
      </trkpt>
      <trkpt lat="48.79195" lon="2.22358">
        <ele>203</ele>
        <time>2015-06-07T12:29:18.525Z</time>
      </trkpt>
      <trkpt lat="48.79195" lon="2.2236">
        <ele>204</ele>
        <time>2015-06-07T12:29:19.465Z</time>
      </trkpt>
      <trkpt lat="48.79189" lon="2.22368">
        <ele>205</ele>
        <time>2015-06-07T12:29:26.460Z</time>
      </trkpt>
      <trkpt lat="48.79188" lon="2.22369">
        <ele>206</ele>
        <time>2015-06-07T12:29:27.566Z</time>
      </trkpt>
      <trkpt lat="48.79182" lon="2.22378">
        <ele>206</ele>
        <time>2015-06-07T12:29:35.501Z</time>
      </trkpt>
      <trkpt lat="48.79181" lon="2.22379">
        <ele>207</ele>
        <time>2015-06-07T12:29:36.531Z</time>
      </trkpt>
      <trkpt lat="48.79174" lon="2.22388">
        <ele>205</ele>
        <time>2015-06-07T12:29:43.577Z</time>
      </trkpt>
      <trkpt lat="48.79174" lon="2.2239">
        <ele>204</ele>
        <time>2015-06-07T12:29:44.470Z</time>
      </trkpt>
      <trkpt lat="48.79167" lon="2.22397">
        <ele>203</ele>
        <time>2015-06-07T12:29:52.549Z</time>
      </trkpt>
      <trkpt lat="48.79167" lon="2.22398">
        <ele>204</ele>
        <time>2015-06-07T12:29:53.733Z</time>
      </trkpt>
      <trkpt lat="48.7916" lon="2.22407">
        <ele>206</ele>
        <time>2015-06-07T12:30:01.548Z</time>
      </trkpt>
      <trkpt lat="48.79159" lon="2.22408">
        <ele>206</ele>
        <time>2015-06-07T12:30:02.483Z</time>
      </trkpt>
      <trkpt lat="48.79151" lon="2.22413">
        <ele>211</ele>
        <time>2015-06-07T12:30:11.469Z</time>
      </trkpt>
      <trkpt lat="48.7915" lon="2.22414">
        <ele>210</ele>
        <time>2015-06-07T12:30:12.492Z</time>
      </trkpt>
      <trkpt lat="48.79144" lon="2.22425">
        <ele>211</ele>
        <time>2015-06-07T12:30:20.667Z</time>
      </trkpt>
      <trkpt lat="48.79144" lon="2.22426">
        <ele>211</ele>
        <time>2015-06-07T12:30:21.454Z</time>
      </trkpt>
      <trkpt lat="48.79141" lon="2.22439">
        <ele>217</ele>
        <time>2015-06-07T12:30:30.613Z</time>
      </trkpt>
      <trkpt lat="48.7914" lon="2.2244">
        <ele>216</ele>
        <time>2015-06-07T12:30:31.427Z</time>
      </trkpt>
      <trkpt lat="48.79136" lon="2.22451">
        <ele>213</ele>
        <time>2015-06-07T12:30:41.532Z</time>
      </trkpt>
      <trkpt lat="48.79135" lon="2.22451">
        <ele>211</ele>
        <time>2015-06-07T12:30:42.481Z</time>
      </trkpt>
      <trkpt lat="48.79128" lon="2.22458">
        <ele>214</ele>
        <time>2015-06-07T12:30:48.435Z</time>
      </trkpt>
      <trkpt lat="48.79127" lon="2.2246">
        <ele>215</ele>
        <time>2015-06-07T12:30:49.471Z</time>
      </trkpt>
      <trkpt lat="48.79121" lon="2.22467">
        <ele>214</ele>
        <time>2015-06-07T12:30:53.469Z</time>
      </trkpt>
      <trkpt lat="48.79119" lon="2.22469">
        <ele>214</ele>
        <time>2015-06-07T12:30:54.430Z</time>
      </trkpt>
      <trkpt lat="48.79113" lon="2.22478">
        <ele>216</ele>
        <time>2015-06-07T12:30:59.503Z</time>
      </trkpt>
      <trkpt lat="48.79112" lon="2.2248">
        <ele>218</ele>
        <time>2015-06-07T12:31:00.858Z</time>
      </trkpt>
      <trkpt lat="48.79108" lon="2.22492">
        <ele>214</ele>
        <time>2015-06-07T12:31:07.126Z</time>
      </trkpt>
      <trkpt lat="48.79108" lon="2.22494">
        <ele>215</ele>
        <time>2015-06-07T12:31:07.427Z</time>
      </trkpt>
      <trkpt lat="48.79109" lon="2.22507">
        <ele>214</ele>
        <time>2015-06-07T12:31:12.497Z</time>
      </trkpt>
      <trkpt lat="48.79108" lon="2.22508">
        <ele>215</ele>
        <time>2015-06-07T12:31:13.611Z</time>
      </trkpt>
      <trkpt lat="48.79111" lon="2.2252">
        <ele>219</ele>
        <time>2015-06-07T12:31:42.427Z</time>
      </trkpt>
      <trkpt lat="48.79113" lon="2.22519">
        <ele>218</ele>
        <time>2015-06-07T12:31:43.656Z</time>
      </trkpt>
      <trkpt lat="48.79121" lon="2.2252">
        <ele>212</ele>
        <time>2015-06-07T12:31:50.429Z</time>
      </trkpt>
      <trkpt lat="48.79123" lon="2.22521">
        <ele>210</ele>
        <time>2015-06-07T12:31:51.515Z</time>
      </trkpt>
      <trkpt lat="48.79131" lon="2.22526">
        <ele>209</ele>
        <time>2015-06-07T12:31:59.491Z</time>
      </trkpt>
      <trkpt lat="48.79132" lon="2.22527">
        <ele>208</ele>
        <time>2015-06-07T12:32:00.437Z</time>
      </trkpt>
      <trkpt lat="48.79138" lon="2.22534">
        <ele>215</ele>
        <time>2015-06-07T12:32:08.439Z</time>
      </trkpt>
      <trkpt lat="48.79139" lon="2.22535">
        <ele>215</ele>
        <time>2015-06-07T12:32:09.493Z</time>
      </trkpt>
      <trkpt lat="48.79147" lon="2.22537">
        <ele>209</ele>
        <time>2015-06-07T12:32:17.195Z</time>
      </trkpt>
      <trkpt lat="48.79149" lon="2.22538">
        <ele>209</ele>
        <time>2015-06-07T12:32:17.611Z</time>
      </trkpt>
      <trkpt lat="48.79156" lon="2.22543">
        <ele>213</ele>
        <time>2015-06-07T12:32:24.427Z</time>
      </trkpt>
      <trkpt lat="48.79157" lon="2.22543">
        <ele>213</ele>
        <time>2015-06-07T12:32:25.641Z</time>
      </trkpt>
      <trkpt lat="48.79165" lon="2.2255">
        <ele>212</ele>
        <time>2015-06-07T12:32:33.487Z</time>
      </trkpt>
      <trkpt lat="48.79166" lon="2.2255">
        <ele>213</ele>
        <time>2015-06-07T12:32:34.533Z</time>
      </trkpt>
      <trkpt lat="48.79174" lon="2.22552">
        <ele>211</ele>
        <time>2015-06-07T12:32:41.651Z</time>
      </trkpt>
      <trkpt lat="48.79175" lon="2.22552">
        <ele>211</ele>
        <time>2015-06-07T12:32:42.485Z</time>
      </trkpt>
      <trkpt lat="48.79183" lon="2.22554">
        <ele>214</ele>
        <time>2015-06-07T12:32:53.150Z</time>
      </trkpt>
      <trkpt lat="48.79185" lon="2.22553">
        <ele>210</ele>
        <time>2015-06-07T12:32:53.562Z</time>
      </trkpt>
      <trkpt lat="48.79194" lon="2.22553">
        <ele>209</ele>
        <time>2015-06-07T12:33:01.562Z</time>
      </trkpt>
      <trkpt lat="48.79195" lon="2.22552">
        <ele>208</ele>
        <time>2015-06-07T12:33:02.477Z</time>
      </trkpt>
      <trkpt lat="48.79203" lon="2.22554">
        <ele>206</ele>
        <time>2015-06-07T12:33:09.435Z</time>
      </trkpt>
      <trkpt lat="48.79204" lon="2.22554">
        <ele>205</ele>
        <time>2015-06-07T12:33:10.483Z</time>
      </trkpt>
      <trkpt lat="48.79211" lon="2.22558">
        <ele>199</ele>
        <time>2015-06-07T12:33:17.969Z</time>
      </trkpt>
      <trkpt lat="48.79213" lon="2.22559">
        <ele>198</ele>
        <time>2015-06-07T12:33:18.436Z</time>
      </trkpt>
      <trkpt lat="48.7922" lon="2.22567">
        <ele>202</ele>
        <time>2015-06-07T12:33:27.988Z</time>
      </trkpt>
      <trkpt lat="48.79221" lon="2.22567">
        <ele>199</ele>
        <time>2015-06-07T12:33:28.440Z</time>
      </trkpt>
      <trkpt lat="48.79229" lon="2.22569">
        <ele>198</ele>
        <time>2015-06-07T12:33:39.960Z</time>
      </trkpt>
      <trkpt lat="48.7923" lon="2.22569">
        <ele>199</ele>
        <time>2015-06-07T12:33:40.461Z</time>
      </trkpt>
      <trkpt lat="48.79238" lon="2.2257">
        <ele>194</ele>
        <time>2015-06-07T12:33:48.752Z</time>
      </trkpt>
      <trkpt lat="48.79239" lon="2.2257">
        <ele>192</ele>
        <time>2015-06-07T12:33:49.462Z</time>
      </trkpt>
      <trkpt lat="48.79247" lon="2.22573">
        <ele>192</ele>
        <time>2015-06-07T12:33:56.460Z</time>
      </trkpt>
      <trkpt lat="48.79248" lon="2.22574">
        <ele>192</ele>
        <time>2015-06-07T12:33:57.494Z</time>
      </trkpt>
      <trkpt lat="48.79256" lon="2.22578">
        <ele>191</ele>
        <time>2015-06-07T12:34:06.485Z</time>
      </trkpt>
      <trkpt lat="48.79257" lon="2.22578">
        <ele>192</ele>
        <time>2015-06-07T12:34:07.611Z</time>
      </trkpt>
      <trkpt lat="48.79264" lon="2.22582">
        <ele>191</ele>
        <time>2015-06-07T12:34:16.515Z</time>
      </trkpt>
      <trkpt lat="48.79265" lon="2.22583">
        <ele>190</ele>
        <time>2015-06-07T12:34:17.554Z</time>
      </trkpt>
      <trkpt lat="48.79273" lon="2.22586">
        <ele>191</ele>
        <time>2015-06-07T12:34:29.478Z</time>
      </trkpt>
      <trkpt lat="48.79274" lon="2.22587">
        <ele>192</ele>
        <time>2015-06-07T12:34:30.527Z</time>
      </trkpt>
      <trkpt lat="48.79282" lon="2.22589">
        <ele>191</ele>
        <time>2015-06-07T12:34:39.192Z</time>
      </trkpt>
      <trkpt lat="48.79283" lon="2.22589">
        <ele>190</ele>
        <time>2015-06-07T12:34:39.435Z</time>
      </trkpt>
      <trkpt lat="48.79291" lon="2.22588">
        <ele>185</ele>
        <time>2015-06-07T12:34:45.512Z</time>
      </trkpt>
      <trkpt lat="48.79292" lon="2.22588">
        <ele>183</ele>
        <time>2015-06-07T12:34:46.485Z</time>
      </trkpt>
      <trkpt lat="48.793" lon="2.22591">
        <ele>182</ele>
        <time>2015-06-07T12:34:56.479Z</time>
      </trkpt>
      <trkpt lat="48.79301" lon="2.22592">
        <ele>182</ele>
        <time>2015-06-07T12:34:57.489Z</time>
      </trkpt>
      <trkpt lat="48.79309" lon="2.22596">
        <ele>178</ele>
        <time>2015-06-07T12:35:04.856Z</time>
      </trkpt>
      <trkpt lat="48.7931" lon="2.22597">
        <ele>180</ele>
        <time>2015-06-07T12:35:05.502Z</time>
      </trkpt>
      <trkpt lat="48.79317" lon="2.22602">
        <ele>176</ele>
        <time>2015-06-07T12:35:12.471Z</time>
      </trkpt>
      <trkpt lat="48.79318" lon="2.22602">
        <ele>176</ele>
        <time>2015-06-07T12:35:13.478Z</time>
      </trkpt>
      <trkpt lat="48.79326" lon="2.22608">
        <ele>177</ele>
        <time>2015-06-07T12:35:20.596Z</time>
      </trkpt>
      <trkpt lat="48.79328" lon="2.22608">
        <ele>177</ele>
        <time>2015-06-07T12:35:21.713Z</time>
      </trkpt>
      <trkpt lat="48.79336" lon="2.22608">
        <ele>177</ele>
        <time>2015-06-07T12:35:39.436Z</time>
      </trkpt>
      <trkpt lat="48.79337" lon="2.22608">
        <ele>177</ele>
        <time>2015-06-07T12:35:40.447Z</time>
      </trkpt>
      <trkpt lat="48.79345" lon="2.22611">
        <ele>172</ele>
        <time>2015-06-07T12:35:49.438Z</time>
      </trkpt>
      <trkpt lat="48.79347" lon="2.22611">
        <ele>172</ele>
        <time>2015-06-07T12:35:50.437Z</time>
      </trkpt>
      <trkpt lat="48.79355" lon="2.22614">
        <ele>172</ele>
        <time>2015-06-07T12:35:56.446Z</time>
      </trkpt>
      <trkpt lat="48.79356" lon="2.22615">
        <ele>173</ele>
        <time>2015-06-07T12:35:57.437Z</time>
      </trkpt>
      <trkpt lat="48.79364" lon="2.2262">
        <ele>171</ele>
        <time>2015-06-07T12:36:07.127Z</time>
      </trkpt>
      <trkpt lat="48.79365" lon="2.2262">
        <ele>171</ele>
        <time>2015-06-07T12:36:07.438Z</time>
      </trkpt>
      <trkpt lat="48.79373" lon="2.22624">
        <ele>170</ele>
        <time>2015-06-07T12:36:12.439Z</time>
      </trkpt>
      <trkpt lat="48.79374" lon="2.22624">
        <ele>170</ele>
        <time>2015-06-07T12:36:13.435Z</time>
      </trkpt>
      <trkpt lat="48.79383" lon="2.22627">
        <ele>172</ele>
        <time>2015-06-07T12:36:19.444Z</time>
      </trkpt>
      <trkpt lat="48.79384" lon="2.22628">
        <ele>172</ele>
        <time>2015-06-07T12:36:20.447Z</time>
      </trkpt>
      <trkpt lat="48.79393" lon="2.2263">
        <ele>175</ele>
        <time>2015-06-07T12:36:27.447Z</time>
      </trkpt>
      <trkpt lat="48.79394" lon="2.22629">
        <ele>171</ele>
        <time>2015-06-07T12:36:28.448Z</time>
      </trkpt>
      <trkpt lat="48.79402" lon="2.22632">
        <ele>169</ele>
        <time>2015-06-07T12:36:37.773Z</time>
      </trkpt>
      <trkpt lat="48.79404" lon="2.22633">
        <ele>167</ele>
        <time>2015-06-07T12:36:38.482Z</time>
      </trkpt>
      <trkpt lat="48.79412" lon="2.22637">
        <ele>168</ele>
        <time>2015-06-07T12:36:46.455Z</time>
      </trkpt>
      <trkpt lat="48.79413" lon="2.22638">
        <ele>169</ele>
        <time>2015-06-07T12:36:47.508Z</time>
      </trkpt>
      <trkpt lat="48.79422" lon="2.2264">
        <ele>171</ele>
        <time>2015-06-07T12:36:56.593Z</time>
      </trkpt>
      <trkpt lat="48.79423" lon="2.22641">
        <ele>172</ele>
        <time>2015-06-07T12:36:57.665Z</time>
      </trkpt>
      <trkpt lat="48.7943" lon="2.22645">
        <ele>175</ele>
        <time>2015-06-07T12:37:05.615Z</time>
      </trkpt>
      <trkpt lat="48.79431" lon="2.22646">
        <ele>176</ele>
        <time>2015-06-07T12:37:06.437Z</time>
      </trkpt>
      <trkpt lat="48.79439" lon="2.22652">
        <ele>173</ele>
        <time>2015-06-07T12:37:14.568Z</time>
      </trkpt>
      <trkpt lat="48.79439" lon="2.22653">
        <ele>174</ele>
        <time>2015-06-07T12:37:15.494Z</time>
      </trkpt>
      <trkpt lat="48.79445" lon="2.22662">
        <ele>180</ele>
        <time>2015-06-07T12:37:25.436Z</time>
      </trkpt>
      <trkpt lat="48.79446" lon="2.22662">
        <ele>177</ele>
        <time>2015-06-07T12:37:26.436Z</time>
      </trkpt>
      <trkpt lat="48.79444" lon="2.22676">
        <ele>168</ele>
        <time>2015-06-07T12:37:57.436Z</time>
      </trkpt>
      <trkpt lat="48.79443" lon="2.22678">
        <ele>168</ele>
        <time>2015-06-07T12:37:58.441Z</time>
      </trkpt>
      <trkpt lat="48.79438" lon="2.22689">
        <ele>167</ele>
        <time>2015-06-07T12:38:13.437Z</time>
      </trkpt>
      <trkpt lat="48.79437" lon="2.2269">
        <ele>165</ele>
        <time>2015-06-07T12:38:14.440Z</time>
      </trkpt>
      <trkpt lat="48.79431" lon="2.22698">
        <ele>169</ele>
        <time>2015-06-07T12:38:25.485Z</time>
      </trkpt>
      <trkpt lat="48.7943" lon="2.22699">
        <ele>169</ele>
        <time>2015-06-07T12:38:26.478Z</time>
      </trkpt>
      <trkpt lat="48.7943" lon="2.2271">
        <ele>176</ele>
        <time>2015-06-07T12:39:06.477Z</time>
      </trkpt>
      <trkpt lat="48.79429" lon="2.22713">
        <ele>176</ele>
        <time>2015-06-07T12:39:07.581Z</time>
      </trkpt>
      <trkpt lat="48.79429" lon="2.22726">
        <ele>181</ele>
        <time>2015-06-07T12:39:13.507Z</time>
      </trkpt>
      <trkpt lat="48.79429" lon="2.22728">
        <ele>182</ele>
        <time>2015-06-07T12:39:14.497Z</time>
      </trkpt>
      <trkpt lat="48.79428" lon="2.22742">
        <ele>184</ele>
        <time>2015-06-07T12:39:21.463Z</time>
      </trkpt>
      <trkpt lat="48.79428" lon="2.22744">
        <ele>185</ele>
        <time>2015-06-07T12:39:22.479Z</time>
      </trkpt>
      <trkpt lat="48.79426" lon="2.22756">
        <ele>183</ele>
        <time>2015-06-07T12:39:40.534Z</time>
      </trkpt>
      <trkpt lat="48.79426" lon="2.22758">
        <ele>185</ele>
        <time>2015-06-07T12:39:41.548Z</time>
      </trkpt>
      <trkpt lat="48.79426" lon="2.22771">
        <ele>181</ele>
        <time>2015-06-07T12:39:51.478Z</time>
      </trkpt>
      <trkpt lat="48.79425" lon="2.22772">
        <ele>181</ele>
        <time>2015-06-07T12:39:52.456Z</time>
      </trkpt>
      <trkpt lat="48.79425" lon="2.22786">
        <ele>188</ele>
        <time>2015-06-07T12:40:12.510Z</time>
      </trkpt>
      <trkpt lat="48.79425" lon="2.22786">
        <ele>188</ele>
        <time>2015-06-07T12:40:13.447Z</time>
      </trkpt>
      <trkpt lat="48.7942" lon="2.22797">
        <ele>192</ele>
        <time>2015-06-07T12:40:27.583Z</time>
      </trkpt>
      <trkpt lat="48.79419" lon="2.22798">
        <ele>193</ele>
        <time>2015-06-07T12:40:28.435Z</time>
      </trkpt>
      <trkpt lat="48.79415" lon="2.22809">
        <ele>196</ele>
        <time>2015-06-07T12:40:51.454Z</time>
      </trkpt>
      <trkpt lat="48.79415" lon="2.2281">
        <ele>196</ele>
        <time>2015-06-07T12:40:52.437Z</time>
      </trkpt>
      <trkpt lat="48.79411" lon="2.22822">
        <ele>202</ele>
        <time>2015-06-07T12:41:07.437Z</time>
      </trkpt>
      <trkpt lat="48.79411" lon="2.22824">
        <ele>201</ele>
        <time>2015-06-07T12:41:08.442Z</time>
      </trkpt>
      <trkpt lat="48.79411" lon="2.22836">
        <ele>200</ele>
        <time>2015-06-07T12:41:47.441Z</time>
      </trkpt>
      <trkpt lat="48.7941" lon="2.22837">
        <ele>200</ele>
        <time>2015-06-07T12:41:48.446Z</time>
      </trkpt>
      <trkpt lat="48.79406" lon="2.22849">
        <ele>203</ele>
        <time>2015-06-07T12:42:20.455Z</time>
      </trkpt>
      <trkpt lat="48.79406" lon="2.2285">
        <ele>204</ele>
        <time>2015-06-07T12:42:21.437Z</time>
      </trkpt>
      <trkpt lat="48.794" lon="2.2286">
        <ele>211</ele>
        <time>2015-06-07T12:42:57.440Z</time>
      </trkpt>
      <trkpt lat="48.79399" lon="2.22861">
        <ele>211</ele>
        <time>2015-06-07T12:42:58.439Z</time>
      </trkpt>
      <trkpt lat="48.79401" lon="2.22874">
        <ele>206</ele>
        <time>2015-06-07T12:44:39.435Z</time>
      </trkpt>
      <trkpt lat="48.79401" lon="2.22876">
        <ele>206</ele>
        <time>2015-06-07T12:44:40.441Z</time>
      </trkpt>
      <trkpt lat="48.79403" lon="2.22889">
        <ele>209</ele>
        <time>2015-06-07T12:44:48.459Z</time>
      </trkpt>
      <trkpt lat="48.79403" lon="2.2289">
        <ele>208</ele>
        <time>2015-06-07T12:44:49.439Z</time>
      </trkpt>
      <trkpt lat="48.79398" lon="2.22899">
        <ele>208</ele>
        <time>2015-06-07T12:44:55.435Z</time>
      </trkpt>
      <trkpt lat="48.79397" lon="2.229">
        <ele>207</ele>
        <time>2015-06-07T12:44:56.435Z</time>
      </trkpt>
      <trkpt lat="48.79396" lon="2.22913">
        <ele>210</ele>
        <time>2015-06-07T12:45:03.436Z</time>
      </trkpt>
      <trkpt lat="48.79395" lon="2.22914">
        <ele>210</ele>
        <time>2015-06-07T12:45:04.437Z</time>
      </trkpt>
      <trkpt lat="48.79393" lon="2.22926">
        <ele>205</ele>
        <time>2015-06-07T12:45:14.436Z</time>
      </trkpt>
      <trkpt lat="48.79394" lon="2.22928">
        <ele>206</ele>
        <time>2015-06-07T12:45:15.436Z</time>
      </trkpt>
      <trkpt lat="48.79392" lon="2.2294">
        <ele>207</ele>
        <time>2015-06-07T12:45:23.436Z</time>
      </trkpt>
      <trkpt lat="48.79392" lon="2.22942">
        <ele>206</ele>
        <time>2015-06-07T12:45:24.437Z</time>
      </trkpt>
      <trkpt lat="48.79389" lon="2.22954">
        <ele>206</ele>
        <time>2015-06-07T12:45:32.435Z</time>
      </trkpt>
      <trkpt lat="48.79388" lon="2.22955">
        <ele>205</ele>
        <time>2015-06-07T12:45:33.436Z</time>
      </trkpt>
      <trkpt lat="48.79383" lon="2.22964">
        <ele>209</ele>
        <time>2015-06-07T12:45:39.440Z</time>
      </trkpt>
      <trkpt lat="48.79381" lon="2.22966">
        <ele>208</ele>
        <time>2015-06-07T12:45:40.435Z</time>
      </trkpt>
      <trkpt lat="48.79376" lon="2.22975">
        <ele>210</ele>
        <time>2015-06-07T12:45:46.440Z</time>
      </trkpt>
      <trkpt lat="48.79375" lon="2.22977">
        <ele>209</ele>
        <time>2015-06-07T12:45:47.440Z</time>
      </trkpt>
      <trkpt lat="48.79372" lon="2.22988">
        <ele>211</ele>
        <time>2015-06-07T12:45:52.798Z</time>
      </trkpt>
      <trkpt lat="48.79372" lon="2.2299">
        <ele>210</ele>
        <time>2015-06-07T12:45:53.437Z</time>
      </trkpt>
      <trkpt lat="48.7937" lon="2.23002">
        <ele>210</ele>
        <time>2015-06-07T12:45:59.477Z</time>
      </trkpt>
      <trkpt lat="48.7937" lon="2.23004">
        <ele>210</ele>
        <time>2015-06-07T12:46:00.524Z</time>
      </trkpt>
      <trkpt lat="48.79366" lon="2.23015">
        <ele>205</ele>
        <time>2015-06-07T12:46:07.480Z</time>
      </trkpt>
      <trkpt lat="48.79366" lon="2.23017">
        <ele>206</ele>
        <time>2015-06-07T12:46:08.495Z</time>
      </trkpt>
      <trkpt lat="48.79361" lon="2.23028">
        <ele>206</ele>
        <time>2015-06-07T12:46:16.464Z</time>
      </trkpt>
      <trkpt lat="48.79361" lon="2.23029">
        <ele>206</ele>
        <time>2015-06-07T12:46:17.588Z</time>
      </trkpt>
      <trkpt lat="48.79361" lon="2.23041">
        <ele>208</ele>
        <time>2015-06-07T12:46:27.573Z</time>
      </trkpt>
      <trkpt lat="48.79361" lon="2.23043">
        <ele>209</ele>
        <time>2015-06-07T12:46:28.469Z</time>
      </trkpt>
      <trkpt lat="48.79357" lon="2.23055">
        <ele>217</ele>
        <time>2015-06-07T12:46:35.443Z</time>
      </trkpt>
      <trkpt lat="48.79357" lon="2.23056">
        <ele>217</ele>
        <time>2015-06-07T12:46:36.467Z</time>
      </trkpt>
      <trkpt lat="48.79353" lon="2.23067">
        <ele>218</ele>
        <time>2015-06-07T12:46:44.475Z</time>
      </trkpt>
      <trkpt lat="48.79353" lon="2.23068">
        <ele>216</ele>
        <time>2015-06-07T12:46:45.498Z</time>
      </trkpt>
      <trkpt lat="48.79349" lon="2.23079">
        <ele>217</ele>
        <time>2015-06-07T12:46:53.470Z</time>
      </trkpt>
      <trkpt lat="48.79348" lon="2.2308">
        <ele>217</ele>
        <time>2015-06-07T12:46:54.501Z</time>
      </trkpt>
      <trkpt lat="48.7935" lon="2.23093">
        <ele>207</ele>
        <time>2015-06-07T12:47:02.562Z</time>
      </trkpt>
      <trkpt lat="48.7935" lon="2.23095">
        <ele>206</ele>
        <time>2015-06-07T12:47:03.535Z</time>
      </trkpt>
      <trkpt lat="48.79348" lon="2.23106">
        <ele>207</ele>
        <time>2015-06-07T12:47:13.522Z</time>
      </trkpt>
      <trkpt lat="48.79348" lon="2.23108">
        <ele>207</ele>
        <time>2015-06-07T12:47:14.435Z</time>
      </trkpt>
      <trkpt lat="48.79347" lon="2.2312">
        <ele>210</ele>
        <time>2015-06-07T12:47:22.434Z</time>
      </trkpt>
      <trkpt lat="48.79346" lon="2.23122">
        <ele>209</ele>
        <time>2015-06-07T12:47:23.474Z</time>
      </trkpt>
      <trkpt lat="48.79343" lon="2.23133">
        <ele>208</ele>
        <time>2015-06-07T12:47:28.475Z</time>
      </trkpt>
      <trkpt lat="48.79343" lon="2.23135">
        <ele>207</ele>
        <time>2015-06-07T12:47:29.541Z</time>
      </trkpt>
      <trkpt lat="48.79339" lon="2.23146">
        <ele>207</ele>
        <time>2015-06-07T12:47:38.178Z</time>
      </trkpt>
      <trkpt lat="48.79339" lon="2.23147">
        <ele>207</ele>
        <time>2015-06-07T12:47:38.434Z</time>
      </trkpt>
      <trkpt lat="48.7934" lon="2.2316">
        <ele>198</ele>
        <time>2015-06-07T12:47:51.434Z</time>
      </trkpt>
      <trkpt lat="48.7934" lon="2.23161">
        <ele>199</ele>
        <time>2015-06-07T12:47:52.435Z</time>
      </trkpt>
      <trkpt lat="48.79339" lon="2.23174">
        <ele>195</ele>
        <time>2015-06-07T12:48:02.435Z</time>
      </trkpt>
      <trkpt lat="48.79339" lon="2.23176">
        <ele>194</ele>
        <time>2015-06-07T12:48:03.434Z</time>
      </trkpt>
      <trkpt lat="48.79337" lon="2.23189">
        <ele>191</ele>
        <time>2015-06-07T12:48:15.445Z</time>
      </trkpt>
      <trkpt lat="48.79336" lon="2.2319">
        <ele>190</ele>
        <time>2015-06-07T12:48:16.435Z</time>
      </trkpt>
      <trkpt lat="48.79334" lon="2.23203">
        <ele>189</ele>
        <time>2015-06-07T12:48:27.956Z</time>
      </trkpt>
      <trkpt lat="48.79334" lon="2.23205">
        <ele>192</ele>
        <time>2015-06-07T12:48:28.437Z</time>
      </trkpt>
      <trkpt lat="48.79327" lon="2.23214">
        <ele>195</ele>
        <time>2015-06-07T12:48:36.470Z</time>
      </trkpt>
      <trkpt lat="48.79327" lon="2.23215">
        <ele>195</ele>
        <time>2015-06-07T12:48:37.632Z</time>
      </trkpt>
      <trkpt lat="48.79323" lon="2.23226">
        <ele>193</ele>
        <time>2015-06-07T12:48:49.434Z</time>
      </trkpt>
      <trkpt lat="48.79323" lon="2.23228">
        <ele>191</ele>
        <time>2015-06-07T12:48:50.476Z</time>
      </trkpt>
      <trkpt lat="48.79326" lon="2.2324">
        <ele>176</ele>
        <time>2015-06-07T12:49:01.495Z</time>
      </trkpt>
      <trkpt lat="48.79326" lon="2.23242">
        <ele>174</ele>
        <time>2015-06-07T12:49:02.470Z</time>
      </trkpt>
      <trkpt lat="48.79326" lon="2.23255">
        <ele>169</ele>
        <time>2015-06-07T12:49:12.359Z</time>
      </trkpt>
      <trkpt lat="48.79326" lon="2.23257">
        <ele>168</ele>
        <time>2015-06-07T12:49:12.482Z</time>
      </trkpt>
      <trkpt lat="48.79321" lon="2.23268">
        <ele>173</ele>
        <time>2015-06-07T12:49:18.492Z</time>
      </trkpt>
      <trkpt lat="48.7932" lon="2.2327">
        <ele>175</ele>
        <time>2015-06-07T12:49:19.633Z</time>
      </trkpt>
      <trkpt lat="48.79318" lon="2.23282">
        <ele>175</ele>
        <time>2015-06-07T12:49:24.832Z</time>
      </trkpt>
      <trkpt lat="48.79317" lon="2.23284">
        <ele>176</ele>
        <time>2015-06-07T12:49:25.442Z</time>
      </trkpt>
      <trkpt lat="48.79314" lon="2.23296">
        <ele>173</ele>
        <time>2015-06-07T12:49:31.436Z</time>
      </trkpt>
      <trkpt lat="48.79313" lon="2.23297">
        <ele>174</ele>
        <time>2015-06-07T12:49:32.442Z</time>
      </trkpt>
      <trkpt lat="48.79312" lon="2.23309">
        <ele>170</ele>
        <time>2015-06-07T12:50:00.436Z</time>
      </trkpt>
      <trkpt lat="48.79312" lon="2.23311">
        <ele>169</ele>
        <time>2015-06-07T12:50:01.493Z</time>
      </trkpt>
      <trkpt lat="48.79311" lon="2.23323">
        <ele>169</ele>
        <time>2015-06-07T12:50:09.446Z</time>
      </trkpt>
      <trkpt lat="48.7931" lon="2.23324">
        <ele>169</ele>
        <time>2015-06-07T12:50:10.490Z</time>
      </trkpt>
      <trkpt lat="48.79306" lon="2.23336">
        <ele>171</ele>
        <time>2015-06-07T12:50:15.435Z</time>
      </trkpt>
      <trkpt lat="48.79306" lon="2.23338">
        <ele>172</ele>
        <time>2015-06-07T12:50:16.442Z</time>
      </trkpt>
      <trkpt lat="48.79301" lon="2.23348">
        <ele>173</ele>
        <time>2015-06-07T12:50:22.486Z</time>
      </trkpt>
      <trkpt lat="48.793" lon="2.2335">
        <ele>175</ele>
        <time>2015-06-07T12:50:23.494Z</time>
      </trkpt>
      <trkpt lat="48.79296" lon="2.23361">
        <ele>175</ele>
        <time>2015-06-07T12:50:33.605Z</time>
      </trkpt>
      <trkpt lat="48.79295" lon="2.23363">
        <ele>176</ele>
        <time>2015-06-07T12:50:35.218Z</time>
      </trkpt>
      <trkpt lat="48.79292" lon="2.23375">
        <ele>178</ele>
        <time>2015-06-07T12:50:43.476Z</time>
      </trkpt>
      <trkpt lat="48.79292" lon="2.23377">
        <ele>177</ele>
        <time>2015-06-07T12:50:44.481Z</time>
      </trkpt>
      <trkpt lat="48.79289" lon="2.23388">
        <ele>182</ele>
        <time>2015-06-07T12:50:52.517Z</time>
      </trkpt>
      <trkpt lat="48.79289" lon="2.2339">
        <ele>182</ele>
        <time>2015-06-07T12:50:53.491Z</time>
      </trkpt>
      <trkpt lat="48.79285" lon="2.23401">
        <ele>184</ele>
        <time>2015-06-07T12:51:01.470Z</time>
      </trkpt>
      <trkpt lat="48.79284" lon="2.23402">
        <ele>183</ele>
        <time>2015-06-07T12:51:02.482Z</time>
      </trkpt>
      <trkpt lat="48.79278" lon="2.23411">
        <ele>184</ele>
        <time>2015-06-07T12:51:13.463Z</time>
      </trkpt>
      <trkpt lat="48.79278" lon="2.23412">
        <ele>184</ele>
        <time>2015-06-07T12:51:14.827Z</time>
      </trkpt>
      <trkpt lat="48.79276" lon="2.23425">
        <ele>182</ele>
        <time>2015-06-07T12:51:21.435Z</time>
      </trkpt>
      <trkpt lat="48.79276" lon="2.23427">
        <ele>183</ele>
        <time>2015-06-07T12:51:22.458Z</time>
      </trkpt>
      <trkpt lat="48.79279" lon="2.23439">
        <ele>185</ele>
        <time>2015-06-07T12:51:28.666Z</time>
      </trkpt>
      <trkpt lat="48.79279" lon="2.23441">
        <ele>185</ele>
        <time>2015-06-07T12:51:29.435Z</time>
      </trkpt>
      <trkpt lat="48.79285" lon="2.23451">
        <ele>182</ele>
        <time>2015-06-07T12:51:47.434Z</time>
      </trkpt>
      <trkpt lat="48.79285" lon="2.23451">
        <ele>182</ele>
        <time>2015-06-07T12:51:48.443Z</time>
      </trkpt>
      <trkpt lat="48.79294" lon="2.23455">
        <ele>183</ele>
        <time>2015-06-07T12:52:02.446Z</time>
      </trkpt>
      <trkpt lat="48.79296" lon="2.23455">
        <ele>183</ele>
        <time>2015-06-07T12:52:03.438Z</time>
      </trkpt>
      <trkpt lat="48.79304" lon="2.23455">
        <ele>180</ele>
        <time>2015-06-07T12:52:08.440Z</time>
      </trkpt>
      <trkpt lat="48.79306" lon="2.23455">
        <ele>180</ele>
        <time>2015-06-07T12:52:09.438Z</time>
      </trkpt>
      <trkpt lat="48.79314" lon="2.23453">
        <ele>176</ele>
        <time>2015-06-07T12:52:15.483Z</time>
      </trkpt>
      <trkpt lat="48.79315" lon="2.23452">
        <ele>176</ele>
        <time>2015-06-07T12:52:16.455Z</time>
      </trkpt>
      <trkpt lat="48.79323" lon="2.23453">
        <ele>168</ele>
        <time>2015-06-07T12:52:22.511Z</time>
      </trkpt>
      <trkpt lat="48.79325" lon="2.23453">
        <ele>167</ele>
        <time>2015-06-07T12:52:23.541Z</time>
      </trkpt>
      <trkpt lat="48.79333" lon="2.23454">
        <ele>168</ele>
        <time>2015-06-07T12:52:32.681Z</time>
      </trkpt>
      <trkpt lat="48.79335" lon="2.23453">
        <ele>168</ele>
        <time>2015-06-07T12:52:33.456Z</time>
      </trkpt>
      <trkpt lat="48.79343" lon="2.23453">
        <ele>176</ele>
        <time>2015-06-07T12:52:43.447Z</time>
      </trkpt>
      <trkpt lat="48.79344" lon="2.23454">
        <ele>176</ele>
        <time>2015-06-07T12:52:44.557Z</time>
      </trkpt>
      <trkpt lat="48.79351" lon="2.23449">
        <ele>176</ele>
        <time>2015-06-07T12:52:50.588Z</time>
      </trkpt>
      <trkpt lat="48.79352" lon="2.23448">
        <ele>176</ele>
        <time>2015-06-07T12:52:51.477Z</time>
      </trkpt>
      <trkpt lat="48.7936" lon="2.23442">
        <ele>173</ele>
        <time>2015-06-07T12:53:00.437Z</time>
      </trkpt>
      <trkpt lat="48.79361" lon="2.23442">
        <ele>172</ele>
        <time>2015-06-07T12:53:01.480Z</time>
      </trkpt>
      <trkpt lat="48.79367" lon="2.23438">
        <ele>169</ele>
        <time>2015-06-07T12:53:07.290Z</time>
      </trkpt>
      <trkpt lat="48.79369" lon="2.23437">
        <ele>165</ele>
        <time>2015-06-07T12:53:07.435Z</time>
      </trkpt>
      <trkpt lat="48.79376" lon="2.23432">
        <ele>167</ele>
        <time>2015-06-07T12:53:12.498Z</time>
      </trkpt>
      <trkpt lat="48.79378" lon="2.23431">
        <ele>170</ele>
        <time>2015-06-07T12:53:13.469Z</time>
      </trkpt>
      <trkpt lat="48.79385" lon="2.23427">
        <ele>173</ele>
        <time>2015-06-07T12:53:22.896Z</time>
      </trkpt>
      <trkpt lat="48.79386" lon="2.23426">
        <ele>175</ele>
        <time>2015-06-07T12:53:23.443Z</time>
      </trkpt>
      <trkpt lat="48.79394" lon="2.23422">
        <ele>171</ele>
        <time>2015-06-07T12:53:28.489Z</time>
      </trkpt>
      <trkpt lat="48.79396" lon="2.23421">
        <ele>168</ele>
        <time>2015-06-07T12:53:29.467Z</time>
      </trkpt>
      <trkpt lat="48.79404" lon="2.23417">
        <ele>165</ele>
        <time>2015-06-07T12:53:34.817Z</time>
      </trkpt>
      <trkpt lat="48.79406" lon="2.23415">
        <ele>166</ele>
        <time>2015-06-07T12:53:35.496Z</time>
      </trkpt>
      <trkpt lat="48.79415" lon="2.23411">
        <ele>163</ele>
        <time>2015-06-07T12:53:44.470Z</time>
      </trkpt>
      <trkpt lat="48.79415" lon="2.2341">
        <ele>162</ele>
        <time>2015-06-07T12:53:45.492Z</time>
      </trkpt>
      <trkpt lat="48.79423" lon="2.23415">
        <ele>158</ele>
        <time>2015-06-07T12:54:28.452Z</time>
      </trkpt>
      <trkpt lat="48.79424" lon="2.23415">
        <ele>158</ele>
        <time>2015-06-07T12:54:29.509Z</time>
      </trkpt>
      <trkpt lat="48.79432" lon="2.23418">
        <ele>162</ele>
        <time>2015-06-07T12:54:36.469Z</time>
      </trkpt>
      <trkpt lat="48.79433" lon="2.23417">
        <ele>161</ele>
        <time>2015-06-07T12:54:37.506Z</time>
      </trkpt>
      <trkpt lat="48.79442" lon="2.2342">
        <ele>160</ele>
        <time>2015-06-07T12:54:46.787Z</time>
      </trkpt>
      <trkpt lat="48.79443" lon="2.2342">
        <ele>161</ele>
        <time>2015-06-07T12:54:47.491Z</time>
      </trkpt>
      <trkpt lat="48.79451" lon="2.23421">
        <ele>163</ele>
        <time>2015-06-07T12:54:54.486Z</time>
      </trkpt>
      <trkpt lat="48.79452" lon="2.23421">
        <ele>163</ele>
        <time>2015-06-07T12:54:55.544Z</time>
      </trkpt>
      <trkpt lat="48.7946" lon="2.2342">
        <ele>159</ele>
        <time>2015-06-07T12:55:03.457Z</time>
      </trkpt>
      <trkpt lat="48.79461" lon="2.2342">
        <ele>158</ele>
        <time>2015-06-07T12:55:04.486Z</time>
      </trkpt>
      <trkpt lat="48.7947" lon="2.23419">
        <ele>158</ele>
        <time>2015-06-07T12:55:33.445Z</time>
      </trkpt>
      <trkpt lat="48.79471" lon="2.23419">
        <ele>159</ele>
        <time>2015-06-07T12:55:34.442Z</time>
      </trkpt>
      <trkpt lat="48.79478" lon="2.23423">
        <ele>160</ele>
        <time>2015-06-07T12:55:43.644Z</time>
      </trkpt>
      <trkpt lat="48.79479" lon="2.23424">
        <ele>160</ele>
        <time>2015-06-07T12:55:44.442Z</time>
      </trkpt>
      <trkpt lat="48.79487" lon="2.23428">
        <ele>159</ele>
        <time>2015-06-07T12:55:51.516Z</time>
      </trkpt>
      <trkpt lat="48.79488" lon="2.23429">
        <ele>158</ele>
        <time>2015-06-07T12:55:52.498Z</time>
      </trkpt>
      <trkpt lat="48.79496" lon="2.23435">
        <ele>157</ele>
        <time>2015-06-07T12:55:58.491Z</time>
      </trkpt>
      <trkpt lat="48.79497" lon="2.23436">
        <ele>156</ele>
        <time>2015-06-07T12:55:59.500Z</time>
      </trkpt>
      <trkpt lat="48.79502" lon="2.23446">
        <ele>158</ele>
        <time>2015-06-07T12:56:07.510Z</time>
      </trkpt>
      <trkpt lat="48.79502" lon="2.23448">
        <ele>160</ele>
        <time>2015-06-07T12:56:08.516Z</time>
      </trkpt>
      <trkpt lat="48.79499" lon="2.23461">
        <ele>162</ele>
        <time>2015-06-07T12:56:18.461Z</time>
      </trkpt>
      <trkpt lat="48.79499" lon="2.23461">
        <ele>163</ele>
        <time>2015-06-07T12:56:19.475Z</time>
      </trkpt>
      <trkpt lat="48.79496" lon="2.23474">
        <ele>162</ele>
        <time>2015-06-07T12:56:28.562Z</time>
      </trkpt>
      <trkpt lat="48.79496" lon="2.23475">
        <ele>162</ele>
        <time>2015-06-07T12:56:29.571Z</time>
      </trkpt>
      <trkpt lat="48.79495" lon="2.23488">
        <ele>163</ele>
        <time>2015-06-07T12:56:38.904Z</time>
      </trkpt>
      <trkpt lat="48.79495" lon="2.2349">
        <ele>162</ele>
        <time>2015-06-07T12:56:39.459Z</time>
      </trkpt>
      <trkpt lat="48.79494" lon="2.23502">
        <ele>159</ele>
        <time>2015-06-07T12:56:47.466Z</time>
      </trkpt>
      <trkpt lat="48.79494" lon="2.23504">
        <ele>159</ele>
        <time>2015-06-07T12:56:48.527Z</time>
      </trkpt>
      <trkpt lat="48.7949" lon="2.23516">
        <ele>161</ele>
        <time>2015-06-07T12:56:55.589Z</time>
      </trkpt>
      <trkpt lat="48.79489" lon="2.23517">
        <ele>162</ele>
        <time>2015-06-07T12:56:56.551Z</time>
      </trkpt>
      <trkpt lat="48.79487" lon="2.23529">
        <ele>163</ele>
        <time>2015-06-07T12:57:02.496Z</time>
      </trkpt>
      <trkpt lat="48.79487" lon="2.23531">
        <ele>163</ele>
        <time>2015-06-07T12:57:03.682Z</time>
      </trkpt>
      <trkpt lat="48.79485" lon="2.23544">
        <ele>167</ele>
        <time>2015-06-07T12:57:10.505Z</time>
      </trkpt>
      <trkpt lat="48.79485" lon="2.23546">
        <ele>167</ele>
        <time>2015-06-07T12:57:11.552Z</time>
      </trkpt>
      <trkpt lat="48.79484" lon="2.23558">
        <ele>166</ele>
        <time>2015-06-07T12:57:18.494Z</time>
      </trkpt>
      <trkpt lat="48.79484" lon="2.2356">
        <ele>166</ele>
        <time>2015-06-07T12:57:19.654Z</time>
      </trkpt>
      <trkpt lat="48.79483" lon="2.23572">
        <ele>167</ele>
        <time>2015-06-07T12:57:26.522Z</time>
      </trkpt>
      <trkpt lat="48.79482" lon="2.23574">
        <ele>166</ele>
        <time>2015-06-07T12:57:27.530Z</time>
      </trkpt>
      <trkpt lat="48.79483" lon="2.23587">
        <ele>164</ele>
        <time>2015-06-07T12:57:43.443Z</time>
      </trkpt>
      <trkpt lat="48.79483" lon="2.23588">
        <ele>164</ele>
        <time>2015-06-07T12:57:44.444Z</time>
      </trkpt>
      <trkpt lat="48.7948" lon="2.236">
        <ele>164</ele>
        <time>2015-06-07T12:57:52.444Z</time>
      </trkpt>
      <trkpt lat="48.7948" lon="2.23602">
        <ele>163</ele>
        <time>2015-06-07T12:57:53.576Z</time>
      </trkpt>
      <trkpt lat="48.79479" lon="2.23615">
        <ele>163</ele>
        <time>2015-06-07T12:58:08.449Z</time>
      </trkpt>
      <trkpt lat="48.79479" lon="2.23616">
        <ele>164</ele>
        <time>2015-06-07T12:58:09.443Z</time>
      </trkpt>
      <trkpt lat="48.79479" lon="2.23629">
        <ele>167</ele>
        <time>2015-06-07T12:58:17.534Z</time>
      </trkpt>
      <trkpt lat="48.79478" lon="2.23631">
        <ele>166</ele>
        <time>2015-06-07T12:58:18.521Z</time>
      </trkpt>
      <trkpt lat="48.79478" lon="2.23643">
        <ele>165</ele>
        <time>2015-06-07T12:58:24.473Z</time>
      </trkpt>
      <trkpt lat="48.79478" lon="2.23646">
        <ele>165</ele>
        <time>2015-06-07T12:58:25.492Z</time>
      </trkpt>
      <trkpt lat="48.79475" lon="2.23658">
        <ele>166</ele>
        <time>2015-06-07T12:58:30.501Z</time>
      </trkpt>
      <trkpt lat="48.79475" lon="2.2366">
        <ele>168</ele>
        <time>2015-06-07T12:58:31.495Z</time>
      </trkpt>
      <trkpt lat="48.79478" lon="2.23672">
        <ele>169</ele>
        <time>2015-06-07T12:58:38.460Z</time>
      </trkpt>
      <trkpt lat="48.79478" lon="2.23673">
        <ele>171</ele>
        <time>2015-06-07T12:58:39.488Z</time>
      </trkpt>
      <trkpt lat="48.79478" lon="2.23686">
        <ele>172</ele>
        <time>2015-06-07T12:58:46.512Z</time>
      </trkpt>
      <trkpt lat="48.79478" lon="2.23688">
        <ele>174</ele>
        <time>2015-06-07T12:58:47.482Z</time>
      </trkpt>
      <trkpt lat="48.7948" lon="2.237">
        <ele>172</ele>
        <time>2015-06-07T12:58:54.531Z</time>
      </trkpt>
      <trkpt lat="48.7948" lon="2.23702">
        <ele>172</ele>
        <time>2015-06-07T12:58:55.585Z</time>
      </trkpt>
      <trkpt lat="48.79482" lon="2.23714">
        <ele>169</ele>
        <time>2015-06-07T12:59:01.486Z</time>
      </trkpt>
      <trkpt lat="48.79482" lon="2.23717">
        <ele>170</ele>
        <time>2015-06-07T12:59:02.490Z</time>
      </trkpt>
      <trkpt lat="48.79482" lon="2.2373">
        <ele>172</ele>
        <time>2015-06-07T12:59:24.449Z</time>
      </trkpt>
      <trkpt lat="48.79482" lon="2.23731">
        <ele>171</ele>
        <time>2015-06-07T12:59:25.445Z</time>
      </trkpt>
      <trkpt lat="48.79481" lon="2.23744">
        <ele>169</ele>
        <time>2015-06-07T12:59:42.461Z</time>
      </trkpt>
      <trkpt lat="48.79481" lon="2.23746">
        <ele>169</ele>
        <time>2015-06-07T12:59:43.460Z</time>
      </trkpt>
      <trkpt lat="48.79482" lon="2.23759">
        <ele>171</ele>
        <time>2015-06-07T12:59:49.450Z</time>
      </trkpt>
      <trkpt lat="48.79482" lon="2.23761">
        <ele>173</ele>
        <time>2015-06-07T12:59:50.443Z</time>
      </trkpt>
      <trkpt lat="48.79482" lon="2.23774">
        <ele>175</ele>
        <time>2015-06-07T12:59:56.443Z</time>
      </trkpt>
      <trkpt lat="48.79483" lon="2.23776">
        <ele>175</ele>
        <time>2015-06-07T12:59:57.444Z</time>
      </trkpt>
      <trkpt lat="48.79483" lon="2.23788">
        <ele>172</ele>
        <time>2015-06-07T13:00:04.445Z</time>
      </trkpt>
      <trkpt lat="48.79483" lon="2.23789">
        <ele>172</ele>
        <time>2015-06-07T13:00:05.444Z</time>
      </trkpt>
      <trkpt lat="48.79482" lon="2.23803">
        <ele>171</ele>
        <time>2015-06-07T13:00:13.033Z</time>
      </trkpt>
      <trkpt lat="48.79483" lon="2.23805">
        <ele>171</ele>
        <time>2015-06-07T13:00:13.445Z</time>
      </trkpt>
      <trkpt lat="48.79485" lon="2.23818">
        <ele>162</ele>
        <time>2015-06-07T13:00:21.499Z</time>
      </trkpt>
      <trkpt lat="48.79485" lon="2.23819">
        <ele>162</ele>
        <time>2015-06-07T13:00:22.471Z</time>
      </trkpt>
      <trkpt lat="48.79484" lon="2.2383">
        <ele>164</ele>
        <time>2015-06-07T13:00:28.453Z</time>
      </trkpt>
      <trkpt lat="48.79484" lon="2.23833">
        <ele>163</ele>
        <time>2015-06-07T13:00:29.455Z</time>
      </trkpt>
      <trkpt lat="48.79484" lon="2.23845">
        <ele>165</ele>
        <time>2015-06-07T13:00:35.474Z</time>
      </trkpt>
      <trkpt lat="48.79485" lon="2.23847">
        <ele>164</ele>
        <time>2015-06-07T13:00:36.442Z</time>
      </trkpt>
      <trkpt lat="48.79484" lon="2.2386">
        <ele>163</ele>
        <time>2015-06-07T13:00:50.447Z</time>
      </trkpt>
      <trkpt lat="48.79482" lon="2.23861">
        <ele>163</ele>
        <time>2015-06-07T13:00:51.476Z</time>
      </trkpt>
      <trkpt lat="48.79477" lon="2.2387">
        <ele>167</ele>
        <time>2015-06-07T13:00:56.483Z</time>
      </trkpt>
      <trkpt lat="48.79476" lon="2.23872">
        <ele>168</ele>
        <time>2015-06-07T13:00:57.519Z</time>
      </trkpt>
      <trkpt lat="48.79469" lon="2.23881">
        <ele>167</ele>
        <time>2015-06-07T13:01:05.311Z</time>
      </trkpt>
      <trkpt lat="48.79468" lon="2.23882">
        <ele>167</ele>
        <time>2015-06-07T13:01:05.514Z</time>
      </trkpt>
      <trkpt lat="48.79461" lon="2.23889">
        <ele>163</ele>
        <time>2015-06-07T13:01:14.473Z</time>
      </trkpt>
      <trkpt lat="48.79461" lon="2.23889">
        <ele>163</ele>
        <time>2015-06-07T13:01:15.500Z</time>
      </trkpt>
      <trkpt lat="48.79453" lon="2.23893">
        <ele>166</ele>
        <time>2015-06-07T13:01:23.508Z</time>
      </trkpt>
      <trkpt lat="48.79452" lon="2.23894">
        <ele>165</ele>
        <time>2015-06-07T13:01:24.544Z</time>
      </trkpt>
      <trkpt lat="48.79443" lon="2.23894">
        <ele>163</ele>
        <time>2015-06-07T13:01:34.453Z</time>
      </trkpt>
      <trkpt lat="48.79442" lon="2.23895">
        <ele>161</ele>
        <time>2015-06-07T13:01:35.509Z</time>
      </trkpt>
      <trkpt lat="48.79434" lon="2.23899">
        <ele>161</ele>
        <time>2015-06-07T13:01:41.442Z</time>
      </trkpt>
      <trkpt lat="48.79432" lon="2.239">
        <ele>161</ele>
        <time>2015-06-07T13:01:42.446Z</time>
      </trkpt>
      <trkpt lat="48.79423" lon="2.239">
        <ele>161</ele>
        <time>2015-06-07T13:01:49.506Z</time>
      </trkpt>
      <trkpt lat="48.79422" lon="2.239">
        <ele>161</ele>
        <time>2015-06-07T13:01:50.506Z</time>
      </trkpt>
      <trkpt lat="48.79415" lon="2.23905">
        <ele>164</ele>
        <time>2015-06-07T13:01:56.443Z</time>
      </trkpt>
      <trkpt lat="48.79414" lon="2.23906">
        <ele>164</ele>
        <time>2015-06-07T13:01:57.443Z</time>
      </trkpt>
      <trkpt lat="48.79406" lon="2.23912">
        <ele>164</ele>
        <time>2015-06-07T13:02:04.443Z</time>
      </trkpt>
      <trkpt lat="48.79405" lon="2.23913">
        <ele>165</ele>
        <time>2015-06-07T13:02:05.442Z</time>
      </trkpt>
      <trkpt lat="48.79397" lon="2.23918">
        <ele>161</ele>
        <time>2015-06-07T13:02:12.463Z</time>
      </trkpt>
      <trkpt lat="48.79396" lon="2.23919">
        <ele>160</ele>
        <time>2015-06-07T13:02:13.490Z</time>
      </trkpt>
      <trkpt lat="48.79388" lon="2.23921">
        <ele>164</ele>
        <time>2015-06-07T13:02:22.442Z</time>
      </trkpt>
      <trkpt lat="48.79387" lon="2.23922">
        <ele>163</ele>
        <time>2015-06-07T13:02:23.446Z</time>
      </trkpt>
      <trkpt lat="48.79378" lon="2.2392">
        <ele>161</ele>
        <time>2015-06-07T13:02:30.458Z</time>
      </trkpt>
      <trkpt lat="48.79377" lon="2.2392">
        <ele>161</ele>
        <time>2015-06-07T13:02:31.443Z</time>
      </trkpt>
      <trkpt lat="48.79368" lon="2.23923">
        <ele>162</ele>
        <time>2015-06-07T13:02:39.498Z</time>
      </trkpt>
      <trkpt lat="48.79367" lon="2.23924">
        <ele>162</ele>
        <time>2015-06-07T13:02:40.470Z</time>
      </trkpt>
      <trkpt lat="48.79359" lon="2.2393">
        <ele>165</ele>
        <time>2015-06-07T13:02:47.805Z</time>
      </trkpt>
      <trkpt lat="48.79358" lon="2.23931">
        <ele>165</ele>
        <time>2015-06-07T13:02:48.450Z</time>
      </trkpt>
      <trkpt lat="48.79351" lon="2.23939">
        <ele>163</ele>
        <time>2015-06-07T13:02:55.444Z</time>
      </trkpt>
      <trkpt lat="48.7935" lon="2.2394">
        <ele>164</ele>
        <time>2015-06-07T13:02:56.517Z</time>
      </trkpt>
      <trkpt lat="48.79343" lon="2.23948">
        <ele>171</ele>
        <time>2015-06-07T13:03:03.442Z</time>
      </trkpt>
      <trkpt lat="48.79342" lon="2.23949">
        <ele>171</ele>
        <time>2015-06-07T13:03:04.443Z</time>
      </trkpt>
      <trkpt lat="48.79336" lon="2.23959">
        <ele>176</ele>
        <time>2015-06-07T13:03:12.466Z</time>
      </trkpt>
      <trkpt lat="48.79335" lon="2.2396">
        <ele>174</ele>
        <time>2015-06-07T13:03:13.478Z</time>
      </trkpt>
      <trkpt lat="48.79332" lon="2.23971">
        <ele>175</ele>
        <time>2015-06-07T13:03:20.506Z</time>
      </trkpt>
      <trkpt lat="48.79332" lon="2.23973">
        <ele>176</ele>
        <time>2015-06-07T13:03:21.461Z</time>
      </trkpt>
      <trkpt lat="48.7933" lon="2.23986">
        <ele>174</ele>
        <time>2015-06-07T13:03:28.456Z</time>
      </trkpt>
      <trkpt lat="48.7933" lon="2.23988">
        <ele>177</ele>
        <time>2015-06-07T13:03:29.525Z</time>
      </trkpt>
      <trkpt lat="48.79329" lon="2.24001">
        <ele>178</ele>
        <time>2015-06-07T13:03:36.901Z</time>
      </trkpt>
      <trkpt lat="48.79329" lon="2.24003">
        <ele>178</ele>
        <time>2015-06-07T13:03:37.506Z</time>
      </trkpt>
      <trkpt lat="48.79333" lon="2.24013">
        <ele>174</ele>
        <time>2015-06-07T13:03:43.442Z</time>
      </trkpt>
      <trkpt lat="48.79334" lon="2.24015">
        <ele>173</ele>
        <time>2015-06-07T13:03:44.443Z</time>
      </trkpt>
      <trkpt lat="48.79339" lon="2.24024">
        <ele>173</ele>
        <time>2015-06-07T13:03:50.506Z</time>
      </trkpt>
      <trkpt lat="48.7934" lon="2.24024">
        <ele>171</ele>
        <time>2015-06-07T13:03:51.499Z</time>
      </trkpt>
      <trkpt lat="48.79349" lon="2.24028">
        <ele>177</ele>
        <time>2015-06-07T13:04:01.500Z</time>
      </trkpt>
      <trkpt lat="48.7935" lon="2.24028">
        <ele>177</ele>
        <time>2015-06-07T13:04:02.453Z</time>
      </trkpt>
      <trkpt lat="48.79357" lon="2.24033">
        <ele>178</ele>
        <time>2015-06-07T13:04:10.466Z</time>
      </trkpt>
      <trkpt lat="48.79358" lon="2.24033">
        <ele>175</ele>
        <time>2015-06-07T13:04:11.458Z</time>
      </trkpt>
      <trkpt lat="48.79367" lon="2.24032">
        <ele>176</ele>
        <time>2015-06-07T13:04:19.685Z</time>
      </trkpt>
      <trkpt lat="48.79368" lon="2.24032">
        <ele>175</ele>
        <time>2015-06-07T13:04:20.445Z</time>
      </trkpt>
      <trkpt lat="48.79375" lon="2.24028">
        <ele>171</ele>
        <time>2015-06-07T13:04:26.493Z</time>
      </trkpt>
      <trkpt lat="48.79377" lon="2.24028">
        <ele>173</ele>
        <time>2015-06-07T13:04:27.673Z</time>
      </trkpt>
      <trkpt lat="48.79384" lon="2.24025">
        <ele>172</ele>
        <time>2015-06-07T13:04:34.496Z</time>
      </trkpt>
      <trkpt lat="48.79386" lon="2.24024">
        <ele>174</ele>
        <time>2015-06-07T13:04:35.643Z</time>
      </trkpt>
      <trkpt lat="48.79392" lon="2.24019">
        <ele>174</ele>
        <time>2015-06-07T13:04:41.443Z</time>
      </trkpt>
      <trkpt lat="48.79394" lon="2.24018">
        <ele>172</ele>
        <time>2015-06-07T13:04:42.442Z</time>
      </trkpt>
      <trkpt lat="48.79402" lon="2.24016">
        <ele>170</ele>
        <time>2015-06-07T13:04:48.442Z</time>
      </trkpt>
      <trkpt lat="48.79403" lon="2.24016">
        <ele>170</ele>
        <time>2015-06-07T13:04:49.442Z</time>
      </trkpt>
      <trkpt lat="48.79411" lon="2.24014">
        <ele>164</ele>
        <time>2015-06-07T13:04:57.442Z</time>
      </trkpt>
      <trkpt lat="48.79413" lon="2.24014">
        <ele>164</ele>
        <time>2015-06-07T13:04:58.507Z</time>
      </trkpt>
      <trkpt lat="48.79421" lon="2.24018">
        <ele>162</ele>
        <time>2015-06-07T13:05:05.514Z</time>
      </trkpt>
      <trkpt lat="48.79422" lon="2.24019">
        <ele>160</ele>
        <time>2015-06-07T13:05:06.445Z</time>
      </trkpt>
      <trkpt lat="48.7943" lon="2.24025">
        <ele>162</ele>
        <time>2015-06-07T13:05:13.570Z</time>
      </trkpt>
      <trkpt lat="48.79431" lon="2.24026">
        <ele>163</ele>
        <time>2015-06-07T13:05:14.615Z</time>
      </trkpt>
      <trkpt lat="48.79438" lon="2.24032">
        <ele>162</ele>
        <time>2015-06-07T13:05:23.524Z</time>
      </trkpt>
      <trkpt lat="48.79439" lon="2.24033">
        <ele>161</ele>
        <time>2015-06-07T13:05:24.575Z</time>
      </trkpt>
      <trkpt lat="48.79447" lon="2.24037">
        <ele>160</ele>
        <time>2015-06-07T13:05:32.521Z</time>
      </trkpt>
      <trkpt lat="48.79447" lon="2.24038">
        <ele>160</ele>
        <time>2015-06-07T13:05:33.468Z</time>
      </trkpt>
      <trkpt lat="48.79452" lon="2.24049">
        <ele>162</ele>
        <time>2015-06-07T13:05:42.523Z</time>
      </trkpt>
      <trkpt lat="48.79453" lon="2.2405">
        <ele>164</ele>
        <time>2015-06-07T13:05:43.514Z</time>
      </trkpt>
      <trkpt lat="48.79457" lon="2.24061">
        <ele>164</ele>
        <time>2015-06-07T13:05:51.525Z</time>
      </trkpt>
      <trkpt lat="48.79457" lon="2.24063">
        <ele>164</ele>
        <time>2015-06-07T13:05:52.511Z</time>
      </trkpt>
      <trkpt lat="48.79461" lon="2.24074">
        <ele>167</ele>
        <time>2015-06-07T13:06:02.560Z</time>
      </trkpt>
      <trkpt lat="48.79462" lon="2.24075">
        <ele>167</ele>
        <time>2015-06-07T13:06:03.562Z</time>
      </trkpt>
      <trkpt lat="48.79466" lon="2.24086">
        <ele>167</ele>
        <time>2015-06-07T13:06:10.504Z</time>
      </trkpt>
      <trkpt lat="48.79466" lon="2.24088">
        <ele>167</ele>
        <time>2015-06-07T13:06:11.480Z</time>
      </trkpt>
      <trkpt lat="48.79469" lon="2.241">
        <ele>169</ele>
        <time>2015-06-07T13:06:18.468Z</time>
      </trkpt>
      <trkpt lat="48.79469" lon="2.24102">
        <ele>168</ele>
        <time>2015-06-07T13:06:19.555Z</time>
      </trkpt>
      <trkpt lat="48.7947" lon="2.24114">
        <ele>173</ele>
        <time>2015-06-07T13:06:25.474Z</time>
      </trkpt>
      <trkpt lat="48.7947" lon="2.24116">
        <ele>172</ele>
        <time>2015-06-07T13:06:26.577Z</time>
      </trkpt>
      <trkpt lat="48.79472" lon="2.24128">
        <ele>172</ele>
        <time>2015-06-07T13:06:34.484Z</time>
      </trkpt>
      <trkpt lat="48.79472" lon="2.2413">
        <ele>172</ele>
        <time>2015-06-07T13:06:35.489Z</time>
      </trkpt>
      <trkpt lat="48.79472" lon="2.24142">
        <ele>172</ele>
        <time>2015-06-07T13:06:44.460Z</time>
      </trkpt>
      <trkpt lat="48.79472" lon="2.24144">
        <ele>173</ele>
        <time>2015-06-07T13:06:45.486Z</time>
      </trkpt>
      <trkpt lat="48.79472" lon="2.24156">
        <ele>168</ele>
        <time>2015-06-07T13:06:51.485Z</time>
      </trkpt>
      <trkpt lat="48.79472" lon="2.24158">
        <ele>167</ele>
        <time>2015-06-07T13:06:52.471Z</time>
      </trkpt>
      <trkpt lat="48.7947" lon="2.24171">
        <ele>167</ele>
        <time>2015-06-07T13:07:00.987Z</time>
      </trkpt>
      <trkpt lat="48.79469" lon="2.24172">
        <ele>167</ele>
        <time>2015-06-07T13:07:01.458Z</time>
      </trkpt>
      <trkpt lat="48.79466" lon="2.24184">
        <ele>171</ele>
        <time>2015-06-07T13:07:10.486Z</time>
      </trkpt>
      <trkpt lat="48.79466" lon="2.24185">
        <ele>173</ele>
        <time>2015-06-07T13:07:11.484Z</time>
      </trkpt>
      <trkpt lat="48.79466" lon="2.24199">
        <ele>174</ele>
        <time>2015-06-07T13:07:19.495Z</time>
      </trkpt>
      <trkpt lat="48.79466" lon="2.24201">
        <ele>173</ele>
        <time>2015-06-07T13:07:20.606Z</time>
      </trkpt>
      <trkpt lat="48.79467" lon="2.24213">
        <ele>173</ele>
        <time>2015-06-07T13:07:27.450Z</time>
      </trkpt>
      <trkpt lat="48.79467" lon="2.24215">
        <ele>174</ele>
        <time>2015-06-07T13:07:28.442Z</time>
      </trkpt>
      <trkpt lat="48.79468" lon="2.24227">
        <ele>172</ele>
        <time>2015-06-07T13:07:34.443Z</time>
      </trkpt>
      <trkpt lat="48.79468" lon="2.24228">
        <ele>172</ele>
        <time>2015-06-07T13:07:35.446Z</time>
      </trkpt>
      <trkpt lat="48.79465" lon="2.24241">
        <ele>171</ele>
        <time>2015-06-07T13:07:43.443Z</time>
      </trkpt>
      <trkpt lat="48.79465" lon="2.24243">
        <ele>171</ele>
        <time>2015-06-07T13:07:44.447Z</time>
      </trkpt>
      <trkpt lat="48.79462" lon="2.24254">
        <ele>170</ele>
        <time>2015-06-07T13:07:52.445Z</time>
      </trkpt>
      <trkpt lat="48.79462" lon="2.24256">
        <ele>170</ele>
        <time>2015-06-07T13:07:53.443Z</time>
      </trkpt>
      <trkpt lat="48.79466" lon="2.24269">
        <ele>174</ele>
        <time>2015-06-07T13:08:01.176Z</time>
      </trkpt>
      <trkpt lat="48.79466" lon="2.2427">
        <ele>174</ele>
        <time>2015-06-07T13:08:01.465Z</time>
      </trkpt>
      <trkpt lat="48.7947" lon="2.24282">
        <ele>173</ele>
        <time>2015-06-07T13:08:07.583Z</time>
      </trkpt>
      <trkpt lat="48.79471" lon="2.24284">
        <ele>173</ele>
        <time>2015-06-07T13:08:08.481Z</time>
      </trkpt>
      <trkpt lat="48.79477" lon="2.24291">
        <ele>171</ele>
        <time>2015-06-07T13:08:15.443Z</time>
      </trkpt>
      <trkpt lat="48.79479" lon="2.24292">
        <ele>170</ele>
        <time>2015-06-07T13:08:16.442Z</time>
      </trkpt>
      <trkpt lat="48.79487" lon="2.24294">
        <ele>168</ele>
        <time>2015-06-07T13:08:24.444Z</time>
      </trkpt>
      <trkpt lat="48.79488" lon="2.24294">
        <ele>168</ele>
        <time>2015-06-07T13:08:25.442Z</time>
      </trkpt>
      <trkpt lat="48.79496" lon="2.24288">
        <ele>173</ele>
        <time>2015-06-07T13:08:33.442Z</time>
      </trkpt>
      <trkpt lat="48.79496" lon="2.24287">
        <ele>174</ele>
        <time>2015-06-07T13:08:34.452Z</time>
      </trkpt>
      <trkpt lat="48.79503" lon="2.24278">
        <ele>171</ele>
        <time>2015-06-07T13:08:43.443Z</time>
      </trkpt>
      <trkpt lat="48.79504" lon="2.24278">
        <ele>171</ele>
        <time>2015-06-07T13:08:44.442Z</time>
      </trkpt>
      <trkpt lat="48.79512" lon="2.24279">
        <ele>175</ele>
        <time>2015-06-07T13:09:23.754Z</time>
      </trkpt>
      <trkpt lat="48.79513" lon="2.24279">
        <ele>174</ele>
        <time>2015-06-07T13:09:24.468Z</time>
      </trkpt>
      <trkpt lat="48.79505" lon="2.24281">
        <ele>175</ele>
        <time>2015-06-07T13:10:09.781Z</time>
      </trkpt>
      <trkpt lat="48.79504" lon="2.24281">
        <ele>176</ele>
        <time>2015-06-07T13:10:10.452Z</time>
      </trkpt>
      <trkpt lat="48.79501" lon="2.24293">
        <ele>182</ele>
        <time>2015-06-07T13:11:47.456Z</time>
      </trkpt>
      <trkpt lat="48.79501" lon="2.24294">
        <ele>181</ele>
        <time>2015-06-07T13:11:48.453Z</time>
      </trkpt>
      <trkpt lat="48.79498" lon="2.24306">
        <ele>181</ele>
        <time>2015-06-07T13:12:35.444Z</time>
      </trkpt>
      <trkpt lat="48.79497" lon="2.24307">
        <ele>180</ele>
        <time>2015-06-07T13:12:36.445Z</time>
      </trkpt>
      <trkpt lat="48.79492" lon="2.24317">
        <ele>177</ele>
        <time>2015-06-07T13:12:43.451Z</time>
      </trkpt>
      <trkpt lat="48.79491" lon="2.24318">
        <ele>176</ele>
        <time>2015-06-07T13:12:44.442Z</time>
      </trkpt>
      <trkpt lat="48.79487" lon="2.24328">
        <ele>177</ele>
        <time>2015-06-07T13:12:50.442Z</time>
      </trkpt>
      <trkpt lat="48.79486" lon="2.2433">
        <ele>177</ele>
        <time>2015-06-07T13:12:51.489Z</time>
      </trkpt>
      <trkpt lat="48.79483" lon="2.24342">
        <ele>176</ele>
        <time>2015-06-07T13:12:57.445Z</time>
      </trkpt>
      <trkpt lat="48.79482" lon="2.24344">
        <ele>175</ele>
        <time>2015-06-07T13:12:58.442Z</time>
      </trkpt>
      <trkpt lat="48.79478" lon="2.24356">
        <ele>172</ele>
        <time>2015-06-07T13:13:07.110Z</time>
      </trkpt>
      <trkpt lat="48.79478" lon="2.24357">
        <ele>171</ele>
        <time>2015-06-07T13:13:07.526Z</time>
      </trkpt>
      <trkpt lat="48.79473" lon="2.24369">
        <ele>170</ele>
        <time>2015-06-07T13:13:17.442Z</time>
      </trkpt>
      <trkpt lat="48.79473" lon="2.24369">
        <ele>170</ele>
        <time>2015-06-07T13:13:18.441Z</time>
      </trkpt>
      <trkpt lat="48.79468" lon="2.24379">
        <ele>166</ele>
        <time>2015-06-07T13:13:27.318Z</time>
      </trkpt>
      <trkpt lat="48.79467" lon="2.2438">
        <ele>165</ele>
        <time>2015-06-07T13:13:27.449Z</time>
      </trkpt>
      <trkpt lat="48.79461" lon="2.2439">
        <ele>160</ele>
        <time>2015-06-07T13:13:35.474Z</time>
      </trkpt>
      <trkpt lat="48.7946" lon="2.24391">
        <ele>160</ele>
        <time>2015-06-07T13:13:36.485Z</time>
      </trkpt>
      <trkpt lat="48.79456" lon="2.24402">
        <ele>161</ele>
        <time>2015-06-07T13:13:43.448Z</time>
      </trkpt>
      <trkpt lat="48.79456" lon="2.24404">
        <ele>161</ele>
        <time>2015-06-07T13:13:44.550Z</time>
      </trkpt>
      <trkpt lat="48.79451" lon="2.24416">
        <ele>160</ele>
        <time>2015-06-07T13:13:53.300Z</time>
      </trkpt>
      <trkpt lat="48.79451" lon="2.24417">
        <ele>160</ele>
        <time>2015-06-07T13:13:53.443Z</time>
      </trkpt>
      <trkpt lat="48.79446" lon="2.24428">
        <ele>157</ele>
        <time>2015-06-07T13:14:02.479Z</time>
      </trkpt>
      <trkpt lat="48.79445" lon="2.24429">
        <ele>160</ele>
        <time>2015-06-07T13:14:03.537Z</time>
      </trkpt>
      <trkpt lat="48.79442" lon="2.24441">
        <ele>159</ele>
        <time>2015-06-07T13:14:10.441Z</time>
      </trkpt>
      <trkpt lat="48.79441" lon="2.24443">
        <ele>160</ele>
        <time>2015-06-07T13:14:11.444Z</time>
      </trkpt>
      <trkpt lat="48.79439" lon="2.24455">
        <ele>167</ele>
        <time>2015-06-07T13:14:19.876Z</time>
      </trkpt>
      <trkpt lat="48.79438" lon="2.24456">
        <ele>168</ele>
        <time>2015-06-07T13:14:20.442Z</time>
      </trkpt>
      <trkpt lat="48.79435" lon="2.24468">
        <ele>173</ele>
        <time>2015-06-07T13:14:28.468Z</time>
      </trkpt>
      <trkpt lat="48.79434" lon="2.24469">
        <ele>173</ele>
        <time>2015-06-07T13:14:29.445Z</time>
      </trkpt>
      <trkpt lat="48.79431" lon="2.24481">
        <ele>175</ele>
        <time>2015-06-07T13:14:37.457Z</time>
      </trkpt>
      <trkpt lat="48.7943" lon="2.24482">
        <ele>176</ele>
        <time>2015-06-07T13:14:38.452Z</time>
      </trkpt>
      <trkpt lat="48.79427" lon="2.24493">
        <ele>180</ele>
        <time>2015-06-07T13:14:46.483Z</time>
      </trkpt>
      <trkpt lat="48.79427" lon="2.24495">
        <ele>180</ele>
        <time>2015-06-07T13:14:47.481Z</time>
      </trkpt>
      <trkpt lat="48.79425" lon="2.24508">
        <ele>179</ele>
        <time>2015-06-07T13:14:54.487Z</time>
      </trkpt>
      <trkpt lat="48.79425" lon="2.2451">
        <ele>177</ele>
        <time>2015-06-07T13:14:55.484Z</time>
      </trkpt>
      <trkpt lat="48.79421" lon="2.24521">
        <ele>179</ele>
        <time>2015-06-07T13:15:03.451Z</time>
      </trkpt>
      <trkpt lat="48.79421" lon="2.24522">
        <ele>179</ele>
        <time>2015-06-07T13:15:04.481Z</time>
      </trkpt>
      <trkpt lat="48.79416" lon="2.24534">
        <ele>175</ele>
        <time>2015-06-07T13:15:12.272Z</time>
      </trkpt>
      <trkpt lat="48.79415" lon="2.24535">
        <ele>175</ele>
        <time>2015-06-07T13:15:12.845Z</time>
      </trkpt>
      <trkpt lat="48.79411" lon="2.24547">
        <ele>174</ele>
        <time>2015-06-07T13:15:19.479Z</time>
      </trkpt>
      <trkpt lat="48.7941" lon="2.24548">
        <ele>173</ele>
        <time>2015-06-07T13:15:20.480Z</time>
      </trkpt>
      <trkpt lat="48.79404" lon="2.24558">
        <ele>170</ele>
        <time>2015-06-07T13:15:27.859Z</time>
      </trkpt>
      <trkpt lat="48.79403" lon="2.2456">
        <ele>170</ele>
        <time>2015-06-07T13:15:28.449Z</time>
      </trkpt>
      <trkpt lat="48.79398" lon="2.2457">
        <ele>176</ele>
        <time>2015-06-07T13:15:36.471Z</time>
      </trkpt>
      <trkpt lat="48.79398" lon="2.24572">
        <ele>176</ele>
        <time>2015-06-07T13:15:37.491Z</time>
      </trkpt>
      <trkpt lat="48.79396" lon="2.24584">
        <ele>179</ele>
        <time>2015-06-07T13:15:42.449Z</time>
      </trkpt>
      <trkpt lat="48.79396" lon="2.24586">
        <ele>177</ele>
        <time>2015-06-07T13:15:43.441Z</time>
      </trkpt>
      <trkpt lat="48.79392" lon="2.24597">
        <ele>177</ele>
        <time>2015-06-07T13:15:49.447Z</time>
      </trkpt>
      <trkpt lat="48.79392" lon="2.246">
        <ele>176</ele>
        <time>2015-06-07T13:15:50.446Z</time>
      </trkpt>
      <trkpt lat="48.79387" lon="2.24611">
        <ele>179</ele>
        <time>2015-06-07T13:15:57.451Z</time>
      </trkpt>
      <trkpt lat="48.79386" lon="2.24612">
        <ele>177</ele>
        <time>2015-06-07T13:15:58.451Z</time>
      </trkpt>
      <trkpt lat="48.7938" lon="2.2462">
        <ele>173</ele>
        <time>2015-06-07T13:16:04.450Z</time>
      </trkpt>
      <trkpt lat="48.79379" lon="2.24621">
        <ele>175</ele>
        <time>2015-06-07T13:16:05.458Z</time>
      </trkpt>
      <trkpt lat="48.79374" lon="2.24631">
        <ele>170</ele>
        <time>2015-06-07T13:16:13.489Z</time>
      </trkpt>
      <trkpt lat="48.79373" lon="2.24632">
        <ele>169</ele>
        <time>2015-06-07T13:16:14.489Z</time>
      </trkpt>
      <trkpt lat="48.7937" lon="2.24645">
        <ele>173</ele>
        <time>2015-06-07T13:16:22.679Z</time>
      </trkpt>
      <trkpt lat="48.7937" lon="2.24646">
        <ele>174</ele>
        <time>2015-06-07T13:16:23.499Z</time>
      </trkpt>
      <trkpt lat="48.79367" lon="2.24657">
        <ele>176</ele>
        <time>2015-06-07T13:16:33.555Z</time>
      </trkpt>
      <trkpt lat="48.79367" lon="2.24659">
        <ele>176</ele>
        <time>2015-06-07T13:16:34.473Z</time>
      </trkpt>
      <trkpt lat="48.79365" lon="2.24672">
        <ele>173</ele>
        <time>2015-06-07T13:16:39.466Z</time>
      </trkpt>
      <trkpt lat="48.79364" lon="2.24674">
        <ele>173</ele>
        <time>2015-06-07T13:16:40.487Z</time>
      </trkpt>
      <trkpt lat="48.79362" lon="2.24686">
        <ele>174</ele>
        <time>2015-06-07T13:16:47.472Z</time>
      </trkpt>
      <trkpt lat="48.79361" lon="2.24688">
        <ele>172</ele>
        <time>2015-06-07T13:16:48.446Z</time>
      </trkpt>
      <trkpt lat="48.79358" lon="2.24699">
        <ele>171</ele>
        <time>2015-06-07T13:16:54.441Z</time>
      </trkpt>
      <trkpt lat="48.79358" lon="2.24701">
        <ele>171</ele>
        <time>2015-06-07T13:16:55.441Z</time>
      </trkpt>
      <trkpt lat="48.79357" lon="2.24713">
        <ele>174</ele>
        <time>2015-06-07T13:17:01.441Z</time>
      </trkpt>
      <trkpt lat="48.79357" lon="2.24715">
        <ele>174</ele>
        <time>2015-06-07T13:17:02.441Z</time>
      </trkpt>
      <trkpt lat="48.79356" lon="2.24727">
        <ele>178</ele>
        <time>2015-06-07T13:17:08.442Z</time>
      </trkpt>
      <trkpt lat="48.79356" lon="2.24728">
        <ele>176</ele>
        <time>2015-06-07T13:17:09.443Z</time>
      </trkpt>
      <trkpt lat="48.79352" lon="2.24739">
        <ele>177</ele>
        <time>2015-06-07T13:17:15.442Z</time>
      </trkpt>
      <trkpt lat="48.79352" lon="2.24742">
        <ele>178</ele>
        <time>2015-06-07T13:17:16.443Z</time>
      </trkpt>
      <trkpt lat="48.79348" lon="2.24754">
        <ele>176</ele>
        <time>2015-06-07T13:17:23.442Z</time>
      </trkpt>
      <trkpt lat="48.79347" lon="2.24755">
        <ele>178</ele>
        <time>2015-06-07T13:17:24.448Z</time>
      </trkpt>
      <trkpt lat="48.79344" lon="2.24768">
        <ele>177</ele>
        <time>2015-06-07T13:17:32.470Z</time>
      </trkpt>
      <trkpt lat="48.79343" lon="2.24769">
        <ele>180</ele>
        <time>2015-06-07T13:17:33.474Z</time>
      </trkpt>
      <trkpt lat="48.7934" lon="2.24781">
        <ele>180</ele>
        <time>2015-06-07T13:17:40.474Z</time>
      </trkpt>
      <trkpt lat="48.79339" lon="2.24782">
        <ele>180</ele>
        <time>2015-06-07T13:17:41.461Z</time>
      </trkpt>
      <trkpt lat="48.79338" lon="2.24796">
        <ele>180</ele>
        <time>2015-06-07T13:17:50.466Z</time>
      </trkpt>
      <trkpt lat="48.79337" lon="2.24797">
        <ele>181</ele>
        <time>2015-06-07T13:17:51.477Z</time>
      </trkpt>
      <trkpt lat="48.79335" lon="2.24809">
        <ele>185</ele>
        <time>2015-06-07T13:18:00.467Z</time>
      </trkpt>
      <trkpt lat="48.79335" lon="2.2481">
        <ele>185</ele>
        <time>2015-06-07T13:18:01.490Z</time>
      </trkpt>
      <trkpt lat="48.79333" lon="2.24823">
        <ele>184</ele>
        <time>2015-06-07T13:18:09.470Z</time>
      </trkpt>
      <trkpt lat="48.79332" lon="2.24824">
        <ele>184</ele>
        <time>2015-06-07T13:18:10.483Z</time>
      </trkpt>
      <trkpt lat="48.79329" lon="2.24835">
        <ele>180</ele>
        <time>2015-06-07T13:18:19.464Z</time>
      </trkpt>
      <trkpt lat="48.79328" lon="2.24837">
        <ele>180</ele>
        <time>2015-06-07T13:18:20.468Z</time>
      </trkpt>
      <trkpt lat="48.79325" lon="2.24848">
        <ele>180</ele>
        <time>2015-06-07T13:18:28.204Z</time>
      </trkpt>
      <trkpt lat="48.79324" lon="2.24849">
        <ele>181</ele>
        <time>2015-06-07T13:18:28.673Z</time>
      </trkpt>
      <trkpt lat="48.79321" lon="2.24862">
        <ele>185</ele>
        <time>2015-06-07T13:18:35.476Z</time>
      </trkpt>
      <trkpt lat="48.79321" lon="2.24864">
        <ele>185</ele>
        <time>2015-06-07T13:18:36.470Z</time>
      </trkpt>
      <trkpt lat="48.79318" lon="2.24876">
        <ele>186</ele>
        <time>2015-06-07T13:18:43.442Z</time>
      </trkpt>
      <trkpt lat="48.79318" lon="2.24878">
        <ele>186</ele>
        <time>2015-06-07T13:18:44.534Z</time>
      </trkpt>
      <trkpt lat="48.79315" lon="2.2489">
        <ele>188</ele>
        <time>2015-06-07T13:18:51.441Z</time>
      </trkpt>
      <trkpt lat="48.79315" lon="2.24892">
        <ele>190</ele>
        <time>2015-06-07T13:18:52.441Z</time>
      </trkpt>
      <trkpt lat="48.7931" lon="2.24902">
        <ele>189</ele>
        <time>2015-06-07T13:19:00.319Z</time>
      </trkpt>
      <trkpt lat="48.7931" lon="2.24903">
        <ele>189</ele>
        <time>2015-06-07T13:19:00.442Z</time>
      </trkpt>
      <trkpt lat="48.79305" lon="2.24914">
        <ele>188</ele>
        <time>2015-06-07T13:19:08.441Z</time>
      </trkpt>
      <trkpt lat="48.79305" lon="2.24915">
        <ele>188</ele>
        <time>2015-06-07T13:19:09.443Z</time>
      </trkpt>
      <trkpt lat="48.793" lon="2.24925">
        <ele>189</ele>
        <time>2015-06-07T13:19:17.442Z</time>
      </trkpt>
      <trkpt lat="48.793" lon="2.24927">
        <ele>190</ele>
        <time>2015-06-07T13:19:18.441Z</time>
      </trkpt>
      <trkpt lat="48.79296" lon="2.24938">
        <ele>188</ele>
        <time>2015-06-07T13:19:27.333Z</time>
      </trkpt>
      <trkpt lat="48.79295" lon="2.2494">
        <ele>187</ele>
        <time>2015-06-07T13:19:27.648Z</time>
      </trkpt>
      <trkpt lat="48.79292" lon="2.24952">
        <ele>190</ele>
        <time>2015-06-07T13:19:35.566Z</time>
      </trkpt>
      <trkpt lat="48.79291" lon="2.24954">
        <ele>191</ele>
        <time>2015-06-07T13:19:36.433Z</time>
      </trkpt>
      <trkpt lat="48.79288" lon="2.24966">
        <ele>191</ele>
        <time>2015-06-07T13:19:45.468Z</time>
      </trkpt>
      <trkpt lat="48.79288" lon="2.24968">
        <ele>189</ele>
        <time>2015-06-07T13:19:46.470Z</time>
      </trkpt>
      <trkpt lat="48.79284" lon="2.24979">
        <ele>194</ele>
        <time>2015-06-07T13:19:55.528Z</time>
      </trkpt>
      <trkpt lat="48.79284" lon="2.2498">
        <ele>195</ele>
        <time>2015-06-07T13:19:56.512Z</time>
      </trkpt>
      <trkpt lat="48.79281" lon="2.24993">
        <ele>191</ele>
        <time>2015-06-07T13:20:04.970Z</time>
      </trkpt>
      <trkpt lat="48.7928" lon="2.24994">
        <ele>192</ele>
        <time>2015-06-07T13:20:05.460Z</time>
      </trkpt>
      <trkpt lat="48.79277" lon="2.25006">
        <ele>188</ele>
        <time>2015-06-07T13:20:12.910Z</time>
      </trkpt>
      <trkpt lat="48.79276" lon="2.25007">
        <ele>190</ele>
        <time>2015-06-07T13:20:13.538Z</time>
      </trkpt>
      <trkpt lat="48.79276" lon="2.25019">
        <ele>193</ele>
        <time>2015-06-07T13:20:20.437Z</time>
      </trkpt>
      <trkpt lat="48.79276" lon="2.25021">
        <ele>194</ele>
        <time>2015-06-07T13:20:21.434Z</time>
      </trkpt>
      <trkpt lat="48.79276" lon="2.25034">
        <ele>198</ele>
        <time>2015-06-07T13:20:29.878Z</time>
      </trkpt>
      <trkpt lat="48.79276" lon="2.25035">
        <ele>198</ele>
        <time>2015-06-07T13:20:30.433Z</time>
      </trkpt>
      <trkpt lat="48.79275" lon="2.25047">
        <ele>201</ele>
        <time>2015-06-07T13:20:38.497Z</time>
      </trkpt>
      <trkpt lat="48.79275" lon="2.25049">
        <ele>201</ele>
        <time>2015-06-07T13:20:39.435Z</time>
      </trkpt>
      <trkpt lat="48.79272" lon="2.25061">
        <ele>201</ele>
        <time>2015-06-07T13:20:47.607Z</time>
      </trkpt>
      <trkpt lat="48.79271" lon="2.25062">
        <ele>203</ele>
        <time>2015-06-07T13:20:48.497Z</time>
      </trkpt>
      <trkpt lat="48.79267" lon="2.25073">
        <ele>207</ele>
        <time>2015-06-07T13:20:57.433Z</time>
      </trkpt>
      <trkpt lat="48.79267" lon="2.25074">
        <ele>204</ele>
        <time>2015-06-07T13:20:58.436Z</time>
      </trkpt>
      <trkpt lat="48.79265" lon="2.25087">
        <ele>203</ele>
        <time>2015-06-07T13:21:07.533Z</time>
      </trkpt>
      <trkpt lat="48.79265" lon="2.25088">
        <ele>202</ele>
        <time>2015-06-07T13:21:08.435Z</time>
      </trkpt>
      <trkpt lat="48.79264" lon="2.25101">
        <ele>198</ele>
        <time>2015-06-07T13:21:15.439Z</time>
      </trkpt>
      <trkpt lat="48.79264" lon="2.25102">
        <ele>199</ele>
        <time>2015-06-07T13:21:16.435Z</time>
      </trkpt>
      <trkpt lat="48.79262" lon="2.25114">
        <ele>202</ele>
        <time>2015-06-07T13:21:25.434Z</time>
      </trkpt>
      <trkpt lat="48.79261" lon="2.25115">
        <ele>203</ele>
        <time>2015-06-07T13:21:26.434Z</time>
      </trkpt>
      <trkpt lat="48.7926" lon="2.25128">
        <ele>202</ele>
        <time>2015-06-07T13:21:37.720Z</time>
      </trkpt>
      <trkpt lat="48.7926" lon="2.2513">
        <ele>203</ele>
        <time>2015-06-07T13:21:38.447Z</time>
      </trkpt>
      <trkpt lat="48.7926" lon="2.25142">
        <ele>202</ele>
        <time>2015-06-07T13:21:43.434Z</time>
      </trkpt>
      <trkpt lat="48.79261" lon="2.25144">
        <ele>204</ele>
        <time>2015-06-07T13:21:44.440Z</time>
      </trkpt>
      <trkpt lat="48.79267" lon="2.25153">
        <ele>204</ele>
        <time>2015-06-07T13:21:58.020Z</time>
      </trkpt>
      <trkpt lat="48.79268" lon="2.25153">
        <ele>204</ele>
        <time>2015-06-07T13:21:58.511Z</time>
      </trkpt>
      <trkpt lat="48.79277" lon="2.25152">
        <ele>205</ele>
        <time>2015-06-07T13:22:10.540Z</time>
      </trkpt>
      <trkpt lat="48.79278" lon="2.25151">
        <ele>204</ele>
        <time>2015-06-07T13:22:11.487Z</time>
      </trkpt>
      <trkpt lat="48.79286" lon="2.25152">
        <ele>205</ele>
        <time>2015-06-07T13:22:17.505Z</time>
      </trkpt>
      <trkpt lat="48.79288" lon="2.25152">
        <ele>205</ele>
        <time>2015-06-07T13:22:18.480Z</time>
      </trkpt>
      <trkpt lat="48.79295" lon="2.25144">
        <ele>203</ele>
        <time>2015-06-07T13:22:36.443Z</time>
      </trkpt>
      <trkpt lat="48.79296" lon="2.25145">
        <ele>204</ele>
        <time>2015-06-07T13:22:37.459Z</time>
      </trkpt>
      <trkpt lat="48.79304" lon="2.25145">
        <ele>203</ele>
        <time>2015-06-07T13:22:58.458Z</time>
      </trkpt>
      <trkpt lat="48.79305" lon="2.25146">
        <ele>202</ele>
        <time>2015-06-07T13:22:59.455Z</time>
      </trkpt>
      <trkpt lat="48.79314" lon="2.25147">
        <ele>203</ele>
        <time>2015-06-07T13:23:08.434Z</time>
      </trkpt>
      <trkpt lat="48.79315" lon="2.25148">
        <ele>203</ele>
        <time>2015-06-07T13:23:09.433Z</time>
      </trkpt>
      <trkpt lat="48.79322" lon="2.2515">
        <ele>208</ele>
        <time>2015-06-07T13:23:17.398Z</time>
      </trkpt>
      <trkpt lat="48.79324" lon="2.2515">
        <ele>209</ele>
        <time>2015-06-07T13:23:17.499Z</time>
      </trkpt>
      <trkpt lat="48.79331" lon="2.25147">
        <ele>208</ele>
        <time>2015-06-07T13:23:24.442Z</time>
      </trkpt>
      <trkpt lat="48.79333" lon="2.25146">
        <ele>208</ele>
        <time>2015-06-07T13:23:25.442Z</time>
      </trkpt>
      <trkpt lat="48.79341" lon="2.25144">
        <ele>206</ele>
        <time>2015-06-07T13:23:33.443Z</time>
      </trkpt>
      <trkpt lat="48.79342" lon="2.25144">
        <ele>207</ele>
        <time>2015-06-07T13:23:34.440Z</time>
      </trkpt>
      <trkpt lat="48.7935" lon="2.25149">
        <ele>214</ele>
        <time>2015-06-07T13:23:42.807Z</time>
      </trkpt>
      <trkpt lat="48.79351" lon="2.25149">
        <ele>214</ele>
        <time>2015-06-07T13:23:43.443Z</time>
      </trkpt>
      <trkpt lat="48.79359" lon="2.25149">
        <ele>215</ele>
        <time>2015-06-07T13:23:50.444Z</time>
      </trkpt>
      <trkpt lat="48.7936" lon="2.25149">
        <ele>215</ele>
        <time>2015-06-07T13:23:51.443Z</time>
      </trkpt>
      <trkpt lat="48.79367" lon="2.25142">
        <ele>212</ele>
        <time>2015-06-07T13:23:59.579Z</time>
      </trkpt>
      <trkpt lat="48.79368" lon="2.2514">
        <ele>211</ele>
        <time>2015-06-07T13:24:00.454Z</time>
      </trkpt>
      <trkpt lat="48.79375" lon="2.25133">
        <ele>208</ele>
        <time>2015-06-07T13:24:08.445Z</time>
      </trkpt>
      <trkpt lat="48.79376" lon="2.25133">
        <ele>209</ele>
        <time>2015-06-07T13:24:09.442Z</time>
      </trkpt>
      <trkpt lat="48.79385" lon="2.25128">
        <ele>214</ele>
        <time>2015-06-07T13:24:17.357Z</time>
      </trkpt>
      <trkpt lat="48.79385" lon="2.25127">
        <ele>215</ele>
        <time>2015-06-07T13:24:17.674Z</time>
      </trkpt>
      <trkpt lat="48.79393" lon="2.25122">
        <ele>214</ele>
        <time>2015-06-07T13:26:36.440Z</time>
      </trkpt>
      <trkpt lat="48.79394" lon="2.25121">
        <ele>217</ele>
        <time>2015-06-07T13:26:37.440Z</time>
      </trkpt>
      <trkpt lat="48.79402" lon="2.25121">
        <ele>213</ele>
        <time>2015-06-07T13:26:45.440Z</time>
      </trkpt>
      <trkpt lat="48.79403" lon="2.25121">
        <ele>213</ele>
        <time>2015-06-07T13:26:46.440Z</time>
      </trkpt>
      <trkpt lat="48.79412" lon="2.25119">
        <ele>212</ele>
        <time>2015-06-07T13:26:55.440Z</time>
      </trkpt>
      <trkpt lat="48.79413" lon="2.25119">
        <ele>212</ele>
        <time>2015-06-07T13:26:56.443Z</time>
      </trkpt>
      <trkpt lat="48.79421" lon="2.25117">
        <ele>210</ele>
        <time>2015-06-07T13:27:04.441Z</time>
      </trkpt>
      <trkpt lat="48.79423" lon="2.25116">
        <ele>211</ele>
        <time>2015-06-07T13:27:05.545Z</time>
      </trkpt>
      <trkpt lat="48.79429" lon="2.25108">
        <ele>210</ele>
        <time>2015-06-07T13:27:17.441Z</time>
      </trkpt>
      <trkpt lat="48.7943" lon="2.25107">
        <ele>210</ele>
        <time>2015-06-07T13:27:18.441Z</time>
      </trkpt>
      <trkpt lat="48.79438" lon="2.25101">
        <ele>214</ele>
        <time>2015-06-07T13:27:26.442Z</time>
      </trkpt>
      <trkpt lat="48.79439" lon="2.251">
        <ele>215</ele>
        <time>2015-06-07T13:27:27.444Z</time>
      </trkpt>
      <trkpt lat="48.79446" lon="2.25094">
        <ele>210</ele>
        <time>2015-06-07T13:27:36.489Z</time>
      </trkpt>
      <trkpt lat="48.79447" lon="2.25094">
        <ele>209</ele>
        <time>2015-06-07T13:27:37.490Z</time>
      </trkpt>
      <trkpt lat="48.79455" lon="2.25096">
        <ele>210</ele>
        <time>2015-06-07T13:27:56.280Z</time>
      </trkpt>
      <trkpt lat="48.79456" lon="2.25095">
        <ele>209</ele>
        <time>2015-06-07T13:27:56.442Z</time>
      </trkpt>
      <trkpt lat="48.79463" lon="2.25091">
        <ele>212</ele>
        <time>2015-06-07T13:28:01.686Z</time>
      </trkpt>
      <trkpt lat="48.79464" lon="2.2509">
        <ele>214</ele>
        <time>2015-06-07T13:28:02.505Z</time>
      </trkpt>
      <trkpt lat="48.79472" lon="2.25086">
        <ele>209</ele>
        <time>2015-06-07T13:28:06.648Z</time>
      </trkpt>
      <trkpt lat="48.79473" lon="2.25085">
        <ele>208</ele>
        <time>2015-06-07T13:28:07.557Z</time>
      </trkpt>
      <trkpt lat="48.7948" lon="2.25079">
        <ele>207</ele>
        <time>2015-06-07T13:28:13.550Z</time>
      </trkpt>
      <trkpt lat="48.79481" lon="2.25079">
        <ele>208</ele>
        <time>2015-06-07T13:28:14.477Z</time>
      </trkpt>
      <trkpt lat="48.79489" lon="2.25075">
        <ele>211</ele>
        <time>2015-06-07T13:28:21.479Z</time>
      </trkpt>
      <trkpt lat="48.7949" lon="2.25074">
        <ele>212</ele>
        <time>2015-06-07T13:28:22.957Z</time>
      </trkpt>
      <trkpt lat="48.79496" lon="2.25066">
        <ele>219</ele>
        <time>2015-06-07T13:28:30.483Z</time>
      </trkpt>
      <trkpt lat="48.79498" lon="2.25065">
        <ele>217</ele>
        <time>2015-06-07T13:28:31.445Z</time>
      </trkpt>
      <trkpt lat="48.79503" lon="2.25056">
        <ele>216</ele>
        <time>2015-06-07T13:28:36.494Z</time>
      </trkpt>
      <trkpt lat="48.79504" lon="2.25054">
        <ele>216</ele>
        <time>2015-06-07T13:28:37.471Z</time>
      </trkpt>
      <trkpt lat="48.7951" lon="2.25047">
        <ele>222</ele>
        <time>2015-06-07T13:28:43.875Z</time>
      </trkpt>
      <trkpt lat="48.79511" lon="2.25045">
        <ele>222</ele>
        <time>2015-06-07T13:28:44.474Z</time>
      </trkpt>
      <trkpt lat="48.79516" lon="2.25036">
        <ele>222</ele>
        <time>2015-06-07T13:28:51.475Z</time>
      </trkpt>
      <trkpt lat="48.79517" lon="2.25034">
        <ele>222</ele>
        <time>2015-06-07T13:28:52.471Z</time>
      </trkpt>
      <trkpt lat="48.79522" lon="2.25024">
        <ele>223</ele>
        <time>2015-06-07T13:29:00.476Z</time>
      </trkpt>
      <trkpt lat="48.79523" lon="2.25022">
        <ele>222</ele>
        <time>2015-06-07T13:29:01.490Z</time>
      </trkpt>
      <trkpt lat="48.79528" lon="2.25013">
        <ele>217</ele>
        <time>2015-06-07T13:29:08.456Z</time>
      </trkpt>
      <trkpt lat="48.79529" lon="2.25011">
        <ele>218</ele>
        <time>2015-06-07T13:29:09.470Z</time>
      </trkpt>
      <trkpt lat="48.79534" lon="2.25001">
        <ele>221</ele>
        <time>2015-06-07T13:29:18.450Z</time>
      </trkpt>
      <trkpt lat="48.79535" lon="2.25">
        <ele>222</ele>
        <time>2015-06-07T13:29:19.586Z</time>
      </trkpt>
      <trkpt lat="48.79542" lon="2.24993">
        <ele>222</ele>
        <time>2015-06-07T13:29:31.549Z</time>
      </trkpt>
      <trkpt lat="48.79542" lon="2.24992">
        <ele>223</ele>
        <time>2015-06-07T13:29:32.475Z</time>
      </trkpt>
      <trkpt lat="48.79547" lon="2.24981">
        <ele>222</ele>
        <time>2015-06-07T13:29:39.441Z</time>
      </trkpt>
      <trkpt lat="48.79548" lon="2.24978">
        <ele>220</ele>
        <time>2015-06-07T13:29:40.441Z</time>
      </trkpt>
      <trkpt lat="48.79554" lon="2.24967">
        <ele>215</ele>
        <time>2015-06-07T13:29:44.441Z</time>
      </trkpt>
      <trkpt lat="48.79555" lon="2.24966">
        <ele>217</ele>
        <time>2015-06-07T13:29:45.440Z</time>
      </trkpt>
      <trkpt lat="48.79561" lon="2.24955">
        <ele>215</ele>
        <time>2015-06-07T13:29:51.440Z</time>
      </trkpt>
      <trkpt lat="48.79561" lon="2.24954">
        <ele>216</ele>
        <time>2015-06-07T13:29:52.443Z</time>
      </trkpt>
      <trkpt lat="48.79567" lon="2.24944">
        <ele>211</ele>
        <time>2015-06-07T13:30:00.465Z</time>
      </trkpt>
      <trkpt lat="48.79568" lon="2.24943">
        <ele>210</ele>
        <time>2015-06-07T13:30:01.441Z</time>
      </trkpt>
      <trkpt lat="48.79575" lon="2.24936">
        <ele>207</ele>
        <time>2015-06-07T13:30:09.481Z</time>
      </trkpt>
      <trkpt lat="48.79575" lon="2.24935">
        <ele>207</ele>
        <time>2015-06-07T13:30:10.523Z</time>
      </trkpt>
      <trkpt lat="48.79583" lon="2.24931">
        <ele>209</ele>
        <time>2015-06-07T13:30:18.443Z</time>
      </trkpt>
      <trkpt lat="48.79584" lon="2.2493">
        <ele>207</ele>
        <time>2015-06-07T13:30:19.441Z</time>
      </trkpt>
      <trkpt lat="48.79591" lon="2.24923">
        <ele>207</ele>
        <time>2015-06-07T13:30:26.440Z</time>
      </trkpt>
      <trkpt lat="48.79591" lon="2.24922">
        <ele>208</ele>
        <time>2015-06-07T13:30:27.441Z</time>
      </trkpt>
      <trkpt lat="48.79597" lon="2.24912">
        <ele>213</ele>
        <time>2015-06-07T13:30:52.443Z</time>
      </trkpt>
      <trkpt lat="48.79598" lon="2.24911">
        <ele>213</ele>
        <time>2015-06-07T13:30:53.442Z</time>
      </trkpt>
      <trkpt lat="48.79603" lon="2.249">
        <ele>212</ele>
        <time>2015-06-07T13:31:02.442Z</time>
      </trkpt>
      <trkpt lat="48.79604" lon="2.249">
        <ele>213</ele>
        <time>2015-06-07T13:31:03.441Z</time>
      </trkpt>
      <trkpt lat="48.79608" lon="2.2491">
        <ele>212</ele>
        <time>2015-06-07T13:31:11.441Z</time>
      </trkpt>
      <trkpt lat="48.79609" lon="2.24912">
        <ele>212</ele>
        <time>2015-06-07T13:31:12.447Z</time>
      </trkpt>
      <trkpt lat="48.79615" lon="2.2492">
        <ele>213</ele>
        <time>2015-06-07T13:31:18.440Z</time>
      </trkpt>
      <trkpt lat="48.79615" lon="2.24921">
        <ele>213</ele>
        <time>2015-06-07T13:31:19.443Z</time>
      </trkpt>
      <trkpt lat="48.79621" lon="2.24931">
        <ele>214</ele>
        <time>2015-06-07T13:31:26.443Z</time>
      </trkpt>
      <trkpt lat="48.79621" lon="2.24932">
        <ele>214</ele>
        <time>2015-06-07T13:31:27.444Z</time>
      </trkpt>
      <trkpt lat="48.79626" lon="2.24942">
        <ele>212</ele>
        <time>2015-06-07T13:31:35.445Z</time>
      </trkpt>
      <trkpt lat="48.79626" lon="2.24943">
        <ele>211</ele>
        <time>2015-06-07T13:31:36.499Z</time>
      </trkpt>
      <trkpt lat="48.79629" lon="2.24956">
        <ele>211</ele>
        <time>2015-06-07T13:31:44.611Z</time>
      </trkpt>
      <trkpt lat="48.79629" lon="2.24958">
        <ele>211</ele>
        <time>2015-06-07T13:31:45.520Z</time>
      </trkpt>
      <trkpt lat="48.79631" lon="2.24969">
        <ele>211</ele>
        <time>2015-06-07T13:31:51.442Z</time>
      </trkpt>
      <trkpt lat="48.79632" lon="2.24971">
        <ele>211</ele>
        <time>2015-06-07T13:31:52.440Z</time>
      </trkpt>
      <trkpt lat="48.79629" lon="2.24983">
        <ele>207</ele>
        <time>2015-06-07T13:31:58.448Z</time>
      </trkpt>
      <trkpt lat="48.7963" lon="2.24985">
        <ele>206</ele>
        <time>2015-06-07T13:31:59.448Z</time>
      </trkpt>
      <trkpt lat="48.79637" lon="2.24991">
        <ele>215</ele>
        <time>2015-06-07T13:32:07.486Z</time>
      </trkpt>
      <trkpt lat="48.79638" lon="2.24992">
        <ele>214</ele>
        <time>2015-06-07T13:32:08.547Z</time>
      </trkpt>
      <trkpt lat="48.79644" lon="2.25002">
        <ele>218</ele>
        <time>2015-06-07T13:32:17.904Z</time>
      </trkpt>
      <trkpt lat="48.79645" lon="2.25003">
        <ele>216</ele>
        <time>2015-06-07T13:32:18.471Z</time>
      </trkpt>
      <trkpt lat="48.79647" lon="2.25016">
        <ele>214</ele>
        <time>2015-06-07T13:32:27.955Z</time>
      </trkpt>
      <trkpt lat="48.79647" lon="2.25017">
        <ele>213</ele>
        <time>2015-06-07T13:32:28.524Z</time>
      </trkpt>
      <trkpt lat="48.79652" lon="2.25026">
        <ele>213</ele>
        <time>2015-06-07T13:32:38.063Z</time>
      </trkpt>
      <trkpt lat="48.79653" lon="2.25028">
        <ele>212</ele>
        <time>2015-06-07T13:32:38.690Z</time>
      </trkpt>
      <trkpt lat="48.7966" lon="2.25034">
        <ele>212</ele>
        <time>2015-06-07T13:32:42.710Z</time>
      </trkpt>
      <trkpt lat="48.79661" lon="2.25036">
        <ele>212</ele>
        <time>2015-06-07T13:32:43.452Z</time>
      </trkpt>
      <trkpt lat="48.79668" lon="2.25044">
        <ele>207</ele>
        <time>2015-06-07T13:32:49.512Z</time>
      </trkpt>
      <trkpt lat="48.79669" lon="2.25046">
        <ele>207</ele>
        <time>2015-06-07T13:32:50.541Z</time>
      </trkpt>
      <trkpt lat="48.79672" lon="2.25057">
        <ele>210</ele>
        <time>2015-06-07T13:32:56.550Z</time>
      </trkpt>
      <trkpt lat="48.79672" lon="2.25059">
        <ele>211</ele>
        <time>2015-06-07T13:32:57.547Z</time>
      </trkpt>
      <trkpt lat="48.79677" lon="2.25068">
        <ele>214</ele>
        <time>2015-06-07T13:33:04.589Z</time>
      </trkpt>
      <trkpt lat="48.79678" lon="2.2507">
        <ele>214</ele>
        <time>2015-06-07T13:33:05.555Z</time>
      </trkpt>
      <trkpt lat="48.79685" lon="2.25077">
        <ele>213</ele>
        <time>2015-06-07T13:33:11.476Z</time>
      </trkpt>
      <trkpt lat="48.79686" lon="2.25078">
        <ele>213</ele>
        <time>2015-06-07T13:33:12.481Z</time>
      </trkpt>
      <trkpt lat="48.79691" lon="2.25088">
        <ele>212</ele>
        <time>2015-06-07T13:33:18.509Z</time>
      </trkpt>
      <trkpt lat="48.79693" lon="2.2509">
        <ele>212</ele>
        <time>2015-06-07T13:33:19.479Z</time>
      </trkpt>
      <trkpt lat="48.79697" lon="2.25101">
        <ele>212</ele>
        <time>2015-06-07T13:33:28.746Z</time>
      </trkpt>
      <trkpt lat="48.79697" lon="2.25102">
        <ele>213</ele>
        <time>2015-06-07T13:33:29.473Z</time>
      </trkpt>
      <trkpt lat="48.79699" lon="2.25115">
        <ele>219</ele>
        <time>2015-06-07T13:33:35.536Z</time>
      </trkpt>
      <trkpt lat="48.79699" lon="2.25117">
        <ele>217</ele>
        <time>2015-06-07T13:33:36.477Z</time>
      </trkpt>
      <trkpt lat="48.79703" lon="2.25128">
        <ele>217</ele>
        <time>2015-06-07T13:33:43.917Z</time>
      </trkpt>
      <trkpt lat="48.79704" lon="2.2513">
        <ele>216</ele>
        <time>2015-06-07T13:33:44.473Z</time>
      </trkpt>
      <trkpt lat="48.7971" lon="2.25139">
        <ele>211</ele>
        <time>2015-06-07T13:33:51.469Z</time>
      </trkpt>
      <trkpt lat="48.79711" lon="2.2514">
        <ele>211</ele>
        <time>2015-06-07T13:33:52.480Z</time>
      </trkpt>
      <trkpt lat="48.79719" lon="2.25146">
        <ele>208</ele>
        <time>2015-06-07T13:33:59.127Z</time>
      </trkpt>
      <trkpt lat="48.7972" lon="2.25148">
        <ele>208</ele>
        <time>2015-06-07T13:33:59.571Z</time>
      </trkpt>
      <trkpt lat="48.79726" lon="2.25157">
        <ele>207</ele>
        <time>2015-06-07T13:34:05.495Z</time>
      </trkpt>
      <trkpt lat="48.79727" lon="2.25159">
        <ele>208</ele>
        <time>2015-06-07T13:34:06.475Z</time>
      </trkpt>
      <trkpt lat="48.79732" lon="2.25168">
        <ele>210</ele>
        <time>2015-06-07T13:34:11.468Z</time>
      </trkpt>
      <trkpt lat="48.79734" lon="2.25169">
        <ele>212</ele>
        <time>2015-06-07T13:34:12.489Z</time>
      </trkpt>
      <trkpt lat="48.79741" lon="2.25176">
        <ele>216</ele>
        <time>2015-06-07T13:34:18.490Z</time>
      </trkpt>
      <trkpt lat="48.79742" lon="2.25178">
        <ele>214</ele>
        <time>2015-06-07T13:34:19.579Z</time>
      </trkpt>
      <trkpt lat="48.79747" lon="2.25188">
        <ele>215</ele>
        <time>2015-06-07T13:34:26.539Z</time>
      </trkpt>
      <trkpt lat="48.79748" lon="2.2519">
        <ele>215</ele>
        <time>2015-06-07T13:34:27.515Z</time>
      </trkpt>
      <trkpt lat="48.79753" lon="2.25198">
        <ele>218</ele>
        <time>2015-06-07T13:34:33.590Z</time>
      </trkpt>
      <trkpt lat="48.79754" lon="2.252">
        <ele>217</ele>
        <time>2015-06-07T13:34:34.522Z</time>
      </trkpt>
      <trkpt lat="48.7976" lon="2.25208">
        <ele>217</ele>
        <time>2015-06-07T13:34:40.552Z</time>
      </trkpt>
      <trkpt lat="48.7976" lon="2.25209">
        <ele>217</ele>
        <time>2015-06-07T13:34:41.582Z</time>
      </trkpt>
      <trkpt lat="48.79768" lon="2.25213">
        <ele>216</ele>
        <time>2015-06-07T13:34:47.518Z</time>
      </trkpt>
      <trkpt lat="48.79769" lon="2.25214">
        <ele>215</ele>
        <time>2015-06-07T13:34:48.546Z</time>
      </trkpt>
      <trkpt lat="48.79773" lon="2.25225">
        <ele>215</ele>
        <time>2015-06-07T13:34:57.008Z</time>
      </trkpt>
      <trkpt lat="48.79774" lon="2.25226">
        <ele>214</ele>
        <time>2015-06-07T13:34:57.439Z</time>
      </trkpt>
      <trkpt lat="48.79782" lon="2.25222">
        <ele>212</ele>
        <time>2015-06-07T13:35:02.440Z</time>
      </trkpt>
      <trkpt lat="48.79783" lon="2.25221">
        <ele>211</ele>
        <time>2015-06-07T13:35:03.440Z</time>
      </trkpt>
      <trkpt lat="48.7979" lon="2.25213">
        <ele>212</ele>
        <time>2015-06-07T13:35:07.448Z</time>
      </trkpt>
      <trkpt lat="48.79791" lon="2.25212">
        <ele>211</ele>
        <time>2015-06-07T13:35:08.449Z</time>
      </trkpt>
      <trkpt lat="48.79799" lon="2.25205">
        <ele>210</ele>
        <time>2015-06-07T13:35:17.376Z</time>
      </trkpt>
      <trkpt lat="48.798" lon="2.25205">
        <ele>210</ele>
        <time>2015-06-07T13:35:17.462Z</time>
      </trkpt>
      <trkpt lat="48.79807" lon="2.25197">
        <ele>212</ele>
        <time>2015-06-07T13:35:26.448Z</time>
      </trkpt>
      <trkpt lat="48.79808" lon="2.25196">
        <ele>213</ele>
        <time>2015-06-07T13:35:27.448Z</time>
      </trkpt>
      <trkpt lat="48.79814" lon="2.25187">
        <ele>207</ele>
        <time>2015-06-07T13:35:34.472Z</time>
      </trkpt>
      <trkpt lat="48.79815" lon="2.25186">
        <ele>206</ele>
        <time>2015-06-07T13:35:35.482Z</time>
      </trkpt>
      <trkpt lat="48.79822" lon="2.25178">
        <ele>208</ele>
        <time>2015-06-07T13:35:43.215Z</time>
      </trkpt>
      <trkpt lat="48.79823" lon="2.25177">
        <ele>207</ele>
        <time>2015-06-07T13:35:43.449Z</time>
      </trkpt>
      <trkpt lat="48.79829" lon="2.25168">
        <ele>211</ele>
        <time>2015-06-07T13:35:50.476Z</time>
      </trkpt>
      <trkpt lat="48.7983" lon="2.25167">
        <ele>210</ele>
        <time>2015-06-07T13:35:51.486Z</time>
      </trkpt>
      <trkpt lat="48.79836" lon="2.25157">
        <ele>206</ele>
        <time>2015-06-07T13:35:58.440Z</time>
      </trkpt>
      <trkpt lat="48.79837" lon="2.25155">
        <ele>205</ele>
        <time>2015-06-07T13:35:59.452Z</time>
      </trkpt>
      <trkpt lat="48.79843" lon="2.25146">
        <ele>207</ele>
        <time>2015-06-07T13:36:07.403Z</time>
      </trkpt>
      <trkpt lat="48.79843" lon="2.25145">
        <ele>207</ele>
        <time>2015-06-07T13:36:07.504Z</time>
      </trkpt>
      <trkpt lat="48.79849" lon="2.25136">
        <ele>207</ele>
        <time>2015-06-07T13:36:15.530Z</time>
      </trkpt>
      <trkpt lat="48.7985" lon="2.25135">
        <ele>206</ele>
        <time>2015-06-07T13:36:16.496Z</time>
      </trkpt>
      <trkpt lat="48.79855" lon="2.25125">
        <ele>206</ele>
        <time>2015-06-07T13:36:24.512Z</time>
      </trkpt>
      <trkpt lat="48.79856" lon="2.25124">
        <ele>207</ele>
        <time>2015-06-07T13:36:25.513Z</time>
      </trkpt>
      <trkpt lat="48.79861" lon="2.25116">
        <ele>208</ele>
        <time>2015-06-07T13:36:31.512Z</time>
      </trkpt>
      <trkpt lat="48.79862" lon="2.25115">
        <ele>208</ele>
        <time>2015-06-07T13:36:32.521Z</time>
      </trkpt>
      <trkpt lat="48.79867" lon="2.25105">
        <ele>207</ele>
        <time>2015-06-07T13:36:38.450Z</time>
      </trkpt>
      <trkpt lat="48.79868" lon="2.25104">
        <ele>208</ele>
        <time>2015-06-07T13:36:39.455Z</time>
      </trkpt>
      <trkpt lat="48.79874" lon="2.25095">
        <ele>206</ele>
        <time>2015-06-07T13:36:46.448Z</time>
      </trkpt>
      <trkpt lat="48.79874" lon="2.25093">
        <ele>206</ele>
        <time>2015-06-07T13:36:47.448Z</time>
      </trkpt>
      <trkpt lat="48.7988" lon="2.25083">
        <ele>209</ele>
        <time>2015-06-07T13:36:55.965Z</time>
      </trkpt>
      <trkpt lat="48.79881" lon="2.25081">
        <ele>209</ele>
        <time>2015-06-07T13:36:56.527Z</time>
      </trkpt>
      <trkpt lat="48.79887" lon="2.25073">
        <ele>210</ele>
        <time>2015-06-07T13:37:02.560Z</time>
      </trkpt>
      <trkpt lat="48.79888" lon="2.25072">
        <ele>211</ele>
        <time>2015-06-07T13:37:03.450Z</time>
      </trkpt>
      <trkpt lat="48.79894" lon="2.25064">
        <ele>210</ele>
        <time>2015-06-07T13:37:10.456Z</time>
      </trkpt>
      <trkpt lat="48.79895" lon="2.25063">
        <ele>211</ele>
        <time>2015-06-07T13:37:11.450Z</time>
      </trkpt>
      <trkpt lat="48.79901" lon="2.25054">
        <ele>209</ele>
        <time>2015-06-07T13:37:18.458Z</time>
      </trkpt>
      <trkpt lat="48.79901" lon="2.25052">
        <ele>210</ele>
        <time>2015-06-07T13:37:19.499Z</time>
      </trkpt>
      <trkpt lat="48.79907" lon="2.25044">
        <ele>208</ele>
        <time>2015-06-07T13:37:24.632Z</time>
      </trkpt>
      <trkpt lat="48.79908" lon="2.25043">
        <ele>206</ele>
        <time>2015-06-07T13:37:25.448Z</time>
      </trkpt>
      <trkpt lat="48.79909" lon="2.25031">
        <ele>206</ele>
        <time>2015-06-07T13:37:32.714Z</time>
      </trkpt>
      <trkpt lat="48.79909" lon="2.25029">
        <ele>206</ele>
        <time>2015-06-07T13:37:33.492Z</time>
      </trkpt>
      <trkpt lat="48.79917" lon="2.25025">
        <ele>207</ele>
        <time>2015-06-07T13:37:43.061Z</time>
      </trkpt>
      <trkpt lat="48.79918" lon="2.25024">
        <ele>207</ele>
        <time>2015-06-07T13:37:43.450Z</time>
      </trkpt>
      <trkpt lat="48.79924" lon="2.25017">
        <ele>205</ele>
        <time>2015-06-07T13:37:48.658Z</time>
      </trkpt>
      <trkpt lat="48.79926" lon="2.25016">
        <ele>205</ele>
        <time>2015-06-07T13:37:49.559Z</time>
      </trkpt>
      <trkpt lat="48.79929" lon="2.25004">
        <ele>201</ele>
        <time>2015-06-07T13:37:55.479Z</time>
      </trkpt>
      <trkpt lat="48.79929" lon="2.25002">
        <ele>204</ele>
        <time>2015-06-07T13:37:56.650Z</time>
      </trkpt>
      <trkpt lat="48.79936" lon="2.24995">
        <ele>210</ele>
        <time>2015-06-07T13:38:04.448Z</time>
      </trkpt>
      <trkpt lat="48.79937" lon="2.24994">
        <ele>212</ele>
        <time>2015-06-07T13:38:05.478Z</time>
      </trkpt>
      <trkpt lat="48.79945" lon="2.2499">
        <ele>215</ele>
        <time>2015-06-07T13:38:11.479Z</time>
      </trkpt>
      <trkpt lat="48.79946" lon="2.24989">
        <ele>215</ele>
        <time>2015-06-07T13:38:12.611Z</time>
      </trkpt>
      <trkpt lat="48.79951" lon="2.24979">
        <ele>216</ele>
        <time>2015-06-07T13:38:22.980Z</time>
      </trkpt>
      <trkpt lat="48.79952" lon="2.24978">
        <ele>214</ele>
        <time>2015-06-07T13:38:23.490Z</time>
      </trkpt>
      <trkpt lat="48.79956" lon="2.24967">
        <ele>208</ele>
        <time>2015-06-07T13:38:29.490Z</time>
      </trkpt>
      <trkpt lat="48.79957" lon="2.24965">
        <ele>209</ele>
        <time>2015-06-07T13:38:30.555Z</time>
      </trkpt>
      <trkpt lat="48.79963" lon="2.24959">
        <ele>208</ele>
        <time>2015-06-07T13:38:34.532Z</time>
      </trkpt>
      <trkpt lat="48.79965" lon="2.24957">
        <ele>207</ele>
        <time>2015-06-07T13:38:35.664Z</time>
      </trkpt>
      <trkpt lat="48.79971" lon="2.24949">
        <ele>202</ele>
        <time>2015-06-07T13:38:40.316Z</time>
      </trkpt>
      <trkpt lat="48.79972" lon="2.24947">
        <ele>202</ele>
        <time>2015-06-07T13:38:41.078Z</time>
      </trkpt>
      <trkpt lat="48.79976" lon="2.24936">
        <ele>200</ele>
        <time>2015-06-07T13:38:46.449Z</time>
      </trkpt>
      <trkpt lat="48.79977" lon="2.24935">
        <ele>199</ele>
        <time>2015-06-07T13:38:47.450Z</time>
      </trkpt>
      <trkpt lat="48.79983" lon="2.24925">
        <ele>199</ele>
        <time>2015-06-07T13:38:55.372Z</time>
      </trkpt>
      <trkpt lat="48.79984" lon="2.24924">
        <ele>200</ele>
        <time>2015-06-07T13:38:55.463Z</time>
      </trkpt>
      <trkpt lat="48.7999" lon="2.24915">
        <ele>202</ele>
        <time>2015-06-07T13:39:01.450Z</time>
      </trkpt>
      <trkpt lat="48.79991" lon="2.24913">
        <ele>205</ele>
        <time>2015-06-07T13:39:02.451Z</time>
      </trkpt>
      <trkpt lat="48.79996" lon="2.24904">
        <ele>208</ele>
        <time>2015-06-07T13:39:08.451Z</time>
      </trkpt>
      <trkpt lat="48.79997" lon="2.24902">
        <ele>209</ele>
        <time>2015-06-07T13:39:09.448Z</time>
      </trkpt>
      <trkpt lat="48.80005" lon="2.24899">
        <ele>206</ele>
        <time>2015-06-07T13:39:27.709Z</time>
      </trkpt>
      <trkpt lat="48.80006" lon="2.249">
        <ele>207</ele>
        <time>2015-06-07T13:39:28.451Z</time>
      </trkpt>
      <trkpt lat="48.80014" lon="2.24903">
        <ele>207</ele>
        <time>2015-06-07T13:39:35.449Z</time>
      </trkpt>
      <trkpt lat="48.80015" lon="2.24903">
        <ele>207</ele>
        <time>2015-06-07T13:39:36.447Z</time>
      </trkpt>
      <trkpt lat="48.80023" lon="2.24904">
        <ele>208</ele>
        <time>2015-06-07T13:39:42.819Z</time>
      </trkpt>
      <trkpt lat="48.80025" lon="2.24904">
        <ele>208</ele>
        <time>2015-06-07T13:39:43.458Z</time>
      </trkpt>
      <trkpt lat="48.80032" lon="2.24899">
        <ele>209</ele>
        <time>2015-06-07T13:39:53.485Z</time>
      </trkpt>
      <trkpt lat="48.80034" lon="2.24898">
        <ele>209</ele>
        <time>2015-06-07T13:39:54.495Z</time>
      </trkpt>
      <trkpt lat="48.80038" lon="2.24888">
        <ele>208</ele>
        <time>2015-06-07T13:40:01.447Z</time>
      </trkpt>
      <trkpt lat="48.80039" lon="2.24886">
        <ele>208</ele>
        <time>2015-06-07T13:40:02.448Z</time>
      </trkpt>
      <trkpt lat="48.80041" lon="2.24874">
        <ele>210</ele>
        <time>2015-06-07T13:40:08.447Z</time>
      </trkpt>
      <trkpt lat="48.80041" lon="2.24873">
        <ele>210</ele>
        <time>2015-06-07T13:40:09.448Z</time>
      </trkpt>
      <trkpt lat="48.80047" lon="2.24865">
        <ele>209</ele>
        <time>2015-06-07T13:40:18.448Z</time>
      </trkpt>
      <trkpt lat="48.80048" lon="2.24864">
        <ele>209</ele>
        <time>2015-06-07T13:40:19.448Z</time>
      </trkpt>
      <trkpt lat="48.80057" lon="2.24863">
        <ele>207</ele>
        <time>2015-06-07T13:40:26.451Z</time>
      </trkpt>
      <trkpt lat="48.80058" lon="2.24863">
        <ele>208</ele>
        <time>2015-06-07T13:40:27.447Z</time>
      </trkpt>
      <trkpt lat="48.80066" lon="2.2486">
        <ele>209</ele>
        <time>2015-06-07T13:40:35.447Z</time>
      </trkpt>
      <trkpt lat="48.80067" lon="2.2486">
        <ele>209</ele>
        <time>2015-06-07T13:40:36.450Z</time>
      </trkpt>
      <trkpt lat="48.80075" lon="2.24858">
        <ele>208</ele>
        <time>2015-06-07T13:40:44.494Z</time>
      </trkpt>
      <trkpt lat="48.80076" lon="2.24858">
        <ele>208</ele>
        <time>2015-06-07T13:40:45.447Z</time>
      </trkpt>
      <trkpt lat="48.80084" lon="2.24863">
        <ele>210</ele>
        <time>2015-06-07T13:40:52.933Z</time>
      </trkpt>
      <trkpt lat="48.80085" lon="2.24864">
        <ele>209</ele>
        <time>2015-06-07T13:40:53.449Z</time>
      </trkpt>
      <trkpt lat="48.80093" lon="2.24865">
        <ele>204</ele>
        <time>2015-06-07T13:41:00.455Z</time>
      </trkpt>
      <trkpt lat="48.80094" lon="2.24865">
        <ele>203</ele>
        <time>2015-06-07T13:41:01.447Z</time>
      </trkpt>
      <trkpt lat="48.80102" lon="2.24867">
        <ele>210</ele>
        <time>2015-06-07T13:41:10.480Z</time>
      </trkpt>
      <trkpt lat="48.80103" lon="2.24867">
        <ele>211</ele>
        <time>2015-06-07T13:41:11.447Z</time>
      </trkpt>
      <trkpt lat="48.80111" lon="2.24868">
        <ele>212</ele>
        <time>2015-06-07T13:41:19.537Z</time>
      </trkpt>
      <trkpt lat="48.80112" lon="2.24868">
        <ele>211</ele>
        <time>2015-06-07T13:41:20.498Z</time>
      </trkpt>
      <trkpt lat="48.80121" lon="2.24869">
        <ele>214</ele>
        <time>2015-06-07T13:41:27.888Z</time>
      </trkpt>
      <trkpt lat="48.80122" lon="2.24869">
        <ele>214</ele>
        <time>2015-06-07T13:41:28.478Z</time>
      </trkpt>
      <trkpt lat="48.80131" lon="2.24868">
        <ele>211</ele>
        <time>2015-06-07T13:41:38.050Z</time>
      </trkpt>
      <trkpt lat="48.80131" lon="2.24868">
        <ele>211</ele>
        <time>2015-06-07T13:41:38.531Z</time>
      </trkpt>
      <trkpt lat="48.80138" lon="2.24871">
        <ele>211</ele>
        <time>2015-06-07T13:41:45.480Z</time>
      </trkpt>
      <trkpt lat="48.8014" lon="2.24871">
        <ele>212</ele>
        <time>2015-06-07T13:41:46.483Z</time>
      </trkpt>
      <trkpt lat="48.80148" lon="2.2487">
        <ele>210</ele>
        <time>2015-06-07T13:41:49.447Z</time>
      </trkpt>
      <trkpt lat="48.8015" lon="2.2487">
        <ele>210</ele>
        <time>2015-06-07T13:41:50.482Z</time>
      </trkpt>
      <trkpt lat="48.80158" lon="2.24867">
        <ele>206</ele>
        <time>2015-06-07T13:42:00.184Z</time>
      </trkpt>
      <trkpt lat="48.80159" lon="2.24867">
        <ele>205</ele>
        <time>2015-06-07T13:42:00.522Z</time>
      </trkpt>
      <trkpt lat="48.80167" lon="2.24869">
        <ele>210</ele>
        <time>2015-06-07T13:42:08.519Z</time>
      </trkpt>
      <trkpt lat="48.80168" lon="2.24868">
        <ele>210</ele>
        <time>2015-06-07T13:42:09.491Z</time>
      </trkpt>
      <trkpt lat="48.80176" lon="2.24866">
        <ele>214</ele>
        <time>2015-06-07T13:42:16.526Z</time>
      </trkpt>
      <trkpt lat="48.80177" lon="2.24866">
        <ele>213</ele>
        <time>2015-06-07T13:42:17.548Z</time>
      </trkpt>
      <trkpt lat="48.80185" lon="2.24863">
        <ele>213</ele>
        <time>2015-06-07T13:42:29.481Z</time>
      </trkpt>
      <trkpt lat="48.80186" lon="2.24863">
        <ele>214</ele>
        <time>2015-06-07T13:42:30.482Z</time>
      </trkpt>
      <trkpt lat="48.80194" lon="2.24865">
        <ele>216</ele>
        <time>2015-06-07T13:42:39.491Z</time>
      </trkpt>
      <trkpt lat="48.80196" lon="2.24865">
        <ele>215</ele>
        <time>2015-06-07T13:42:40.469Z</time>
      </trkpt>
      <trkpt lat="48.80204" lon="2.24862">
        <ele>212</ele>
        <time>2015-06-07T13:42:44.515Z</time>
      </trkpt>
      <trkpt lat="48.80206" lon="2.24862">
        <ele>213</ele>
        <time>2015-06-07T13:42:45.654Z</time>
      </trkpt>
      <trkpt lat="48.80214" lon="2.24859">
        <ele>214</ele>
        <time>2015-06-07T13:42:53.567Z</time>
      </trkpt>
      <trkpt lat="48.80216" lon="2.24859">
        <ele>213</ele>
        <time>2015-06-07T13:42:54.481Z</time>
      </trkpt>
      <trkpt lat="48.80224" lon="2.24859">
        <ele>209</ele>
        <time>2015-06-07T13:43:00.448Z</time>
      </trkpt>
      <trkpt lat="48.80225" lon="2.24859">
        <ele>210</ele>
        <time>2015-06-07T13:43:01.635Z</time>
      </trkpt>
      <trkpt lat="48.80233" lon="2.24861">
        <ele>209</ele>
        <time>2015-06-07T13:43:07.799Z</time>
      </trkpt>
      <trkpt lat="48.80235" lon="2.24862">
        <ele>210</ele>
        <time>2015-06-07T13:43:08.461Z</time>
      </trkpt>
      <trkpt lat="48.80244" lon="2.24861">
        <ele>208</ele>
        <time>2015-06-07T13:43:17.447Z</time>
      </trkpt>
      <trkpt lat="48.80245" lon="2.24861">
        <ele>206</ele>
        <time>2015-06-07T13:43:18.447Z</time>
      </trkpt>
      <trkpt lat="48.80253" lon="2.24856">
        <ele>209</ele>
        <time>2015-06-07T13:43:26.450Z</time>
      </trkpt>
      <trkpt lat="48.80254" lon="2.24856">
        <ele>209</ele>
        <time>2015-06-07T13:43:27.449Z</time>
      </trkpt>
      <trkpt lat="48.80262" lon="2.24853">
        <ele>211</ele>
        <time>2015-06-07T13:43:34.449Z</time>
      </trkpt>
      <trkpt lat="48.80264" lon="2.24852">
        <ele>211</ele>
        <time>2015-06-07T13:43:35.450Z</time>
      </trkpt>
      <trkpt lat="48.80272" lon="2.24849">
        <ele>214</ele>
        <time>2015-06-07T13:43:42.447Z</time>
      </trkpt>
      <trkpt lat="48.80273" lon="2.24849">
        <ele>214</ele>
        <time>2015-06-07T13:43:43.447Z</time>
      </trkpt>
      <trkpt lat="48.80281" lon="2.24844">
        <ele>212</ele>
        <time>2015-06-07T13:44:14.457Z</time>
      </trkpt>
      <trkpt lat="48.80282" lon="2.24843">
        <ele>214</ele>
        <time>2015-06-07T13:44:15.463Z</time>
      </trkpt>
      <trkpt lat="48.80291" lon="2.24844">
        <ele>209</ele>
        <time>2015-06-07T13:44:33.624Z</time>
      </trkpt>
      <trkpt lat="48.80292" lon="2.24843">
        <ele>209</ele>
        <time>2015-06-07T13:44:34.455Z</time>
      </trkpt>
      <trkpt lat="48.803" lon="2.24838">
        <ele>216</ele>
        <time>2015-06-07T13:44:41.455Z</time>
      </trkpt>
      <trkpt lat="48.80301" lon="2.24838">
        <ele>216</ele>
        <time>2015-06-07T13:44:42.544Z</time>
      </trkpt>
      <trkpt lat="48.80309" lon="2.24836">
        <ele>213</ele>
        <time>2015-06-07T13:44:50.459Z</time>
      </trkpt>
      <trkpt lat="48.8031" lon="2.24835">
        <ele>212</ele>
        <time>2015-06-07T13:44:51.460Z</time>
      </trkpt>
      <trkpt lat="48.80319" lon="2.24833">
        <ele>212</ele>
        <time>2015-06-07T13:45:00.456Z</time>
      </trkpt>
      <trkpt lat="48.80319" lon="2.24832">
        <ele>212</ele>
        <time>2015-06-07T13:45:01.457Z</time>
      </trkpt>
      <trkpt lat="48.80328" lon="2.24833">
        <ele>212</ele>
        <time>2015-06-07T13:45:12.470Z</time>
      </trkpt>
      <trkpt lat="48.80329" lon="2.24833">
        <ele>212</ele>
        <time>2015-06-07T13:45:13.531Z</time>
      </trkpt>
      <trkpt lat="48.80338" lon="2.24834">
        <ele>211</ele>
        <time>2015-06-07T13:45:23.485Z</time>
      </trkpt>
      <trkpt lat="48.80338" lon="2.24834">
        <ele>210</ele>
        <time>2015-06-07T13:45:24.457Z</time>
      </trkpt>
      <trkpt lat="48.80347" lon="2.24836">
        <ele>204</ele>
        <time>2015-06-07T13:45:33.456Z</time>
      </trkpt>
      <trkpt lat="48.80348" lon="2.24836">
        <ele>204</ele>
        <time>2015-06-07T13:45:34.505Z</time>
      </trkpt>
      <trkpt lat="48.80354" lon="2.24844">
        <ele>201</ele>
        <time>2015-06-07T13:45:57.626Z</time>
      </trkpt>
      <trkpt lat="48.80355" lon="2.24846">
        <ele>200</ele>
        <time>2015-06-07T13:45:58.455Z</time>
      </trkpt>
      <trkpt lat="48.80363" lon="2.2485">
        <ele>198</ele>
        <time>2015-06-07T13:46:04.461Z</time>
      </trkpt>
      <trkpt lat="48.80364" lon="2.2485">
        <ele>196</ele>
        <time>2015-06-07T13:46:05.455Z</time>
      </trkpt>
      <trkpt lat="48.80372" lon="2.24856">
        <ele>193</ele>
        <time>2015-06-07T13:46:10.455Z</time>
      </trkpt>
      <trkpt lat="48.80374" lon="2.24857">
        <ele>193</ele>
        <time>2015-06-07T13:46:11.468Z</time>
      </trkpt>
      <trkpt lat="48.8038" lon="2.24863">
        <ele>197</ele>
        <time>2015-06-07T13:46:15.495Z</time>
      </trkpt>
      <trkpt lat="48.80382" lon="2.24864">
        <ele>197</ele>
        <time>2015-06-07T13:46:16.456Z</time>
      </trkpt>
      <trkpt lat="48.80389" lon="2.2487">
        <ele>194</ele>
        <time>2015-06-07T13:46:21.513Z</time>
      </trkpt>
      <trkpt lat="48.8039" lon="2.24871">
        <ele>194</ele>
        <time>2015-06-07T13:46:22.455Z</time>
      </trkpt>
      <trkpt lat="48.80396" lon="2.2488">
        <ele>196</ele>
        <time>2015-06-07T13:46:29.495Z</time>
      </trkpt>
      <trkpt lat="48.80397" lon="2.24881">
        <ele>195</ele>
        <time>2015-06-07T13:46:30.500Z</time>
      </trkpt>
      <trkpt lat="48.80402" lon="2.24891">
        <ele>193</ele>
        <time>2015-06-07T13:46:37.490Z</time>
      </trkpt>
      <trkpt lat="48.80402" lon="2.24893">
        <ele>193</ele>
        <time>2015-06-07T13:46:38.538Z</time>
      </trkpt>
      <trkpt lat="48.80406" lon="2.24905">
        <ele>191</ele>
        <time>2015-06-07T13:46:45.511Z</time>
      </trkpt>
      <trkpt lat="48.80407" lon="2.24906">
        <ele>191</ele>
        <time>2015-06-07T13:46:46.454Z</time>
      </trkpt>
      <trkpt lat="48.80414" lon="2.24913">
        <ele>191</ele>
        <time>2015-06-07T13:46:54.347Z</time>
      </trkpt>
      <trkpt lat="48.80415" lon="2.24914">
        <ele>193</ele>
        <time>2015-06-07T13:46:54.456Z</time>
      </trkpt>
      <trkpt lat="48.80422" lon="2.2492">
        <ele>194</ele>
        <time>2015-06-07T13:47:00.454Z</time>
      </trkpt>
      <trkpt lat="48.80424" lon="2.24921">
        <ele>195</ele>
        <time>2015-06-07T13:47:01.503Z</time>
      </trkpt>
      <trkpt lat="48.8043" lon="2.24928">
        <ele>199</ele>
        <time>2015-06-07T13:47:06.540Z</time>
      </trkpt>
      <trkpt lat="48.80431" lon="2.2493">
        <ele>200</ele>
        <time>2015-06-07T13:47:07.561Z</time>
      </trkpt>
      <trkpt lat="48.80438" lon="2.24936">
        <ele>197</ele>
        <time>2015-06-07T13:47:14.487Z</time>
      </trkpt>
      <trkpt lat="48.80439" lon="2.24937">
        <ele>197</ele>
        <time>2015-06-07T13:47:16.129Z</time>
      </trkpt>
      <trkpt lat="48.80446" lon="2.24941">
        <ele>195</ele>
        <time>2015-06-07T13:47:22.721Z</time>
      </trkpt>
      <trkpt lat="48.80448" lon="2.24941">
        <ele>194</ele>
        <time>2015-06-07T13:47:23.455Z</time>
      </trkpt>
      <trkpt lat="48.80457" lon="2.24942">
        <ele>190</ele>
        <time>2015-06-07T13:47:29.460Z</time>
      </trkpt>
      <trkpt lat="48.80458" lon="2.24942">
        <ele>190</ele>
        <time>2015-06-07T13:47:30.456Z</time>
      </trkpt>
      <trkpt lat="48.80465" lon="2.24945">
        <ele>193</ele>
        <time>2015-06-07T13:47:35.873Z</time>
      </trkpt>
      <trkpt lat="48.80467" lon="2.24946">
        <ele>193</ele>
        <time>2015-06-07T13:47:36.456Z</time>
      </trkpt>
      <trkpt lat="48.80475" lon="2.2495">
        <ele>193</ele>
        <time>2015-06-07T13:47:40.905Z</time>
      </trkpt>
      <trkpt lat="48.80477" lon="2.24951">
        <ele>194</ele>
        <time>2015-06-07T13:47:41.460Z</time>
      </trkpt>
      <trkpt lat="48.80485" lon="2.24955">
        <ele>194</ele>
        <time>2015-06-07T13:47:47.461Z</time>
      </trkpt>
      <trkpt lat="48.80486" lon="2.24956">
        <ele>194</ele>
        <time>2015-06-07T13:47:48.462Z</time>
      </trkpt>
      <trkpt lat="48.80493" lon="2.24964">
        <ele>189</ele>
        <time>2015-06-07T13:47:58.458Z</time>
      </trkpt>
      <trkpt lat="48.80494" lon="2.24965">
        <ele>190</ele>
        <time>2015-06-07T13:47:59.486Z</time>
      </trkpt>
      <trkpt lat="48.805" lon="2.24973">
        <ele>186</ele>
        <time>2015-06-07T13:48:07.998Z</time>
      </trkpt>
      <trkpt lat="48.80501" lon="2.24974">
        <ele>185</ele>
        <time>2015-06-07T13:48:08.465Z</time>
      </trkpt>
      <trkpt lat="48.80508" lon="2.24978">
        <ele>185</ele>
        <time>2015-06-07T13:48:13.461Z</time>
      </trkpt>
      <trkpt lat="48.80509" lon="2.24979">
        <ele>186</ele>
        <time>2015-06-07T13:48:14.461Z</time>
      </trkpt>
      <trkpt lat="48.80517" lon="2.24984">
        <ele>188</ele>
        <time>2015-06-07T13:48:20.473Z</time>
      </trkpt>
      <trkpt lat="48.80518" lon="2.24985">
        <ele>187</ele>
        <time>2015-06-07T13:48:21.459Z</time>
      </trkpt>
      <trkpt lat="48.80525" lon="2.24991">
        <ele>184</ele>
        <time>2015-06-07T13:48:28.456Z</time>
      </trkpt>
      <trkpt lat="48.80526" lon="2.24992">
        <ele>184</ele>
        <time>2015-06-07T13:48:29.474Z</time>
      </trkpt>
      <trkpt lat="48.80532" lon="2.25">
        <ele>185</ele>
        <time>2015-06-07T13:48:37.456Z</time>
      </trkpt>
      <trkpt lat="48.80533" lon="2.25002">
        <ele>186</ele>
        <time>2015-06-07T13:48:38.462Z</time>
      </trkpt>
      <trkpt lat="48.80539" lon="2.2501">
        <ele>187</ele>
        <time>2015-06-07T13:48:46.469Z</time>
      </trkpt>
      <trkpt lat="48.8054" lon="2.25011">
        <ele>187</ele>
        <time>2015-06-07T13:48:47.457Z</time>
      </trkpt>
      <trkpt lat="48.80549" lon="2.25009">
        <ele>184</ele>
        <time>2015-06-07T13:48:53.712Z</time>
      </trkpt>
      <trkpt lat="48.8055" lon="2.25008">
        <ele>184</ele>
        <time>2015-06-07T13:48:54.458Z</time>
      </trkpt>
      <trkpt lat="48.80557" lon="2.25001">
        <ele>179</ele>
        <time>2015-06-07T13:49:01.464Z</time>
      </trkpt>
      <trkpt lat="48.80558" lon="2.25">
        <ele>177</ele>
        <time>2015-06-07T13:49:02.457Z</time>
      </trkpt>
      <trkpt lat="48.80565" lon="2.24993">
        <ele>179</ele>
        <time>2015-06-07T13:49:10.457Z</time>
      </trkpt>
      <trkpt lat="48.80566" lon="2.24993">
        <ele>180</ele>
        <time>2015-06-07T13:49:11.487Z</time>
      </trkpt>
      <trkpt lat="48.80573" lon="2.24987">
        <ele>175</ele>
        <time>2015-06-07T13:49:17.599Z</time>
      </trkpt>
      <trkpt lat="48.80575" lon="2.24986">
        <ele>175</ele>
        <time>2015-06-07T13:49:18.458Z</time>
      </trkpt>
      <trkpt lat="48.80582" lon="2.2498">
        <ele>177</ele>
        <time>2015-06-07T13:49:23.454Z</time>
      </trkpt>
      <trkpt lat="48.80583" lon="2.24979">
        <ele>176</ele>
        <time>2015-06-07T13:49:24.483Z</time>
      </trkpt>
      <trkpt lat="48.8059" lon="2.24972">
        <ele>177</ele>
        <time>2015-06-07T13:49:31.520Z</time>
      </trkpt>
      <trkpt lat="48.80592" lon="2.24972">
        <ele>177</ele>
        <time>2015-06-07T13:49:32.484Z</time>
      </trkpt>
      <trkpt lat="48.80597" lon="2.24961">
        <ele>173</ele>
        <time>2015-06-07T13:50:01.233Z</time>
      </trkpt>
      <trkpt lat="48.80597" lon="2.24961">
        <ele>172</ele>
        <time>2015-06-07T13:50:01.456Z</time>
      </trkpt>
      <trkpt lat="48.80605" lon="2.24955">
        <ele>174</ele>
        <time>2015-06-07T13:50:11.458Z</time>
      </trkpt>
      <trkpt lat="48.80606" lon="2.24954">
        <ele>174</ele>
        <time>2015-06-07T13:50:12.456Z</time>
      </trkpt>
      <trkpt lat="48.80613" lon="2.24948">
        <ele>174</ele>
        <time>2015-06-07T13:50:18.919Z</time>
      </trkpt>
      <trkpt lat="48.80614" lon="2.24947">
        <ele>174</ele>
        <time>2015-06-07T13:50:19.459Z</time>
      </trkpt>
      <trkpt lat="48.80621" lon="2.2494">
        <ele>173</ele>
        <time>2015-06-07T13:50:26.463Z</time>
      </trkpt>
      <trkpt lat="48.80622" lon="2.24939">
        <ele>173</ele>
        <time>2015-06-07T13:50:27.488Z</time>
      </trkpt>
      <trkpt lat="48.8063" lon="2.24933">
        <ele>173</ele>
        <time>2015-06-07T13:50:34.524Z</time>
      </trkpt>
      <trkpt lat="48.80631" lon="2.24932">
        <ele>173</ele>
        <time>2015-06-07T13:50:35.529Z</time>
      </trkpt>
      <trkpt lat="48.80638" lon="2.24924">
        <ele>166</ele>
        <time>2015-06-07T13:50:44.227Z</time>
      </trkpt>
      <trkpt lat="48.80639" lon="2.24923">
        <ele>166</ele>
        <time>2015-06-07T13:50:44.599Z</time>
      </trkpt>
      <trkpt lat="48.80647" lon="2.24921">
        <ele>168</ele>
        <time>2015-06-07T13:50:52.483Z</time>
      </trkpt>
      <trkpt lat="48.80648" lon="2.24921">
        <ele>167</ele>
        <time>2015-06-07T13:50:53.493Z</time>
      </trkpt>
      <trkpt lat="48.80656" lon="2.24917">
        <ele>167</ele>
        <time>2015-06-07T13:51:02.542Z</time>
      </trkpt>
      <trkpt lat="48.80657" lon="2.24916">
        <ele>167</ele>
        <time>2015-06-07T13:51:03.493Z</time>
      </trkpt>
      <trkpt lat="48.80664" lon="2.24908">
        <ele>164</ele>
        <time>2015-06-07T13:51:11.492Z</time>
      </trkpt>
      <trkpt lat="48.80666" lon="2.24908">
        <ele>165</ele>
        <time>2015-06-07T13:51:12.481Z</time>
      </trkpt>
      <trkpt lat="48.80674" lon="2.24903">
        <ele>166</ele>
        <time>2015-06-07T13:51:18.454Z</time>
      </trkpt>
      <trkpt lat="48.80675" lon="2.24903">
        <ele>165</ele>
        <time>2015-06-07T13:51:19.498Z</time>
      </trkpt>
      <trkpt lat="48.80683" lon="2.24897">
        <ele>165</ele>
        <time>2015-06-07T13:51:26.487Z</time>
      </trkpt>
      <trkpt lat="48.80684" lon="2.24896">
        <ele>165</ele>
        <time>2015-06-07T13:51:27.491Z</time>
      </trkpt>
      <trkpt lat="48.80691" lon="2.24891">
        <ele>167</ele>
        <time>2015-06-07T13:51:34.199Z</time>
      </trkpt>
      <trkpt lat="48.80692" lon="2.24891">
        <ele>167</ele>
        <time>2015-06-07T13:51:34.455Z</time>
      </trkpt>
      <trkpt lat="48.807" lon="2.24886">
        <ele>164</ele>
        <time>2015-06-07T13:51:40.505Z</time>
      </trkpt>
      <trkpt lat="48.80701" lon="2.24885">
        <ele>164</ele>
        <time>2015-06-07T13:51:41.497Z</time>
      </trkpt>
      <trkpt lat="48.80709" lon="2.24882">
        <ele>165</ele>
        <time>2015-06-07T13:51:49.684Z</time>
      </trkpt>
      <trkpt lat="48.80711" lon="2.24882">
        <ele>165</ele>
        <time>2015-06-07T13:51:50.496Z</time>
      </trkpt>
      <trkpt lat="48.80719" lon="2.24877">
        <ele>163</ele>
        <time>2015-06-07T13:51:56.455Z</time>
      </trkpt>
      <trkpt lat="48.8072" lon="2.24875">
        <ele>162</ele>
        <time>2015-06-07T13:51:57.473Z</time>
      </trkpt>
      <trkpt lat="48.80726" lon="2.24868">
        <ele>159</ele>
        <time>2015-06-07T13:52:03.502Z</time>
      </trkpt>
      <trkpt lat="48.80727" lon="2.24868">
        <ele>159</ele>
        <time>2015-06-07T13:52:04.462Z</time>
      </trkpt>
      <trkpt lat="48.80735" lon="2.24862">
        <ele>158</ele>
        <time>2015-06-07T13:52:11.460Z</time>
      </trkpt>
      <trkpt lat="48.80736" lon="2.24861">
        <ele>158</ele>
        <time>2015-06-07T13:52:12.527Z</time>
      </trkpt>
      <trkpt lat="48.80743" lon="2.24854">
        <ele>158</ele>
        <time>2015-06-07T13:52:19.481Z</time>
      </trkpt>
      <trkpt lat="48.80744" lon="2.24852">
        <ele>159</ele>
        <time>2015-06-07T13:52:20.482Z</time>
      </trkpt>
      <trkpt lat="48.8075" lon="2.24843">
        <ele>157</ele>
        <time>2015-06-07T13:52:30.475Z</time>
      </trkpt>
      <trkpt lat="48.8075" lon="2.24843">
        <ele>157</ele>
        <time>2015-06-07T13:52:31.468Z</time>
      </trkpt>
      <trkpt lat="48.80754" lon="2.24831">
        <ele>156</ele>
        <time>2015-06-07T13:52:45.457Z</time>
      </trkpt>
      <trkpt lat="48.80755" lon="2.2483">
        <ele>156</ele>
        <time>2015-06-07T13:52:46.454Z</time>
      </trkpt>
      <trkpt lat="48.80763" lon="2.24826">
        <ele>158</ele>
        <time>2015-06-07T13:53:01.828Z</time>
      </trkpt>
      <trkpt lat="48.80764" lon="2.24826">
        <ele>158</ele>
        <time>2015-06-07T13:53:02.454Z</time>
      </trkpt>
      <trkpt lat="48.80772" lon="2.24824">
        <ele>157</ele>
        <time>2015-06-07T13:53:10.462Z</time>
      </trkpt>
      <trkpt lat="48.80774" lon="2.24825">
        <ele>157</ele>
        <time>2015-06-07T13:53:11.470Z</time>
      </trkpt>
      <trkpt lat="48.80782" lon="2.24822">
        <ele>160</ele>
        <time>2015-06-07T13:53:18.455Z</time>
      </trkpt>
      <trkpt lat="48.80784" lon="2.24821">
        <ele>160</ele>
        <time>2015-06-07T13:53:19.463Z</time>
      </trkpt>
      <trkpt lat="48.80792" lon="2.2482">
        <ele>156</ele>
        <time>2015-06-07T13:53:26.466Z</time>
      </trkpt>
      <trkpt lat="48.80793" lon="2.24821">
        <ele>156</ele>
        <time>2015-06-07T13:53:27.462Z</time>
      </trkpt>
      <trkpt lat="48.80802" lon="2.24824">
        <ele>161</ele>
        <time>2015-06-07T13:53:33.456Z</time>
      </trkpt>
      <trkpt lat="48.80803" lon="2.24823">
        <ele>160</ele>
        <time>2015-06-07T13:53:34.456Z</time>
      </trkpt>
      <trkpt lat="48.8081" lon="2.24818">
        <ele>158</ele>
        <time>2015-06-07T13:53:56.513Z</time>
      </trkpt>
      <trkpt lat="48.80811" lon="2.24817">
        <ele>159</ele>
        <time>2015-06-07T13:53:57.572Z</time>
      </trkpt>
      <trkpt lat="48.80818" lon="2.24813">
        <ele>160</ele>
        <time>2015-06-07T13:54:01.655Z</time>
      </trkpt>
      <trkpt lat="48.8082" lon="2.24812">
        <ele>158</ele>
        <time>2015-06-07T13:54:02.571Z</time>
      </trkpt>
      <trkpt lat="48.80828" lon="2.2481">
        <ele>156</ele>
        <time>2015-06-07T13:54:06.468Z</time>
      </trkpt>
      <trkpt lat="48.8083" lon="2.2481">
        <ele>156</ele>
        <time>2015-06-07T13:54:07.571Z</time>
      </trkpt>
      <trkpt lat="48.80839" lon="2.24808">
        <ele>156</ele>
        <time>2015-06-07T13:54:13.201Z</time>
      </trkpt>
      <trkpt lat="48.8084" lon="2.24808">
        <ele>154</ele>
        <time>2015-06-07T13:54:13.605Z</time>
      </trkpt>
      <trkpt lat="48.80848" lon="2.24804">
        <ele>156</ele>
        <time>2015-06-07T13:54:18.532Z</time>
      </trkpt>
      <trkpt lat="48.8085" lon="2.24803">
        <ele>157</ele>
        <time>2015-06-07T13:54:19.566Z</time>
      </trkpt>
      <trkpt lat="48.80858" lon="2.248">
        <ele>158</ele>
        <time>2015-06-07T13:54:24.547Z</time>
      </trkpt>
      <trkpt lat="48.80859" lon="2.248">
        <ele>156</ele>
        <time>2015-06-07T13:54:25.498Z</time>
      </trkpt>
      <trkpt lat="48.80867" lon="2.24796">
        <ele>157</ele>
        <time>2015-06-07T13:54:30.595Z</time>
      </trkpt>
      <trkpt lat="48.80869" lon="2.24795">
        <ele>157</ele>
        <time>2015-06-07T13:54:31.498Z</time>
      </trkpt>
      <trkpt lat="48.80876" lon="2.24792">
        <ele>160</ele>
        <time>2015-06-07T13:54:38.751Z</time>
      </trkpt>
      <trkpt lat="48.80877" lon="2.24791">
        <ele>159</ele>
        <time>2015-06-07T13:54:39.511Z</time>
      </trkpt>
      <trkpt lat="48.80885" lon="2.24787">
        <ele>162</ele>
        <time>2015-06-07T13:54:46.640Z</time>
      </trkpt>
      <trkpt lat="48.80887" lon="2.24787">
        <ele>163</ele>
        <time>2015-06-07T13:54:47.556Z</time>
      </trkpt>
      <trkpt lat="48.80895" lon="2.24787">
        <ele>161</ele>
        <time>2015-06-07T13:54:55.506Z</time>
      </trkpt>
      <trkpt lat="48.80896" lon="2.24786">
        <ele>161</ele>
        <time>2015-06-07T13:54:56.571Z</time>
      </trkpt>
      <trkpt lat="48.80903" lon="2.2478">
        <ele>154</ele>
        <time>2015-06-07T13:55:05.530Z</time>
      </trkpt>
      <trkpt lat="48.80905" lon="2.24781">
        <ele>155</ele>
        <time>2015-06-07T13:55:06.510Z</time>
      </trkpt>
      <trkpt lat="48.80913" lon="2.24781">
        <ele>155</ele>
        <time>2015-06-07T13:55:13.036Z</time>
      </trkpt>
      <trkpt lat="48.80915" lon="2.24781">
        <ele>154</ele>
        <time>2015-06-07T13:55:13.531Z</time>
      </trkpt>
      <trkpt lat="48.80923" lon="2.24783">
        <ele>149</ele>
        <time>2015-06-07T13:55:18.503Z</time>
      </trkpt>
      <trkpt lat="48.80925" lon="2.24783">
        <ele>150</ele>
        <time>2015-06-07T13:55:19.482Z</time>
      </trkpt>
      <trkpt lat="48.80934" lon="2.24784">
        <ele>151</ele>
        <time>2015-06-07T13:55:25.498Z</time>
      </trkpt>
      <trkpt lat="48.80935" lon="2.24783">
        <ele>150</ele>
        <time>2015-06-07T13:55:26.499Z</time>
      </trkpt>
      <trkpt lat="48.80944" lon="2.2478">
        <ele>151</ele>
        <time>2015-06-07T13:55:32.454Z</time>
      </trkpt>
      <trkpt lat="48.80945" lon="2.2478">
        <ele>151</ele>
        <time>2015-06-07T13:55:33.455Z</time>
      </trkpt>
      <trkpt lat="48.80953" lon="2.2478">
        <ele>150</ele>
        <time>2015-06-07T13:55:39.457Z</time>
      </trkpt>
      <trkpt lat="48.80955" lon="2.24781">
        <ele>150</ele>
        <time>2015-06-07T13:55:40.531Z</time>
      </trkpt>
      <trkpt lat="48.80963" lon="2.24784">
        <ele>148</ele>
        <time>2015-06-07T13:55:46.481Z</time>
      </trkpt>
      <trkpt lat="48.80965" lon="2.24784">
        <ele>147</ele>
        <time>2015-06-07T13:55:47.482Z</time>
      </trkpt>
      <trkpt lat="48.80972" lon="2.2478">
        <ele>145</ele>
        <time>2015-06-07T13:55:52.525Z</time>
      </trkpt>
      <trkpt lat="48.80973" lon="2.24779">
        <ele>145</ele>
        <time>2015-06-07T13:55:53.504Z</time>
      </trkpt>
      <trkpt lat="48.80981" lon="2.24777">
        <ele>146</ele>
        <time>2015-06-07T13:56:00.277Z</time>
      </trkpt>
      <trkpt lat="48.80982" lon="2.24777">
        <ele>146</ele>
        <time>2015-06-07T13:56:00.454Z</time>
      </trkpt>
      <trkpt lat="48.80991" lon="2.24775">
        <ele>145</ele>
        <time>2015-06-07T13:56:07.851Z</time>
      </trkpt>
      <trkpt lat="48.80992" lon="2.24774">
        <ele>144</ele>
        <time>2015-06-07T13:56:08.465Z</time>
      </trkpt>
      <trkpt lat="48.81001" lon="2.24771">
        <ele>147</ele>
        <time>2015-06-07T13:56:15.572Z</time>
      </trkpt>
      <trkpt lat="48.81002" lon="2.24771">
        <ele>149</ele>
        <time>2015-06-07T13:56:16.517Z</time>
      </trkpt>
      <trkpt lat="48.8101" lon="2.24766">
        <ele>142</ele>
        <time>2015-06-07T13:56:27.489Z</time>
      </trkpt>
      <trkpt lat="48.81011" lon="2.24766">
        <ele>142</ele>
        <time>2015-06-07T13:56:28.488Z</time>
      </trkpt>
      <trkpt lat="48.81019" lon="2.24762">
        <ele>142</ele>
        <time>2015-06-07T13:56:36.502Z</time>
      </trkpt>
      <trkpt lat="48.8102" lon="2.24761">
        <ele>142</ele>
        <time>2015-06-07T13:56:37.462Z</time>
      </trkpt>
      <trkpt lat="48.81025" lon="2.2475">
        <ele>140</ele>
        <time>2015-06-07T13:56:43.462Z</time>
      </trkpt>
      <trkpt lat="48.81026" lon="2.24749">
        <ele>139</ele>
        <time>2015-06-07T13:56:44.465Z</time>
      </trkpt>
      <trkpt lat="48.81033" lon="2.24742">
        <ele>135</ele>
        <time>2015-06-07T13:57:05.464Z</time>
      </trkpt>
      <trkpt lat="48.81034" lon="2.24743">
        <ele>135</ele>
        <time>2015-06-07T13:57:06.470Z</time>
      </trkpt>
      <trkpt lat="48.81042" lon="2.24745">
        <ele>131</ele>
        <time>2015-06-07T13:57:12.528Z</time>
      </trkpt>
      <trkpt lat="48.81043" lon="2.24744">
        <ele>132</ele>
        <time>2015-06-07T13:57:13.468Z</time>
      </trkpt>
      <trkpt lat="48.81052" lon="2.24744">
        <ele>131</ele>
        <time>2015-06-07T13:57:19.482Z</time>
      </trkpt>
      <trkpt lat="48.81053" lon="2.24744">
        <ele>131</ele>
        <time>2015-06-07T13:57:20.466Z</time>
      </trkpt>
      <trkpt lat="48.81061" lon="2.24743">
        <ele>134</ele>
        <time>2015-06-07T13:57:25.490Z</time>
      </trkpt>
      <trkpt lat="48.81062" lon="2.24744">
        <ele>134</ele>
        <time>2015-06-07T13:57:26.468Z</time>
      </trkpt>
      <trkpt lat="48.81071" lon="2.24743">
        <ele>134</ele>
        <time>2015-06-07T13:57:33.463Z</time>
      </trkpt>
      <trkpt lat="48.81072" lon="2.24743">
        <ele>134</ele>
        <time>2015-06-07T13:57:34.472Z</time>
      </trkpt>
      <trkpt lat="48.81081" lon="2.24742">
        <ele>136</ele>
        <time>2015-06-07T13:57:41.499Z</time>
      </trkpt>
      <trkpt lat="48.81083" lon="2.24742">
        <ele>136</ele>
        <time>2015-06-07T13:57:42.480Z</time>
      </trkpt>
      <trkpt lat="48.81091" lon="2.24742">
        <ele>135</ele>
        <time>2015-06-07T13:57:48.283Z</time>
      </trkpt>
      <trkpt lat="48.81092" lon="2.24741">
        <ele>134</ele>
        <time>2015-06-07T13:57:48.463Z</time>
      </trkpt>
      <trkpt lat="48.811" lon="2.24738">
        <ele>135</ele>
        <time>2015-06-07T13:57:54.521Z</time>
      </trkpt>
      <trkpt lat="48.81102" lon="2.24738">
        <ele>134</ele>
        <time>2015-06-07T13:57:55.466Z</time>
      </trkpt>
      <trkpt lat="48.81104" lon="2.24725">
        <ele>132</ele>
        <time>2015-06-07T13:58:04.467Z</time>
      </trkpt>
      <trkpt lat="48.81104" lon="2.24723">
        <ele>132</ele>
        <time>2015-06-07T13:58:05.469Z</time>
      </trkpt>
      <trkpt lat="48.81101" lon="2.2471">
        <ele>128</ele>
        <time>2015-06-07T13:58:12.467Z</time>
      </trkpt>
      <trkpt lat="48.811" lon="2.24708">
        <ele>128</ele>
        <time>2015-06-07T13:58:13.463Z</time>
      </trkpt>
      <trkpt lat="48.811" lon="2.24695">
        <ele>127</ele>
        <time>2015-06-07T13:58:20.480Z</time>
      </trkpt>
      <trkpt lat="48.811" lon="2.24694">
        <ele>126</ele>
        <time>2015-06-07T13:58:21.477Z</time>
      </trkpt>
      <trkpt lat="48.81099" lon="2.24681">
        <ele>127</ele>
        <time>2015-06-07T13:58:28.462Z</time>
      </trkpt>
      <trkpt lat="48.811" lon="2.24679">
        <ele>126</ele>
        <time>2015-06-07T13:58:29.469Z</time>
      </trkpt>
      <trkpt lat="48.81104" lon="2.24668">
        <ele>131</ele>
        <time>2015-06-07T13:58:37.528Z</time>
      </trkpt>
      <trkpt lat="48.81104" lon="2.24666">
        <ele>130</ele>
        <time>2015-06-07T13:58:38.469Z</time>
      </trkpt>
      <trkpt lat="48.81112" lon="2.24662">
        <ele>131</ele>
        <time>2015-06-07T13:58:50.530Z</time>
      </trkpt>
      <trkpt lat="48.81113" lon="2.2466">
        <ele>130</ele>
        <time>2015-06-07T13:58:51.463Z</time>
      </trkpt>
      <trkpt lat="48.81119" lon="2.24652">
        <ele>130</ele>
        <time>2015-06-07T13:59:00.917Z</time>
      </trkpt>
      <trkpt lat="48.81119" lon="2.2465">
        <ele>129</ele>
        <time>2015-06-07T13:59:01.469Z</time>
      </trkpt>
      <trkpt lat="48.81123" lon="2.24639">
        <ele>124</ele>
        <time>2015-06-07T13:59:15.461Z</time>
      </trkpt>
      <trkpt lat="48.81124" lon="2.24638">
        <ele>124</ele>
        <time>2015-06-07T13:59:16.497Z</time>
      </trkpt>
      <trkpt lat="48.81123" lon="2.24626">
        <ele>120</ele>
        <time>2015-06-07T13:59:27.469Z</time>
      </trkpt>
      <trkpt lat="48.81123" lon="2.24624">
        <ele>119</ele>
        <time>2015-06-07T13:59:28.470Z</time>
      </trkpt>
      <trkpt lat="48.81126" lon="2.24613">
        <ele>119</ele>
        <time>2015-06-07T13:59:43.702Z</time>
      </trkpt>
      <trkpt lat="48.81128" lon="2.2461">
        <ele>118</ele>
        <time>2015-06-07T13:59:44.982Z</time>
      </trkpt>
      <trkpt lat="48.81135" lon="2.24603">
        <ele>121</ele>
        <time>2015-06-07T13:59:51.462Z</time>
      </trkpt>
      <trkpt lat="48.81135" lon="2.24602">
        <ele>122</ele>
        <time>2015-06-07T13:59:52.504Z</time>
      </trkpt>
      <trkpt lat="48.81141" lon="2.24594">
        <ele>118</ele>
        <time>2015-06-07T14:00:00.462Z</time>
      </trkpt>
      <trkpt lat="48.81142" lon="2.24592">
        <ele>119</ele>
        <time>2015-06-07T14:00:01.462Z</time>
      </trkpt>
      <trkpt lat="48.81147" lon="2.24581">
        <ele>109</ele>
        <time>2015-06-07T14:00:09.482Z</time>
      </trkpt>
      <trkpt lat="48.81147" lon="2.2458">
        <ele>107</ele>
        <time>2015-06-07T14:00:10.468Z</time>
      </trkpt>
      <trkpt lat="48.81155" lon="2.24574">
        <ele>107</ele>
        <time>2015-06-07T14:00:19.711Z</time>
      </trkpt>
      <trkpt lat="48.81156" lon="2.24574">
        <ele>107</ele>
        <time>2015-06-07T14:00:20.463Z</time>
      </trkpt>
      <trkpt lat="48.81164" lon="2.24569">
        <ele>107</ele>
        <time>2015-06-07T14:00:29.465Z</time>
      </trkpt>
      <trkpt lat="48.81165" lon="2.24568">
        <ele>107</ele>
        <time>2015-06-07T14:00:30.469Z</time>
      </trkpt>
      <trkpt lat="48.81171" lon="2.24559">
        <ele>106</ele>
        <time>2015-06-07T14:00:39.469Z</time>
      </trkpt>
      <trkpt lat="48.81171" lon="2.24558">
        <ele>105</ele>
        <time>2015-06-07T14:00:40.462Z</time>
      </trkpt>
      <trkpt lat="48.81176" lon="2.24547">
        <ele>103</ele>
        <time>2015-06-07T14:00:49.614Z</time>
      </trkpt>
      <trkpt lat="48.81176" lon="2.24546">
        <ele>102</ele>
        <time>2015-06-07T14:00:50.477Z</time>
      </trkpt>
      <trkpt lat="48.81184" lon="2.24544">
        <ele>105</ele>
        <time>2015-06-07T14:01:00.467Z</time>
      </trkpt>
      <trkpt lat="48.81185" lon="2.24545">
        <ele>106</ele>
        <time>2015-06-07T14:01:01.469Z</time>
      </trkpt>
      <trkpt lat="48.81193" lon="2.2455">
        <ele>107</ele>
        <time>2015-06-07T14:01:09.467Z</time>
      </trkpt>
      <trkpt lat="48.81194" lon="2.24551">
        <ele>106</ele>
        <time>2015-06-07T14:01:10.462Z</time>
      </trkpt>
      <trkpt lat="48.81201" lon="2.24545">
        <ele>105</ele>
        <time>2015-06-07T14:01:18.462Z</time>
      </trkpt>
      <trkpt lat="48.81202" lon="2.24543">
        <ele>105</ele>
        <time>2015-06-07T14:01:19.469Z</time>
      </trkpt>
      <trkpt lat="48.8121" lon="2.24545">
        <ele>107</ele>
        <time>2015-06-07T14:01:26.489Z</time>
      </trkpt>
      <trkpt lat="48.81211" lon="2.24546">
        <ele>107</ele>
        <time>2015-06-07T14:01:27.462Z</time>
      </trkpt>
      <trkpt lat="48.81219" lon="2.2455">
        <ele>109</ele>
        <time>2015-06-07T14:01:33.468Z</time>
      </trkpt>
      <trkpt lat="48.8122" lon="2.24552">
        <ele>108</ele>
        <time>2015-06-07T14:01:34.468Z</time>
      </trkpt>
      <trkpt lat="48.81226" lon="2.24559">
        <ele>110</ele>
        <time>2015-06-07T14:01:40.465Z</time>
      </trkpt>
      <trkpt lat="48.81227" lon="2.2456">
        <ele>108</ele>
        <time>2015-06-07T14:01:41.475Z</time>
      </trkpt>
      <trkpt lat="48.81233" lon="2.24568">
        <ele>109</ele>
        <time>2015-06-07T14:01:48.630Z</time>
      </trkpt>
      <trkpt lat="48.81235" lon="2.2457">
        <ele>109</ele>
        <time>2015-06-07T14:01:49.465Z</time>
      </trkpt>
      <trkpt lat="48.81243" lon="2.24573">
        <ele>106</ele>
        <time>2015-06-07T14:01:55.465Z</time>
      </trkpt>
      <trkpt lat="48.81244" lon="2.24573">
        <ele>105</ele>
        <time>2015-06-07T14:01:56.473Z</time>
      </trkpt>
      <trkpt lat="48.81251" lon="2.24566">
        <ele>106</ele>
        <time>2015-06-07T14:02:02.518Z</time>
      </trkpt>
      <trkpt lat="48.81251" lon="2.24565">
        <ele>107</ele>
        <time>2015-06-07T14:02:03.511Z</time>
      </trkpt>
      <trkpt lat="48.81257" lon="2.24555">
        <ele>109</ele>
        <time>2015-06-07T14:02:13.530Z</time>
      </trkpt>
      <trkpt lat="48.81258" lon="2.24554">
        <ele>109</ele>
        <time>2015-06-07T14:02:14.667Z</time>
      </trkpt>
      <trkpt lat="48.81263" lon="2.24545">
        <ele>112</ele>
        <time>2015-06-07T14:02:20.462Z</time>
      </trkpt>
      <trkpt lat="48.81264" lon="2.24544">
        <ele>112</ele>
        <time>2015-06-07T14:02:21.506Z</time>
      </trkpt>
      <trkpt lat="48.81267" lon="2.24531">
        <ele>109</ele>
        <time>2015-06-07T14:02:28.544Z</time>
      </trkpt>
      <trkpt lat="48.81267" lon="2.24529">
        <ele>110</ele>
        <time>2015-06-07T14:02:29.501Z</time>
      </trkpt>
      <trkpt lat="48.81271" lon="2.24517">
        <ele>108</ele>
        <time>2015-06-07T14:02:36.941Z</time>
      </trkpt>
      <trkpt lat="48.81272" lon="2.24516">
        <ele>109</ele>
        <time>2015-06-07T14:02:37.462Z</time>
      </trkpt>
      <trkpt lat="48.81277" lon="2.24504">
        <ele>109</ele>
        <time>2015-06-07T14:02:45.465Z</time>
      </trkpt>
      <trkpt lat="48.81277" lon="2.24503">
        <ele>109</ele>
        <time>2015-06-07T14:02:46.473Z</time>
      </trkpt>
      <trkpt lat="48.81285" lon="2.24501">
        <ele>110</ele>
        <time>2015-06-07T14:02:52.467Z</time>
      </trkpt>
      <trkpt lat="48.81287" lon="2.24501">
        <ele>111</ele>
        <time>2015-06-07T14:02:53.467Z</time>
      </trkpt>
      <trkpt lat="48.81295" lon="2.24504">
        <ele>115</ele>
        <time>2015-06-07T14:02:58.466Z</time>
      </trkpt>
      <trkpt lat="48.81296" lon="2.24505">
        <ele>115</ele>
        <time>2015-06-07T14:02:59.477Z</time>
      </trkpt>
      <trkpt lat="48.813" lon="2.24515">
        <ele>115</ele>
        <time>2015-06-07T14:03:07.355Z</time>
      </trkpt>
      <trkpt lat="48.81301" lon="2.24517">
        <ele>115</ele>
        <time>2015-06-07T14:03:07.487Z</time>
      </trkpt>
      <trkpt lat="48.81308" lon="2.24523">
        <ele>110</ele>
        <time>2015-06-07T14:03:16.465Z</time>
      </trkpt>
      <trkpt lat="48.81309" lon="2.24524">
        <ele>109</ele>
        <time>2015-06-07T14:03:17.466Z</time>
      </trkpt>
      <trkpt lat="48.81314" lon="2.24532">
        <ele>112</ele>
        <time>2015-06-07T14:03:25.463Z</time>
      </trkpt>
      <trkpt lat="48.81316" lon="2.24533">
        <ele>112</ele>
        <time>2015-06-07T14:03:26.466Z</time>
      </trkpt>
      <trkpt lat="48.81323" lon="2.2454">
        <ele>111</ele>
        <time>2015-06-07T14:03:33.462Z</time>
      </trkpt>
      <trkpt lat="48.81324" lon="2.24541">
        <ele>111</ele>
        <time>2015-06-07T14:03:34.462Z</time>
      </trkpt>
      <trkpt lat="48.81333" lon="2.24544">
        <ele>111</ele>
        <time>2015-06-07T14:03:42.522Z</time>
      </trkpt>
      <trkpt lat="48.81334" lon="2.24543">
        <ele>111</ele>
        <time>2015-06-07T14:03:43.635Z</time>
      </trkpt>
      <trkpt lat="48.81339" lon="2.24533">
        <ele>110</ele>
        <time>2015-06-07T14:03:51.159Z</time>
      </trkpt>
      <trkpt lat="48.81339" lon="2.24531">
        <ele>110</ele>
        <time>2015-06-07T14:03:51.462Z</time>
      </trkpt>
      <trkpt lat="48.81345" lon="2.24522">
        <ele>109</ele>
        <time>2015-06-07T14:03:58.535Z</time>
      </trkpt>
      <trkpt lat="48.81345" lon="2.2452">
        <ele>109</ele>
        <time>2015-06-07T14:03:59.535Z</time>
      </trkpt>
      <trkpt lat="48.81351" lon="2.2451">
        <ele>112</ele>
        <time>2015-06-07T14:04:07.375Z</time>
      </trkpt>
      <trkpt lat="48.81352" lon="2.24509">
        <ele>113</ele>
        <time>2015-06-07T14:04:07.492Z</time>
      </trkpt>
      <trkpt lat="48.81355" lon="2.24498">
        <ele>111</ele>
        <time>2015-06-07T14:04:14.479Z</time>
      </trkpt>
      <trkpt lat="48.81356" lon="2.24496">
        <ele>111</ele>
        <time>2015-06-07T14:04:15.465Z</time>
      </trkpt>
      <trkpt lat="48.81362" lon="2.24486">
        <ele>112</ele>
        <time>2015-06-07T14:04:23.465Z</time>
      </trkpt>
      <trkpt lat="48.81362" lon="2.24485">
        <ele>113</ele>
        <time>2015-06-07T14:04:24.498Z</time>
      </trkpt>
      <trkpt lat="48.81367" lon="2.24475">
        <ele>113</ele>
        <time>2015-06-07T14:04:31.475Z</time>
      </trkpt>
      <trkpt lat="48.81367" lon="2.24473">
        <ele>113</ele>
        <time>2015-06-07T14:04:32.559Z</time>
      </trkpt>
      <trkpt lat="48.8137" lon="2.24461">
        <ele>114</ele>
        <time>2015-06-07T14:04:41.628Z</time>
      </trkpt>
      <trkpt lat="48.8137" lon="2.2446">
        <ele>113</ele>
        <time>2015-06-07T14:04:42.489Z</time>
      </trkpt>
      <trkpt lat="48.81372" lon="2.24447">
        <ele>114</ele>
        <time>2015-06-07T14:04:51.854Z</time>
      </trkpt>
      <trkpt lat="48.81372" lon="2.24446">
        <ele>114</ele>
        <time>2015-06-07T14:04:52.498Z</time>
      </trkpt>
      <trkpt lat="48.81376" lon="2.24435">
        <ele>115</ele>
        <time>2015-06-07T14:05:00.488Z</time>
      </trkpt>
      <trkpt lat="48.81377" lon="2.24434">
        <ele>116</ele>
        <time>2015-06-07T14:05:01.498Z</time>
      </trkpt>
      <trkpt lat="48.81382" lon="2.24425">
        <ele>118</ele>
        <time>2015-06-07T14:05:07.939Z</time>
      </trkpt>
      <trkpt lat="48.81383" lon="2.24423">
        <ele>118</ele>
        <time>2015-06-07T14:05:08.537Z</time>
      </trkpt>
      <trkpt lat="48.81388" lon="2.24412">
        <ele>122</ele>
        <time>2015-06-07T14:05:18.498Z</time>
      </trkpt>
      <trkpt lat="48.81388" lon="2.24411">
        <ele>123</ele>
        <time>2015-06-07T14:05:19.592Z</time>
      </trkpt>
      <trkpt lat="48.81392" lon="2.24399">
        <ele>126</ele>
        <time>2015-06-07T14:05:29.546Z</time>
      </trkpt>
      <trkpt lat="48.81392" lon="2.24398">
        <ele>126</ele>
        <time>2015-06-07T14:05:30.543Z</time>
      </trkpt>
      <trkpt lat="48.81394" lon="2.24385">
        <ele>124</ele>
        <time>2015-06-07T14:05:39.575Z</time>
      </trkpt>
      <trkpt lat="48.81394" lon="2.24383">
        <ele>125</ele>
        <time>2015-06-07T14:05:40.531Z</time>
      </trkpt>
      <trkpt lat="48.81396" lon="2.2437">
        <ele>120</ele>
        <time>2015-06-07T14:05:50.475Z</time>
      </trkpt>
      <trkpt lat="48.81396" lon="2.24369">
        <ele>118</ele>
        <time>2015-06-07T14:05:51.465Z</time>
      </trkpt>
      <trkpt lat="48.81398" lon="2.24356">
        <ele>120</ele>
        <time>2015-06-07T14:05:59.469Z</time>
      </trkpt>
      <trkpt lat="48.81398" lon="2.24354">
        <ele>120</ele>
        <time>2015-06-07T14:06:00.483Z</time>
      </trkpt>
      <trkpt lat="48.81401" lon="2.24342">
        <ele>125</ele>
        <time>2015-06-07T14:06:08.489Z</time>
      </trkpt>
      <trkpt lat="48.81401" lon="2.24341">
        <ele>124</ele>
        <time>2015-06-07T14:06:09.757Z</time>
      </trkpt>
      <trkpt lat="48.81407" lon="2.24331">
        <ele>128</ele>
        <time>2015-06-07T14:06:24.464Z</time>
      </trkpt>
      <trkpt lat="48.81408" lon="2.24329">
        <ele>127</ele>
        <time>2015-06-07T14:06:25.474Z</time>
      </trkpt>
      <trkpt lat="48.81411" lon="2.24317">
        <ele>125</ele>
        <time>2015-06-07T14:06:31.464Z</time>
      </trkpt>
      <trkpt lat="48.81411" lon="2.24315">
        <ele>125</ele>
        <time>2015-06-07T14:06:32.462Z</time>
      </trkpt>
      <trkpt lat="48.81418" lon="2.24307">
        <ele>127</ele>
        <time>2015-06-07T14:06:44.466Z</time>
      </trkpt>
      <trkpt lat="48.81418" lon="2.24306">
        <ele>126</ele>
        <time>2015-06-07T14:06:45.469Z</time>
      </trkpt>
      <trkpt lat="48.81426" lon="2.24311">
        <ele>131</ele>
        <time>2015-06-07T14:07:04.499Z</time>
      </trkpt>
      <trkpt lat="48.81427" lon="2.2431">
        <ele>131</ele>
        <time>2015-06-07T14:07:05.466Z</time>
      </trkpt>
      <trkpt lat="48.81427" lon="2.2431">
        <ele>131</ele>
        <time>2015-06-07T14:07:06.097Z</time>
      </trkpt>
    </trkseg>
  </trk>
</gpx>